<?xml version="1.0" encoding="UTF-8" standalone="no" ?>
<gpx xmlns="http://www.topografix.com/GPX/1/1" xmlns:xsi="http://www.w3.org/2001/XMLSchema-instance" xsi:schemaLocation="http://www.topografix.com/GPX/1/1 http://www.topografix.com/GPX/1/1/gpx.xsd" version="1.1" creator="VisuGPX - https://www.visugpx.com">
  <metadata>
    <name>De La Cadière d'Azur jusqu'aux calanques du Mugel et de Figuerolles </name>
    <desc><![CDATA[Au départ de la Cadière d%u2019Azur, direction la Ciotat par des petites chemins. Vous suivrez ensuite le front de mer, du port de St Jean jusqu'au vieux port puis accèderez aux superbes calanques du Mugel et de Figuerolles. Une petite ascension du chemin du sémaphore à 144 m d'altitude vous permettra d'avoir une vue splendide de la Ciotat et de son golfe d'amour. L%u2019été, vous pourrez visiter la chapelle Notre Dame de la Garde, construite par la confrérie des Pénitents Bleus en 1610. Elle est décorée des plus beaux ex-voto marins de Provence. Réalisé en vélo électrique location Var Ouest E-Bike]]></desc>
  </metadata>
  <trk>
    <name><![CDATA[La Ciotat Calanques du Mugel et de Figuerolles E-Bike]]></name>
    <trkseg>
      <trkpt lat="43.1959" lon="5.7573">
        <ele>139.19999694824</ele>
        <time>2016-05-16T14:26:31.000Z</time>
      </trkpt>
      <trkpt lat="43.19586" lon="5.75737">
        <ele>137.80000305176</ele>
        <time>2016-05-16T14:26:48.000Z</time>
      </trkpt>
      <trkpt lat="43.19576" lon="5.75752">
        <ele>134.39999389648</ele>
        <time>2016-05-16T14:26:50.000Z</time>
      </trkpt>
      <trkpt lat="43.1957" lon="5.75758">
        <ele>132.80000305176</ele>
        <time>2016-05-16T14:26:51.000Z</time>
      </trkpt>
      <trkpt lat="43.19557" lon="5.75772">
        <ele>129.39999389648</ele>
        <time>2016-05-16T14:26:54.000Z</time>
      </trkpt>
      <trkpt lat="43.1955" lon="5.75778">
        <ele>128.39999389648</ele>
        <time>2016-05-16T14:26:57.000Z</time>
      </trkpt>
      <trkpt lat="43.19549" lon="5.7578">
        <ele>128.39999389648</ele>
        <time>2016-05-16T14:26:58.000Z</time>
      </trkpt>
      <trkpt lat="43.19548" lon="5.75783">
        <ele>128.19999694824</ele>
        <time>2016-05-16T14:26:59.000Z</time>
      </trkpt>
      <trkpt lat="43.19545" lon="5.75794">
        <ele>127.80000305176</ele>
        <time>2016-05-16T14:27:01.000Z</time>
      </trkpt>
      <trkpt lat="43.19545" lon="5.758">
        <ele>127.59999847412</ele>
        <time>2016-05-16T14:27:02.000Z</time>
      </trkpt>
      <trkpt lat="43.19544" lon="5.75815">
        <ele>126.80000305176</ele>
        <time>2016-05-16T14:27:05.000Z</time>
      </trkpt>
      <trkpt lat="43.1954" lon="5.7583">
        <ele>125.40000152588</ele>
        <time>2016-05-16T14:27:08.000Z</time>
      </trkpt>
      <trkpt lat="43.19526" lon="5.75853">
        <ele>122.59999847412</ele>
        <time>2016-05-16T14:27:12.000Z</time>
      </trkpt>
      <trkpt lat="43.19513" lon="5.75873">
        <ele>120</ele>
        <time>2016-05-16T14:27:15.000Z</time>
      </trkpt>
      <trkpt lat="43.19504" lon="5.75887">
        <ele>117.59999847412</ele>
        <time>2016-05-16T14:27:17.000Z</time>
      </trkpt>
      <trkpt lat="43.19499" lon="5.75894">
        <ele>116.80000305176</ele>
        <time>2016-05-16T14:27:18.000Z</time>
      </trkpt>
      <trkpt lat="43.19495" lon="5.75899">
        <ele>116</ele>
        <time>2016-05-16T14:27:19.000Z</time>
      </trkpt>
      <trkpt lat="43.19492" lon="5.75902">
        <ele>115.19999694824</ele>
        <time>2016-05-16T14:27:20.000Z</time>
      </trkpt>
      <trkpt lat="43.19487" lon="5.75902">
        <ele>114.40000152588</ele>
        <time>2016-05-16T14:27:21.000Z</time>
      </trkpt>
      <trkpt lat="43.19474" lon="5.75899">
        <ele>112.19999694824</ele>
        <time>2016-05-16T14:27:23.000Z</time>
      </trkpt>
      <trkpt lat="43.19469" lon="5.75897">
        <ele>111.19999694824</ele>
        <time>2016-05-16T14:27:24.000Z</time>
      </trkpt>
      <trkpt lat="43.19464" lon="5.75893">
        <ele>110.40000152588</ele>
        <time>2016-05-16T14:27:25.000Z</time>
      </trkpt>
      <trkpt lat="43.19456" lon="5.75882">
        <ele>109.59999847412</ele>
        <time>2016-05-16T14:27:28.000Z</time>
      </trkpt>
      <trkpt lat="43.19456" lon="5.7588">
        <ele>109.80000305176</ele>
        <time>2016-05-16T14:27:29.000Z</time>
      </trkpt>
      <trkpt lat="43.19455" lon="5.75874">
        <ele>110</ele>
        <time>2016-05-16T14:27:31.000Z</time>
      </trkpt>
      <trkpt lat="43.19453" lon="5.75866">
        <ele>110.19999694824</ele>
        <time>2016-05-16T14:27:33.000Z</time>
      </trkpt>
      <trkpt lat="43.19452" lon="5.75853">
        <ele>111.19999694824</ele>
        <time>2016-05-16T14:27:36.000Z</time>
      </trkpt>
      <trkpt lat="43.19452" lon="5.75821">
        <ele>113.80000305176</ele>
        <time>2016-05-16T14:27:43.000Z</time>
      </trkpt>
      <trkpt lat="43.19457" lon="5.7579">
        <ele>115.59999847412</ele>
        <time>2016-05-16T14:27:50.000Z</time>
      </trkpt>
      <trkpt lat="43.1946" lon="5.75782">
        <ele>116.19999694824</ele>
        <time>2016-05-16T14:27:52.000Z</time>
      </trkpt>
      <trkpt lat="43.19465" lon="5.75767">
        <ele>117.19999694824</ele>
        <time>2016-05-16T14:27:56.000Z</time>
      </trkpt>
      <trkpt lat="43.19467" lon="5.75762">
        <ele>117.59999847412</ele>
        <time>2016-05-16T14:27:57.000Z</time>
      </trkpt>
      <trkpt lat="43.19475" lon="5.75739">
        <ele>119</ele>
        <time>2016-05-16T14:28:02.000Z</time>
      </trkpt>
      <trkpt lat="43.19476" lon="5.75735">
        <ele>119.19999694824</ele>
        <time>2016-05-16T14:28:03.000Z</time>
      </trkpt>
      <trkpt lat="43.19479" lon="5.75711">
        <ele>120.19999694824</ele>
        <time>2016-05-16T14:28:08.000Z</time>
      </trkpt>
      <trkpt lat="43.19479" lon="5.75706">
        <ele>120.40000152588</ele>
        <time>2016-05-16T14:28:09.000Z</time>
      </trkpt>
      <trkpt lat="43.19477" lon="5.75684">
        <ele>120.80000305176</ele>
        <time>2016-05-16T14:28:14.000Z</time>
      </trkpt>
      <trkpt lat="43.19476" lon="5.75679">
        <ele>120.80000305176</ele>
        <time>2016-05-16T14:28:15.000Z</time>
      </trkpt>
      <trkpt lat="43.19472" lon="5.75666">
        <ele>120.59999847412</ele>
        <time>2016-05-16T14:28:18.000Z</time>
      </trkpt>
      <trkpt lat="43.1947" lon="5.75652">
        <ele>120.59999847412</ele>
        <time>2016-05-16T14:28:21.000Z</time>
      </trkpt>
      <trkpt lat="43.1947" lon="5.75625">
        <ele>121.19999694824</ele>
        <time>2016-05-16T14:28:27.000Z</time>
      </trkpt>
      <trkpt lat="43.19474" lon="5.75608">
        <ele>122.19999694824</ele>
        <time>2016-05-16T14:28:31.000Z</time>
      </trkpt>
      <trkpt lat="43.19477" lon="5.756">
        <ele>123</ele>
        <time>2016-05-16T14:28:33.000Z</time>
      </trkpt>
      <trkpt lat="43.19482" lon="5.75588">
        <ele>124</ele>
        <time>2016-05-16T14:28:36.000Z</time>
      </trkpt>
      <trkpt lat="43.1949" lon="5.75574">
        <ele>125.40000152588</ele>
        <time>2016-05-16T14:28:39.000Z</time>
      </trkpt>
      <trkpt lat="43.19495" lon="5.7556">
        <ele>126.40000152588</ele>
        <time>2016-05-16T14:28:42.000Z</time>
      </trkpt>
      <trkpt lat="43.19499" lon="5.75546">
        <ele>127.40000152588</ele>
        <time>2016-05-16T14:28:45.000Z</time>
      </trkpt>
      <trkpt lat="43.19501" lon="5.75535">
        <ele>128</ele>
        <time>2016-05-16T14:28:47.000Z</time>
      </trkpt>
      <trkpt lat="43.19504" lon="5.75511">
        <ele>128.60000610352</ele>
        <time>2016-05-16T14:28:51.000Z</time>
      </trkpt>
      <trkpt lat="43.19504" lon="5.75504">
        <ele>128.80000305176</ele>
        <time>2016-05-16T14:28:52.000Z</time>
      </trkpt>
      <trkpt lat="43.19506" lon="5.75492">
        <ele>129</ele>
        <time>2016-05-16T14:28:54.000Z</time>
      </trkpt>
      <trkpt lat="43.19506" lon="5.75486">
        <ele>129.19999694824</ele>
        <time>2016-05-16T14:28:55.000Z</time>
      </trkpt>
      <trkpt lat="43.19512" lon="5.75446">
        <ele>131.39999389648</ele>
        <time>2016-05-16T14:29:02.000Z</time>
      </trkpt>
      <trkpt lat="43.19515" lon="5.75423">
        <ele>132.80000305176</ele>
        <time>2016-05-16T14:29:06.000Z</time>
      </trkpt>
      <trkpt lat="43.19515" lon="5.75418">
        <ele>133.19999694824</ele>
        <time>2016-05-16T14:29:07.000Z</time>
      </trkpt>
      <trkpt lat="43.19517" lon="5.75401">
        <ele>134.39999389648</ele>
        <time>2016-05-16T14:29:10.000Z</time>
      </trkpt>
      <trkpt lat="43.19518" lon="5.75387">
        <ele>135.19999694824</ele>
        <time>2016-05-16T14:29:12.000Z</time>
      </trkpt>
      <trkpt lat="43.19521" lon="5.7537">
        <ele>135.39999389648</ele>
        <time>2016-05-16T14:29:15.000Z</time>
      </trkpt>
      <trkpt lat="43.19521" lon="5.75364">
        <ele>135.60000610352</ele>
        <time>2016-05-16T14:29:16.000Z</time>
      </trkpt>
      <trkpt lat="43.19522" lon="5.75358">
        <ele>135.60000610352</ele>
        <time>2016-05-16T14:29:17.000Z</time>
      </trkpt>
      <trkpt lat="43.19523" lon="5.75346">
        <ele>135.60000610352</ele>
        <time>2016-05-16T14:29:19.000Z</time>
      </trkpt>
      <trkpt lat="43.19526" lon="5.75323">
        <ele>136</ele>
        <time>2016-05-16T14:29:23.000Z</time>
      </trkpt>
      <trkpt lat="43.19527" lon="5.75305">
        <ele>136.39999389648</ele>
        <time>2016-05-16T14:29:26.000Z</time>
      </trkpt>
      <trkpt lat="43.19529" lon="5.75281">
        <ele>136.39999389648</ele>
        <time>2016-05-16T14:29:30.000Z</time>
      </trkpt>
      <trkpt lat="43.19532" lon="5.75258">
        <ele>136.60000610352</ele>
        <time>2016-05-16T14:29:34.000Z</time>
      </trkpt>
      <trkpt lat="43.19534" lon="5.75245">
        <ele>136.60000610352</ele>
        <time>2016-05-16T14:29:36.000Z</time>
      </trkpt>
      <trkpt lat="43.19536" lon="5.75233">
        <ele>137.19999694824</ele>
        <time>2016-05-16T14:29:38.000Z</time>
      </trkpt>
      <trkpt lat="43.19537" lon="5.75221">
        <ele>137.80000305176</ele>
        <time>2016-05-16T14:29:40.000Z</time>
      </trkpt>
      <trkpt lat="43.19538" lon="5.75209">
        <ele>138.19999694824</ele>
        <time>2016-05-16T14:29:42.000Z</time>
      </trkpt>
      <trkpt lat="43.19549" lon="5.75189">
        <ele>141.19999694824</ele>
        <time>2016-05-16T14:29:46.000Z</time>
      </trkpt>
      <trkpt lat="43.19552" lon="5.75187">
        <ele>142</ele>
        <time>2016-05-16T14:29:47.000Z</time>
      </trkpt>
      <trkpt lat="43.19554" lon="5.75186">
        <ele>142.60000610352</ele>
        <time>2016-05-16T14:29:48.000Z</time>
      </trkpt>
      <trkpt lat="43.19558" lon="5.75188">
        <ele>143.60000610352</ele>
        <time>2016-05-16T14:29:50.000Z</time>
      </trkpt>
      <trkpt lat="43.1956" lon="5.7519">
        <ele>144.19999694824</ele>
        <time>2016-05-16T14:29:51.000Z</time>
      </trkpt>
      <trkpt lat="43.19563" lon="5.75195">
        <ele>145</ele>
        <time>2016-05-16T14:29:54.000Z</time>
      </trkpt>
      <trkpt lat="43.19564" lon="5.75197">
        <ele>145.19999694824</ele>
        <time>2016-05-16T14:29:55.000Z</time>
      </trkpt>
      <trkpt lat="43.19564" lon="5.752">
        <ele>145.19999694824</ele>
        <time>2016-05-16T14:29:56.000Z</time>
      </trkpt>
      <trkpt lat="43.19565" lon="5.75203">
        <ele>145.19999694824</ele>
        <time>2016-05-16T14:29:57.000Z</time>
      </trkpt>
      <trkpt lat="43.19567" lon="5.7523">
        <ele>145.60000610352</ele>
        <time>2016-05-16T14:30:02.000Z</time>
      </trkpt>
      <trkpt lat="43.1957" lon="5.75285">
        <ele>145.80000305176</ele>
        <time>2016-05-16T14:30:07.000Z</time>
      </trkpt>
      <trkpt lat="43.19569" lon="5.75295">
        <ele>146</ele>
        <time>2016-05-16T14:30:08.000Z</time>
      </trkpt>
      <trkpt lat="43.1957" lon="5.75303">
        <ele>146.19999694824</ele>
        <time>2016-05-16T14:30:09.000Z</time>
      </trkpt>
      <trkpt lat="43.19572" lon="5.75317">
        <ele>146.39999389648</ele>
        <time>2016-05-16T14:30:11.000Z</time>
      </trkpt>
      <trkpt lat="43.19575" lon="5.75325">
        <ele>146.80000305176</ele>
        <time>2016-05-16T14:30:12.000Z</time>
      </trkpt>
      <trkpt lat="43.19582" lon="5.75341">
        <ele>148.19999694824</ele>
        <time>2016-05-16T14:30:15.000Z</time>
      </trkpt>
      <trkpt lat="43.19588" lon="5.75349">
        <ele>149.39999389648</ele>
        <time>2016-05-16T14:30:17.000Z</time>
      </trkpt>
      <trkpt lat="43.19591" lon="5.75352">
        <ele>150</ele>
        <time>2016-05-16T14:30:18.000Z</time>
      </trkpt>
      <trkpt lat="43.19606" lon="5.75371">
        <ele>152.60000610352</ele>
        <time>2016-05-16T14:30:23.000Z</time>
      </trkpt>
      <trkpt lat="43.19612" lon="5.75378">
        <ele>153.80000305176</ele>
        <time>2016-05-16T14:30:25.000Z</time>
      </trkpt>
      <trkpt lat="43.19624" lon="5.75394">
        <ele>156.39999389648</ele>
        <time>2016-05-16T14:30:30.000Z</time>
      </trkpt>
      <trkpt lat="43.19628" lon="5.75399">
        <ele>157.39999389648</ele>
        <time>2016-05-16T14:30:32.000Z</time>
      </trkpt>
      <trkpt lat="43.19637" lon="5.75418">
        <ele>159.60000610352</ele>
        <time>2016-05-16T14:30:38.000Z</time>
      </trkpt>
      <trkpt lat="43.19644" lon="5.7546">
        <ele>160</ele>
        <time>2016-05-16T14:30:45.000Z</time>
      </trkpt>
      <trkpt lat="43.19642" lon="5.75471">
        <ele>159</ele>
        <time>2016-05-16T14:30:46.000Z</time>
      </trkpt>
      <trkpt lat="43.19638" lon="5.75517">
        <ele>156.39999389648</ele>
        <time>2016-05-16T14:30:51.000Z</time>
      </trkpt>
      <trkpt lat="43.19635" lon="5.75543">
        <ele>156.19999694824</ele>
        <time>2016-05-16T14:30:54.000Z</time>
      </trkpt>
      <trkpt lat="43.19634" lon="5.75597">
        <ele>152.60000610352</ele>
        <time>2016-05-16T14:31:02.000Z</time>
      </trkpt>
      <trkpt lat="43.19635" lon="5.75615">
        <ele>152.60000610352</ele>
        <time>2016-05-16T14:31:06.000Z</time>
      </trkpt>
      <trkpt lat="43.19639" lon="5.75621">
        <ele>153</ele>
        <time>2016-05-16T14:31:08.000Z</time>
      </trkpt>
      <trkpt lat="43.19642" lon="5.75627">
        <ele>153.39999389648</ele>
        <time>2016-05-16T14:31:10.000Z</time>
      </trkpt>
      <trkpt lat="43.19649" lon="5.75641">
        <ele>154</ele>
        <time>2016-05-16T14:31:14.000Z</time>
      </trkpt>
      <trkpt lat="43.19661" lon="5.75671">
        <ele>152.60000610352</ele>
        <time>2016-05-16T14:31:21.000Z</time>
      </trkpt>
      <trkpt lat="43.19679" lon="5.757">
        <ele>152</ele>
        <time>2016-05-16T14:31:28.000Z</time>
      </trkpt>
      <trkpt lat="43.19683" lon="5.75707">
        <ele>150.19999694824</ele>
        <time>2016-05-16T14:31:33.000Z</time>
      </trkpt>
      <trkpt lat="43.19691" lon="5.7571">
        <ele>147.60000610352</ele>
        <time>2016-05-16T14:31:52.000Z</time>
      </trkpt>
      <trkpt lat="43.19694" lon="5.75706">
        <ele>147.19999694824</ele>
        <time>2016-05-16T14:31:55.000Z</time>
      </trkpt>
      <trkpt lat="43.19706" lon="5.75684">
        <ele>146.39999389648</ele>
        <time>2016-05-16T14:32:01.000Z</time>
      </trkpt>
      <trkpt lat="43.19712" lon="5.7566">
        <ele>146.80000305176</ele>
        <time>2016-05-16T14:32:04.000Z</time>
      </trkpt>
      <trkpt lat="43.19715" lon="5.75651">
        <ele>146.39999389648</ele>
        <time>2016-05-16T14:32:05.000Z</time>
      </trkpt>
      <trkpt lat="43.19719" lon="5.7564">
        <ele>145.80000305176</ele>
        <time>2016-05-16T14:32:06.000Z</time>
      </trkpt>
      <trkpt lat="43.19728" lon="5.75617">
        <ele>144.80000305176</ele>
        <time>2016-05-16T14:32:08.000Z</time>
      </trkpt>
      <trkpt lat="43.19732" lon="5.75606">
        <ele>144.39999389648</ele>
        <time>2016-05-16T14:32:09.000Z</time>
      </trkpt>
      <trkpt lat="43.19736" lon="5.75596">
        <ele>144.39999389648</ele>
        <time>2016-05-16T14:32:10.000Z</time>
      </trkpt>
      <trkpt lat="43.19742" lon="5.75577">
        <ele>145</ele>
        <time>2016-05-16T14:32:12.000Z</time>
      </trkpt>
      <trkpt lat="43.19748" lon="5.75559">
        <ele>145.39999389648</ele>
        <time>2016-05-16T14:32:14.000Z</time>
      </trkpt>
      <trkpt lat="43.1975" lon="5.75551">
        <ele>145.39999389648</ele>
        <time>2016-05-16T14:32:15.000Z</time>
      </trkpt>
      <trkpt lat="43.19758" lon="5.75528">
        <ele>146.39999389648</ele>
        <time>2016-05-16T14:32:18.000Z</time>
      </trkpt>
      <trkpt lat="43.19763" lon="5.75517">
        <ele>146.80000305176</ele>
        <time>2016-05-16T14:32:20.000Z</time>
      </trkpt>
      <trkpt lat="43.19765" lon="5.75512">
        <ele>146.60000610352</ele>
        <time>2016-05-16T14:32:21.000Z</time>
      </trkpt>
      <trkpt lat="43.19769" lon="5.75504">
        <ele>146.19999694824</ele>
        <time>2016-05-16T14:32:24.000Z</time>
      </trkpt>
      <trkpt lat="43.19775" lon="5.75484">
        <ele>146.60000610352</ele>
        <time>2016-05-16T14:32:29.000Z</time>
      </trkpt>
      <trkpt lat="43.19778" lon="5.75457">
        <ele>148.19999694824</ele>
        <time>2016-05-16T14:32:34.000Z</time>
      </trkpt>
      <trkpt lat="43.1978" lon="5.75451">
        <ele>148.60000610352</ele>
        <time>2016-05-16T14:32:35.000Z</time>
      </trkpt>
      <trkpt lat="43.19784" lon="5.75413">
        <ele>151.19999694824</ele>
        <time>2016-05-16T14:32:41.000Z</time>
      </trkpt>
      <trkpt lat="43.19788" lon="5.75395">
        <ele>152.19999694824</ele>
        <time>2016-05-16T14:32:44.000Z</time>
      </trkpt>
      <trkpt lat="43.19791" lon="5.75378">
        <ele>152.80000305176</ele>
        <time>2016-05-16T14:32:47.000Z</time>
      </trkpt>
      <trkpt lat="43.19793" lon="5.75367">
        <ele>153</ele>
        <time>2016-05-16T14:32:49.000Z</time>
      </trkpt>
      <trkpt lat="43.19798" lon="5.75343">
        <ele>153.80000305176</ele>
        <time>2016-05-16T14:32:53.000Z</time>
      </trkpt>
      <trkpt lat="43.19802" lon="5.75323">
        <ele>154.39999389648</ele>
        <time>2016-05-16T14:32:56.000Z</time>
      </trkpt>
      <trkpt lat="43.19805" lon="5.75309">
        <ele>155.19999694824</ele>
        <time>2016-05-16T14:32:58.000Z</time>
      </trkpt>
      <trkpt lat="43.19811" lon="5.75277">
        <ele>154.60000610352</ele>
        <time>2016-05-16T14:33:02.000Z</time>
      </trkpt>
      <trkpt lat="43.19819" lon="5.75261">
        <ele>152.19999694824</ele>
        <time>2016-05-16T14:33:03.000Z</time>
      </trkpt>
      <trkpt lat="43.19836" lon="5.7522">
        <ele>147.80000305176</ele>
        <time>2016-05-16T14:33:06.000Z</time>
      </trkpt>
      <trkpt lat="43.19844" lon="5.75196">
        <ele>145.80000305176</ele>
        <time>2016-05-16T14:33:08.000Z</time>
      </trkpt>
      <trkpt lat="43.19854" lon="5.75162">
        <ele>144</ele>
        <time>2016-05-16T14:33:11.000Z</time>
      </trkpt>
      <trkpt lat="43.19856" lon="5.75151">
        <ele>143.60000610352</ele>
        <time>2016-05-16T14:33:12.000Z</time>
      </trkpt>
      <trkpt lat="43.19861" lon="5.75116">
        <ele>141.39999389648</ele>
        <time>2016-05-16T14:33:15.000Z</time>
      </trkpt>
      <trkpt lat="43.19864" lon="5.75091">
        <ele>139.60000610352</ele>
        <time>2016-05-16T14:33:17.000Z</time>
      </trkpt>
      <trkpt lat="43.19864" lon="5.75078">
        <ele>139</ele>
        <time>2016-05-16T14:33:18.000Z</time>
      </trkpt>
      <trkpt lat="43.19865" lon="5.75055">
        <ele>138.19999694824</ele>
        <time>2016-05-16T14:33:20.000Z</time>
      </trkpt>
      <trkpt lat="43.19866" lon="5.75021">
        <ele>135.39999389648</ele>
        <time>2016-05-16T14:33:23.000Z</time>
      </trkpt>
      <trkpt lat="43.19868" lon="5.74987">
        <ele>132.60000610352</ele>
        <time>2016-05-16T14:33:26.000Z</time>
      </trkpt>
      <trkpt lat="43.19868" lon="5.74975">
        <ele>132.60000610352</ele>
        <time>2016-05-16T14:33:27.000Z</time>
      </trkpt>
      <trkpt lat="43.19869" lon="5.74964">
        <ele>132.19999694824</ele>
        <time>2016-05-16T14:33:28.000Z</time>
      </trkpt>
      <trkpt lat="43.1987" lon="5.7493">
        <ele>130.60000610352</ele>
        <time>2016-05-16T14:33:31.000Z</time>
      </trkpt>
      <trkpt lat="43.19872" lon="5.74898">
        <ele>129.19999694824</ele>
        <time>2016-05-16T14:33:34.000Z</time>
      </trkpt>
      <trkpt lat="43.19873" lon="5.74889">
        <ele>128.80000305176</ele>
        <time>2016-05-16T14:33:35.000Z</time>
      </trkpt>
      <trkpt lat="43.19877" lon="5.7487">
        <ele>128</ele>
        <time>2016-05-16T14:33:37.000Z</time>
      </trkpt>
      <trkpt lat="43.19882" lon="5.74851">
        <ele>126.40000152588</ele>
        <time>2016-05-16T14:33:39.000Z</time>
      </trkpt>
      <trkpt lat="43.19885" lon="5.74841">
        <ele>125.40000152588</ele>
        <time>2016-05-16T14:33:40.000Z</time>
      </trkpt>
      <trkpt lat="43.19898" lon="5.74817">
        <ele>121.80000305176</ele>
        <time>2016-05-16T14:33:42.000Z</time>
      </trkpt>
      <trkpt lat="43.1991" lon="5.74794">
        <ele>118</ele>
        <time>2016-05-16T14:33:44.000Z</time>
      </trkpt>
      <trkpt lat="43.19915" lon="5.74784">
        <ele>116.59999847412</ele>
        <time>2016-05-16T14:33:45.000Z</time>
      </trkpt>
      <trkpt lat="43.19925" lon="5.74762">
        <ele>114.80000305176</ele>
        <time>2016-05-16T14:33:47.000Z</time>
      </trkpt>
      <trkpt lat="43.19945" lon="5.7472">
        <ele>113</ele>
        <time>2016-05-16T14:33:51.000Z</time>
      </trkpt>
      <trkpt lat="43.1996" lon="5.7469">
        <ele>111.80000305176</ele>
        <time>2016-05-16T14:33:54.000Z</time>
      </trkpt>
      <trkpt lat="43.19965" lon="5.74681">
        <ele>111.40000152588</ele>
        <time>2016-05-16T14:33:55.000Z</time>
      </trkpt>
      <trkpt lat="43.1998" lon="5.74656">
        <ele>109</ele>
        <time>2016-05-16T14:33:58.000Z</time>
      </trkpt>
      <trkpt lat="43.19996" lon="5.74635">
        <ele>106.40000152588</ele>
        <time>2016-05-16T14:34:01.000Z</time>
      </trkpt>
      <trkpt lat="43.20008" lon="5.74619">
        <ele>104.80000305176</ele>
        <time>2016-05-16T14:34:03.000Z</time>
      </trkpt>
      <trkpt lat="43.20022" lon="5.74604">
        <ele>104</ele>
        <time>2016-05-16T14:34:05.000Z</time>
      </trkpt>
      <trkpt lat="43.2004" lon="5.74581">
        <ele>103.19999694824</ele>
        <time>2016-05-16T14:34:08.000Z</time>
      </trkpt>
      <trkpt lat="43.20051" lon="5.74568">
        <ele>102</ele>
        <time>2016-05-16T14:34:10.000Z</time>
      </trkpt>
      <trkpt lat="43.20062" lon="5.74554">
        <ele>100.80000305176</ele>
        <time>2016-05-16T14:34:12.000Z</time>
      </trkpt>
      <trkpt lat="43.20077" lon="5.74535">
        <ele>99.400001525879</ele>
        <time>2016-05-16T14:34:15.000Z</time>
      </trkpt>
      <trkpt lat="43.20088" lon="5.74522">
        <ele>98.199996948242</ele>
        <time>2016-05-16T14:34:17.000Z</time>
      </trkpt>
      <trkpt lat="43.20102" lon="5.74503">
        <ele>97.199996948242</ele>
        <time>2016-05-16T14:34:20.000Z</time>
      </trkpt>
      <trkpt lat="43.20106" lon="5.74496">
        <ele>97</ele>
        <time>2016-05-16T14:34:21.000Z</time>
      </trkpt>
      <trkpt lat="43.20129" lon="5.74455">
        <ele>96</ele>
        <time>2016-05-16T14:34:27.000Z</time>
      </trkpt>
      <trkpt lat="43.20146" lon="5.74416">
        <ele>95.400001525879</ele>
        <time>2016-05-16T14:34:32.000Z</time>
      </trkpt>
      <trkpt lat="43.20155" lon="5.74397">
        <ele>95.400001525879</ele>
        <time>2016-05-16T14:34:35.000Z</time>
      </trkpt>
      <trkpt lat="43.20157" lon="5.74391">
        <ele>95.400001525879</ele>
        <time>2016-05-16T14:34:36.000Z</time>
      </trkpt>
      <trkpt lat="43.20166" lon="5.74369">
        <ele>95.400001525879</ele>
        <time>2016-05-16T14:34:40.000Z</time>
      </trkpt>
      <trkpt lat="43.20168" lon="5.74363">
        <ele>95.400001525879</ele>
        <time>2016-05-16T14:34:41.000Z</time>
      </trkpt>
      <trkpt lat="43.20177" lon="5.74339">
        <ele>95.800003051758</ele>
        <time>2016-05-16T14:34:45.000Z</time>
      </trkpt>
      <trkpt lat="43.20185" lon="5.74319">
        <ele>96.199996948242</ele>
        <time>2016-05-16T14:34:48.000Z</time>
      </trkpt>
      <trkpt lat="43.20192" lon="5.74293">
        <ele>96.400001525879</ele>
        <time>2016-05-16T14:34:52.000Z</time>
      </trkpt>
      <trkpt lat="43.202" lon="5.7426">
        <ele>96.800003051758</ele>
        <time>2016-05-16T14:34:57.000Z</time>
      </trkpt>
      <trkpt lat="43.20209" lon="5.74226">
        <ele>96.800003051758</ele>
        <time>2016-05-16T14:35:02.000Z</time>
      </trkpt>
      <trkpt lat="43.20213" lon="5.74212">
        <ele>96.800003051758</ele>
        <time>2016-05-16T14:35:04.000Z</time>
      </trkpt>
      <trkpt lat="43.20222" lon="5.74191">
        <ele>97.199996948242</ele>
        <time>2016-05-16T14:35:07.000Z</time>
      </trkpt>
      <trkpt lat="43.20226" lon="5.74177">
        <ele>97.400001525879</ele>
        <time>2016-05-16T14:35:09.000Z</time>
      </trkpt>
      <trkpt lat="43.2023" lon="5.74163">
        <ele>97.400001525879</ele>
        <time>2016-05-16T14:35:11.000Z</time>
      </trkpt>
      <trkpt lat="43.20231" lon="5.74156">
        <ele>97.400001525879</ele>
        <time>2016-05-16T14:35:12.000Z</time>
      </trkpt>
      <trkpt lat="43.20235" lon="5.74135">
        <ele>97.599998474121</ele>
        <time>2016-05-16T14:35:15.000Z</time>
      </trkpt>
      <trkpt lat="43.20236" lon="5.74105">
        <ele>98</ele>
        <time>2016-05-16T14:35:19.000Z</time>
      </trkpt>
      <trkpt lat="43.20236" lon="5.74098">
        <ele>98</ele>
        <time>2016-05-16T14:35:20.000Z</time>
      </trkpt>
      <trkpt lat="43.20235" lon="5.74077">
        <ele>98.599998474121</ele>
        <time>2016-05-16T14:35:23.000Z</time>
      </trkpt>
      <trkpt lat="43.20235" lon="5.7407">
        <ele>98.800003051758</ele>
        <time>2016-05-16T14:35:24.000Z</time>
      </trkpt>
      <trkpt lat="43.20236" lon="5.74048">
        <ele>99.199996948242</ele>
        <time>2016-05-16T14:35:27.000Z</time>
      </trkpt>
      <trkpt lat="43.20237" lon="5.74035">
        <ele>99.400001525879</ele>
        <time>2016-05-16T14:35:29.000Z</time>
      </trkpt>
      <trkpt lat="43.20238" lon="5.74021">
        <ele>99.400001525879</ele>
        <time>2016-05-16T14:35:31.000Z</time>
      </trkpt>
      <trkpt lat="43.2024" lon="5.74003">
        <ele>99.400001525879</ele>
        <time>2016-05-16T14:35:34.000Z</time>
      </trkpt>
      <trkpt lat="43.20251" lon="5.7399">
        <ele>98.599998474121</ele>
        <time>2016-05-16T14:35:37.000Z</time>
      </trkpt>
      <trkpt lat="43.20264" lon="5.73986">
        <ele>97.599998474121</ele>
        <time>2016-05-16T14:35:39.000Z</time>
      </trkpt>
      <trkpt lat="43.20271" lon="5.73983">
        <ele>97.199996948242</ele>
        <time>2016-05-16T14:35:40.000Z</time>
      </trkpt>
      <trkpt lat="43.20284" lon="5.73979">
        <ele>96.199996948242</ele>
        <time>2016-05-16T14:35:42.000Z</time>
      </trkpt>
      <trkpt lat="43.2031" lon="5.73976">
        <ele>94.400001525879</ele>
        <time>2016-05-16T14:35:47.000Z</time>
      </trkpt>
      <trkpt lat="43.20317" lon="5.73974">
        <ele>94</ele>
        <time>2016-05-16T14:35:49.000Z</time>
      </trkpt>
      <trkpt lat="43.2032" lon="5.73967">
        <ele>93.800003051758</ele>
        <time>2016-05-16T14:35:51.000Z</time>
      </trkpt>
      <trkpt lat="43.20318" lon="5.73945">
        <ele>94</ele>
        <time>2016-05-16T14:35:56.000Z</time>
      </trkpt>
      <trkpt lat="43.20315" lon="5.73924">
        <ele>94.400001525879</ele>
        <time>2016-05-16T14:36:00.000Z</time>
      </trkpt>
      <trkpt lat="43.20313" lon="5.73904">
        <ele>94.800003051758</ele>
        <time>2016-05-16T14:36:03.000Z</time>
      </trkpt>
      <trkpt lat="43.20312" lon="5.7389">
        <ele>95</ele>
        <time>2016-05-16T14:36:05.000Z</time>
      </trkpt>
      <trkpt lat="43.20308" lon="5.73862">
        <ele>95.199996948242</ele>
        <time>2016-05-16T14:36:09.000Z</time>
      </trkpt>
      <trkpt lat="43.20306" lon="5.73826">
        <ele>94.599998474121</ele>
        <time>2016-05-16T14:36:14.000Z</time>
      </trkpt>
      <trkpt lat="43.20306" lon="5.7379">
        <ele>93.599998474121</ele>
        <time>2016-05-16T14:36:19.000Z</time>
      </trkpt>
      <trkpt lat="43.20305" lon="5.7377">
        <ele>93.400001525879</ele>
        <time>2016-05-16T14:36:22.000Z</time>
      </trkpt>
      <trkpt lat="43.20304" lon="5.73745">
        <ele>93.400001525879</ele>
        <time>2016-05-16T14:36:26.000Z</time>
      </trkpt>
      <trkpt lat="43.20303" lon="5.73726">
        <ele>93.599998474121</ele>
        <time>2016-05-16T14:36:29.000Z</time>
      </trkpt>
      <trkpt lat="43.20302" lon="5.73701">
        <ele>92.599998474121</ele>
        <time>2016-05-16T14:36:33.000Z</time>
      </trkpt>
      <trkpt lat="43.20303" lon="5.73659">
        <ele>91.400001525879</ele>
        <time>2016-05-16T14:36:39.000Z</time>
      </trkpt>
      <trkpt lat="43.20303" lon="5.73619">
        <ele>90.400001525879</ele>
        <time>2016-05-16T14:36:45.000Z</time>
      </trkpt>
      <trkpt lat="43.20303" lon="5.73605">
        <ele>89.800003051758</ele>
        <time>2016-05-16T14:36:47.000Z</time>
      </trkpt>
      <trkpt lat="43.20305" lon="5.73569">
        <ele>88.800003051758</ele>
        <time>2016-05-16T14:36:52.000Z</time>
      </trkpt>
      <trkpt lat="43.20304" lon="5.73538">
        <ele>87.800003051758</ele>
        <time>2016-05-16T14:36:56.000Z</time>
      </trkpt>
      <trkpt lat="43.20303" lon="5.7349">
        <ele>86.400001525879</ele>
        <time>2016-05-16T14:37:02.000Z</time>
      </trkpt>
      <trkpt lat="43.20303" lon="5.73456">
        <ele>85.599998474121</ele>
        <time>2016-05-16T14:37:06.000Z</time>
      </trkpt>
      <trkpt lat="43.20303" lon="5.73448">
        <ele>85.400001525879</ele>
        <time>2016-05-16T14:37:07.000Z</time>
      </trkpt>
      <trkpt lat="43.20303" lon="5.7344">
        <ele>85.199996948242</ele>
        <time>2016-05-16T14:37:08.000Z</time>
      </trkpt>
      <trkpt lat="43.20302" lon="5.73415">
        <ele>84.599998474121</ele>
        <time>2016-05-16T14:37:11.000Z</time>
      </trkpt>
      <trkpt lat="43.20301" lon="5.73399">
        <ele>84</ele>
        <time>2016-05-16T14:37:13.000Z</time>
      </trkpt>
      <trkpt lat="43.20301" lon="5.73391">
        <ele>83.599998474121</ele>
        <time>2016-05-16T14:37:14.000Z</time>
      </trkpt>
      <trkpt lat="43.203" lon="5.73363">
        <ele>82.800003051758</ele>
        <time>2016-05-16T14:37:17.000Z</time>
      </trkpt>
      <trkpt lat="43.203" lon="5.73355">
        <ele>82.400001525879</ele>
        <time>2016-05-16T14:37:18.000Z</time>
      </trkpt>
      <trkpt lat="43.203" lon="5.73337">
        <ele>82</ele>
        <time>2016-05-16T14:37:20.000Z</time>
      </trkpt>
      <trkpt lat="43.20298" lon="5.73317">
        <ele>82.199996948242</ele>
        <time>2016-05-16T14:37:22.000Z</time>
      </trkpt>
      <trkpt lat="43.20298" lon="5.73307">
        <ele>82.400001525879</ele>
        <time>2016-05-16T14:37:23.000Z</time>
      </trkpt>
      <trkpt lat="43.20296" lon="5.73286">
        <ele>81.800003051758</ele>
        <time>2016-05-16T14:37:25.000Z</time>
      </trkpt>
      <trkpt lat="43.20295" lon="5.73266">
        <ele>81</ele>
        <time>2016-05-16T14:37:27.000Z</time>
      </trkpt>
      <trkpt lat="43.20293" lon="5.73234">
        <ele>79.599998474121</ele>
        <time>2016-05-16T14:37:30.000Z</time>
      </trkpt>
      <trkpt lat="43.20293" lon="5.73213">
        <ele>79</ele>
        <time>2016-05-16T14:37:32.000Z</time>
      </trkpt>
      <trkpt lat="43.20297" lon="5.73178">
        <ele>78.400001525879</ele>
        <time>2016-05-16T14:37:35.000Z</time>
      </trkpt>
      <trkpt lat="43.20298" lon="5.73167">
        <ele>78.199996948242</ele>
        <time>2016-05-16T14:37:36.000Z</time>
      </trkpt>
      <trkpt lat="43.20301" lon="5.73144">
        <ele>77</ele>
        <time>2016-05-16T14:37:38.000Z</time>
      </trkpt>
      <trkpt lat="43.20309" lon="5.73111">
        <ele>75.400001525879</ele>
        <time>2016-05-16T14:37:41.000Z</time>
      </trkpt>
      <trkpt lat="43.20332" lon="5.73042">
        <ele>73.800003051758</ele>
        <time>2016-05-16T14:37:48.000Z</time>
      </trkpt>
      <trkpt lat="43.20337" lon="5.73024">
        <ele>73</ele>
        <time>2016-05-16T14:37:50.000Z</time>
      </trkpt>
      <trkpt lat="43.20345" lon="5.72992">
        <ele>71.800003051758</ele>
        <time>2016-05-16T14:37:54.000Z</time>
      </trkpt>
      <trkpt lat="43.20347" lon="5.72985">
        <ele>71.400001525879</ele>
        <time>2016-05-16T14:37:55.000Z</time>
      </trkpt>
      <trkpt lat="43.20351" lon="5.72971">
        <ele>71</ele>
        <time>2016-05-16T14:37:57.000Z</time>
      </trkpt>
      <trkpt lat="43.20357" lon="5.7295">
        <ele>70.599998474121</ele>
        <time>2016-05-16T14:38:00.000Z</time>
      </trkpt>
      <trkpt lat="43.20359" lon="5.72942">
        <ele>70.400001525879</ele>
        <time>2016-05-16T14:38:01.000Z</time>
      </trkpt>
      <trkpt lat="43.20374" lon="5.72898">
        <ele>69.599998474121</ele>
        <time>2016-05-16T14:38:07.000Z</time>
      </trkpt>
      <trkpt lat="43.20378" lon="5.72884">
        <ele>69.400001525879</ele>
        <time>2016-05-16T14:38:09.000Z</time>
      </trkpt>
      <trkpt lat="43.20383" lon="5.72862">
        <ele>69.400001525879</ele>
        <time>2016-05-16T14:38:12.000Z</time>
      </trkpt>
      <trkpt lat="43.20387" lon="5.72841">
        <ele>69.400001525879</ele>
        <time>2016-05-16T14:38:15.000Z</time>
      </trkpt>
      <trkpt lat="43.20388" lon="5.72826">
        <ele>69</ele>
        <time>2016-05-16T14:38:17.000Z</time>
      </trkpt>
      <trkpt lat="43.20389" lon="5.7281">
        <ele>68.599998474121</ele>
        <time>2016-05-16T14:38:19.000Z</time>
      </trkpt>
      <trkpt lat="43.2039" lon="5.72786">
        <ele>68.199996948242</ele>
        <time>2016-05-16T14:38:22.000Z</time>
      </trkpt>
      <trkpt lat="43.20392" lon="5.72763">
        <ele>68.199996948242</ele>
        <time>2016-05-16T14:38:25.000Z</time>
      </trkpt>
      <trkpt lat="43.20394" lon="5.72748">
        <ele>68.599998474121</ele>
        <time>2016-05-16T14:38:27.000Z</time>
      </trkpt>
      <trkpt lat="43.20398" lon="5.72718">
        <ele>69.199996948242</ele>
        <time>2016-05-16T14:38:31.000Z</time>
      </trkpt>
      <trkpt lat="43.204" lon="5.72712">
        <ele>69.199996948242</ele>
        <time>2016-05-16T14:38:32.000Z</time>
      </trkpt>
      <trkpt lat="43.20403" lon="5.72706">
        <ele>69</ele>
        <time>2016-05-16T14:38:33.000Z</time>
      </trkpt>
      <trkpt lat="43.2042" lon="5.72685">
        <ele>70.199996948242</ele>
        <time>2016-05-16T14:38:37.000Z</time>
      </trkpt>
      <trkpt lat="43.20431" lon="5.7267">
        <ele>71.400001525879</ele>
        <time>2016-05-16T14:38:40.000Z</time>
      </trkpt>
      <trkpt lat="43.20441" lon="5.72656">
        <ele>72.199996948242</ele>
        <time>2016-05-16T14:38:43.000Z</time>
      </trkpt>
      <trkpt lat="43.20449" lon="5.72643">
        <ele>72.800003051758</ele>
        <time>2016-05-16T14:38:46.000Z</time>
      </trkpt>
      <trkpt lat="43.20455" lon="5.72636">
        <ele>73.199996948242</ele>
        <time>2016-05-16T14:38:49.000Z</time>
      </trkpt>
      <trkpt lat="43.20457" lon="5.72635">
        <ele>73.400001525879</ele>
        <time>2016-05-16T14:38:50.000Z</time>
      </trkpt>
      <trkpt lat="43.20465" lon="5.72632">
        <ele>73.599998474121</ele>
        <time>2016-05-16T14:38:53.000Z</time>
      </trkpt>
      <trkpt lat="43.20473" lon="5.7263">
        <ele>73.800003051758</ele>
        <time>2016-05-16T14:38:55.000Z</time>
      </trkpt>
      <trkpt lat="43.20487" lon="5.72624">
        <ele>74.400001525879</ele>
        <time>2016-05-16T14:38:58.000Z</time>
      </trkpt>
      <trkpt lat="43.20495" lon="5.7262">
        <ele>74.599998474121</ele>
        <time>2016-05-16T14:39:00.000Z</time>
      </trkpt>
      <trkpt lat="43.20502" lon="5.72615">
        <ele>74.599998474121</ele>
        <time>2016-05-16T14:39:02.000Z</time>
      </trkpt>
      <trkpt lat="43.20511" lon="5.72611">
        <ele>74.800003051758</ele>
        <time>2016-05-16T14:39:04.000Z</time>
      </trkpt>
      <trkpt lat="43.2052" lon="5.72606">
        <ele>74.400001525879</ele>
        <time>2016-05-16T14:39:06.000Z</time>
      </trkpt>
      <trkpt lat="43.20548" lon="5.72591">
        <ele>73.400001525879</ele>
        <time>2016-05-16T14:39:13.000Z</time>
      </trkpt>
      <trkpt lat="43.20558" lon="5.72585">
        <ele>73.400001525879</ele>
        <time>2016-05-16T14:39:16.000Z</time>
      </trkpt>
      <trkpt lat="43.20567" lon="5.7258">
        <ele>73.199996948242</ele>
        <time>2016-05-16T14:39:19.000Z</time>
      </trkpt>
      <trkpt lat="43.20573" lon="5.72576">
        <ele>73.199996948242</ele>
        <time>2016-05-16T14:39:21.000Z</time>
      </trkpt>
      <trkpt lat="43.20584" lon="5.72568">
        <ele>73.199996948242</ele>
        <time>2016-05-16T14:39:25.000Z</time>
      </trkpt>
      <trkpt lat="43.20587" lon="5.72565">
        <ele>73.199996948242</ele>
        <time>2016-05-16T14:39:26.000Z</time>
      </trkpt>
      <trkpt lat="43.20606" lon="5.7255">
        <ele>73.199996948242</ele>
        <time>2016-05-16T14:39:31.000Z</time>
      </trkpt>
      <trkpt lat="43.2061" lon="5.72546">
        <ele>73</ele>
        <time>2016-05-16T14:39:32.000Z</time>
      </trkpt>
      <trkpt lat="43.20634" lon="5.72526">
        <ele>73</ele>
        <time>2016-05-16T14:39:38.000Z</time>
      </trkpt>
      <trkpt lat="43.20661" lon="5.72501">
        <ele>72.599998474121</ele>
        <time>2016-05-16T14:39:46.000Z</time>
      </trkpt>
      <trkpt lat="43.20689" lon="5.72477">
        <ele>72</ele>
        <time>2016-05-16T14:39:54.000Z</time>
      </trkpt>
      <trkpt lat="43.20711" lon="5.72455">
        <ele>70.800003051758</ele>
        <time>2016-05-16T14:40:01.000Z</time>
      </trkpt>
      <trkpt lat="43.20725" lon="5.72433">
        <ele>69.199996948242</ele>
        <time>2016-05-16T14:40:07.000Z</time>
      </trkpt>
      <trkpt lat="43.20733" lon="5.72418">
        <ele>69</ele>
        <time>2016-05-16T14:40:12.000Z</time>
      </trkpt>
      <trkpt lat="43.20737" lon="5.72408">
        <ele>69</ele>
        <time>2016-05-16T14:40:16.000Z</time>
      </trkpt>
      <trkpt lat="43.20741" lon="5.724">
        <ele>68.800003051758</ele>
        <time>2016-05-16T14:40:19.000Z</time>
      </trkpt>
      <trkpt lat="43.20746" lon="5.72391">
        <ele>68.800003051758</ele>
        <time>2016-05-16T14:40:22.000Z</time>
      </trkpt>
      <trkpt lat="43.20759" lon="5.72366">
        <ele>68.400001525879</ele>
        <time>2016-05-16T14:40:29.000Z</time>
      </trkpt>
      <trkpt lat="43.20773" lon="5.72342">
        <ele>68.199996948242</ele>
        <time>2016-05-16T14:40:36.000Z</time>
      </trkpt>
      <trkpt lat="43.20793" lon="5.72306">
        <ele>68.199996948242</ele>
        <time>2016-05-16T14:40:45.000Z</time>
      </trkpt>
      <trkpt lat="43.2081" lon="5.72281">
        <ele>68.800003051758</ele>
        <time>2016-05-16T14:40:52.000Z</time>
      </trkpt>
      <trkpt lat="43.20822" lon="5.72258">
        <ele>68.800003051758</ele>
        <time>2016-05-16T14:40:57.000Z</time>
      </trkpt>
      <trkpt lat="43.20824" lon="5.72254">
        <ele>68.800003051758</ele>
        <time>2016-05-16T14:40:58.000Z</time>
      </trkpt>
      <trkpt lat="43.20842" lon="5.72228">
        <ele>69</ele>
        <time>2016-05-16T14:41:04.000Z</time>
      </trkpt>
      <trkpt lat="43.20863" lon="5.72196">
        <ele>70.599998474121</ele>
        <time>2016-05-16T14:41:12.000Z</time>
      </trkpt>
      <trkpt lat="43.2089" lon="5.7216">
        <ele>72.599998474121</ele>
        <time>2016-05-16T14:41:22.000Z</time>
      </trkpt>
      <trkpt lat="43.2091" lon="5.72132">
        <ele>73.400001525879</ele>
        <time>2016-05-16T14:41:30.000Z</time>
      </trkpt>
      <trkpt lat="43.20913" lon="5.72128">
        <ele>73.599998474121</ele>
        <time>2016-05-16T14:41:31.000Z</time>
      </trkpt>
      <trkpt lat="43.20928" lon="5.7211">
        <ele>75.599998474121</ele>
        <time>2016-05-16T14:41:37.000Z</time>
      </trkpt>
      <trkpt lat="43.20931" lon="5.72107">
        <ele>76</ele>
        <time>2016-05-16T14:41:38.000Z</time>
      </trkpt>
      <trkpt lat="43.20953" lon="5.72091">
        <ele>80</ele>
        <time>2016-05-16T14:41:45.000Z</time>
      </trkpt>
      <trkpt lat="43.20963" lon="5.72085">
        <ele>81.400001525879</ele>
        <time>2016-05-16T14:41:48.000Z</time>
      </trkpt>
      <trkpt lat="43.20969" lon="5.72082">
        <ele>81.800003051758</ele>
        <time>2016-05-16T14:41:50.000Z</time>
      </trkpt>
      <trkpt lat="43.20977" lon="5.72076">
        <ele>82.199996948242</ele>
        <time>2016-05-16T14:41:53.000Z</time>
      </trkpt>
      <trkpt lat="43.20986" lon="5.7207">
        <ele>82.599998474121</ele>
        <time>2016-05-16T14:41:56.000Z</time>
      </trkpt>
      <trkpt lat="43.20988" lon="5.72067">
        <ele>82.800003051758</ele>
        <time>2016-05-16T14:41:57.000Z</time>
      </trkpt>
      <trkpt lat="43.20994" lon="5.72058">
        <ele>83</ele>
        <time>2016-05-16T14:42:00.000Z</time>
      </trkpt>
      <trkpt lat="43.20996" lon="5.72055">
        <ele>83</ele>
        <time>2016-05-16T14:42:01.000Z</time>
      </trkpt>
      <trkpt lat="43.20999" lon="5.72048">
        <ele>83.400001525879</ele>
        <time>2016-05-16T14:42:03.000Z</time>
      </trkpt>
      <trkpt lat="43.21004" lon="5.72038">
        <ele>83.800003051758</ele>
        <time>2016-05-16T14:42:06.000Z</time>
      </trkpt>
      <trkpt lat="43.2101" lon="5.72029">
        <ele>84.199996948242</ele>
        <time>2016-05-16T14:42:09.000Z</time>
      </trkpt>
      <trkpt lat="43.21012" lon="5.72026">
        <ele>84.400001525879</ele>
        <time>2016-05-16T14:42:10.000Z</time>
      </trkpt>
      <trkpt lat="43.21019" lon="5.72015">
        <ele>85.400001525879</ele>
        <time>2016-05-16T14:42:14.000Z</time>
      </trkpt>
      <trkpt lat="43.21021" lon="5.72013">
        <ele>85.599998474121</ele>
        <time>2016-05-16T14:42:15.000Z</time>
      </trkpt>
      <trkpt lat="43.21027" lon="5.72">
        <ele>86.599998474121</ele>
        <time>2016-05-16T14:42:20.000Z</time>
      </trkpt>
      <trkpt lat="43.21029" lon="5.71994">
        <ele>87</ele>
        <time>2016-05-16T14:42:22.000Z</time>
      </trkpt>
      <trkpt lat="43.21032" lon="5.71976">
        <ele>87.199996948242</ele>
        <time>2016-05-16T14:42:27.000Z</time>
      </trkpt>
      <trkpt lat="43.21043" lon="5.71957">
        <ele>89</ele>
        <time>2016-05-16T14:42:32.000Z</time>
      </trkpt>
      <trkpt lat="43.21045" lon="5.71953">
        <ele>89.400001525879</ele>
        <time>2016-05-16T14:42:33.000Z</time>
      </trkpt>
      <trkpt lat="43.21057" lon="5.7194">
        <ele>91.199996948242</ele>
        <time>2016-05-16T14:42:37.000Z</time>
      </trkpt>
      <trkpt lat="43.21063" lon="5.71933">
        <ele>92</ele>
        <time>2016-05-16T14:42:40.000Z</time>
      </trkpt>
      <trkpt lat="43.21066" lon="5.71926">
        <ele>92.199996948242</ele>
        <time>2016-05-16T14:42:43.000Z</time>
      </trkpt>
      <trkpt lat="43.21069" lon="5.71921">
        <ele>92.400001525879</ele>
        <time>2016-05-16T14:42:45.000Z</time>
      </trkpt>
      <trkpt lat="43.21073" lon="5.71913">
        <ele>92.599998474121</ele>
        <time>2016-05-16T14:42:48.000Z</time>
      </trkpt>
      <trkpt lat="43.21073" lon="5.71902">
        <ele>92.599998474121</ele>
        <time>2016-05-16T14:42:52.000Z</time>
      </trkpt>
      <trkpt lat="43.21072" lon="5.71899">
        <ele>92.599998474121</ele>
        <time>2016-05-16T14:42:53.000Z</time>
      </trkpt>
      <trkpt lat="43.21057" lon="5.71878">
        <ele>92.199996948242</ele>
        <time>2016-05-16T14:42:59.000Z</time>
      </trkpt>
      <trkpt lat="43.21053" lon="5.71871">
        <ele>92.400001525879</ele>
        <time>2016-05-16T14:43:01.000Z</time>
      </trkpt>
      <trkpt lat="43.21038" lon="5.71845">
        <ele>93</ele>
        <time>2016-05-16T14:43:09.000Z</time>
      </trkpt>
      <trkpt lat="43.2103" lon="5.71828">
        <ele>93.599998474121</ele>
        <time>2016-05-16T14:43:14.000Z</time>
      </trkpt>
      <trkpt lat="43.21026" lon="5.7182">
        <ele>94</ele>
        <time>2016-05-16T14:43:16.000Z</time>
      </trkpt>
      <trkpt lat="43.21015" lon="5.71795">
        <ele>94.199996948242</ele>
        <time>2016-05-16T14:43:22.000Z</time>
      </trkpt>
      <trkpt lat="43.2101" lon="5.71782">
        <ele>94.400001525879</ele>
        <time>2016-05-16T14:43:25.000Z</time>
      </trkpt>
      <trkpt lat="43.21002" lon="5.71746">
        <ele>94.800003051758</ele>
        <time>2016-05-16T14:43:32.000Z</time>
      </trkpt>
      <trkpt lat="43.21" lon="5.71736">
        <ele>95</ele>
        <time>2016-05-16T14:43:34.000Z</time>
      </trkpt>
      <trkpt lat="43.20994" lon="5.71714">
        <ele>95.199996948242</ele>
        <time>2016-05-16T14:43:38.000Z</time>
      </trkpt>
      <trkpt lat="43.20989" lon="5.71701">
        <ele>95.599998474121</ele>
        <time>2016-05-16T14:43:41.000Z</time>
      </trkpt>
      <trkpt lat="43.20981" lon="5.71684">
        <ele>95.800003051758</ele>
        <time>2016-05-16T14:43:45.000Z</time>
      </trkpt>
      <trkpt lat="43.20961" lon="5.71654">
        <ele>96</ele>
        <time>2016-05-16T14:43:52.000Z</time>
      </trkpt>
      <trkpt lat="43.20937" lon="5.71618">
        <ele>96</ele>
        <time>2016-05-16T14:44:00.000Z</time>
      </trkpt>
      <trkpt lat="43.20914" lon="5.71592">
        <ele>95.800003051758</ele>
        <time>2016-05-16T14:44:06.000Z</time>
      </trkpt>
      <trkpt lat="43.20897" lon="5.71562">
        <ele>95.800003051758</ele>
        <time>2016-05-16T14:44:13.000Z</time>
      </trkpt>
      <trkpt lat="43.20883" lon="5.71524">
        <ele>95.199996948242</ele>
        <time>2016-05-16T14:44:21.000Z</time>
      </trkpt>
      <trkpt lat="43.20867" lon="5.71488">
        <ele>94.400001525879</ele>
        <time>2016-05-16T14:44:29.000Z</time>
      </trkpt>
      <trkpt lat="43.20848" lon="5.71455">
        <ele>93.599998474121</ele>
        <time>2016-05-16T14:44:36.000Z</time>
      </trkpt>
      <trkpt lat="43.20828" lon="5.71419">
        <ele>93.800003051758</ele>
        <time>2016-05-16T14:44:43.000Z</time>
      </trkpt>
      <trkpt lat="43.20824" lon="5.71413">
        <ele>93.800003051758</ele>
        <time>2016-05-16T14:44:44.000Z</time>
      </trkpt>
      <trkpt lat="43.20806" lon="5.71388">
        <ele>94</ele>
        <time>2016-05-16T14:44:49.000Z</time>
      </trkpt>
      <trkpt lat="43.20786" lon="5.71378">
        <ele>94</ele>
        <time>2016-05-16T14:44:53.000Z</time>
      </trkpt>
      <trkpt lat="43.2078" lon="5.71378">
        <ele>93.800003051758</ele>
        <time>2016-05-16T14:44:54.000Z</time>
      </trkpt>
      <trkpt lat="43.20774" lon="5.71376">
        <ele>93.599998474121</ele>
        <time>2016-05-16T14:44:55.000Z</time>
      </trkpt>
      <trkpt lat="43.20768" lon="5.71375">
        <ele>93.599998474121</ele>
        <time>2016-05-16T14:44:56.000Z</time>
      </trkpt>
      <trkpt lat="43.20757" lon="5.71371">
        <ele>93.400001525879</ele>
        <time>2016-05-16T14:44:58.000Z</time>
      </trkpt>
      <trkpt lat="43.20747" lon="5.71365">
        <ele>93</ele>
        <time>2016-05-16T14:45:00.000Z</time>
      </trkpt>
      <trkpt lat="43.20742" lon="5.7136">
        <ele>93</ele>
        <time>2016-05-16T14:45:01.000Z</time>
      </trkpt>
      <trkpt lat="43.20733" lon="5.71351">
        <ele>92.800003051758</ele>
        <time>2016-05-16T14:45:03.000Z</time>
      </trkpt>
      <trkpt lat="43.20718" lon="5.7134">
        <ele>92.599998474121</ele>
        <time>2016-05-16T14:45:06.000Z</time>
      </trkpt>
      <trkpt lat="43.20709" lon="5.7133">
        <ele>92.599998474121</ele>
        <time>2016-05-16T14:45:08.000Z</time>
      </trkpt>
      <trkpt lat="43.20705" lon="5.71324">
        <ele>92.599998474121</ele>
        <time>2016-05-16T14:45:09.000Z</time>
      </trkpt>
      <trkpt lat="43.20698" lon="5.71313">
        <ele>92.599998474121</ele>
        <time>2016-05-16T14:45:11.000Z</time>
      </trkpt>
      <trkpt lat="43.20694" lon="5.71306">
        <ele>92.599998474121</ele>
        <time>2016-05-16T14:45:12.000Z</time>
      </trkpt>
      <trkpt lat="43.20683" lon="5.71279">
        <ele>92.800003051758</ele>
        <time>2016-05-16T14:45:16.000Z</time>
      </trkpt>
      <trkpt lat="43.20671" lon="5.71245">
        <ele>93</ele>
        <time>2016-05-16T14:45:21.000Z</time>
      </trkpt>
      <trkpt lat="43.20667" lon="5.71232">
        <ele>93</ele>
        <time>2016-05-16T14:45:23.000Z</time>
      </trkpt>
      <trkpt lat="43.20663" lon="5.71218">
        <ele>93.199996948242</ele>
        <time>2016-05-16T14:45:25.000Z</time>
      </trkpt>
      <trkpt lat="43.2066" lon="5.71212">
        <ele>93.400001525879</ele>
        <time>2016-05-16T14:45:26.000Z</time>
      </trkpt>
      <trkpt lat="43.20653" lon="5.71193">
        <ele>94.199996948242</ele>
        <time>2016-05-16T14:45:29.000Z</time>
      </trkpt>
      <trkpt lat="43.20647" lon="5.71181">
        <ele>94.400001525879</ele>
        <time>2016-05-16T14:45:31.000Z</time>
      </trkpt>
      <trkpt lat="43.20643" lon="5.71175">
        <ele>94.599998474121</ele>
        <time>2016-05-16T14:45:32.000Z</time>
      </trkpt>
      <trkpt lat="43.20637" lon="5.71165">
        <ele>94.800003051758</ele>
        <time>2016-05-16T14:45:34.000Z</time>
      </trkpt>
      <trkpt lat="43.2063" lon="5.71155">
        <ele>95</ele>
        <time>2016-05-16T14:45:36.000Z</time>
      </trkpt>
      <trkpt lat="43.20619" lon="5.71142">
        <ele>95.199996948242</ele>
        <time>2016-05-16T14:45:39.000Z</time>
      </trkpt>
      <trkpt lat="43.2061" lon="5.71135">
        <ele>95</ele>
        <time>2016-05-16T14:45:41.000Z</time>
      </trkpt>
      <trkpt lat="43.20586" lon="5.71126">
        <ele>93.599998474121</ele>
        <time>2016-05-16T14:45:46.000Z</time>
      </trkpt>
      <trkpt lat="43.20549" lon="5.71118">
        <ele>91.800003051758</ele>
        <time>2016-05-16T14:45:54.000Z</time>
      </trkpt>
      <trkpt lat="43.20525" lon="5.71108">
        <ele>90.599998474121</ele>
        <time>2016-05-16T14:45:59.000Z</time>
      </trkpt>
      <trkpt lat="43.20514" lon="5.71105">
        <ele>90.199996948242</ele>
        <time>2016-05-16T14:46:01.000Z</time>
      </trkpt>
      <trkpt lat="43.20508" lon="5.71104">
        <ele>89.800003051758</ele>
        <time>2016-05-16T14:46:02.000Z</time>
      </trkpt>
      <trkpt lat="43.20495" lon="5.71107">
        <ele>89.199996948242</ele>
        <time>2016-05-16T14:46:04.000Z</time>
      </trkpt>
      <trkpt lat="43.20488" lon="5.71108">
        <ele>88.800003051758</ele>
        <time>2016-05-16T14:46:05.000Z</time>
      </trkpt>
      <trkpt lat="43.20468" lon="5.71112">
        <ele>88.400001525879</ele>
        <time>2016-05-16T14:46:08.000Z</time>
      </trkpt>
      <trkpt lat="43.20447" lon="5.71117">
        <ele>88</ele>
        <time>2016-05-16T14:46:11.000Z</time>
      </trkpt>
      <trkpt lat="43.20439" lon="5.71119">
        <ele>87.800003051758</ele>
        <time>2016-05-16T14:46:12.000Z</time>
      </trkpt>
      <trkpt lat="43.20424" lon="5.71122">
        <ele>87.400001525879</ele>
        <time>2016-05-16T14:46:14.000Z</time>
      </trkpt>
      <trkpt lat="43.20387" lon="5.71131">
        <ele>85.800003051758</ele>
        <time>2016-05-16T14:46:19.000Z</time>
      </trkpt>
      <trkpt lat="43.20366" lon="5.71135">
        <ele>85</ele>
        <time>2016-05-16T14:46:22.000Z</time>
      </trkpt>
      <trkpt lat="43.2034" lon="5.71135">
        <ele>83.800003051758</ele>
        <time>2016-05-16T14:46:26.000Z</time>
      </trkpt>
      <trkpt lat="43.20328" lon="5.71132">
        <ele>83.599998474121</ele>
        <time>2016-05-16T14:46:28.000Z</time>
      </trkpt>
      <trkpt lat="43.20322" lon="5.7113">
        <ele>83.400001525879</ele>
        <time>2016-05-16T14:46:29.000Z</time>
      </trkpt>
      <trkpt lat="43.20298" lon="5.71122">
        <ele>82.599998474121</ele>
        <time>2016-05-16T14:46:33.000Z</time>
      </trkpt>
      <trkpt lat="43.20274" lon="5.71116">
        <ele>82</ele>
        <time>2016-05-16T14:46:37.000Z</time>
      </trkpt>
      <trkpt lat="43.20248" lon="5.7111">
        <ele>81.199996948242</ele>
        <time>2016-05-16T14:46:41.000Z</time>
      </trkpt>
      <trkpt lat="43.20217" lon="5.71105">
        <ele>79.800003051758</ele>
        <time>2016-05-16T14:46:46.000Z</time>
      </trkpt>
      <trkpt lat="43.20192" lon="5.71101">
        <ele>78.599998474121</ele>
        <time>2016-05-16T14:46:50.000Z</time>
      </trkpt>
      <trkpt lat="43.20176" lon="5.71097">
        <ele>78</ele>
        <time>2016-05-16T14:46:53.000Z</time>
      </trkpt>
      <trkpt lat="43.20152" lon="5.71091">
        <ele>77.400001525879</ele>
        <time>2016-05-16T14:46:58.000Z</time>
      </trkpt>
      <trkpt lat="43.20148" lon="5.7109">
        <ele>77.199996948242</ele>
        <time>2016-05-16T14:46:59.000Z</time>
      </trkpt>
      <trkpt lat="43.20143" lon="5.7109">
        <ele>77.199996948242</ele>
        <time>2016-05-16T14:47:00.000Z</time>
      </trkpt>
      <trkpt lat="43.20115" lon="5.71087">
        <ele>76.400001525879</ele>
        <time>2016-05-16T14:47:06.000Z</time>
      </trkpt>
      <trkpt lat="43.20096" lon="5.7108">
        <ele>76</ele>
        <time>2016-05-16T14:47:10.000Z</time>
      </trkpt>
      <trkpt lat="43.20081" lon="5.71072">
        <ele>75.800003051758</ele>
        <time>2016-05-16T14:47:13.000Z</time>
      </trkpt>
      <trkpt lat="43.20037" lon="5.71045">
        <ele>75</ele>
        <time>2016-05-16T14:47:21.000Z</time>
      </trkpt>
      <trkpt lat="43.20031" lon="5.71043">
        <ele>74.800003051758</ele>
        <time>2016-05-16T14:47:22.000Z</time>
      </trkpt>
      <trkpt lat="43.20019" lon="5.71039">
        <ele>74.599998474121</ele>
        <time>2016-05-16T14:47:24.000Z</time>
      </trkpt>
      <trkpt lat="43.20007" lon="5.71037">
        <ele>74.199996948242</ele>
        <time>2016-05-16T14:47:26.000Z</time>
      </trkpt>
      <trkpt lat="43.19997" lon="5.71035">
        <ele>74</ele>
        <time>2016-05-16T14:47:28.000Z</time>
      </trkpt>
      <trkpt lat="43.19985" lon="5.71032">
        <ele>73.400001525879</ele>
        <time>2016-05-16T14:47:31.000Z</time>
      </trkpt>
      <trkpt lat="43.19978" lon="5.71031">
        <ele>73.199996948242</ele>
        <time>2016-05-16T14:47:33.000Z</time>
      </trkpt>
      <trkpt lat="43.19975" lon="5.71029">
        <ele>73</ele>
        <time>2016-05-16T14:47:35.000Z</time>
      </trkpt>
      <trkpt lat="43.19972" lon="5.71025">
        <ele>72.800003051758</ele>
        <time>2016-05-16T14:47:37.000Z</time>
      </trkpt>
      <trkpt lat="43.19966" lon="5.71012">
        <ele>72.400001525879</ele>
        <time>2016-05-16T14:47:41.000Z</time>
      </trkpt>
      <trkpt lat="43.19965" lon="5.71007">
        <ele>72.199996948242</ele>
        <time>2016-05-16T14:47:42.000Z</time>
      </trkpt>
      <trkpt lat="43.19963" lon="5.70992">
        <ele>71.599998474121</ele>
        <time>2016-05-16T14:47:44.000Z</time>
      </trkpt>
      <trkpt lat="43.19961" lon="5.70982">
        <ele>71.199996948242</ele>
        <time>2016-05-16T14:47:45.000Z</time>
      </trkpt>
      <trkpt lat="43.19958" lon="5.70971">
        <ele>70.800003051758</ele>
        <time>2016-05-16T14:47:46.000Z</time>
      </trkpt>
      <trkpt lat="43.19954" lon="5.70952">
        <ele>69</ele>
        <time>2016-05-16T14:47:48.000Z</time>
      </trkpt>
      <trkpt lat="43.19953" lon="5.70944">
        <ele>68.400001525879</ele>
        <time>2016-05-16T14:47:49.000Z</time>
      </trkpt>
      <trkpt lat="43.19951" lon="5.70935">
        <ele>67.599998474121</ele>
        <time>2016-05-16T14:47:50.000Z</time>
      </trkpt>
      <trkpt lat="43.19946" lon="5.70923">
        <ele>66.400001525879</ele>
        <time>2016-05-16T14:47:52.000Z</time>
      </trkpt>
      <trkpt lat="43.19939" lon="5.70913">
        <ele>65.400001525879</ele>
        <time>2016-05-16T14:47:54.000Z</time>
      </trkpt>
      <trkpt lat="43.19936" lon="5.70906">
        <ele>64.800003051758</ele>
        <time>2016-05-16T14:47:55.000Z</time>
      </trkpt>
      <trkpt lat="43.19932" lon="5.70899">
        <ele>64</ele>
        <time>2016-05-16T14:47:56.000Z</time>
      </trkpt>
      <trkpt lat="43.19923" lon="5.70884">
        <ele>62.799999237061</ele>
        <time>2016-05-16T14:47:58.000Z</time>
      </trkpt>
      <trkpt lat="43.19913" lon="5.7087">
        <ele>62.400001525879</ele>
        <time>2016-05-16T14:48:00.000Z</time>
      </trkpt>
      <trkpt lat="43.19897" lon="5.70852">
        <ele>61.799999237061</ele>
        <time>2016-05-16T14:48:03.000Z</time>
      </trkpt>
      <trkpt lat="43.19892" lon="5.70846">
        <ele>61.599998474121</ele>
        <time>2016-05-16T14:48:04.000Z</time>
      </trkpt>
      <trkpt lat="43.19866" lon="5.70819">
        <ele>60.599998474121</ele>
        <time>2016-05-16T14:48:10.000Z</time>
      </trkpt>
      <trkpt lat="43.19853" lon="5.7079">
        <ele>60.200000762939</ele>
        <time>2016-05-16T14:48:14.000Z</time>
      </trkpt>
      <trkpt lat="43.19851" lon="5.70784">
        <ele>60.200000762939</ele>
        <time>2016-05-16T14:48:15.000Z</time>
      </trkpt>
      <trkpt lat="43.19847" lon="5.7077">
        <ele>60.400001525879</ele>
        <time>2016-05-16T14:48:17.000Z</time>
      </trkpt>
      <trkpt lat="43.19842" lon="5.7075">
        <ele>60.599998474121</ele>
        <time>2016-05-16T14:48:20.000Z</time>
      </trkpt>
      <trkpt lat="43.19841" lon="5.70743">
        <ele>60.599998474121</ele>
        <time>2016-05-16T14:48:21.000Z</time>
      </trkpt>
      <trkpt lat="43.19833" lon="5.70717">
        <ele>61</ele>
        <time>2016-05-16T14:48:25.000Z</time>
      </trkpt>
      <trkpt lat="43.19824" lon="5.70692">
        <ele>61.400001525879</ele>
        <time>2016-05-16T14:48:29.000Z</time>
      </trkpt>
      <trkpt lat="43.19815" lon="5.70667">
        <ele>62</ele>
        <time>2016-05-16T14:48:33.000Z</time>
      </trkpt>
      <trkpt lat="43.19809" lon="5.70656">
        <ele>62.200000762939</ele>
        <time>2016-05-16T14:48:35.000Z</time>
      </trkpt>
      <trkpt lat="43.19802" lon="5.70646">
        <ele>62.200000762939</ele>
        <time>2016-05-16T14:48:37.000Z</time>
      </trkpt>
      <trkpt lat="43.19793" lon="5.70638">
        <ele>62.400001525879</ele>
        <time>2016-05-16T14:48:39.000Z</time>
      </trkpt>
      <trkpt lat="43.19788" lon="5.70634">
        <ele>62.599998474121</ele>
        <time>2016-05-16T14:48:40.000Z</time>
      </trkpt>
      <trkpt lat="43.19775" lon="5.70622">
        <ele>63.200000762939</ele>
        <time>2016-05-16T14:48:43.000Z</time>
      </trkpt>
      <trkpt lat="43.19768" lon="5.70612">
        <ele>63.799999237061</ele>
        <time>2016-05-16T14:48:45.000Z</time>
      </trkpt>
      <trkpt lat="43.19765" lon="5.70607">
        <ele>64.199996948242</ele>
        <time>2016-05-16T14:48:46.000Z</time>
      </trkpt>
      <trkpt lat="43.19755" lon="5.70582">
        <ele>65.599998474121</ele>
        <time>2016-05-16T14:48:50.000Z</time>
      </trkpt>
      <trkpt lat="43.19749" lon="5.70563">
        <ele>66.800003051758</ele>
        <time>2016-05-16T14:48:53.000Z</time>
      </trkpt>
      <trkpt lat="43.19744" lon="5.70543">
        <ele>67.199996948242</ele>
        <time>2016-05-16T14:48:56.000Z</time>
      </trkpt>
      <trkpt lat="43.19737" lon="5.70524">
        <ele>67.199996948242</ele>
        <time>2016-05-16T14:48:59.000Z</time>
      </trkpt>
      <trkpt lat="43.19733" lon="5.70511">
        <ele>67</ele>
        <time>2016-05-16T14:49:01.000Z</time>
      </trkpt>
      <trkpt lat="43.19731" lon="5.70505">
        <ele>66.800003051758</ele>
        <time>2016-05-16T14:49:02.000Z</time>
      </trkpt>
      <trkpt lat="43.19717" lon="5.70471">
        <ele>66.400001525879</ele>
        <time>2016-05-16T14:49:08.000Z</time>
      </trkpt>
      <trkpt lat="43.19705" lon="5.70442">
        <ele>66.599998474121</ele>
        <time>2016-05-16T14:49:13.000Z</time>
      </trkpt>
      <trkpt lat="43.19694" lon="5.70413">
        <ele>67</ele>
        <time>2016-05-16T14:49:18.000Z</time>
      </trkpt>
      <trkpt lat="43.19685" lon="5.70391">
        <ele>67.199996948242</ele>
        <time>2016-05-16T14:49:22.000Z</time>
      </trkpt>
      <trkpt lat="43.19683" lon="5.70386">
        <ele>67.199996948242</ele>
        <time>2016-05-16T14:49:23.000Z</time>
      </trkpt>
      <trkpt lat="43.19678" lon="5.70374">
        <ele>67.199996948242</ele>
        <time>2016-05-16T14:49:25.000Z</time>
      </trkpt>
      <trkpt lat="43.19671" lon="5.7035">
        <ele>67</ele>
        <time>2016-05-16T14:49:29.000Z</time>
      </trkpt>
      <trkpt lat="43.19667" lon="5.70331">
        <ele>66.800003051758</ele>
        <time>2016-05-16T14:49:32.000Z</time>
      </trkpt>
      <trkpt lat="43.19662" lon="5.7031">
        <ele>66.800003051758</ele>
        <time>2016-05-16T14:49:35.000Z</time>
      </trkpt>
      <trkpt lat="43.19655" lon="5.70268">
        <ele>67.599998474121</ele>
        <time>2016-05-16T14:49:40.000Z</time>
      </trkpt>
      <trkpt lat="43.19651" lon="5.70237">
        <ele>68.400001525879</ele>
        <time>2016-05-16T14:49:45.000Z</time>
      </trkpt>
      <trkpt lat="43.19647" lon="5.70198">
        <ele>69</ele>
        <time>2016-05-16T14:49:52.000Z</time>
      </trkpt>
      <trkpt lat="43.19646" lon="5.70181">
        <ele>69.400001525879</ele>
        <time>2016-05-16T14:49:55.000Z</time>
      </trkpt>
      <trkpt lat="43.19644" lon="5.70156">
        <ele>70</ele>
        <time>2016-05-16T14:49:59.000Z</time>
      </trkpt>
      <trkpt lat="43.1964" lon="5.70128">
        <ele>70.599998474121</ele>
        <time>2016-05-16T14:50:04.000Z</time>
      </trkpt>
      <trkpt lat="43.19639" lon="5.70123">
        <ele>70.599998474121</ele>
        <time>2016-05-16T14:50:05.000Z</time>
      </trkpt>
      <trkpt lat="43.19633" lon="5.70088">
        <ele>70.800003051758</ele>
        <time>2016-05-16T14:50:11.000Z</time>
      </trkpt>
      <trkpt lat="43.19627" lon="5.70066">
        <ele>70.199996948242</ele>
        <time>2016-05-16T14:50:15.000Z</time>
      </trkpt>
      <trkpt lat="43.19623" lon="5.70055">
        <ele>70</ele>
        <time>2016-05-16T14:50:17.000Z</time>
      </trkpt>
      <trkpt lat="43.19622" lon="5.7005">
        <ele>70</ele>
        <time>2016-05-16T14:50:18.000Z</time>
      </trkpt>
      <trkpt lat="43.19619" lon="5.70037">
        <ele>70.199996948242</ele>
        <time>2016-05-16T14:50:20.000Z</time>
      </trkpt>
      <trkpt lat="43.19618" lon="5.7003">
        <ele>70.199996948242</ele>
        <time>2016-05-16T14:50:21.000Z</time>
      </trkpt>
      <trkpt lat="43.19617" lon="5.70024">
        <ele>70.199996948242</ele>
        <time>2016-05-16T14:50:22.000Z</time>
      </trkpt>
      <trkpt lat="43.19615" lon="5.70017">
        <ele>70.400001525879</ele>
        <time>2016-05-16T14:50:23.000Z</time>
      </trkpt>
      <trkpt lat="43.19612" lon="5.69997">
        <ele>70.599998474121</ele>
        <time>2016-05-16T14:50:26.000Z</time>
      </trkpt>
      <trkpt lat="43.1961" lon="5.69984">
        <ele>70.599998474121</ele>
        <time>2016-05-16T14:50:28.000Z</time>
      </trkpt>
      <trkpt lat="43.19604" lon="5.69953">
        <ele>70.400001525879</ele>
        <time>2016-05-16T14:50:33.000Z</time>
      </trkpt>
      <trkpt lat="43.19596" lon="5.69909">
        <ele>70</ele>
        <time>2016-05-16T14:50:41.000Z</time>
      </trkpt>
      <trkpt lat="43.19593" lon="5.69898">
        <ele>69.800003051758</ele>
        <time>2016-05-16T14:50:43.000Z</time>
      </trkpt>
      <trkpt lat="43.19585" lon="5.69864">
        <ele>69.400001525879</ele>
        <time>2016-05-16T14:50:49.000Z</time>
      </trkpt>
      <trkpt lat="43.19577" lon="5.69829">
        <ele>69</ele>
        <time>2016-05-16T14:50:53.000Z</time>
      </trkpt>
      <trkpt lat="43.19573" lon="5.69809">
        <ele>68.800003051758</ele>
        <time>2016-05-16T14:50:55.000Z</time>
      </trkpt>
      <trkpt lat="43.19568" lon="5.69775">
        <ele>69</ele>
        <time>2016-05-16T14:50:59.000Z</time>
      </trkpt>
      <trkpt lat="43.19564" lon="5.69748">
        <ele>68.199996948242</ele>
        <time>2016-05-16T14:51:03.000Z</time>
      </trkpt>
      <trkpt lat="43.19563" lon="5.69742">
        <ele>68</ele>
        <time>2016-05-16T14:51:04.000Z</time>
      </trkpt>
      <trkpt lat="43.19561" lon="5.69729">
        <ele>67.599998474121</ele>
        <time>2016-05-16T14:51:06.000Z</time>
      </trkpt>
      <trkpt lat="43.19557" lon="5.69705">
        <ele>67.400001525879</ele>
        <time>2016-05-16T14:51:10.000Z</time>
      </trkpt>
      <trkpt lat="43.19553" lon="5.69678">
        <ele>67.400001525879</ele>
        <time>2016-05-16T14:51:14.000Z</time>
      </trkpt>
      <trkpt lat="43.19551" lon="5.69666">
        <ele>67.599998474121</ele>
        <time>2016-05-16T14:51:16.000Z</time>
      </trkpt>
      <trkpt lat="43.1954" lon="5.69609">
        <ele>66.400001525879</ele>
        <time>2016-05-16T14:51:25.000Z</time>
      </trkpt>
      <trkpt lat="43.19535" lon="5.69576">
        <ele>65</ele>
        <time>2016-05-16T14:51:30.000Z</time>
      </trkpt>
      <trkpt lat="43.19529" lon="5.69548">
        <ele>64.599998474121</ele>
        <time>2016-05-16T14:51:34.000Z</time>
      </trkpt>
      <trkpt lat="43.19525" lon="5.69524">
        <ele>64.400001525879</ele>
        <time>2016-05-16T14:51:37.000Z</time>
      </trkpt>
      <trkpt lat="43.19519" lon="5.6949">
        <ele>64.400001525879</ele>
        <time>2016-05-16T14:51:41.000Z</time>
      </trkpt>
      <trkpt lat="43.19518" lon="5.69481">
        <ele>64.400001525879</ele>
        <time>2016-05-16T14:51:42.000Z</time>
      </trkpt>
      <trkpt lat="43.1951" lon="5.69437">
        <ele>64.599998474121</ele>
        <time>2016-05-16T14:51:47.000Z</time>
      </trkpt>
      <trkpt lat="43.19507" lon="5.69421">
        <ele>64.800003051758</ele>
        <time>2016-05-16T14:51:49.000Z</time>
      </trkpt>
      <trkpt lat="43.19499" lon="5.69369">
        <ele>65.599998474121</ele>
        <time>2016-05-16T14:51:56.000Z</time>
      </trkpt>
      <trkpt lat="43.19496" lon="5.69356">
        <ele>65.800003051758</ele>
        <time>2016-05-16T14:51:58.000Z</time>
      </trkpt>
      <trkpt lat="43.19491" lon="5.69334">
        <ele>66.199996948242</ele>
        <time>2016-05-16T14:52:01.000Z</time>
      </trkpt>
      <trkpt lat="43.19486" lon="5.69305">
        <ele>66.800003051758</ele>
        <time>2016-05-16T14:52:05.000Z</time>
      </trkpt>
      <trkpt lat="43.19486" lon="5.69298">
        <ele>66.800003051758</ele>
        <time>2016-05-16T14:52:06.000Z</time>
      </trkpt>
      <trkpt lat="43.19483" lon="5.69277">
        <ele>67</ele>
        <time>2016-05-16T14:52:09.000Z</time>
      </trkpt>
      <trkpt lat="43.19482" lon="5.69264">
        <ele>67</ele>
        <time>2016-05-16T14:52:11.000Z</time>
      </trkpt>
      <trkpt lat="43.19482" lon="5.69258">
        <ele>67</ele>
        <time>2016-05-16T14:52:12.000Z</time>
      </trkpt>
      <trkpt lat="43.19481" lon="5.69252">
        <ele>67</ele>
        <time>2016-05-16T14:52:13.000Z</time>
      </trkpt>
      <trkpt lat="43.19479" lon="5.69237">
        <ele>67</ele>
        <time>2016-05-16T14:52:17.000Z</time>
      </trkpt>
      <trkpt lat="43.19478" lon="5.69226">
        <ele>67.199996948242</ele>
        <time>2016-05-16T14:52:21.000Z</time>
      </trkpt>
      <trkpt lat="43.19477" lon="5.69224">
        <ele>67</ele>
        <time>2016-05-16T14:52:23.000Z</time>
      </trkpt>
      <trkpt lat="43.19472" lon="5.6922">
        <ele>66.599998474121</ele>
        <time>2016-05-16T14:52:26.000Z</time>
      </trkpt>
      <trkpt lat="43.19456" lon="5.69224">
        <ele>65.400001525879</ele>
        <time>2016-05-16T14:52:30.000Z</time>
      </trkpt>
      <trkpt lat="43.19418" lon="5.69237">
        <ele>62.200000762939</ele>
        <time>2016-05-16T14:52:37.000Z</time>
      </trkpt>
      <trkpt lat="43.19392" lon="5.69249">
        <ele>60.400001525879</ele>
        <time>2016-05-16T14:52:42.000Z</time>
      </trkpt>
      <trkpt lat="43.19387" lon="5.69252">
        <ele>60.200000762939</ele>
        <time>2016-05-16T14:52:43.000Z</time>
      </trkpt>
      <trkpt lat="43.1937" lon="5.69263">
        <ele>59</ele>
        <time>2016-05-16T14:52:46.000Z</time>
      </trkpt>
      <trkpt lat="43.19358" lon="5.69273">
        <ele>58.200000762939</ele>
        <time>2016-05-16T14:52:48.000Z</time>
      </trkpt>
      <trkpt lat="43.19351" lon="5.69278">
        <ele>57.599998474121</ele>
        <time>2016-05-16T14:52:49.000Z</time>
      </trkpt>
      <trkpt lat="43.19338" lon="5.69289">
        <ele>57</ele>
        <time>2016-05-16T14:52:51.000Z</time>
      </trkpt>
      <trkpt lat="43.19325" lon="5.69301">
        <ele>56.400001525879</ele>
        <time>2016-05-16T14:52:53.000Z</time>
      </trkpt>
      <trkpt lat="43.19317" lon="5.69306">
        <ele>56</ele>
        <time>2016-05-16T14:52:54.000Z</time>
      </trkpt>
      <trkpt lat="43.1931" lon="5.69311">
        <ele>55.599998474121</ele>
        <time>2016-05-16T14:52:55.000Z</time>
      </trkpt>
      <trkpt lat="43.19294" lon="5.6932">
        <ele>55</ele>
        <time>2016-05-16T14:52:57.000Z</time>
      </trkpt>
      <trkpt lat="43.19278" lon="5.6933">
        <ele>54.200000762939</ele>
        <time>2016-05-16T14:52:59.000Z</time>
      </trkpt>
      <trkpt lat="43.19263" lon="5.6934">
        <ele>53.200000762939</ele>
        <time>2016-05-16T14:53:01.000Z</time>
      </trkpt>
      <trkpt lat="43.1924" lon="5.69355">
        <ele>51.799999237061</ele>
        <time>2016-05-16T14:53:04.000Z</time>
      </trkpt>
      <trkpt lat="43.19218" lon="5.69367">
        <ele>50.599998474121</ele>
        <time>2016-05-16T14:53:07.000Z</time>
      </trkpt>
      <trkpt lat="43.19212" lon="5.6937">
        <ele>50.400001525879</ele>
        <time>2016-05-16T14:53:08.000Z</time>
      </trkpt>
      <trkpt lat="43.19206" lon="5.69369">
        <ele>50.200000762939</ele>
        <time>2016-05-16T14:53:10.000Z</time>
      </trkpt>
      <trkpt lat="43.192" lon="5.69364">
        <ele>50</ele>
        <time>2016-05-16T14:53:13.000Z</time>
      </trkpt>
      <trkpt lat="43.19199" lon="5.69359">
        <ele>50</ele>
        <time>2016-05-16T14:53:14.000Z</time>
      </trkpt>
      <trkpt lat="43.19199" lon="5.69332">
        <ele>50.400001525879</ele>
        <time>2016-05-16T14:53:18.000Z</time>
      </trkpt>
      <trkpt lat="43.192" lon="5.6929">
        <ele>52</ele>
        <time>2016-05-16T14:53:25.000Z</time>
      </trkpt>
      <trkpt lat="43.19201" lon="5.69267">
        <ele>53.599998474121</ele>
        <time>2016-05-16T14:53:30.000Z</time>
      </trkpt>
      <trkpt lat="43.19201" lon="5.69238">
        <ele>55.599998474121</ele>
        <time>2016-05-16T14:53:36.000Z</time>
      </trkpt>
      <trkpt lat="43.19203" lon="5.69218">
        <ele>55.799999237061</ele>
        <time>2016-05-16T14:53:40.000Z</time>
      </trkpt>
      <trkpt lat="43.19201" lon="5.69192">
        <ele>56.799999237061</ele>
        <time>2016-05-16T14:53:46.000Z</time>
      </trkpt>
      <trkpt lat="43.19195" lon="5.69171">
        <ele>57.599998474121</ele>
        <time>2016-05-16T14:53:52.000Z</time>
      </trkpt>
      <trkpt lat="43.19195" lon="5.69163">
        <ele>57.799999237061</ele>
        <time>2016-05-16T14:53:54.000Z</time>
      </trkpt>
      <trkpt lat="43.19196" lon="5.69139">
        <ele>58.599998474121</ele>
        <time>2016-05-16T14:53:59.000Z</time>
      </trkpt>
      <trkpt lat="43.19205" lon="5.69102">
        <ele>56.599998474121</ele>
        <time>2016-05-16T14:54:06.000Z</time>
      </trkpt>
      <trkpt lat="43.19205" lon="5.69096">
        <ele>56.400001525879</ele>
        <time>2016-05-16T14:54:07.000Z</time>
      </trkpt>
      <trkpt lat="43.19203" lon="5.69083">
        <ele>55.799999237061</ele>
        <time>2016-05-16T14:54:09.000Z</time>
      </trkpt>
      <trkpt lat="43.19201" lon="5.69069">
        <ele>55.400001525879</ele>
        <time>2016-05-16T14:54:11.000Z</time>
      </trkpt>
      <trkpt lat="43.19199" lon="5.69056">
        <ele>55</ele>
        <time>2016-05-16T14:54:13.000Z</time>
      </trkpt>
      <trkpt lat="43.19197" lon="5.69044">
        <ele>55.200000762939</ele>
        <time>2016-05-16T14:54:15.000Z</time>
      </trkpt>
      <trkpt lat="43.19196" lon="5.69039">
        <ele>55.200000762939</ele>
        <time>2016-05-16T14:54:16.000Z</time>
      </trkpt>
      <trkpt lat="43.19193" lon="5.69005">
        <ele>55.599998474121</ele>
        <time>2016-05-16T14:54:22.000Z</time>
      </trkpt>
      <trkpt lat="43.19195" lon="5.68968">
        <ele>55.599998474121</ele>
        <time>2016-05-16T14:54:28.000Z</time>
      </trkpt>
      <trkpt lat="43.19198" lon="5.68936">
        <ele>54.799999237061</ele>
        <time>2016-05-16T14:54:33.000Z</time>
      </trkpt>
      <trkpt lat="43.19199" lon="5.68929">
        <ele>54.599998474121</ele>
        <time>2016-05-16T14:54:34.000Z</time>
      </trkpt>
      <trkpt lat="43.19201" lon="5.68903">
        <ele>54</ele>
        <time>2016-05-16T14:54:38.000Z</time>
      </trkpt>
      <trkpt lat="43.19202" lon="5.68897">
        <ele>54</ele>
        <time>2016-05-16T14:54:39.000Z</time>
      </trkpt>
      <trkpt lat="43.19202" lon="5.68886">
        <ele>54</ele>
        <time>2016-05-16T14:54:41.000Z</time>
      </trkpt>
      <trkpt lat="43.19201" lon="5.68865">
        <ele>53.799999237061</ele>
        <time>2016-05-16T14:54:45.000Z</time>
      </trkpt>
      <trkpt lat="43.19199" lon="5.68848">
        <ele>53.599998474121</ele>
        <time>2016-05-16T14:54:49.000Z</time>
      </trkpt>
      <trkpt lat="43.19197" lon="5.68836">
        <ele>53.400001525879</ele>
        <time>2016-05-16T14:54:52.000Z</time>
      </trkpt>
      <trkpt lat="43.19189" lon="5.68801">
        <ele>53.400001525879</ele>
        <time>2016-05-16T14:54:58.000Z</time>
      </trkpt>
      <trkpt lat="43.19178" lon="5.6876">
        <ele>52</ele>
        <time>2016-05-16T14:55:04.000Z</time>
      </trkpt>
      <trkpt lat="43.19174" lon="5.68753">
        <ele>51.599998474121</ele>
        <time>2016-05-16T14:55:05.000Z</time>
      </trkpt>
      <trkpt lat="43.1917" lon="5.68746">
        <ele>51.200000762939</ele>
        <time>2016-05-16T14:55:06.000Z</time>
      </trkpt>
      <trkpt lat="43.19162" lon="5.68734">
        <ele>50.599998474121</ele>
        <time>2016-05-16T14:55:08.000Z</time>
      </trkpt>
      <trkpt lat="43.19157" lon="5.6872">
        <ele>50</ele>
        <time>2016-05-16T14:55:10.000Z</time>
      </trkpt>
      <trkpt lat="43.19155" lon="5.68705">
        <ele>50.599998474121</ele>
        <time>2016-05-16T14:55:12.000Z</time>
      </trkpt>
      <trkpt lat="43.19155" lon="5.68692">
        <ele>51.200000762939</ele>
        <time>2016-05-16T14:55:14.000Z</time>
      </trkpt>
      <trkpt lat="43.19154" lon="5.68672">
        <ele>52.200000762939</ele>
        <time>2016-05-16T14:55:17.000Z</time>
      </trkpt>
      <trkpt lat="43.19154" lon="5.68666">
        <ele>52.400001525879</ele>
        <time>2016-05-16T14:55:18.000Z</time>
      </trkpt>
      <trkpt lat="43.19152" lon="5.68645">
        <ele>53.400001525879</ele>
        <time>2016-05-16T14:55:22.000Z</time>
      </trkpt>
      <trkpt lat="43.19157" lon="5.68618">
        <ele>56.400001525879</ele>
        <time>2016-05-16T14:55:27.000Z</time>
      </trkpt>
      <trkpt lat="43.1916" lon="5.686">
        <ele>57.799999237061</ele>
        <time>2016-05-16T14:55:30.000Z</time>
      </trkpt>
      <trkpt lat="43.19165" lon="5.68578">
        <ele>59.400001525879</ele>
        <time>2016-05-16T14:55:34.000Z</time>
      </trkpt>
      <trkpt lat="43.19167" lon="5.68566">
        <ele>60.200000762939</ele>
        <time>2016-05-16T14:55:36.000Z</time>
      </trkpt>
      <trkpt lat="43.19168" lon="5.6856">
        <ele>60.599998474121</ele>
        <time>2016-05-16T14:55:37.000Z</time>
      </trkpt>
      <trkpt lat="43.19172" lon="5.68549">
        <ele>61.400001525879</ele>
        <time>2016-05-16T14:55:39.000Z</time>
      </trkpt>
      <trkpt lat="43.19176" lon="5.68531">
        <ele>62.799999237061</ele>
        <time>2016-05-16T14:55:42.000Z</time>
      </trkpt>
      <trkpt lat="43.1918" lon="5.68519">
        <ele>63.799999237061</ele>
        <time>2016-05-16T14:55:44.000Z</time>
      </trkpt>
      <trkpt lat="43.19185" lon="5.68496">
        <ele>65.800003051758</ele>
        <time>2016-05-16T14:55:48.000Z</time>
      </trkpt>
      <trkpt lat="43.19187" lon="5.68491">
        <ele>66.199996948242</ele>
        <time>2016-05-16T14:55:49.000Z</time>
      </trkpt>
      <trkpt lat="43.19192" lon="5.68481">
        <ele>67</ele>
        <time>2016-05-16T14:55:51.000Z</time>
      </trkpt>
      <trkpt lat="43.19197" lon="5.68465">
        <ele>68.599998474121</ele>
        <time>2016-05-16T14:55:54.000Z</time>
      </trkpt>
      <trkpt lat="43.19201" lon="5.68454">
        <ele>69.599998474121</ele>
        <time>2016-05-16T14:55:56.000Z</time>
      </trkpt>
      <trkpt lat="43.19204" lon="5.68444">
        <ele>70.599998474121</ele>
        <time>2016-05-16T14:55:58.000Z</time>
      </trkpt>
      <trkpt lat="43.19209" lon="5.68422">
        <ele>72.400001525879</ele>
        <time>2016-05-16T14:56:02.000Z</time>
      </trkpt>
      <trkpt lat="43.19212" lon="5.68406">
        <ele>72.800003051758</ele>
        <time>2016-05-16T14:56:05.000Z</time>
      </trkpt>
      <trkpt lat="43.19218" lon="5.68384">
        <ele>72.800003051758</ele>
        <time>2016-05-16T14:56:09.000Z</time>
      </trkpt>
      <trkpt lat="43.1922" lon="5.68375">
        <ele>73.599998474121</ele>
        <time>2016-05-16T14:56:11.000Z</time>
      </trkpt>
      <trkpt lat="43.19221" lon="5.68369">
        <ele>74</ele>
        <time>2016-05-16T14:56:12.000Z</time>
      </trkpt>
      <trkpt lat="43.19224" lon="5.68359">
        <ele>74.800003051758</ele>
        <time>2016-05-16T14:56:14.000Z</time>
      </trkpt>
      <trkpt lat="43.19229" lon="5.68344">
        <ele>75.599998474121</ele>
        <time>2016-05-16T14:56:17.000Z</time>
      </trkpt>
      <trkpt lat="43.19233" lon="5.68329">
        <ele>75.800003051758</ele>
        <time>2016-05-16T14:56:20.000Z</time>
      </trkpt>
      <trkpt lat="43.19236" lon="5.6832">
        <ele>76</ele>
        <time>2016-05-16T14:56:22.000Z</time>
      </trkpt>
      <trkpt lat="43.19238" lon="5.6831">
        <ele>76.199996948242</ele>
        <time>2016-05-16T14:56:24.000Z</time>
      </trkpt>
      <trkpt lat="43.19241" lon="5.68303">
        <ele>76.199996948242</ele>
        <time>2016-05-16T14:56:25.000Z</time>
      </trkpt>
      <trkpt lat="43.19246" lon="5.68285">
        <ele>76.800003051758</ele>
        <time>2016-05-16T14:56:28.000Z</time>
      </trkpt>
      <trkpt lat="43.19248" lon="5.68276">
        <ele>77.199996948242</ele>
        <time>2016-05-16T14:56:30.000Z</time>
      </trkpt>
      <trkpt lat="43.1925" lon="5.68267">
        <ele>77.599998474121</ele>
        <time>2016-05-16T14:56:32.000Z</time>
      </trkpt>
      <trkpt lat="43.19247" lon="5.68258">
        <ele>78.400001525879</ele>
        <time>2016-05-16T14:56:34.000Z</time>
      </trkpt>
      <trkpt lat="43.19246" lon="5.68249">
        <ele>79.199996948242</ele>
        <time>2016-05-16T14:56:36.000Z</time>
      </trkpt>
      <trkpt lat="43.19246" lon="5.68245">
        <ele>79.400001525879</ele>
        <time>2016-05-16T14:56:37.000Z</time>
      </trkpt>
      <trkpt lat="43.19247" lon="5.68231">
        <ele>80</ele>
        <time>2016-05-16T14:56:40.000Z</time>
      </trkpt>
      <trkpt lat="43.19247" lon="5.68221">
        <ele>80.599998474121</ele>
        <time>2016-05-16T14:56:42.000Z</time>
      </trkpt>
      <trkpt lat="43.19247" lon="5.68216">
        <ele>81</ele>
        <time>2016-05-16T14:56:43.000Z</time>
      </trkpt>
      <trkpt lat="43.19245" lon="5.682">
        <ele>81.800003051758</ele>
        <time>2016-05-16T14:56:46.000Z</time>
      </trkpt>
      <trkpt lat="43.19244" lon="5.68195">
        <ele>82.199996948242</ele>
        <time>2016-05-16T14:56:47.000Z</time>
      </trkpt>
      <trkpt lat="43.19244" lon="5.68189">
        <ele>82.599998474121</ele>
        <time>2016-05-16T14:56:48.000Z</time>
      </trkpt>
      <trkpt lat="43.19243" lon="5.68178">
        <ele>83.400001525879</ele>
        <time>2016-05-16T14:56:50.000Z</time>
      </trkpt>
      <trkpt lat="43.19241" lon="5.68166">
        <ele>84.199996948242</ele>
        <time>2016-05-16T14:56:52.000Z</time>
      </trkpt>
      <trkpt lat="43.1924" lon="5.68159">
        <ele>84.599998474121</ele>
        <time>2016-05-16T14:56:53.000Z</time>
      </trkpt>
      <trkpt lat="43.19239" lon="5.68149">
        <ele>85.400001525879</ele>
        <time>2016-05-16T14:56:55.000Z</time>
      </trkpt>
      <trkpt lat="43.19237" lon="5.68138">
        <ele>86.199996948242</ele>
        <time>2016-05-16T14:56:57.000Z</time>
      </trkpt>
      <trkpt lat="43.19236" lon="5.68133">
        <ele>86.400001525879</ele>
        <time>2016-05-16T14:56:58.000Z</time>
      </trkpt>
      <trkpt lat="43.19233" lon="5.68106">
        <ele>86.400001525879</ele>
        <time>2016-05-16T14:57:04.000Z</time>
      </trkpt>
      <trkpt lat="43.19233" lon="5.68102">
        <ele>86.400001525879</ele>
        <time>2016-05-16T14:57:05.000Z</time>
      </trkpt>
      <trkpt lat="43.19232" lon="5.68078">
        <ele>86.400001525879</ele>
        <time>2016-05-16T14:57:09.000Z</time>
      </trkpt>
      <trkpt lat="43.19231" lon="5.68031">
        <ele>84.800003051758</ele>
        <time>2016-05-16T14:57:16.000Z</time>
      </trkpt>
      <trkpt lat="43.1923" lon="5.68023">
        <ele>84.199996948242</ele>
        <time>2016-05-16T14:57:17.000Z</time>
      </trkpt>
      <trkpt lat="43.19227" lon="5.6799">
        <ele>82.599998474121</ele>
        <time>2016-05-16T14:57:21.000Z</time>
      </trkpt>
      <trkpt lat="43.19223" lon="5.67974">
        <ele>82</ele>
        <time>2016-05-16T14:57:23.000Z</time>
      </trkpt>
      <trkpt lat="43.19218" lon="5.67956">
        <ele>81.199996948242</ele>
        <time>2016-05-16T14:57:25.000Z</time>
      </trkpt>
      <trkpt lat="43.19208" lon="5.67925">
        <ele>79.400001525879</ele>
        <time>2016-05-16T14:57:28.000Z</time>
      </trkpt>
      <trkpt lat="43.19191" lon="5.67878">
        <ele>78.199996948242</ele>
        <time>2016-05-16T14:57:32.000Z</time>
      </trkpt>
      <trkpt lat="43.19178" lon="5.67857">
        <ele>77.599998474121</ele>
        <time>2016-05-16T14:57:34.000Z</time>
      </trkpt>
      <trkpt lat="43.19167" lon="5.67838">
        <ele>77.599998474121</ele>
        <time>2016-05-16T14:57:36.000Z</time>
      </trkpt>
      <trkpt lat="43.19152" lon="5.6781">
        <ele>77.400001525879</ele>
        <time>2016-05-16T14:57:39.000Z</time>
      </trkpt>
      <trkpt lat="43.19147" lon="5.67801">
        <ele>77.400001525879</ele>
        <time>2016-05-16T14:57:40.000Z</time>
      </trkpt>
      <trkpt lat="43.19143" lon="5.67793">
        <ele>77.800003051758</ele>
        <time>2016-05-16T14:57:41.000Z</time>
      </trkpt>
      <trkpt lat="43.19139" lon="5.67784">
        <ele>78.199996948242</ele>
        <time>2016-05-16T14:57:42.000Z</time>
      </trkpt>
      <trkpt lat="43.19134" lon="5.67766">
        <ele>78.800003051758</ele>
        <time>2016-05-16T14:57:44.000Z</time>
      </trkpt>
      <trkpt lat="43.19132" lon="5.67757">
        <ele>79.199996948242</ele>
        <time>2016-05-16T14:57:45.000Z</time>
      </trkpt>
      <trkpt lat="43.19126" lon="5.67727">
        <ele>78.599998474121</ele>
        <time>2016-05-16T14:57:49.000Z</time>
      </trkpt>
      <trkpt lat="43.19125" lon="5.67721">
        <ele>78.599998474121</ele>
        <time>2016-05-16T14:57:50.000Z</time>
      </trkpt>
      <trkpt lat="43.19124" lon="5.67699">
        <ele>78</ele>
        <time>2016-05-16T14:57:54.000Z</time>
      </trkpt>
      <trkpt lat="43.19121" lon="5.67689">
        <ele>78</ele>
        <time>2016-05-16T14:57:56.000Z</time>
      </trkpt>
      <trkpt lat="43.19116" lon="5.67677">
        <ele>78.199996948242</ele>
        <time>2016-05-16T14:57:58.000Z</time>
      </trkpt>
      <trkpt lat="43.19095" lon="5.67641">
        <ele>79</ele>
        <time>2016-05-16T14:58:04.000Z</time>
      </trkpt>
      <trkpt lat="43.19079" lon="5.67621">
        <ele>77</ele>
        <time>2016-05-16T14:58:07.000Z</time>
      </trkpt>
      <trkpt lat="43.19068" lon="5.67607">
        <ele>75.199996948242</ele>
        <time>2016-05-16T14:58:09.000Z</time>
      </trkpt>
      <trkpt lat="43.19063" lon="5.676">
        <ele>74.199996948242</ele>
        <time>2016-05-16T14:58:10.000Z</time>
      </trkpt>
      <trkpt lat="43.19058" lon="5.67594">
        <ele>73.400001525879</ele>
        <time>2016-05-16T14:58:11.000Z</time>
      </trkpt>
      <trkpt lat="43.19048" lon="5.67581">
        <ele>71.599998474121</ele>
        <time>2016-05-16T14:58:13.000Z</time>
      </trkpt>
      <trkpt lat="43.19038" lon="5.67569">
        <ele>70</ele>
        <time>2016-05-16T14:58:15.000Z</time>
      </trkpt>
      <trkpt lat="43.19028" lon="5.67557">
        <ele>68.400001525879</ele>
        <time>2016-05-16T14:58:17.000Z</time>
      </trkpt>
      <trkpt lat="43.19023" lon="5.6755">
        <ele>67.400001525879</ele>
        <time>2016-05-16T14:58:18.000Z</time>
      </trkpt>
      <trkpt lat="43.19018" lon="5.67544">
        <ele>66.199996948242</ele>
        <time>2016-05-16T14:58:19.000Z</time>
      </trkpt>
      <trkpt lat="43.19006" lon="5.67532">
        <ele>64</ele>
        <time>2016-05-16T14:58:21.000Z</time>
      </trkpt>
      <trkpt lat="43.18999" lon="5.67526">
        <ele>62.599998474121</ele>
        <time>2016-05-16T14:58:22.000Z</time>
      </trkpt>
      <trkpt lat="43.18987" lon="5.67514">
        <ele>59.799999237061</ele>
        <time>2016-05-16T14:58:24.000Z</time>
      </trkpt>
      <trkpt lat="43.18975" lon="5.67502">
        <ele>57.200000762939</ele>
        <time>2016-05-16T14:58:26.000Z</time>
      </trkpt>
      <trkpt lat="43.18964" lon="5.6749">
        <ele>54.799999237061</ele>
        <time>2016-05-16T14:58:28.000Z</time>
      </trkpt>
      <trkpt lat="43.18953" lon="5.67479">
        <ele>52.400001525879</ele>
        <time>2016-05-16T14:58:30.000Z</time>
      </trkpt>
      <trkpt lat="43.18949" lon="5.67473">
        <ele>51</ele>
        <time>2016-05-16T14:58:31.000Z</time>
      </trkpt>
      <trkpt lat="43.18944" lon="5.67467">
        <ele>50.200000762939</ele>
        <time>2016-05-16T14:58:32.000Z</time>
      </trkpt>
      <trkpt lat="43.18936" lon="5.67454">
        <ele>49.400001525879</ele>
        <time>2016-05-16T14:58:34.000Z</time>
      </trkpt>
      <trkpt lat="43.18933" lon="5.67448">
        <ele>49</ele>
        <time>2016-05-16T14:58:35.000Z</time>
      </trkpt>
      <trkpt lat="43.1893" lon="5.67442">
        <ele>48.599998474121</ele>
        <time>2016-05-16T14:58:36.000Z</time>
      </trkpt>
      <trkpt lat="43.18924" lon="5.6743">
        <ele>48.799999237061</ele>
        <time>2016-05-16T14:58:38.000Z</time>
      </trkpt>
      <trkpt lat="43.18921" lon="5.67416">
        <ele>48.799999237061</ele>
        <time>2016-05-16T14:58:40.000Z</time>
      </trkpt>
      <trkpt lat="43.1892" lon="5.67404">
        <ele>48.400001525879</ele>
        <time>2016-05-16T14:58:42.000Z</time>
      </trkpt>
      <trkpt lat="43.18922" lon="5.67397">
        <ele>47.599998474121</ele>
        <time>2016-05-16T14:58:44.000Z</time>
      </trkpt>
      <trkpt lat="43.18923" lon="5.67393">
        <ele>47.200000762939</ele>
        <time>2016-05-16T14:58:46.000Z</time>
      </trkpt>
      <trkpt lat="43.18923" lon="5.67391">
        <ele>47.200000762939</ele>
        <time>2016-05-16T14:58:47.000Z</time>
      </trkpt>
      <trkpt lat="43.18922" lon="5.6739">
        <ele>47.400001525879</ele>
        <time>2016-05-16T14:58:48.000Z</time>
      </trkpt>
      <trkpt lat="43.18921" lon="5.6739">
        <ele>47.599998474121</ele>
        <time>2016-05-16T14:58:49.000Z</time>
      </trkpt>
      <trkpt lat="43.18916" lon="5.67387">
        <ele>48.400001525879</ele>
        <time>2016-05-16T14:58:52.000Z</time>
      </trkpt>
      <trkpt lat="43.18914" lon="5.67386">
        <ele>48.599998474121</ele>
        <time>2016-05-16T14:58:53.000Z</time>
      </trkpt>
      <trkpt lat="43.18907" lon="5.67376">
        <ele>48.200000762939</ele>
        <time>2016-05-16T14:58:57.000Z</time>
      </trkpt>
      <trkpt lat="43.18903" lon="5.67371">
        <ele>47.799999237061</ele>
        <time>2016-05-16T14:58:59.000Z</time>
      </trkpt>
      <trkpt lat="43.1889" lon="5.67348">
        <ele>46</ele>
        <time>2016-05-16T14:59:05.000Z</time>
      </trkpt>
      <trkpt lat="43.18886" lon="5.67341">
        <ele>45.799999237061</ele>
        <time>2016-05-16T14:59:06.000Z</time>
      </trkpt>
      <trkpt lat="43.18875" lon="5.67313">
        <ele>44.599998474121</ele>
        <time>2016-05-16T14:59:10.000Z</time>
      </trkpt>
      <trkpt lat="43.1887" lon="5.67292">
        <ele>42.599998474121</ele>
        <time>2016-05-16T14:59:13.000Z</time>
      </trkpt>
      <trkpt lat="43.18869" lon="5.67271">
        <ele>39.599998474121</ele>
        <time>2016-05-16T14:59:16.000Z</time>
      </trkpt>
      <trkpt lat="43.18869" lon="5.67255">
        <ele>37.400001525879</ele>
        <time>2016-05-16T14:59:18.000Z</time>
      </trkpt>
      <trkpt lat="43.1887" lon="5.67225">
        <ele>35.200000762939</ele>
        <time>2016-05-16T14:59:22.000Z</time>
      </trkpt>
      <trkpt lat="43.18873" lon="5.67172">
        <ele>33.400001525879</ele>
        <time>2016-05-16T14:59:29.000Z</time>
      </trkpt>
      <trkpt lat="43.18875" lon="5.67126">
        <ele>32.599998474121</ele>
        <time>2016-05-16T14:59:34.000Z</time>
      </trkpt>
      <trkpt lat="43.18875" lon="5.67117">
        <ele>32.599998474121</ele>
        <time>2016-05-16T14:59:35.000Z</time>
      </trkpt>
      <trkpt lat="43.18877" lon="5.67097">
        <ele>32.400001525879</ele>
        <time>2016-05-16T14:59:37.000Z</time>
      </trkpt>
      <trkpt lat="43.18876" lon="5.6707">
        <ele>31.39999961853</ele>
        <time>2016-05-16T14:59:40.000Z</time>
      </trkpt>
      <trkpt lat="43.18875" lon="5.6706">
        <ele>30.799999237061</ele>
        <time>2016-05-16T14:59:41.000Z</time>
      </trkpt>
      <trkpt lat="43.18869" lon="5.67014">
        <ele>28.799999237061</ele>
        <time>2016-05-16T14:59:46.000Z</time>
      </trkpt>
      <trkpt lat="43.18867" lon="5.66995">
        <ele>28.200000762939</ele>
        <time>2016-05-16T14:59:48.000Z</time>
      </trkpt>
      <trkpt lat="43.18865" lon="5.66975">
        <ele>27.60000038147</ele>
        <time>2016-05-16T14:59:50.000Z</time>
      </trkpt>
      <trkpt lat="43.18863" lon="5.66956">
        <ele>27</ele>
        <time>2016-05-16T14:59:52.000Z</time>
      </trkpt>
      <trkpt lat="43.18862" lon="5.66947">
        <ele>26.60000038147</ele>
        <time>2016-05-16T14:59:53.000Z</time>
      </trkpt>
      <trkpt lat="43.18856" lon="5.66903">
        <ele>24.799999237061</ele>
        <time>2016-05-16T14:59:58.000Z</time>
      </trkpt>
      <trkpt lat="43.18854" lon="5.66887">
        <ele>24.39999961853</ele>
        <time>2016-05-16T15:00:00.000Z</time>
      </trkpt>
      <trkpt lat="43.18848" lon="5.66839">
        <ele>24.60000038147</ele>
        <time>2016-05-16T15:00:07.000Z</time>
      </trkpt>
      <trkpt lat="43.18841" lon="5.66807">
        <ele>24.799999237061</ele>
        <time>2016-05-16T15:00:13.000Z</time>
      </trkpt>
      <trkpt lat="43.18838" lon="5.66778">
        <ele>25</ele>
        <time>2016-05-16T15:00:18.000Z</time>
      </trkpt>
      <trkpt lat="43.18837" lon="5.66758">
        <ele>25</ele>
        <time>2016-05-16T15:00:21.000Z</time>
      </trkpt>
      <trkpt lat="43.18837" lon="5.66744">
        <ele>25</ele>
        <time>2016-05-16T15:00:23.000Z</time>
      </trkpt>
      <trkpt lat="43.18837" lon="5.66737">
        <ele>25</ele>
        <time>2016-05-16T15:00:24.000Z</time>
      </trkpt>
      <trkpt lat="43.18833" lon="5.66694">
        <ele>25.39999961853</ele>
        <time>2016-05-16T15:00:30.000Z</time>
      </trkpt>
      <trkpt lat="43.18831" lon="5.66688">
        <ele>25.60000038147</ele>
        <time>2016-05-16T15:00:31.000Z</time>
      </trkpt>
      <trkpt lat="43.18827" lon="5.66674">
        <ele>25.799999237061</ele>
        <time>2016-05-16T15:00:33.000Z</time>
      </trkpt>
      <trkpt lat="43.18825" lon="5.66668">
        <ele>25.799999237061</ele>
        <time>2016-05-16T15:00:34.000Z</time>
      </trkpt>
      <trkpt lat="43.18818" lon="5.66649">
        <ele>26.200000762939</ele>
        <time>2016-05-16T15:00:37.000Z</time>
      </trkpt>
      <trkpt lat="43.18815" lon="5.66636">
        <ele>26.39999961853</ele>
        <time>2016-05-16T15:00:39.000Z</time>
      </trkpt>
      <trkpt lat="43.18808" lon="5.666">
        <ele>27.39999961853</ele>
        <time>2016-05-16T15:00:45.000Z</time>
      </trkpt>
      <trkpt lat="43.18802" lon="5.66575">
        <ele>28.39999961853</ele>
        <time>2016-05-16T15:00:49.000Z</time>
      </trkpt>
      <trkpt lat="43.18799" lon="5.66568">
        <ele>28.799999237061</ele>
        <time>2016-05-16T15:00:50.000Z</time>
      </trkpt>
      <trkpt lat="43.18796" lon="5.66563">
        <ele>29</ele>
        <time>2016-05-16T15:00:51.000Z</time>
      </trkpt>
      <trkpt lat="43.18795" lon="5.66557">
        <ele>29.200000762939</ele>
        <time>2016-05-16T15:00:52.000Z</time>
      </trkpt>
      <trkpt lat="43.18784" lon="5.66533">
        <ele>29.60000038147</ele>
        <time>2016-05-16T15:00:56.000Z</time>
      </trkpt>
      <trkpt lat="43.1877" lon="5.66505">
        <ele>29.60000038147</ele>
        <time>2016-05-16T15:01:00.000Z</time>
      </trkpt>
      <trkpt lat="43.18765" lon="5.66489">
        <ele>29.799999237061</ele>
        <time>2016-05-16T15:01:02.000Z</time>
      </trkpt>
      <trkpt lat="43.18751" lon="5.66447">
        <ele>28.200000762939</ele>
        <time>2016-05-16T15:01:07.000Z</time>
      </trkpt>
      <trkpt lat="43.18742" lon="5.66422">
        <ele>26.39999961853</ele>
        <time>2016-05-16T15:01:10.000Z</time>
      </trkpt>
      <trkpt lat="43.18737" lon="5.66404">
        <ele>25.60000038147</ele>
        <time>2016-05-16T15:01:12.000Z</time>
      </trkpt>
      <trkpt lat="43.18728" lon="5.6638">
        <ele>24.200000762939</ele>
        <time>2016-05-16T15:01:15.000Z</time>
      </trkpt>
      <trkpt lat="43.18725" lon="5.66372">
        <ele>24</ele>
        <time>2016-05-16T15:01:16.000Z</time>
      </trkpt>
      <trkpt lat="43.1872" lon="5.66365">
        <ele>23.60000038147</ele>
        <time>2016-05-16T15:01:17.000Z</time>
      </trkpt>
      <trkpt lat="43.18709" lon="5.66342">
        <ele>22.799999237061</ele>
        <time>2016-05-16T15:01:20.000Z</time>
      </trkpt>
      <trkpt lat="43.18705" lon="5.66337">
        <ele>22.39999961853</ele>
        <time>2016-05-16T15:01:21.000Z</time>
      </trkpt>
      <trkpt lat="43.18698" lon="5.6633">
        <ele>21.799999237061</ele>
        <time>2016-05-16T15:01:23.000Z</time>
      </trkpt>
      <trkpt lat="43.18695" lon="5.66327">
        <ele>21.39999961853</ele>
        <time>2016-05-16T15:01:24.000Z</time>
      </trkpt>
      <trkpt lat="43.18684" lon="5.66315">
        <ele>20.39999961853</ele>
        <time>2016-05-16T15:01:27.000Z</time>
      </trkpt>
      <trkpt lat="43.18669" lon="5.66297">
        <ele>19.799999237061</ele>
        <time>2016-05-16T15:01:31.000Z</time>
      </trkpt>
      <trkpt lat="43.18656" lon="5.6627">
        <ele>19</ele>
        <time>2016-05-16T15:01:35.000Z</time>
      </trkpt>
      <trkpt lat="43.18654" lon="5.66263">
        <ele>19</ele>
        <time>2016-05-16T15:01:36.000Z</time>
      </trkpt>
      <trkpt lat="43.18641" lon="5.66231">
        <ele>18.200000762939</ele>
        <time>2016-05-16T15:01:41.000Z</time>
      </trkpt>
      <trkpt lat="43.18637" lon="5.66226">
        <ele>18.200000762939</ele>
        <time>2016-05-16T15:01:42.000Z</time>
      </trkpt>
      <trkpt lat="43.18634" lon="5.66222">
        <ele>18</ele>
        <time>2016-05-16T15:01:43.000Z</time>
      </trkpt>
      <trkpt lat="43.18626" lon="5.66216">
        <ele>17.799999237061</ele>
        <time>2016-05-16T15:01:45.000Z</time>
      </trkpt>
      <trkpt lat="43.18613" lon="5.66207">
        <ele>17.200000762939</ele>
        <time>2016-05-16T15:01:48.000Z</time>
      </trkpt>
      <trkpt lat="43.18605" lon="5.66202">
        <ele>17</ele>
        <time>2016-05-16T15:01:50.000Z</time>
      </trkpt>
      <trkpt lat="43.18591" lon="5.66195">
        <ele>17</ele>
        <time>2016-05-16T15:01:53.000Z</time>
      </trkpt>
      <trkpt lat="43.18585" lon="5.66194">
        <ele>17.200000762939</ele>
        <time>2016-05-16T15:01:54.000Z</time>
      </trkpt>
      <trkpt lat="43.18557" lon="5.66195">
        <ele>18.39999961853</ele>
        <time>2016-05-16T15:01:59.000Z</time>
      </trkpt>
      <trkpt lat="43.18553" lon="5.66194">
        <ele>18.39999961853</ele>
        <time>2016-05-16T15:02:00.000Z</time>
      </trkpt>
      <trkpt lat="43.18546" lon="5.6619">
        <ele>18.60000038147</ele>
        <time>2016-05-16T15:02:02.000Z</time>
      </trkpt>
      <trkpt lat="43.18544" lon="5.66185">
        <ele>18.799999237061</ele>
        <time>2016-05-16T15:02:03.000Z</time>
      </trkpt>
      <trkpt lat="43.18538" lon="5.66175">
        <ele>19.200000762939</ele>
        <time>2016-05-16T15:02:06.000Z</time>
      </trkpt>
      <trkpt lat="43.18538" lon="5.66171">
        <ele>19.39999961853</ele>
        <time>2016-05-16T15:02:07.000Z</time>
      </trkpt>
      <trkpt lat="43.18541" lon="5.66154">
        <ele>19.39999961853</ele>
        <time>2016-05-16T15:02:11.000Z</time>
      </trkpt>
      <trkpt lat="43.18553" lon="5.66116">
        <ele>20.200000762939</ele>
        <time>2016-05-16T15:02:19.000Z</time>
      </trkpt>
      <trkpt lat="43.18555" lon="5.66112">
        <ele>20.39999961853</ele>
        <time>2016-05-16T15:02:20.000Z</time>
      </trkpt>
      <trkpt lat="43.18562" lon="5.66088">
        <ele>21.200000762939</ele>
        <time>2016-05-16T15:02:25.000Z</time>
      </trkpt>
      <trkpt lat="43.18576" lon="5.66048">
        <ele>21</ele>
        <time>2016-05-16T15:02:34.000Z</time>
      </trkpt>
      <trkpt lat="43.18581" lon="5.66033">
        <ele>20.39999961853</ele>
        <time>2016-05-16T15:02:37.000Z</time>
      </trkpt>
      <trkpt lat="43.18584" lon="5.66021">
        <ele>20.60000038147</ele>
        <time>2016-05-16T15:02:40.000Z</time>
      </trkpt>
      <trkpt lat="43.18595" lon="5.6599">
        <ele>20.60000038147</ele>
        <time>2016-05-16T15:02:47.000Z</time>
      </trkpt>
      <trkpt lat="43.18603" lon="5.65967">
        <ele>21.39999961853</ele>
        <time>2016-05-16T15:02:52.000Z</time>
      </trkpt>
      <trkpt lat="43.18607" lon="5.65952">
        <ele>22.60000038147</ele>
        <time>2016-05-16T15:02:55.000Z</time>
      </trkpt>
      <trkpt lat="43.1861" lon="5.65943">
        <ele>23.200000762939</ele>
        <time>2016-05-16T15:02:57.000Z</time>
      </trkpt>
      <trkpt lat="43.18618" lon="5.65917">
        <ele>25.39999961853</ele>
        <time>2016-05-16T15:03:02.000Z</time>
      </trkpt>
      <trkpt lat="43.18628" lon="5.65886">
        <ele>25.39999961853</ele>
        <time>2016-05-16T15:03:08.000Z</time>
      </trkpt>
      <trkpt lat="43.18631" lon="5.65875">
        <ele>25.799999237061</ele>
        <time>2016-05-16T15:03:10.000Z</time>
      </trkpt>
      <trkpt lat="43.18642" lon="5.65842">
        <ele>26.60000038147</ele>
        <time>2016-05-16T15:03:16.000Z</time>
      </trkpt>
      <trkpt lat="43.18644" lon="5.65836">
        <ele>26.60000038147</ele>
        <time>2016-05-16T15:03:17.000Z</time>
      </trkpt>
      <trkpt lat="43.18655" lon="5.65799">
        <ele>26.60000038147</ele>
        <time>2016-05-16T15:03:23.000Z</time>
      </trkpt>
      <trkpt lat="43.18662" lon="5.65777">
        <ele>25.60000038147</ele>
        <time>2016-05-16T15:03:27.000Z</time>
      </trkpt>
      <trkpt lat="43.18665" lon="5.65764">
        <ele>25.60000038147</ele>
        <time>2016-05-16T15:03:29.000Z</time>
      </trkpt>
      <trkpt lat="43.18668" lon="5.65752">
        <ele>25.799999237061</ele>
        <time>2016-05-16T15:03:31.000Z</time>
      </trkpt>
      <trkpt lat="43.18672" lon="5.65733">
        <ele>26</ele>
        <time>2016-05-16T15:03:34.000Z</time>
      </trkpt>
      <trkpt lat="43.18675" lon="5.6572">
        <ele>26</ele>
        <time>2016-05-16T15:03:36.000Z</time>
      </trkpt>
      <trkpt lat="43.18679" lon="5.65695">
        <ele>25.799999237061</ele>
        <time>2016-05-16T15:03:40.000Z</time>
      </trkpt>
      <trkpt lat="43.18683" lon="5.65654">
        <ele>25.60000038147</ele>
        <time>2016-05-16T15:03:46.000Z</time>
      </trkpt>
      <trkpt lat="43.18685" lon="5.65614">
        <ele>26.200000762939</ele>
        <time>2016-05-16T15:03:52.000Z</time>
      </trkpt>
      <trkpt lat="43.18689" lon="5.65569">
        <ele>27.200000762939</ele>
        <time>2016-05-16T15:03:59.000Z</time>
      </trkpt>
      <trkpt lat="43.18691" lon="5.65534">
        <ele>28.200000762939</ele>
        <time>2016-05-16T15:04:04.000Z</time>
      </trkpt>
      <trkpt lat="43.18692" lon="5.65522">
        <ele>28.60000038147</ele>
        <time>2016-05-16T15:04:06.000Z</time>
      </trkpt>
      <trkpt lat="43.18694" lon="5.65496">
        <ele>29.200000762939</ele>
        <time>2016-05-16T15:04:10.000Z</time>
      </trkpt>
      <trkpt lat="43.18697" lon="5.65476">
        <ele>30</ele>
        <time>2016-05-16T15:04:13.000Z</time>
      </trkpt>
      <trkpt lat="43.18699" lon="5.65465">
        <ele>30.200000762939</ele>
        <time>2016-05-16T15:04:15.000Z</time>
      </trkpt>
      <trkpt lat="43.18702" lon="5.65453">
        <ele>29.799999237061</ele>
        <time>2016-05-16T15:04:17.000Z</time>
      </trkpt>
      <trkpt lat="43.18706" lon="5.6544">
        <ele>29.60000038147</ele>
        <time>2016-05-16T15:04:19.000Z</time>
      </trkpt>
      <trkpt lat="43.18713" lon="5.65421">
        <ele>29.39999961853</ele>
        <time>2016-05-16T15:04:22.000Z</time>
      </trkpt>
      <trkpt lat="43.18726" lon="5.65391">
        <ele>28.39999961853</ele>
        <time>2016-05-16T15:04:27.000Z</time>
      </trkpt>
      <trkpt lat="43.18747" lon="5.65359">
        <ele>27</ele>
        <time>2016-05-16T15:04:33.000Z</time>
      </trkpt>
      <trkpt lat="43.18768" lon="5.65331">
        <ele>26</ele>
        <time>2016-05-16T15:04:38.000Z</time>
      </trkpt>
      <trkpt lat="43.18773" lon="5.65325">
        <ele>25.799999237061</ele>
        <time>2016-05-16T15:04:39.000Z</time>
      </trkpt>
      <trkpt lat="43.18798" lon="5.65295">
        <ele>29.200000762939</ele>
        <time>2016-05-16T15:04:44.000Z</time>
      </trkpt>
      <trkpt lat="43.18803" lon="5.65289">
        <ele>29.39999961853</ele>
        <time>2016-05-16T15:04:45.000Z</time>
      </trkpt>
      <trkpt lat="43.18813" lon="5.65277">
        <ele>30</ele>
        <time>2016-05-16T15:04:47.000Z</time>
      </trkpt>
      <trkpt lat="43.18838" lon="5.65246">
        <ele>28.60000038147</ele>
        <time>2016-05-16T15:04:52.000Z</time>
      </trkpt>
      <trkpt lat="43.18849" lon="5.65234">
        <ele>27.39999961853</ele>
        <time>2016-05-16T15:04:54.000Z</time>
      </trkpt>
      <trkpt lat="43.18859" lon="5.6522">
        <ele>25.799999237061</ele>
        <time>2016-05-16T15:04:56.000Z</time>
      </trkpt>
      <trkpt lat="43.1888" lon="5.65193">
        <ele>25.39999961853</ele>
        <time>2016-05-16T15:05:00.000Z</time>
      </trkpt>
      <trkpt lat="43.18893" lon="5.65171">
        <ele>23.799999237061</ele>
        <time>2016-05-16T15:05:03.000Z</time>
      </trkpt>
      <trkpt lat="43.18902" lon="5.65155">
        <ele>21.60000038147</ele>
        <time>2016-05-16T15:05:05.000Z</time>
      </trkpt>
      <trkpt lat="43.18914" lon="5.65131">
        <ele>18.799999237061</ele>
        <time>2016-05-16T15:05:08.000Z</time>
      </trkpt>
      <trkpt lat="43.18923" lon="5.65115">
        <ele>17.39999961853</ele>
        <time>2016-05-16T15:05:10.000Z</time>
      </trkpt>
      <trkpt lat="43.18927" lon="5.65107">
        <ele>16.60000038147</ele>
        <time>2016-05-16T15:05:11.000Z</time>
      </trkpt>
      <trkpt lat="43.18946" lon="5.65057">
        <ele>11.199999809265</ele>
        <time>2016-05-16T15:05:17.000Z</time>
      </trkpt>
      <trkpt lat="43.18949" lon="5.65048">
        <ele>10.800000190735</ele>
        <time>2016-05-16T15:05:18.000Z</time>
      </trkpt>
      <trkpt lat="43.18956" lon="5.65015">
        <ele>10.39999961853</ele>
        <time>2016-05-16T15:05:22.000Z</time>
      </trkpt>
      <trkpt lat="43.1896" lon="5.64993">
        <ele>10.199999809265</ele>
        <time>2016-05-16T15:05:25.000Z</time>
      </trkpt>
      <trkpt lat="43.18964" lon="5.64952">
        <ele>10.199999809265</ele>
        <time>2016-05-16T15:05:31.000Z</time>
      </trkpt>
      <trkpt lat="43.18963" lon="5.64919">
        <ele>10</ele>
        <time>2016-05-16T15:05:36.000Z</time>
      </trkpt>
      <trkpt lat="43.18959" lon="5.64881">
        <ele>10.199999809265</ele>
        <time>2016-05-16T15:05:42.000Z</time>
      </trkpt>
      <trkpt lat="43.18957" lon="5.64862">
        <ele>11.39999961853</ele>
        <time>2016-05-16T15:05:45.000Z</time>
      </trkpt>
      <trkpt lat="43.18956" lon="5.64856">
        <ele>11.800000190735</ele>
        <time>2016-05-16T15:05:46.000Z</time>
      </trkpt>
      <trkpt lat="43.18955" lon="5.64837">
        <ele>13.199999809265</ele>
        <time>2016-05-16T15:05:49.000Z</time>
      </trkpt>
      <trkpt lat="43.18952" lon="5.6481">
        <ele>14.800000190735</ele>
        <time>2016-05-16T15:05:53.000Z</time>
      </trkpt>
      <trkpt lat="43.18951" lon="5.64804">
        <ele>15</ele>
        <time>2016-05-16T15:05:54.000Z</time>
      </trkpt>
      <trkpt lat="43.1895" lon="5.64797">
        <ele>15</ele>
        <time>2016-05-16T15:05:55.000Z</time>
      </trkpt>
      <trkpt lat="43.18944" lon="5.64757">
        <ele>14.800000190735</ele>
        <time>2016-05-16T15:06:01.000Z</time>
      </trkpt>
      <trkpt lat="43.1894" lon="5.64716">
        <ele>15.199999809265</ele>
        <time>2016-05-16T15:06:07.000Z</time>
      </trkpt>
      <trkpt lat="43.18938" lon="5.64681">
        <ele>15</ele>
        <time>2016-05-16T15:06:12.000Z</time>
      </trkpt>
      <trkpt lat="43.18939" lon="5.64674">
        <ele>15</ele>
        <time>2016-05-16T15:06:13.000Z</time>
      </trkpt>
      <trkpt lat="43.18938" lon="5.64667">
        <ele>15</ele>
        <time>2016-05-16T15:06:14.000Z</time>
      </trkpt>
      <trkpt lat="43.18938" lon="5.64639">
        <ele>15</ele>
        <time>2016-05-16T15:06:18.000Z</time>
      </trkpt>
      <trkpt lat="43.1894" lon="5.64601">
        <ele>15.199999809265</ele>
        <time>2016-05-16T15:06:23.000Z</time>
      </trkpt>
      <trkpt lat="43.1894" lon="5.64593">
        <ele>15.199999809265</ele>
        <time>2016-05-16T15:06:24.000Z</time>
      </trkpt>
      <trkpt lat="43.18942" lon="5.64555">
        <ele>14.800000190735</ele>
        <time>2016-05-16T15:06:29.000Z</time>
      </trkpt>
      <trkpt lat="43.18945" lon="5.6451">
        <ele>14.800000190735</ele>
        <time>2016-05-16T15:06:35.000Z</time>
      </trkpt>
      <trkpt lat="43.18947" lon="5.64495">
        <ele>15</ele>
        <time>2016-05-16T15:06:37.000Z</time>
      </trkpt>
      <trkpt lat="43.18952" lon="5.64468">
        <ele>15.800000190735</ele>
        <time>2016-05-16T15:06:41.000Z</time>
      </trkpt>
      <trkpt lat="43.18961" lon="5.64429">
        <ele>14.39999961853</ele>
        <time>2016-05-16T15:06:47.000Z</time>
      </trkpt>
      <trkpt lat="43.18963" lon="5.64424">
        <ele>14.199999809265</ele>
        <time>2016-05-16T15:06:48.000Z</time>
      </trkpt>
      <trkpt lat="43.18972" lon="5.64402">
        <ele>15</ele>
        <time>2016-05-16T15:06:52.000Z</time>
      </trkpt>
      <trkpt lat="43.18984" lon="5.64373">
        <ele>15.60000038147</ele>
        <time>2016-05-16T15:06:57.000Z</time>
      </trkpt>
      <trkpt lat="43.18988" lon="5.64361">
        <ele>15.39999961853</ele>
        <time>2016-05-16T15:06:59.000Z</time>
      </trkpt>
      <trkpt lat="43.18997" lon="5.64337">
        <ele>15.199999809265</ele>
        <time>2016-05-16T15:07:03.000Z</time>
      </trkpt>
      <trkpt lat="43.19003" lon="5.64325">
        <ele>15.199999809265</ele>
        <time>2016-05-16T15:07:05.000Z</time>
      </trkpt>
      <trkpt lat="43.19017" lon="5.64292">
        <ele>15.199999809265</ele>
        <time>2016-05-16T15:07:11.000Z</time>
      </trkpt>
      <trkpt lat="43.19033" lon="5.6425">
        <ele>15</ele>
        <time>2016-05-16T15:07:18.000Z</time>
      </trkpt>
      <trkpt lat="43.19047" lon="5.64216">
        <ele>14.39999961853</ele>
        <time>2016-05-16T15:07:24.000Z</time>
      </trkpt>
      <trkpt lat="43.19058" lon="5.64186">
        <ele>15.39999961853</ele>
        <time>2016-05-16T15:07:29.000Z</time>
      </trkpt>
      <trkpt lat="43.1906" lon="5.64179">
        <ele>15.60000038147</ele>
        <time>2016-05-16T15:07:30.000Z</time>
      </trkpt>
      <trkpt lat="43.1907" lon="5.64142">
        <ele>15.60000038147</ele>
        <time>2016-05-16T15:07:36.000Z</time>
      </trkpt>
      <trkpt lat="43.19074" lon="5.64123">
        <ele>16.200000762939</ele>
        <time>2016-05-16T15:07:41.000Z</time>
      </trkpt>
      <trkpt lat="43.19075" lon="5.64113">
        <ele>16.200000762939</ele>
        <time>2016-05-16T15:08:14.000Z</time>
      </trkpt>
      <trkpt lat="43.19077" lon="5.64089">
        <ele>15</ele>
        <time>2016-05-16T15:08:18.000Z</time>
      </trkpt>
      <trkpt lat="43.19078" lon="5.64055">
        <ele>13</ele>
        <time>2016-05-16T15:08:22.000Z</time>
      </trkpt>
      <trkpt lat="43.19079" lon="5.64046">
        <ele>13.199999809265</ele>
        <time>2016-05-16T15:08:23.000Z</time>
      </trkpt>
      <trkpt lat="43.19078" lon="5.64005">
        <ele>13.60000038147</ele>
        <time>2016-05-16T15:08:29.000Z</time>
      </trkpt>
      <trkpt lat="43.19075" lon="5.63966">
        <ele>13.39999961853</ele>
        <time>2016-05-16T15:08:35.000Z</time>
      </trkpt>
      <trkpt lat="43.19072" lon="5.63917">
        <ele>12.60000038147</ele>
        <time>2016-05-16T15:08:42.000Z</time>
      </trkpt>
      <trkpt lat="43.19068" lon="5.63881">
        <ele>12.39999961853</ele>
        <time>2016-05-16T15:08:47.000Z</time>
      </trkpt>
      <trkpt lat="43.19068" lon="5.63873">
        <ele>12.199999809265</ele>
        <time>2016-05-16T15:08:48.000Z</time>
      </trkpt>
      <trkpt lat="43.19066" lon="5.63866">
        <ele>12</ele>
        <time>2016-05-16T15:08:49.000Z</time>
      </trkpt>
      <trkpt lat="43.19062" lon="5.63844">
        <ele>11.60000038147</ele>
        <time>2016-05-16T15:08:52.000Z</time>
      </trkpt>
      <trkpt lat="43.19053" lon="5.63802">
        <ele>11</ele>
        <time>2016-05-16T15:08:58.000Z</time>
      </trkpt>
      <trkpt lat="43.19043" lon="5.63759">
        <ele>9.1999998092651</ele>
        <time>2016-05-16T15:09:04.000Z</time>
      </trkpt>
      <trkpt lat="43.19032" lon="5.63725">
        <ele>8.3999996185303</ele>
        <time>2016-05-16T15:09:09.000Z</time>
      </trkpt>
      <trkpt lat="43.19028" lon="5.63712">
        <ele>8</ele>
        <time>2016-05-16T15:09:11.000Z</time>
      </trkpt>
      <trkpt lat="43.19015" lon="5.63675">
        <ele>7</ele>
        <time>2016-05-16T15:09:17.000Z</time>
      </trkpt>
      <trkpt lat="43.19003" lon="5.6364">
        <ele>6.4000000953674</ele>
        <time>2016-05-16T15:09:22.000Z</time>
      </trkpt>
      <trkpt lat="43.1899" lon="5.63606">
        <ele>7.4000000953674</ele>
        <time>2016-05-16T15:09:27.000Z</time>
      </trkpt>
      <trkpt lat="43.18988" lon="5.63599">
        <ele>7.5999999046326</ele>
        <time>2016-05-16T15:09:28.000Z</time>
      </trkpt>
      <trkpt lat="43.18976" lon="5.63573">
        <ele>8.6000003814697</ele>
        <time>2016-05-16T15:09:32.000Z</time>
      </trkpt>
      <trkpt lat="43.18973" lon="5.63566">
        <ele>8.8000001907349</ele>
        <time>2016-05-16T15:09:33.000Z</time>
      </trkpt>
      <trkpt lat="43.18962" lon="5.63541">
        <ele>9</ele>
        <time>2016-05-16T15:09:37.000Z</time>
      </trkpt>
      <trkpt lat="43.18947" lon="5.6351">
        <ele>8.1999998092651</ele>
        <time>2016-05-16T15:09:42.000Z</time>
      </trkpt>
      <trkpt lat="43.18937" lon="5.63488">
        <ele>7.5999999046326</ele>
        <time>2016-05-16T15:09:46.000Z</time>
      </trkpt>
      <trkpt lat="43.18935" lon="5.63482">
        <ele>7.4000000953674</ele>
        <time>2016-05-16T15:09:47.000Z</time>
      </trkpt>
      <trkpt lat="43.18923" lon="5.63454">
        <ele>7</ele>
        <time>2016-05-16T15:09:52.000Z</time>
      </trkpt>
      <trkpt lat="43.18921" lon="5.63448">
        <ele>7</ele>
        <time>2016-05-16T15:09:53.000Z</time>
      </trkpt>
      <trkpt lat="43.18919" lon="5.63441">
        <ele>7</ele>
        <time>2016-05-16T15:09:54.000Z</time>
      </trkpt>
      <trkpt lat="43.1891" lon="5.63418">
        <ele>7</ele>
        <time>2016-05-16T15:09:58.000Z</time>
      </trkpt>
      <trkpt lat="43.18899" lon="5.63389">
        <ele>6.8000001907349</ele>
        <time>2016-05-16T15:10:03.000Z</time>
      </trkpt>
      <trkpt lat="43.18894" lon="5.63387">
        <ele>6.5999999046326</ele>
        <time>2016-05-16T15:10:04.000Z</time>
      </trkpt>
      <trkpt lat="43.18878" lon="5.63382">
        <ele>5.4000000953674</ele>
        <time>2016-05-16T15:10:07.000Z</time>
      </trkpt>
      <trkpt lat="43.18872" lon="5.6338">
        <ele>5.1999998092651</ele>
        <time>2016-05-16T15:10:08.000Z</time>
      </trkpt>
      <trkpt lat="43.18868" lon="5.63373">
        <ele>5.1999998092651</ele>
        <time>2016-05-16T15:10:09.000Z</time>
      </trkpt>
      <trkpt lat="43.18865" lon="5.63366">
        <ele>5.1999998092651</ele>
        <time>2016-05-16T15:10:10.000Z</time>
      </trkpt>
      <trkpt lat="43.18854" lon="5.63338">
        <ele>5.4000000953674</ele>
        <time>2016-05-16T15:10:15.000Z</time>
      </trkpt>
      <trkpt lat="43.18851" lon="5.63333">
        <ele>5.4000000953674</ele>
        <time>2016-05-16T15:10:16.000Z</time>
      </trkpt>
      <trkpt lat="43.18844" lon="5.63316">
        <ele>5.4000000953674</ele>
        <time>2016-05-16T15:10:19.000Z</time>
      </trkpt>
      <trkpt lat="43.18838" lon="5.63301">
        <ele>5.5999999046326</ele>
        <time>2016-05-16T15:10:22.000Z</time>
      </trkpt>
      <trkpt lat="43.18831" lon="5.63271">
        <ele>5.5999999046326</ele>
        <time>2016-05-16T15:10:28.000Z</time>
      </trkpt>
      <trkpt lat="43.1883" lon="5.63264">
        <ele>5.5999999046326</ele>
        <time>2016-05-16T15:10:29.000Z</time>
      </trkpt>
      <trkpt lat="43.18828" lon="5.63246">
        <ele>5.5999999046326</ele>
        <time>2016-05-16T15:10:32.000Z</time>
      </trkpt>
      <trkpt lat="43.18829" lon="5.63239">
        <ele>5.8000001907349</ele>
        <time>2016-05-16T15:10:33.000Z</time>
      </trkpt>
      <trkpt lat="43.18837" lon="5.63204">
        <ele>6.8000001907349</ele>
        <time>2016-05-16T15:10:38.000Z</time>
      </trkpt>
      <trkpt lat="43.18843" lon="5.63178">
        <ele>5.5999999046326</ele>
        <time>2016-05-16T15:10:42.000Z</time>
      </trkpt>
      <trkpt lat="43.18846" lon="5.63165">
        <ele>5.1999998092651</ele>
        <time>2016-05-16T15:10:44.000Z</time>
      </trkpt>
      <trkpt lat="43.18849" lon="5.63146">
        <ele>4.5999999046326</ele>
        <time>2016-05-16T15:10:47.000Z</time>
      </trkpt>
      <trkpt lat="43.18854" lon="5.6312">
        <ele>5</ele>
        <time>2016-05-16T15:10:51.000Z</time>
      </trkpt>
      <trkpt lat="43.18861" lon="5.63083">
        <ele>6.8000001907349</ele>
        <time>2016-05-16T15:10:57.000Z</time>
      </trkpt>
      <trkpt lat="43.18862" lon="5.63076">
        <ele>7.1999998092651</ele>
        <time>2016-05-16T15:10:58.000Z</time>
      </trkpt>
      <trkpt lat="43.18868" lon="5.6306">
        <ele>7</ele>
        <time>2016-05-16T15:11:01.000Z</time>
      </trkpt>
      <trkpt lat="43.1887" lon="5.63054">
        <ele>6.8000001907349</ele>
        <time>2016-05-16T15:11:02.000Z</time>
      </trkpt>
      <trkpt lat="43.18884" lon="5.63019">
        <ele>9.8000001907349</ele>
        <time>2016-05-16T15:11:08.000Z</time>
      </trkpt>
      <trkpt lat="43.18897" lon="5.62986">
        <ele>10.199999809265</ele>
        <time>2016-05-16T15:11:14.000Z</time>
      </trkpt>
      <trkpt lat="43.18901" lon="5.62976">
        <ele>10</ele>
        <time>2016-05-16T15:11:16.000Z</time>
      </trkpt>
      <trkpt lat="43.18911" lon="5.62957">
        <ele>8.8000001907349</ele>
        <time>2016-05-16T15:11:20.000Z</time>
      </trkpt>
      <trkpt lat="43.18914" lon="5.62947">
        <ele>8.6000003814697</ele>
        <time>2016-05-16T15:11:22.000Z</time>
      </trkpt>
      <trkpt lat="43.18914" lon="5.62938">
        <ele>8.3999996185303</ele>
        <time>2016-05-16T15:11:24.000Z</time>
      </trkpt>
      <trkpt lat="43.18914" lon="5.62933">
        <ele>8.6000003814697</ele>
        <time>2016-05-16T15:11:25.000Z</time>
      </trkpt>
      <trkpt lat="43.18907" lon="5.62906">
        <ele>8.8000001907349</ele>
        <time>2016-05-16T15:11:30.000Z</time>
      </trkpt>
      <trkpt lat="43.18899" lon="5.62891">
        <ele>9</ele>
        <time>2016-05-16T15:11:34.000Z</time>
      </trkpt>
      <trkpt lat="43.18884" lon="5.62883">
        <ele>9.3999996185303</ele>
        <time>2016-05-16T15:11:38.000Z</time>
      </trkpt>
      <trkpt lat="43.18857" lon="5.6287">
        <ele>10</ele>
        <time>2016-05-16T15:11:45.000Z</time>
      </trkpt>
      <trkpt lat="43.18822" lon="5.62857">
        <ele>10.60000038147</ele>
        <time>2016-05-16T15:11:52.000Z</time>
      </trkpt>
      <trkpt lat="43.18803" lon="5.62849">
        <ele>10.800000190735</ele>
        <time>2016-05-16T15:11:56.000Z</time>
      </trkpt>
      <trkpt lat="43.18788" lon="5.62842">
        <ele>11</ele>
        <time>2016-05-16T15:11:59.000Z</time>
      </trkpt>
      <trkpt lat="43.18782" lon="5.6284">
        <ele>11</ele>
        <time>2016-05-16T15:12:00.000Z</time>
      </trkpt>
      <trkpt lat="43.18742" lon="5.62824">
        <ele>9.1999998092651</ele>
        <time>2016-05-16T15:12:08.000Z</time>
      </trkpt>
      <trkpt lat="43.18723" lon="5.62817">
        <ele>7</ele>
        <time>2016-05-16T15:12:13.000Z</time>
      </trkpt>
      <trkpt lat="43.18719" lon="5.62815">
        <ele>6.5999999046326</ele>
        <time>2016-05-16T15:12:14.000Z</time>
      </trkpt>
      <trkpt lat="43.18716" lon="5.6281">
        <ele>6</ele>
        <time>2016-05-16T15:12:16.000Z</time>
      </trkpt>
      <trkpt lat="43.18716" lon="5.62807">
        <ele>5.8000001907349</ele>
        <time>2016-05-16T15:12:17.000Z</time>
      </trkpt>
      <trkpt lat="43.18716" lon="5.62796">
        <ele>5.5999999046326</ele>
        <time>2016-05-16T15:12:22.000Z</time>
      </trkpt>
      <trkpt lat="43.18717" lon="5.62795">
        <ele>5.5999999046326</ele>
        <time>2016-05-16T15:12:23.000Z</time>
      </trkpt>
      <trkpt lat="43.18717" lon="5.62797">
        <ele>5.5999999046326</ele>
        <time>2016-05-16T15:13:08.000Z</time>
      </trkpt>
      <trkpt lat="43.18717" lon="5.62798">
        <ele>5.5999999046326</ele>
        <time>2016-05-16T15:13:09.000Z</time>
      </trkpt>
      <trkpt lat="43.18715" lon="5.62801">
        <ele>5.4000000953674</ele>
        <time>2016-05-16T15:13:12.000Z</time>
      </trkpt>
      <trkpt lat="43.18709" lon="5.62796">
        <ele>4.8000001907349</ele>
        <time>2016-05-16T15:14:10.000Z</time>
      </trkpt>
      <trkpt lat="43.18712" lon="5.62787">
        <ele>4.8000001907349</ele>
        <time>2016-05-16T15:14:16.000Z</time>
      </trkpt>
      <trkpt lat="43.18714" lon="5.62785">
        <ele>5</ele>
        <time>2016-05-16T15:14:19.000Z</time>
      </trkpt>
      <trkpt lat="43.18717" lon="5.62784">
        <ele>5.4000000953674</ele>
        <time>2016-05-16T15:14:22.000Z</time>
      </trkpt>
      <trkpt lat="43.18717" lon="5.62781">
        <ele>5.1999998092651</ele>
        <time>2016-05-16T15:14:56.000Z</time>
      </trkpt>
      <trkpt lat="43.18718" lon="5.62776">
        <ele>5.1999998092651</ele>
        <time>2016-05-16T15:14:57.000Z</time>
      </trkpt>
      <trkpt lat="43.18723" lon="5.62746">
        <ele>4.4000000953674</ele>
        <time>2016-05-16T15:15:02.000Z</time>
      </trkpt>
      <trkpt lat="43.18725" lon="5.62726">
        <ele>3.2000000476837</ele>
        <time>2016-05-16T15:15:05.000Z</time>
      </trkpt>
      <trkpt lat="43.18725" lon="5.62712">
        <ele>2.7999999523163</ele>
        <time>2016-05-16T15:15:07.000Z</time>
      </trkpt>
      <trkpt lat="43.18725" lon="5.62655">
        <ele>2.7999999523163</ele>
        <time>2016-05-16T15:15:16.000Z</time>
      </trkpt>
      <trkpt lat="43.18728" lon="5.62636">
        <ele>3</ele>
        <time>2016-05-16T15:15:21.000Z</time>
      </trkpt>
      <trkpt lat="43.1873" lon="5.62629">
        <ele>3.4000000953674</ele>
        <time>2016-05-16T15:15:31.000Z</time>
      </trkpt>
      <trkpt lat="43.18726" lon="5.62615">
        <ele>3.5999999046326</ele>
        <time>2016-05-16T15:15:34.000Z</time>
      </trkpt>
      <trkpt lat="43.18724" lon="5.62609">
        <ele>3.7999999523163</ele>
        <time>2016-05-16T15:15:35.000Z</time>
      </trkpt>
      <trkpt lat="43.18725" lon="5.62588">
        <ele>4.1999998092651</ele>
        <time>2016-05-16T15:15:39.000Z</time>
      </trkpt>
      <trkpt lat="43.18727" lon="5.62545">
        <ele>4.1999998092651</ele>
        <time>2016-05-16T15:15:46.000Z</time>
      </trkpt>
      <trkpt lat="43.18727" lon="5.62512">
        <ele>4</ele>
        <time>2016-05-16T15:15:52.000Z</time>
      </trkpt>
      <trkpt lat="43.18726" lon="5.62501">
        <ele>3.5999999046326</ele>
        <time>2016-05-16T15:15:54.000Z</time>
      </trkpt>
      <trkpt lat="43.18725" lon="5.62461">
        <ele>2</ele>
        <time>2016-05-16T15:16:01.000Z</time>
      </trkpt>
      <trkpt lat="43.18722" lon="5.62425">
        <ele>2</ele>
        <time>2016-05-16T15:16:08.000Z</time>
      </trkpt>
      <trkpt lat="43.1872" lon="5.62405">
        <ele>2.2000000476837</ele>
        <time>2016-05-16T15:16:12.000Z</time>
      </trkpt>
      <trkpt lat="43.18716" lon="5.62379">
        <ele>3.5999999046326</ele>
        <time>2016-05-16T15:16:16.000Z</time>
      </trkpt>
      <trkpt lat="43.18709" lon="5.62339">
        <ele>3.5999999046326</ele>
        <time>2016-05-16T15:16:23.000Z</time>
      </trkpt>
      <trkpt lat="43.18697" lon="5.62291">
        <ele>5</ele>
        <time>2016-05-16T15:16:32.000Z</time>
      </trkpt>
      <trkpt lat="43.18695" lon="5.62281">
        <ele>5</ele>
        <time>2016-05-16T15:16:36.000Z</time>
      </trkpt>
      <trkpt lat="43.18688" lon="5.62265">
        <ele>5</ele>
        <time>2016-05-16T15:16:40.000Z</time>
      </trkpt>
      <trkpt lat="43.18678" lon="5.62238">
        <ele>5</ele>
        <time>2016-05-16T15:16:45.000Z</time>
      </trkpt>
      <trkpt lat="43.18674" lon="5.62226">
        <ele>5</ele>
        <time>2016-05-16T15:16:47.000Z</time>
      </trkpt>
      <trkpt lat="43.18671" lon="5.6222">
        <ele>5</ele>
        <time>2016-05-16T15:16:48.000Z</time>
      </trkpt>
      <trkpt lat="43.18669" lon="5.62214">
        <ele>5</ele>
        <time>2016-05-16T15:16:49.000Z</time>
      </trkpt>
      <trkpt lat="43.18663" lon="5.62202">
        <ele>4.8000001907349</ele>
        <time>2016-05-16T15:16:51.000Z</time>
      </trkpt>
      <trkpt lat="43.18658" lon="5.6219">
        <ele>5.1999998092651</ele>
        <time>2016-05-16T15:16:53.000Z</time>
      </trkpt>
      <trkpt lat="43.1864" lon="5.62152">
        <ele>6</ele>
        <time>2016-05-16T15:16:59.000Z</time>
      </trkpt>
      <trkpt lat="43.18622" lon="5.62124">
        <ele>5.5999999046326</ele>
        <time>2016-05-16T15:17:04.000Z</time>
      </trkpt>
      <trkpt lat="43.18617" lon="5.62115">
        <ele>5</ele>
        <time>2016-05-16T15:17:07.000Z</time>
      </trkpt>
      <trkpt lat="43.18616" lon="5.62114">
        <ele>5</ele>
        <time>2016-05-16T15:17:08.000Z</time>
      </trkpt>
      <trkpt lat="43.18613" lon="5.6211">
        <ele>4.8000001907349</ele>
        <time>2016-05-16T15:17:20.000Z</time>
      </trkpt>
      <trkpt lat="43.1861" lon="5.62107">
        <ele>4.5999999046326</ele>
        <time>2016-05-16T15:17:22.000Z</time>
      </trkpt>
      <trkpt lat="43.18599" lon="5.62089">
        <ele>3.5999999046326</ele>
        <time>2016-05-16T15:17:27.000Z</time>
      </trkpt>
      <trkpt lat="43.18581" lon="5.62063">
        <ele>3.2000000476837</ele>
        <time>2016-05-16T15:17:34.000Z</time>
      </trkpt>
      <trkpt lat="43.18574" lon="5.62048">
        <ele>3.2000000476837</ele>
        <time>2016-05-16T15:17:39.000Z</time>
      </trkpt>
      <trkpt lat="43.18567" lon="5.62032">
        <ele>3.4000000953674</ele>
        <time>2016-05-16T15:17:45.000Z</time>
      </trkpt>
      <trkpt lat="43.18552" lon="5.61998">
        <ele>4</ele>
        <time>2016-05-16T15:17:52.000Z</time>
      </trkpt>
      <trkpt lat="43.1854" lon="5.61972">
        <ele>4.5999999046326</ele>
        <time>2016-05-16T15:17:57.000Z</time>
      </trkpt>
      <trkpt lat="43.18536" lon="5.61962">
        <ele>6</ele>
        <time>2016-05-16T15:17:59.000Z</time>
      </trkpt>
      <trkpt lat="43.18526" lon="5.61935">
        <ele>5.5999999046326</ele>
        <time>2016-05-16T15:18:04.000Z</time>
      </trkpt>
      <trkpt lat="43.18518" lon="5.61918">
        <ele>5.4000000953674</ele>
        <time>2016-05-16T15:18:07.000Z</time>
      </trkpt>
      <trkpt lat="43.18512" lon="5.61905">
        <ele>5.1999998092651</ele>
        <time>2016-05-16T15:18:09.000Z</time>
      </trkpt>
      <trkpt lat="43.18498" lon="5.61874">
        <ele>4.1999998092651</ele>
        <time>2016-05-16T15:18:14.000Z</time>
      </trkpt>
      <trkpt lat="43.18485" lon="5.61843">
        <ele>3.4000000953674</ele>
        <time>2016-05-16T15:18:20.000Z</time>
      </trkpt>
      <trkpt lat="43.18479" lon="5.61831">
        <ele>3.2000000476837</ele>
        <time>2016-05-16T15:18:25.000Z</time>
      </trkpt>
      <trkpt lat="43.18472" lon="5.61812">
        <ele>3</ele>
        <time>2016-05-16T15:18:30.000Z</time>
      </trkpt>
      <trkpt lat="43.18469" lon="5.61807">
        <ele>2.7999999523163</ele>
        <time>2016-05-16T15:18:31.000Z</time>
      </trkpt>
      <trkpt lat="43.18455" lon="5.61776">
        <ele>2.5999999046326</ele>
        <time>2016-05-16T15:18:37.000Z</time>
      </trkpt>
      <trkpt lat="43.18435" lon="5.61746">
        <ele>1.6000000238419</ele>
        <time>2016-05-16T15:18:43.000Z</time>
      </trkpt>
      <trkpt lat="43.18412" lon="5.61717">
        <ele>0.80000001192093</ele>
        <time>2016-05-16T15:18:50.000Z</time>
      </trkpt>
      <trkpt lat="43.18401" lon="5.61704">
        <ele>1.3999999761581</ele>
        <time>2016-05-16T15:18:54.000Z</time>
      </trkpt>
      <trkpt lat="43.18396" lon="5.61698">
        <ele>1.6000000238419</ele>
        <time>2016-05-16T15:18:56.000Z</time>
      </trkpt>
      <trkpt lat="43.18393" lon="5.61695">
        <ele>1.6000000238419</ele>
        <time>2016-05-16T15:18:57.000Z</time>
      </trkpt>
      <trkpt lat="43.18382" lon="5.61684">
        <ele>1.7999999523163</ele>
        <time>2016-05-16T15:19:12.000Z</time>
      </trkpt>
      <trkpt lat="43.18378" lon="5.6168">
        <ele>2</ele>
        <time>2016-05-16T15:19:14.000Z</time>
      </trkpt>
      <trkpt lat="43.18364" lon="5.61665">
        <ele>2.4000000953674</ele>
        <time>2016-05-16T15:19:19.000Z</time>
      </trkpt>
      <trkpt lat="43.18344" lon="5.61642">
        <ele>3.2000000476837</ele>
        <time>2016-05-16T15:19:25.000Z</time>
      </trkpt>
      <trkpt lat="43.18329" lon="5.61629">
        <ele>3.4000000953674</ele>
        <time>2016-05-16T15:19:29.000Z</time>
      </trkpt>
      <trkpt lat="43.18322" lon="5.61622">
        <ele>3.2000000476837</ele>
        <time>2016-05-16T15:19:31.000Z</time>
      </trkpt>
      <trkpt lat="43.183" lon="5.616">
        <ele>2.5999999046326</ele>
        <time>2016-05-16T15:19:37.000Z</time>
      </trkpt>
      <trkpt lat="43.18275" lon="5.61573">
        <ele>2.2000000476837</ele>
        <time>2016-05-16T15:19:43.000Z</time>
      </trkpt>
      <trkpt lat="43.1826" lon="5.61539">
        <ele>2.4000000953674</ele>
        <time>2016-05-16T15:19:48.000Z</time>
      </trkpt>
      <trkpt lat="43.18259" lon="5.61518">
        <ele>3.2000000476837</ele>
        <time>2016-05-16T15:19:52.000Z</time>
      </trkpt>
      <trkpt lat="43.18264" lon="5.61497">
        <ele>4.1999998092651</ele>
        <time>2016-05-16T15:19:56.000Z</time>
      </trkpt>
      <trkpt lat="43.18258" lon="5.61484">
        <ele>4.1999998092651</ele>
        <time>2016-05-16T15:19:59.000Z</time>
      </trkpt>
      <trkpt lat="43.18246" lon="5.61477">
        <ele>4</ele>
        <time>2016-05-16T15:20:02.000Z</time>
      </trkpt>
      <trkpt lat="43.18243" lon="5.61474">
        <ele>4</ele>
        <time>2016-05-16T15:20:03.000Z</time>
      </trkpt>
      <trkpt lat="43.18221" lon="5.61452">
        <ele>3.4000000953674</ele>
        <time>2016-05-16T15:20:09.000Z</time>
      </trkpt>
      <trkpt lat="43.18218" lon="5.61448">
        <ele>3.4000000953674</ele>
        <time>2016-05-16T15:20:10.000Z</time>
      </trkpt>
      <trkpt lat="43.18194" lon="5.61422">
        <ele>2.7999999523163</ele>
        <time>2016-05-16T15:20:17.000Z</time>
      </trkpt>
      <trkpt lat="43.18175" lon="5.61397">
        <ele>2.7999999523163</ele>
        <time>2016-05-16T15:20:23.000Z</time>
      </trkpt>
      <trkpt lat="43.18166" lon="5.61384">
        <ele>3</ele>
        <time>2016-05-16T15:20:26.000Z</time>
      </trkpt>
      <trkpt lat="43.18156" lon="5.61367">
        <ele>3.2000000476837</ele>
        <time>2016-05-16T15:20:30.000Z</time>
      </trkpt>
      <trkpt lat="43.18137" lon="5.61337">
        <ele>3.5999999046326</ele>
        <time>2016-05-16T15:20:36.000Z</time>
      </trkpt>
      <trkpt lat="43.18109" lon="5.61299">
        <ele>4.4000000953674</ele>
        <time>2016-05-16T15:20:44.000Z</time>
      </trkpt>
      <trkpt lat="43.18101" lon="5.6129">
        <ele>4.5999999046326</ele>
        <time>2016-05-16T15:20:46.000Z</time>
      </trkpt>
      <trkpt lat="43.18085" lon="5.61272">
        <ele>5.1999998092651</ele>
        <time>2016-05-16T15:20:50.000Z</time>
      </trkpt>
      <trkpt lat="43.18056" lon="5.61242">
        <ele>6</ele>
        <time>2016-05-16T15:20:58.000Z</time>
      </trkpt>
      <trkpt lat="43.18029" lon="5.61216">
        <ele>6.5999999046326</ele>
        <time>2016-05-16T15:21:05.000Z</time>
      </trkpt>
      <trkpt lat="43.18006" lon="5.61195">
        <ele>7</ele>
        <time>2016-05-16T15:21:11.000Z</time>
      </trkpt>
      <trkpt lat="43.17998" lon="5.6119">
        <ele>6.5999999046326</ele>
        <time>2016-05-16T15:21:13.000Z</time>
      </trkpt>
      <trkpt lat="43.17982" lon="5.61179">
        <ele>5.8000001907349</ele>
        <time>2016-05-16T15:21:17.000Z</time>
      </trkpt>
      <trkpt lat="43.17955" lon="5.61162">
        <ele>4.5999999046326</ele>
        <time>2016-05-16T15:21:23.000Z</time>
      </trkpt>
      <trkpt lat="43.17932" lon="5.61146">
        <ele>3.7999999523163</ele>
        <time>2016-05-16T15:21:29.000Z</time>
      </trkpt>
      <trkpt lat="43.17918" lon="5.61137">
        <ele>3.4000000953674</ele>
        <time>2016-05-16T15:21:32.000Z</time>
      </trkpt>
      <trkpt lat="43.179" lon="5.61126">
        <ele>3.7999999523163</ele>
        <time>2016-05-16T15:21:36.000Z</time>
      </trkpt>
      <trkpt lat="43.17874" lon="5.61106">
        <ele>4.5999999046326</ele>
        <time>2016-05-16T15:21:43.000Z</time>
      </trkpt>
      <trkpt lat="43.17864" lon="5.61098">
        <ele>5</ele>
        <time>2016-05-16T15:21:46.000Z</time>
      </trkpt>
      <trkpt lat="43.1786" lon="5.61092">
        <ele>5.4000000953674</ele>
        <time>2016-05-16T15:21:48.000Z</time>
      </trkpt>
      <trkpt lat="43.17855" lon="5.61085">
        <ele>6</ele>
        <time>2016-05-16T15:21:50.000Z</time>
      </trkpt>
      <trkpt lat="43.17851" lon="5.61084">
        <ele>5.8000001907349</ele>
        <time>2016-05-16T15:21:51.000Z</time>
      </trkpt>
      <trkpt lat="43.17831" lon="5.61089">
        <ele>4.5999999046326</ele>
        <time>2016-05-16T15:21:55.000Z</time>
      </trkpt>
      <trkpt lat="43.17826" lon="5.6109">
        <ele>4.4000000953674</ele>
        <time>2016-05-16T15:21:56.000Z</time>
      </trkpt>
      <trkpt lat="43.17804" lon="5.61092">
        <ele>3.5999999046326</ele>
        <time>2016-05-16T15:22:00.000Z</time>
      </trkpt>
      <trkpt lat="43.17773" lon="5.61091">
        <ele>3.7999999523163</ele>
        <time>2016-05-16T15:22:06.000Z</time>
      </trkpt>
      <trkpt lat="43.17768" lon="5.6109">
        <ele>3.7999999523163</ele>
        <time>2016-05-16T15:22:07.000Z</time>
      </trkpt>
      <trkpt lat="43.17748" lon="5.61086">
        <ele>4</ele>
        <time>2016-05-16T15:22:11.000Z</time>
      </trkpt>
      <trkpt lat="43.1771" lon="5.6108">
        <ele>4</ele>
        <time>2016-05-16T15:22:19.000Z</time>
      </trkpt>
      <trkpt lat="43.17696" lon="5.61078">
        <ele>4.1999998092651</ele>
        <time>2016-05-16T15:22:22.000Z</time>
      </trkpt>
      <trkpt lat="43.17676" lon="5.61077">
        <ele>4.5999999046326</ele>
        <time>2016-05-16T15:22:26.000Z</time>
      </trkpt>
      <trkpt lat="43.17643" lon="5.61072">
        <ele>4.8000001907349</ele>
        <time>2016-05-16T15:22:33.000Z</time>
      </trkpt>
      <trkpt lat="43.17613" lon="5.61067">
        <ele>5</ele>
        <time>2016-05-16T15:22:39.000Z</time>
      </trkpt>
      <trkpt lat="43.17582" lon="5.6106">
        <ele>5</ele>
        <time>2016-05-16T15:22:45.000Z</time>
      </trkpt>
      <trkpt lat="43.17555" lon="5.61053">
        <ele>4.4000000953674</ele>
        <time>2016-05-16T15:22:51.000Z</time>
      </trkpt>
      <trkpt lat="43.1755" lon="5.61051">
        <ele>4.4000000953674</ele>
        <time>2016-05-16T15:22:53.000Z</time>
      </trkpt>
      <trkpt lat="43.17548" lon="5.6105">
        <ele>4.4000000953674</ele>
        <time>2016-05-16T15:22:55.000Z</time>
      </trkpt>
      <trkpt lat="43.17546" lon="5.6105">
        <ele>4.4000000953674</ele>
        <time>2016-05-16T15:22:59.000Z</time>
      </trkpt>
      <trkpt lat="43.17542" lon="5.61049">
        <ele>4.4000000953674</ele>
        <time>2016-05-16T15:23:01.000Z</time>
      </trkpt>
      <trkpt lat="43.17524" lon="5.61045">
        <ele>4.1999998092651</ele>
        <time>2016-05-16T15:23:05.000Z</time>
      </trkpt>
      <trkpt lat="43.17493" lon="5.61042">
        <ele>4</ele>
        <time>2016-05-16T15:23:10.000Z</time>
      </trkpt>
      <trkpt lat="43.17463" lon="5.61041">
        <ele>4.4000000953674</ele>
        <time>2016-05-16T15:23:15.000Z</time>
      </trkpt>
      <trkpt lat="43.17432" lon="5.61041">
        <ele>4.8000001907349</ele>
        <time>2016-05-16T15:23:20.000Z</time>
      </trkpt>
      <trkpt lat="43.17392" lon="5.6104">
        <ele>3</ele>
        <time>2016-05-16T15:23:27.000Z</time>
      </trkpt>
      <trkpt lat="43.17377" lon="5.61036">
        <ele>2.5999999046326</ele>
        <time>2016-05-16T15:23:30.000Z</time>
      </trkpt>
      <trkpt lat="43.17369" lon="5.61031">
        <ele>2.4000000953674</ele>
        <time>2016-05-16T15:23:32.000Z</time>
      </trkpt>
      <trkpt lat="43.17359" lon="5.61013">
        <ele>2.4000000953674</ele>
        <time>2016-05-16T15:23:36.000Z</time>
      </trkpt>
      <trkpt lat="43.1736" lon="5.60996">
        <ele>2.7999999523163</ele>
        <time>2016-05-16T15:23:39.000Z</time>
      </trkpt>
      <trkpt lat="43.17364" lon="5.6098">
        <ele>3.7999999523163</ele>
        <time>2016-05-16T15:23:42.000Z</time>
      </trkpt>
      <trkpt lat="43.1737" lon="5.60964">
        <ele>5.1999998092651</ele>
        <time>2016-05-16T15:23:45.000Z</time>
      </trkpt>
      <trkpt lat="43.17375" lon="5.60952">
        <ele>5.5999999046326</ele>
        <time>2016-05-16T15:23:47.000Z</time>
      </trkpt>
      <trkpt lat="43.17382" lon="5.60935">
        <ele>6.1999998092651</ele>
        <time>2016-05-16T15:23:50.000Z</time>
      </trkpt>
      <trkpt lat="43.17387" lon="5.60923">
        <ele>6.5999999046326</ele>
        <time>2016-05-16T15:23:52.000Z</time>
      </trkpt>
      <trkpt lat="43.174" lon="5.60891">
        <ele>7.5999999046326</ele>
        <time>2016-05-16T15:23:58.000Z</time>
      </trkpt>
      <trkpt lat="43.17413" lon="5.60857">
        <ele>7.8000001907349</ele>
        <time>2016-05-16T15:24:04.000Z</time>
      </trkpt>
      <trkpt lat="43.17431" lon="5.60812">
        <ele>6.5999999046326</ele>
        <time>2016-05-16T15:24:12.000Z</time>
      </trkpt>
      <trkpt lat="43.17433" lon="5.60807">
        <ele>6.5999999046326</ele>
        <time>2016-05-16T15:24:13.000Z</time>
      </trkpt>
      <trkpt lat="43.17443" lon="5.60786">
        <ele>7</ele>
        <time>2016-05-16T15:24:17.000Z</time>
      </trkpt>
      <trkpt lat="43.17449" lon="5.60771">
        <ele>7</ele>
        <time>2016-05-16T15:24:20.000Z</time>
      </trkpt>
      <trkpt lat="43.17456" lon="5.60727">
        <ele>6</ele>
        <time>2016-05-16T15:24:28.000Z</time>
      </trkpt>
      <trkpt lat="43.17456" lon="5.60715">
        <ele>5.8000001907349</ele>
        <time>2016-05-16T15:24:30.000Z</time>
      </trkpt>
      <trkpt lat="43.17452" lon="5.60698">
        <ele>5.5999999046326</ele>
        <time>2016-05-16T15:24:33.000Z</time>
      </trkpt>
      <trkpt lat="43.1745" lon="5.60692">
        <ele>5.5999999046326</ele>
        <time>2016-05-16T15:24:34.000Z</time>
      </trkpt>
      <trkpt lat="43.17439" lon="5.60666">
        <ele>4.5999999046326</ele>
        <time>2016-05-16T15:24:39.000Z</time>
      </trkpt>
      <trkpt lat="43.17436" lon="5.60662">
        <ele>4.4000000953674</ele>
        <time>2016-05-16T15:24:40.000Z</time>
      </trkpt>
      <trkpt lat="43.17423" lon="5.60647">
        <ele>3.4000000953674</ele>
        <time>2016-05-16T15:24:44.000Z</time>
      </trkpt>
      <trkpt lat="43.17409" lon="5.60631">
        <ele>3.4000000953674</ele>
        <time>2016-05-16T15:24:48.000Z</time>
      </trkpt>
      <trkpt lat="43.17395" lon="5.60617">
        <ele>3.4000000953674</ele>
        <time>2016-05-16T15:24:52.000Z</time>
      </trkpt>
      <trkpt lat="43.17391" lon="5.60615">
        <ele>3.4000000953674</ele>
        <time>2016-05-16T15:24:53.000Z</time>
      </trkpt>
      <trkpt lat="43.17377" lon="5.60605">
        <ele>3.4000000953674</ele>
        <time>2016-05-16T15:24:57.000Z</time>
      </trkpt>
      <trkpt lat="43.1736" lon="5.60597">
        <ele>3</ele>
        <time>2016-05-16T15:25:02.000Z</time>
      </trkpt>
      <trkpt lat="43.17347" lon="5.60597">
        <ele>2.4000000953674</ele>
        <time>2016-05-16T15:25:05.000Z</time>
      </trkpt>
      <trkpt lat="43.17335" lon="5.60593">
        <ele>2.2000000476837</ele>
        <time>2016-05-16T15:25:08.000Z</time>
      </trkpt>
      <trkpt lat="43.17331" lon="5.60591">
        <ele>2.2000000476837</ele>
        <time>2016-05-16T15:25:09.000Z</time>
      </trkpt>
      <trkpt lat="43.17309" lon="5.60585">
        <ele>1.7999999523163</ele>
        <time>2016-05-16T15:25:15.000Z</time>
      </trkpt>
      <trkpt lat="43.17297" lon="5.60587">
        <ele>1.2000000476837</ele>
        <time>2016-05-16T15:25:20.000Z</time>
      </trkpt>
      <trkpt lat="43.17295" lon="5.60587">
        <ele>1.2000000476837</ele>
        <time>2016-05-16T15:25:21.000Z</time>
      </trkpt>
      <trkpt lat="43.1728" lon="5.60586">
        <ele>1.2000000476837</ele>
        <time>2016-05-16T15:25:26.000Z</time>
      </trkpt>
      <trkpt lat="43.1726" lon="5.60586">
        <ele>1.2000000476837</ele>
        <time>2016-05-16T15:25:31.000Z</time>
      </trkpt>
      <trkpt lat="43.17237" lon="5.60594">
        <ele>2.4000000953674</ele>
        <time>2016-05-16T15:25:37.000Z</time>
      </trkpt>
      <trkpt lat="43.17222" lon="5.60599">
        <ele>3.2000000476837</ele>
        <time>2016-05-16T15:25:41.000Z</time>
      </trkpt>
      <trkpt lat="43.17218" lon="5.60599">
        <ele>3.2000000476837</ele>
        <time>2016-05-16T15:25:42.000Z</time>
      </trkpt>
      <trkpt lat="43.17194" lon="5.60594">
        <ele>4.4000000953674</ele>
        <time>2016-05-16T15:25:48.000Z</time>
      </trkpt>
      <trkpt lat="43.17173" lon="5.60591">
        <ele>5.4000000953674</ele>
        <time>2016-05-16T15:25:53.000Z</time>
      </trkpt>
      <trkpt lat="43.17168" lon="5.60591">
        <ele>5.8000001907349</ele>
        <time>2016-05-16T15:25:54.000Z</time>
      </trkpt>
      <trkpt lat="43.17148" lon="5.60591">
        <ele>7.4000000953674</ele>
        <time>2016-05-16T15:25:59.000Z</time>
      </trkpt>
      <trkpt lat="43.17144" lon="5.60591">
        <ele>7.5999999046326</ele>
        <time>2016-05-16T15:26:00.000Z</time>
      </trkpt>
      <trkpt lat="43.17135" lon="5.60589">
        <ele>8.3999996185303</ele>
        <time>2016-05-16T15:26:03.000Z</time>
      </trkpt>
      <trkpt lat="43.17132" lon="5.60588">
        <ele>8.6000003814697</ele>
        <time>2016-05-16T15:26:04.000Z</time>
      </trkpt>
      <trkpt lat="43.17125" lon="5.60586">
        <ele>9</ele>
        <time>2016-05-16T15:26:07.000Z</time>
      </trkpt>
      <trkpt lat="43.17119" lon="5.60586">
        <ele>9.3999996185303</ele>
        <time>2016-05-16T15:26:09.000Z</time>
      </trkpt>
      <trkpt lat="43.17102" lon="5.60587">
        <ele>10</ele>
        <time>2016-05-16T15:26:14.000Z</time>
      </trkpt>
      <trkpt lat="43.17098" lon="5.60586">
        <ele>10.39999961853</ele>
        <time>2016-05-16T15:26:15.000Z</time>
      </trkpt>
      <trkpt lat="43.17088" lon="5.60579">
        <ele>11</ele>
        <time>2016-05-16T15:26:18.000Z</time>
      </trkpt>
      <trkpt lat="43.17084" lon="5.60576">
        <ele>11.199999809265</ele>
        <time>2016-05-16T15:26:19.000Z</time>
      </trkpt>
      <trkpt lat="43.17076" lon="5.60569">
        <ele>11.60000038147</ele>
        <time>2016-05-16T15:26:21.000Z</time>
      </trkpt>
      <trkpt lat="43.17064" lon="5.6056">
        <ele>12</ele>
        <time>2016-05-16T15:26:24.000Z</time>
      </trkpt>
      <trkpt lat="43.17057" lon="5.60554">
        <ele>12.39999961853</ele>
        <time>2016-05-16T15:26:26.000Z</time>
      </trkpt>
      <trkpt lat="43.17054" lon="5.6055">
        <ele>12.60000038147</ele>
        <time>2016-05-16T15:26:27.000Z</time>
      </trkpt>
      <trkpt lat="43.17048" lon="5.6054">
        <ele>12.60000038147</ele>
        <time>2016-05-16T15:26:29.000Z</time>
      </trkpt>
      <trkpt lat="43.17046" lon="5.60535">
        <ele>12.60000038147</ele>
        <time>2016-05-16T15:26:30.000Z</time>
      </trkpt>
      <trkpt lat="43.17036" lon="5.60511">
        <ele>12.800000190735</ele>
        <time>2016-05-16T15:26:34.000Z</time>
      </trkpt>
      <trkpt lat="43.17033" lon="5.605">
        <ele>12.800000190735</ele>
        <time>2016-05-16T15:26:36.000Z</time>
      </trkpt>
      <trkpt lat="43.17029" lon="5.60481">
        <ele>13</ele>
        <time>2016-05-16T15:26:39.000Z</time>
      </trkpt>
      <trkpt lat="43.17025" lon="5.60466">
        <ele>13.199999809265</ele>
        <time>2016-05-16T15:26:42.000Z</time>
      </trkpt>
      <trkpt lat="43.17024" lon="5.60448">
        <ele>12.60000038147</ele>
        <time>2016-05-16T15:28:30.000Z</time>
      </trkpt>
      <trkpt lat="43.17024" lon="5.60439">
        <ele>12.39999961853</ele>
        <time>2016-05-16T15:28:33.000Z</time>
      </trkpt>
      <trkpt lat="43.17019" lon="5.60425">
        <ele>12</ele>
        <time>2016-05-16T15:28:36.000Z</time>
      </trkpt>
      <trkpt lat="43.16996" lon="5.60406">
        <ele>11.800000190735</ele>
        <time>2016-05-16T15:28:41.000Z</time>
      </trkpt>
      <trkpt lat="43.16982" lon="5.60394">
        <ele>12</ele>
        <time>2016-05-16T15:28:44.000Z</time>
      </trkpt>
      <trkpt lat="43.16972" lon="5.60386">
        <ele>12</ele>
        <time>2016-05-16T15:28:46.000Z</time>
      </trkpt>
      <trkpt lat="43.16954" lon="5.60372">
        <ele>13.199999809265</ele>
        <time>2016-05-16T15:28:50.000Z</time>
      </trkpt>
      <trkpt lat="43.16946" lon="5.60366">
        <ele>13.60000038147</ele>
        <time>2016-05-16T15:28:52.000Z</time>
      </trkpt>
      <trkpt lat="43.16938" lon="5.6036">
        <ele>14.199999809265</ele>
        <time>2016-05-16T15:28:55.000Z</time>
      </trkpt>
      <trkpt lat="43.16934" lon="5.6036">
        <ele>14.39999961853</ele>
        <time>2016-05-16T15:28:57.000Z</time>
      </trkpt>
      <trkpt lat="43.16924" lon="5.60369">
        <ele>14.199999809265</ele>
        <time>2016-05-16T15:29:00.000Z</time>
      </trkpt>
      <trkpt lat="43.16913" lon="5.60388">
        <ele>14.39999961853</ele>
        <time>2016-05-16T15:29:03.000Z</time>
      </trkpt>
      <trkpt lat="43.16909" lon="5.60395">
        <ele>14.39999961853</ele>
        <time>2016-05-16T15:29:04.000Z</time>
      </trkpt>
      <trkpt lat="43.16887" lon="5.60437">
        <ele>15</ele>
        <time>2016-05-16T15:29:10.000Z</time>
      </trkpt>
      <trkpt lat="43.16873" lon="5.60463">
        <ele>14.800000190735</ele>
        <time>2016-05-16T15:29:14.000Z</time>
      </trkpt>
      <trkpt lat="43.16867" lon="5.60477">
        <ele>14.800000190735</ele>
        <time>2016-05-16T15:29:16.000Z</time>
      </trkpt>
      <trkpt lat="43.16864" lon="5.60484">
        <ele>14.800000190735</ele>
        <time>2016-05-16T15:29:17.000Z</time>
      </trkpt>
      <trkpt lat="43.16849" lon="5.60528">
        <ele>12.60000038147</ele>
        <time>2016-05-16T15:29:23.000Z</time>
      </trkpt>
      <trkpt lat="43.16838" lon="5.60552">
        <ele>11.60000038147</ele>
        <time>2016-05-16T15:29:27.000Z</time>
      </trkpt>
      <trkpt lat="43.16832" lon="5.60561">
        <ele>12.199999809265</ele>
        <time>2016-05-16T15:29:29.000Z</time>
      </trkpt>
      <trkpt lat="43.16829" lon="5.60565">
        <ele>12.39999961853</ele>
        <time>2016-05-16T15:29:30.000Z</time>
      </trkpt>
      <trkpt lat="43.16825" lon="5.60568">
        <ele>12.800000190735</ele>
        <time>2016-05-16T15:29:31.000Z</time>
      </trkpt>
      <trkpt lat="43.16813" lon="5.60574">
        <ele>13.800000190735</ele>
        <time>2016-05-16T15:29:34.000Z</time>
      </trkpt>
      <trkpt lat="43.16804" lon="5.60576">
        <ele>14.800000190735</ele>
        <time>2016-05-16T15:29:36.000Z</time>
      </trkpt>
      <trkpt lat="43.16799" lon="5.60577">
        <ele>15.39999961853</ele>
        <time>2016-05-16T15:29:37.000Z</time>
      </trkpt>
      <trkpt lat="43.16791" lon="5.60578">
        <ele>16.200000762939</ele>
        <time>2016-05-16T15:29:39.000Z</time>
      </trkpt>
      <trkpt lat="43.16784" lon="5.60579">
        <ele>16.799999237061</ele>
        <time>2016-05-16T15:29:41.000Z</time>
      </trkpt>
      <trkpt lat="43.16777" lon="5.60579">
        <ele>17.200000762939</ele>
        <time>2016-05-16T15:29:43.000Z</time>
      </trkpt>
      <trkpt lat="43.16771" lon="5.60578">
        <ele>17.799999237061</ele>
        <time>2016-05-16T15:29:45.000Z</time>
      </trkpt>
      <trkpt lat="43.16766" lon="5.60576">
        <ele>18.200000762939</ele>
        <time>2016-05-16T15:29:47.000Z</time>
      </trkpt>
      <trkpt lat="43.16764" lon="5.60575">
        <ele>18.39999961853</ele>
        <time>2016-05-16T15:29:48.000Z</time>
      </trkpt>
      <trkpt lat="43.16746" lon="5.60567">
        <ele>17.799999237061</ele>
        <time>2016-05-16T15:29:54.000Z</time>
      </trkpt>
      <trkpt lat="43.16719" lon="5.60555">
        <ele>16.200000762939</ele>
        <time>2016-05-16T15:30:02.000Z</time>
      </trkpt>
      <trkpt lat="43.16709" lon="5.60552">
        <ele>15.60000038147</ele>
        <time>2016-05-16T15:30:15.000Z</time>
      </trkpt>
      <trkpt lat="43.16705" lon="5.60557">
        <ele>15</ele>
        <time>2016-05-16T15:30:19.000Z</time>
      </trkpt>
      <trkpt lat="43.16704" lon="5.60559">
        <ele>14.800000190735</ele>
        <time>2016-05-16T15:30:20.000Z</time>
      </trkpt>
      <trkpt lat="43.16701" lon="5.60563">
        <ele>14.199999809265</ele>
        <time>2016-05-16T15:30:22.000Z</time>
      </trkpt>
      <trkpt lat="43.16693" lon="5.60584">
        <ele>12.39999961853</ele>
        <time>2016-05-16T15:30:29.000Z</time>
      </trkpt>
      <trkpt lat="43.16687" lon="5.60601">
        <ele>10.800000190735</ele>
        <time>2016-05-16T15:30:33.000Z</time>
      </trkpt>
      <trkpt lat="43.16681" lon="5.60616">
        <ele>9.3999996185303</ele>
        <time>2016-05-16T15:30:37.000Z</time>
      </trkpt>
      <trkpt lat="43.1668" lon="5.60619">
        <ele>9.1999998092651</ele>
        <time>2016-05-16T15:30:38.000Z</time>
      </trkpt>
      <trkpt lat="43.16678" lon="5.60622">
        <ele>8.8000001907349</ele>
        <time>2016-05-16T15:30:40.000Z</time>
      </trkpt>
      <trkpt lat="43.16679" lon="5.60621">
        <ele>9</ele>
        <time>2016-05-16T15:30:49.000Z</time>
      </trkpt>
      <trkpt lat="43.16674" lon="5.60628">
        <ele>8.3999996185303</ele>
        <time>2016-05-16T15:30:54.000Z</time>
      </trkpt>
      <trkpt lat="43.16669" lon="5.60623">
        <ele>8.8000001907349</ele>
        <time>2016-05-16T15:35:58.000Z</time>
      </trkpt>
      <trkpt lat="43.16667" lon="5.60617">
        <ele>9</ele>
        <time>2016-05-16T15:36:00.000Z</time>
      </trkpt>
      <trkpt lat="43.1666" lon="5.60607">
        <ele>9.6000003814697</ele>
        <time>2016-05-16T15:36:04.000Z</time>
      </trkpt>
      <trkpt lat="43.16656" lon="5.60603">
        <ele>10</ele>
        <time>2016-05-16T15:36:06.000Z</time>
      </trkpt>
      <trkpt lat="43.16655" lon="5.60602">
        <ele>10</ele>
        <time>2016-05-16T15:36:07.000Z</time>
      </trkpt>
      <trkpt lat="43.16651" lon="5.60597">
        <ele>10.199999809265</ele>
        <time>2016-05-16T15:36:10.000Z</time>
      </trkpt>
      <trkpt lat="43.16646" lon="5.60593">
        <ele>10.60000038147</ele>
        <time>2016-05-16T15:36:13.000Z</time>
      </trkpt>
      <trkpt lat="43.16643" lon="5.6059">
        <ele>10.60000038147</ele>
        <time>2016-05-16T15:36:16.000Z</time>
      </trkpt>
      <trkpt lat="43.16643" lon="5.60584">
        <ele>11</ele>
        <time>2016-05-16T15:37:32.000Z</time>
      </trkpt>
      <trkpt lat="43.16655" lon="5.6059">
        <ele>10.800000190735</ele>
        <time>2016-05-16T15:37:36.000Z</time>
      </trkpt>
      <trkpt lat="43.1666" lon="5.60596">
        <ele>10.39999961853</ele>
        <time>2016-05-16T15:37:38.000Z</time>
      </trkpt>
      <trkpt lat="43.16666" lon="5.60603">
        <ele>10</ele>
        <time>2016-05-16T15:37:40.000Z</time>
      </trkpt>
      <trkpt lat="43.16674" lon="5.60613">
        <ele>9.3999996185303</ele>
        <time>2016-05-16T15:37:43.000Z</time>
      </trkpt>
      <trkpt lat="43.16676" lon="5.60614">
        <ele>9.1999998092651</ele>
        <time>2016-05-16T15:37:44.000Z</time>
      </trkpt>
      <trkpt lat="43.16679" lon="5.60615">
        <ele>9.1999998092651</ele>
        <time>2016-05-16T15:37:45.000Z</time>
      </trkpt>
      <trkpt lat="43.16685" lon="5.60608">
        <ele>10.199999809265</ele>
        <time>2016-05-16T15:37:48.000Z</time>
      </trkpt>
      <trkpt lat="43.16688" lon="5.60602">
        <ele>10.800000190735</ele>
        <time>2016-05-16T15:37:50.000Z</time>
      </trkpt>
      <trkpt lat="43.16689" lon="5.60599">
        <ele>11.199999809265</ele>
        <time>2016-05-16T15:37:51.000Z</time>
      </trkpt>
      <trkpt lat="43.16691" lon="5.60594">
        <ele>11.60000038147</ele>
        <time>2016-05-16T15:37:53.000Z</time>
      </trkpt>
      <trkpt lat="43.16692" lon="5.60591">
        <ele>11.800000190735</ele>
        <time>2016-05-16T15:37:54.000Z</time>
      </trkpt>
      <trkpt lat="43.16696" lon="5.60576">
        <ele>13</ele>
        <time>2016-05-16T15:37:58.000Z</time>
      </trkpt>
      <trkpt lat="43.16697" lon="5.60574">
        <ele>13.39999961853</ele>
        <time>2016-05-16T15:37:59.000Z</time>
      </trkpt>
      <trkpt lat="43.16698" lon="5.60568">
        <ele>13.800000190735</ele>
        <time>2016-05-16T15:38:01.000Z</time>
      </trkpt>
      <trkpt lat="43.167" lon="5.60563">
        <ele>14.199999809265</ele>
        <time>2016-05-16T15:38:04.000Z</time>
      </trkpt>
      <trkpt lat="43.16705" lon="5.60549">
        <ele>15.39999961853</ele>
        <time>2016-05-16T15:38:12.000Z</time>
      </trkpt>
      <trkpt lat="43.16708" lon="5.60544">
        <ele>15.60000038147</ele>
        <time>2016-05-16T15:38:15.000Z</time>
      </trkpt>
      <trkpt lat="43.16711" lon="5.60543">
        <ele>16</ele>
        <time>2016-05-16T15:38:17.000Z</time>
      </trkpt>
      <trkpt lat="43.16722" lon="5.60546">
        <ele>16.799999237061</ele>
        <time>2016-05-16T15:38:20.000Z</time>
      </trkpt>
      <trkpt lat="43.1673" lon="5.6055">
        <ele>17.39999961853</ele>
        <time>2016-05-16T15:38:22.000Z</time>
      </trkpt>
      <trkpt lat="43.16754" lon="5.60561">
        <ele>18.799999237061</ele>
        <time>2016-05-16T15:38:30.000Z</time>
      </trkpt>
      <trkpt lat="43.16773" lon="5.60565">
        <ele>18.39999961853</ele>
        <time>2016-05-16T15:38:36.000Z</time>
      </trkpt>
      <trkpt lat="43.16788" lon="5.60566">
        <ele>16.799999237061</ele>
        <time>2016-05-16T15:38:39.000Z</time>
      </trkpt>
      <trkpt lat="43.168" lon="5.60567">
        <ele>15.39999961853</ele>
        <time>2016-05-16T15:38:43.000Z</time>
      </trkpt>
      <trkpt lat="43.16804" lon="5.60568">
        <ele>15</ele>
        <time>2016-05-16T15:38:46.000Z</time>
      </trkpt>
      <trkpt lat="43.16805" lon="5.60564">
        <ele>15</ele>
        <time>2016-05-16T15:40:43.000Z</time>
      </trkpt>
      <trkpt lat="43.16809" lon="5.60548">
        <ele>15</ele>
        <time>2016-05-16T15:40:47.000Z</time>
      </trkpt>
      <trkpt lat="43.1681" lon="5.60544">
        <ele>15.199999809265</ele>
        <time>2016-05-16T15:40:48.000Z</time>
      </trkpt>
      <trkpt lat="43.16814" lon="5.60529">
        <ele>15.39999961853</ele>
        <time>2016-05-16T15:40:51.000Z</time>
      </trkpt>
      <trkpt lat="43.16818" lon="5.60511">
        <ele>16.200000762939</ele>
        <time>2016-05-16T15:40:54.000Z</time>
      </trkpt>
      <trkpt lat="43.16819" lon="5.60506">
        <ele>16.39999961853</ele>
        <time>2016-05-16T15:40:55.000Z</time>
      </trkpt>
      <trkpt lat="43.16823" lon="5.6048">
        <ele>18</ele>
        <time>2016-05-16T15:41:00.000Z</time>
      </trkpt>
      <trkpt lat="43.1683" lon="5.60445">
        <ele>19.200000762939</ele>
        <time>2016-05-16T15:41:07.000Z</time>
      </trkpt>
      <trkpt lat="43.16832" lon="5.60441">
        <ele>19.200000762939</ele>
        <time>2016-05-16T15:41:08.000Z</time>
      </trkpt>
      <trkpt lat="43.16838" lon="5.60409">
        <ele>20.39999961853</ele>
        <time>2016-05-16T15:41:14.000Z</time>
      </trkpt>
      <trkpt lat="43.16839" lon="5.60403">
        <ele>20.60000038147</ele>
        <time>2016-05-16T15:41:15.000Z</time>
      </trkpt>
      <trkpt lat="43.16844" lon="5.60372">
        <ele>21.39999961853</ele>
        <time>2016-05-16T15:41:21.000Z</time>
      </trkpt>
      <trkpt lat="43.16845" lon="5.60367">
        <ele>21.39999961853</ele>
        <time>2016-05-16T15:41:22.000Z</time>
      </trkpt>
      <trkpt lat="43.16851" lon="5.60348">
        <ele>21.39999961853</ele>
        <time>2016-05-16T15:41:26.000Z</time>
      </trkpt>
      <trkpt lat="43.16853" lon="5.60338">
        <ele>21.200000762939</ele>
        <time>2016-05-16T15:41:28.000Z</time>
      </trkpt>
      <trkpt lat="43.16858" lon="5.60324">
        <ele>21.200000762939</ele>
        <time>2016-05-16T15:41:31.000Z</time>
      </trkpt>
      <trkpt lat="43.16861" lon="5.60314">
        <ele>21.200000762939</ele>
        <time>2016-05-16T15:41:33.000Z</time>
      </trkpt>
      <trkpt lat="43.16861" lon="5.60298">
        <ele>22.200000762939</ele>
        <time>2016-05-16T15:41:36.000Z</time>
      </trkpt>
      <trkpt lat="43.16859" lon="5.60281">
        <ele>23.39999961853</ele>
        <time>2016-05-16T15:41:39.000Z</time>
      </trkpt>
      <trkpt lat="43.1686" lon="5.60254">
        <ele>25</ele>
        <time>2016-05-16T15:41:44.000Z</time>
      </trkpt>
      <trkpt lat="43.16861" lon="5.60248">
        <ele>25.200000762939</ele>
        <time>2016-05-16T15:41:45.000Z</time>
      </trkpt>
      <trkpt lat="43.16861" lon="5.60233">
        <ele>26.200000762939</ele>
        <time>2016-05-16T15:41:48.000Z</time>
      </trkpt>
      <trkpt lat="43.16861" lon="5.60212">
        <ele>27</ele>
        <time>2016-05-16T15:41:52.000Z</time>
      </trkpt>
      <trkpt lat="43.16862" lon="5.60207">
        <ele>27.200000762939</ele>
        <time>2016-05-16T15:41:53.000Z</time>
      </trkpt>
      <trkpt lat="43.16862" lon="5.60181">
        <ele>28.200000762939</ele>
        <time>2016-05-16T15:41:58.000Z</time>
      </trkpt>
      <trkpt lat="43.16862" lon="5.60175">
        <ele>28.39999961853</ele>
        <time>2016-05-16T15:41:59.000Z</time>
      </trkpt>
      <trkpt lat="43.16862" lon="5.60153">
        <ele>29.200000762939</ele>
        <time>2016-05-16T15:42:03.000Z</time>
      </trkpt>
      <trkpt lat="43.16862" lon="5.60147">
        <ele>29.39999961853</ele>
        <time>2016-05-16T15:42:04.000Z</time>
      </trkpt>
      <trkpt lat="43.16864" lon="5.60114">
        <ele>30.60000038147</ele>
        <time>2016-05-16T15:42:10.000Z</time>
      </trkpt>
      <trkpt lat="43.16864" lon="5.60108">
        <ele>30.799999237061</ele>
        <time>2016-05-16T15:42:11.000Z</time>
      </trkpt>
      <trkpt lat="43.16861" lon="5.60086">
        <ele>31.39999961853</ele>
        <time>2016-05-16T15:42:16.000Z</time>
      </trkpt>
      <trkpt lat="43.16857" lon="5.60081">
        <ele>31.799999237061</ele>
        <time>2016-05-16T15:42:18.000Z</time>
      </trkpt>
      <trkpt lat="43.1685" lon="5.60079">
        <ele>32</ele>
        <time>2016-05-16T15:42:20.000Z</time>
      </trkpt>
      <trkpt lat="43.16837" lon="5.60076">
        <ele>32</ele>
        <time>2016-05-16T15:42:25.000Z</time>
      </trkpt>
      <trkpt lat="43.16825" lon="5.60072">
        <ele>31.60000038147</ele>
        <time>2016-05-16T15:42:29.000Z</time>
      </trkpt>
      <trkpt lat="43.16822" lon="5.6007">
        <ele>31.39999961853</ele>
        <time>2016-05-16T15:42:30.000Z</time>
      </trkpt>
      <trkpt lat="43.16786" lon="5.6006">
        <ele>30</ele>
        <time>2016-05-16T15:42:38.000Z</time>
      </trkpt>
      <trkpt lat="43.16778" lon="5.60059">
        <ele>29.60000038147</ele>
        <time>2016-05-16T15:42:40.000Z</time>
      </trkpt>
      <trkpt lat="43.16765" lon="5.60062">
        <ele>28.799999237061</ele>
        <time>2016-05-16T15:42:43.000Z</time>
      </trkpt>
      <trkpt lat="43.16761" lon="5.60064">
        <ele>28.39999961853</ele>
        <time>2016-05-16T15:42:44.000Z</time>
      </trkpt>
      <trkpt lat="43.16753" lon="5.6007">
        <ele>29</ele>
        <time>2016-05-16T15:42:46.000Z</time>
      </trkpt>
      <trkpt lat="43.16744" lon="5.6007">
        <ele>29.799999237061</ele>
        <time>2016-05-16T15:42:48.000Z</time>
      </trkpt>
      <trkpt lat="43.16739" lon="5.60067">
        <ele>30.39999961853</ele>
        <time>2016-05-16T15:42:49.000Z</time>
      </trkpt>
      <trkpt lat="43.16735" lon="5.60065">
        <ele>30.799999237061</ele>
        <time>2016-05-16T15:42:50.000Z</time>
      </trkpt>
      <trkpt lat="43.16732" lon="5.60062">
        <ele>31.39999961853</ele>
        <time>2016-05-16T15:42:51.000Z</time>
      </trkpt>
      <trkpt lat="43.16718" lon="5.60051">
        <ele>33.200000762939</ele>
        <time>2016-05-16T15:42:55.000Z</time>
      </trkpt>
      <trkpt lat="43.16702" lon="5.60036">
        <ele>34.799999237061</ele>
        <time>2016-05-16T15:43:01.000Z</time>
      </trkpt>
      <trkpt lat="43.16701" lon="5.6003">
        <ele>35</ele>
        <time>2016-05-16T15:43:33.000Z</time>
      </trkpt>
      <trkpt lat="43.16709" lon="5.6002">
        <ele>34.400001525879</ele>
        <time>2016-05-16T15:43:37.000Z</time>
      </trkpt>
      <trkpt lat="43.16711" lon="5.60012">
        <ele>34.200000762939</ele>
        <time>2016-05-16T15:43:39.000Z</time>
      </trkpt>
      <trkpt lat="43.16717" lon="5.59991">
        <ele>34.400001525879</ele>
        <time>2016-05-16T15:43:43.000Z</time>
      </trkpt>
      <trkpt lat="43.16728" lon="5.59953">
        <ele>35.799999237061</ele>
        <time>2016-05-16T15:43:51.000Z</time>
      </trkpt>
      <trkpt lat="43.16734" lon="5.59932">
        <ele>36.599998474121</ele>
        <time>2016-05-16T15:43:55.000Z</time>
      </trkpt>
      <trkpt lat="43.16739" lon="5.59919">
        <ele>36.400001525879</ele>
        <time>2016-05-16T15:43:58.000Z</time>
      </trkpt>
      <trkpt lat="43.16741" lon="5.59914">
        <ele>36.400001525879</ele>
        <time>2016-05-16T15:43:59.000Z</time>
      </trkpt>
      <trkpt lat="43.16742" lon="5.59908">
        <ele>36.400001525879</ele>
        <time>2016-05-16T15:44:02.000Z</time>
      </trkpt>
      <trkpt lat="43.16747" lon="5.59895">
        <ele>36.400001525879</ele>
        <time>2016-05-16T15:44:07.000Z</time>
      </trkpt>
      <trkpt lat="43.16748" lon="5.59888">
        <ele>36.400001525879</ele>
        <time>2016-05-16T15:44:13.000Z</time>
      </trkpt>
      <trkpt lat="43.16741" lon="5.5988">
        <ele>37.400001525879</ele>
        <time>2016-05-16T15:44:20.000Z</time>
      </trkpt>
      <trkpt lat="43.16739" lon="5.59878">
        <ele>37.599998474121</ele>
        <time>2016-05-16T15:44:23.000Z</time>
      </trkpt>
      <trkpt lat="43.1674" lon="5.59874">
        <ele>37.400001525879</ele>
        <time>2016-05-16T15:44:54.000Z</time>
      </trkpt>
      <trkpt lat="43.16745" lon="5.59864">
        <ele>36.400001525879</ele>
        <time>2016-05-16T15:45:00.000Z</time>
      </trkpt>
      <trkpt lat="43.16747" lon="5.59851">
        <ele>35.400001525879</ele>
        <time>2016-05-16T15:45:08.000Z</time>
      </trkpt>
      <trkpt lat="43.16747" lon="5.59848">
        <ele>35.200000762939</ele>
        <time>2016-05-16T15:45:09.000Z</time>
      </trkpt>
      <trkpt lat="43.16748" lon="5.59845">
        <ele>35</ele>
        <time>2016-05-16T15:45:11.000Z</time>
      </trkpt>
      <trkpt lat="43.16756" lon="5.59809">
        <ele>32.200000762939</ele>
        <time>2016-05-16T15:48:14.000Z</time>
      </trkpt>
      <trkpt lat="43.16757" lon="5.59816">
        <ele>32.200000762939</ele>
        <time>2016-05-16T15:48:26.000Z</time>
      </trkpt>
      <trkpt lat="43.16757" lon="5.59819">
        <ele>32.400001525879</ele>
        <time>2016-05-16T15:48:28.000Z</time>
      </trkpt>
      <trkpt lat="43.16744" lon="5.59868">
        <ele>36.599998474121</ele>
        <time>2016-05-16T15:53:47.000Z</time>
      </trkpt>
      <trkpt lat="43.16746" lon="5.59871">
        <ele>36.400001525879</ele>
        <time>2016-05-16T15:53:49.000Z</time>
      </trkpt>
      <trkpt lat="43.1675" lon="5.59875">
        <ele>36.200000762939</ele>
        <time>2016-05-16T15:53:52.000Z</time>
      </trkpt>
      <trkpt lat="43.16753" lon="5.59876">
        <ele>35.799999237061</ele>
        <time>2016-05-16T15:53:54.000Z</time>
      </trkpt>
      <trkpt lat="43.16756" lon="5.59874">
        <ele>35.200000762939</ele>
        <time>2016-05-16T15:56:01.000Z</time>
      </trkpt>
      <trkpt lat="43.16759" lon="5.59873">
        <ele>34.799999237061</ele>
        <time>2016-05-16T15:56:02.000Z</time>
      </trkpt>
      <trkpt lat="43.16766" lon="5.59877">
        <ele>34.799999237061</ele>
        <time>2016-05-16T15:56:05.000Z</time>
      </trkpt>
      <trkpt lat="43.16768" lon="5.59878">
        <ele>35.200000762939</ele>
        <time>2016-05-16T15:56:06.000Z</time>
      </trkpt>
      <trkpt lat="43.16772" lon="5.5988">
        <ele>35.400001525879</ele>
        <time>2016-05-16T15:56:08.000Z</time>
      </trkpt>
      <trkpt lat="43.16777" lon="5.59887">
        <ele>35.799999237061</ele>
        <time>2016-05-16T15:56:12.000Z</time>
      </trkpt>
      <trkpt lat="43.1678" lon="5.5989">
        <ele>36</ele>
        <time>2016-05-16T15:56:14.000Z</time>
      </trkpt>
      <trkpt lat="43.16786" lon="5.59892">
        <ele>36.200000762939</ele>
        <time>2016-05-16T15:56:17.000Z</time>
      </trkpt>
      <trkpt lat="43.16788" lon="5.59894">
        <ele>36.200000762939</ele>
        <time>2016-05-16T15:56:18.000Z</time>
      </trkpt>
      <trkpt lat="43.168" lon="5.59896">
        <ele>36.799999237061</ele>
        <time>2016-05-16T15:56:22.000Z</time>
      </trkpt>
      <trkpt lat="43.1681" lon="5.59898">
        <ele>37.400001525879</ele>
        <time>2016-05-16T15:56:26.000Z</time>
      </trkpt>
      <trkpt lat="43.16822" lon="5.599">
        <ele>37.799999237061</ele>
        <time>2016-05-16T15:56:30.000Z</time>
      </trkpt>
      <trkpt lat="43.16845" lon="5.59917">
        <ele>38.400001525879</ele>
        <time>2016-05-16T15:56:37.000Z</time>
      </trkpt>
      <trkpt lat="43.16868" lon="5.59938">
        <ele>38</ele>
        <time>2016-05-16T15:56:43.000Z</time>
      </trkpt>
      <trkpt lat="43.16892" lon="5.59966">
        <ele>37.200000762939</ele>
        <time>2016-05-16T15:56:49.000Z</time>
      </trkpt>
      <trkpt lat="43.169" lon="5.59972">
        <ele>37.200000762939</ele>
        <time>2016-05-16T15:56:50.000Z</time>
      </trkpt>
      <trkpt lat="43.16925" lon="5.59993">
        <ele>36.400001525879</ele>
        <time>2016-05-16T15:56:55.000Z</time>
      </trkpt>
      <trkpt lat="43.16928" lon="5.59995">
        <ele>36.400001525879</ele>
        <time>2016-05-16T15:56:56.000Z</time>
      </trkpt>
      <trkpt lat="43.16936" lon="5.59998">
        <ele>36.200000762939</ele>
        <time>2016-05-16T15:56:58.000Z</time>
      </trkpt>
      <trkpt lat="43.1694" lon="5.59997">
        <ele>36.400001525879</ele>
        <time>2016-05-16T15:56:59.000Z</time>
      </trkpt>
      <trkpt lat="43.16943" lon="5.59995">
        <ele>36.400001525879</ele>
        <time>2016-05-16T15:57:00.000Z</time>
      </trkpt>
      <trkpt lat="43.16947" lon="5.59988">
        <ele>36.799999237061</ele>
        <time>2016-05-16T15:57:02.000Z</time>
      </trkpt>
      <trkpt lat="43.16949" lon="5.59976">
        <ele>36.799999237061</ele>
        <time>2016-05-16T15:57:04.000Z</time>
      </trkpt>
      <trkpt lat="43.16949" lon="5.59971">
        <ele>37</ele>
        <time>2016-05-16T15:57:05.000Z</time>
      </trkpt>
      <trkpt lat="43.16949" lon="5.59964">
        <ele>37.200000762939</ele>
        <time>2016-05-16T15:57:06.000Z</time>
      </trkpt>
      <trkpt lat="43.1695" lon="5.59946">
        <ele>38</ele>
        <time>2016-05-16T15:57:09.000Z</time>
      </trkpt>
      <trkpt lat="43.16951" lon="5.5994">
        <ele>38.200000762939</ele>
        <time>2016-05-16T15:57:10.000Z</time>
      </trkpt>
      <trkpt lat="43.16951" lon="5.59934">
        <ele>38.599998474121</ele>
        <time>2016-05-16T15:57:11.000Z</time>
      </trkpt>
      <trkpt lat="43.16952" lon="5.59921">
        <ele>39.200000762939</ele>
        <time>2016-05-16T15:57:13.000Z</time>
      </trkpt>
      <trkpt lat="43.16952" lon="5.59914">
        <ele>39.400001525879</ele>
        <time>2016-05-16T15:57:14.000Z</time>
      </trkpt>
      <trkpt lat="43.16953" lon="5.59908">
        <ele>39.799999237061</ele>
        <time>2016-05-16T15:57:15.000Z</time>
      </trkpt>
      <trkpt lat="43.16954" lon="5.59902">
        <ele>40.200000762939</ele>
        <time>2016-05-16T15:57:16.000Z</time>
      </trkpt>
      <trkpt lat="43.16956" lon="5.59889">
        <ele>41</ele>
        <time>2016-05-16T15:57:18.000Z</time>
      </trkpt>
      <trkpt lat="43.16956" lon="5.59882">
        <ele>41.400001525879</ele>
        <time>2016-05-16T15:57:19.000Z</time>
      </trkpt>
      <trkpt lat="43.16956" lon="5.59868">
        <ele>42.200000762939</ele>
        <time>2016-05-16T15:57:21.000Z</time>
      </trkpt>
      <trkpt lat="43.16955" lon="5.59861">
        <ele>42.400001525879</ele>
        <time>2016-05-16T15:57:22.000Z</time>
      </trkpt>
      <trkpt lat="43.16957" lon="5.59849">
        <ele>43</ele>
        <time>2016-05-16T15:57:24.000Z</time>
      </trkpt>
      <trkpt lat="43.16957" lon="5.59836">
        <ele>43.599998474121</ele>
        <time>2016-05-16T15:57:26.000Z</time>
      </trkpt>
      <trkpt lat="43.16957" lon="5.5983">
        <ele>44</ele>
        <time>2016-05-16T15:57:27.000Z</time>
      </trkpt>
      <trkpt lat="43.16958" lon="5.59818">
        <ele>45</ele>
        <time>2016-05-16T15:57:29.000Z</time>
      </trkpt>
      <trkpt lat="43.16959" lon="5.59812">
        <ele>45.599998474121</ele>
        <time>2016-05-16T15:57:30.000Z</time>
      </trkpt>
      <trkpt lat="43.16959" lon="5.59806">
        <ele>46</ele>
        <time>2016-05-16T15:57:31.000Z</time>
      </trkpt>
      <trkpt lat="43.16959" lon="5.59799">
        <ele>46.400001525879</ele>
        <time>2016-05-16T15:57:32.000Z</time>
      </trkpt>
      <trkpt lat="43.16959" lon="5.59792">
        <ele>46.799999237061</ele>
        <time>2016-05-16T15:57:33.000Z</time>
      </trkpt>
      <trkpt lat="43.16959" lon="5.59772">
        <ele>47.799999237061</ele>
        <time>2016-05-16T15:57:36.000Z</time>
      </trkpt>
      <trkpt lat="43.16959" lon="5.59762">
        <ele>48.400001525879</ele>
        <time>2016-05-16T15:57:38.000Z</time>
      </trkpt>
      <trkpt lat="43.16959" lon="5.59756">
        <ele>48.599998474121</ele>
        <time>2016-05-16T15:57:39.000Z</time>
      </trkpt>
      <trkpt lat="43.16959" lon="5.59738">
        <ele>49.799999237061</ele>
        <time>2016-05-16T15:57:42.000Z</time>
      </trkpt>
      <trkpt lat="43.1696" lon="5.59732">
        <ele>50.400001525879</ele>
        <time>2016-05-16T15:57:43.000Z</time>
      </trkpt>
      <trkpt lat="43.1696" lon="5.59719">
        <ele>51.400001525879</ele>
        <time>2016-05-16T15:57:45.000Z</time>
      </trkpt>
      <trkpt lat="43.16961" lon="5.59713">
        <ele>51.799999237061</ele>
        <time>2016-05-16T15:57:46.000Z</time>
      </trkpt>
      <trkpt lat="43.16964" lon="5.59695">
        <ele>52.799999237061</ele>
        <time>2016-05-16T15:57:49.000Z</time>
      </trkpt>
      <trkpt lat="43.16965" lon="5.59682">
        <ele>53.599998474121</ele>
        <time>2016-05-16T15:57:51.000Z</time>
      </trkpt>
      <trkpt lat="43.16965" lon="5.59665">
        <ele>54.599998474121</ele>
        <time>2016-05-16T15:57:54.000Z</time>
      </trkpt>
      <trkpt lat="43.16965" lon="5.59653">
        <ele>55.799999237061</ele>
        <time>2016-05-16T15:57:56.000Z</time>
      </trkpt>
      <trkpt lat="43.16964" lon="5.59647">
        <ele>56.200000762939</ele>
        <time>2016-05-16T15:57:57.000Z</time>
      </trkpt>
      <trkpt lat="43.16965" lon="5.59637">
        <ele>57.400001525879</ele>
        <time>2016-05-16T15:57:59.000Z</time>
      </trkpt>
      <trkpt lat="43.16965" lon="5.59626">
        <ele>57.400001525879</ele>
        <time>2016-05-16T15:58:01.000Z</time>
      </trkpt>
      <trkpt lat="43.16965" lon="5.59606">
        <ele>56.799999237061</ele>
        <time>2016-05-16T15:58:05.000Z</time>
      </trkpt>
      <trkpt lat="43.16971" lon="5.5958">
        <ele>56.799999237061</ele>
        <time>2016-05-16T15:58:10.000Z</time>
      </trkpt>
      <trkpt lat="43.16978" lon="5.59565">
        <ele>57.200000762939</ele>
        <time>2016-05-16T15:58:13.000Z</time>
      </trkpt>
      <trkpt lat="43.16985" lon="5.5955">
        <ele>57.400001525879</ele>
        <time>2016-05-16T15:58:16.000Z</time>
      </trkpt>
      <trkpt lat="43.16992" lon="5.59525">
        <ele>58</ele>
        <time>2016-05-16T15:58:23.000Z</time>
      </trkpt>
      <trkpt lat="43.16993" lon="5.59505">
        <ele>58</ele>
        <time>2016-05-16T15:58:29.000Z</time>
      </trkpt>
      <trkpt lat="43.16991" lon="5.59476">
        <ele>57.400001525879</ele>
        <time>2016-05-16T15:58:35.000Z</time>
      </trkpt>
      <trkpt lat="43.16994" lon="5.59453">
        <ele>58</ele>
        <time>2016-05-16T15:58:39.000Z</time>
      </trkpt>
      <trkpt lat="43.16997" lon="5.59441">
        <ele>58.400001525879</ele>
        <time>2016-05-16T15:58:41.000Z</time>
      </trkpt>
      <trkpt lat="43.17008" lon="5.5941">
        <ele>59.400001525879</ele>
        <time>2016-05-16T15:58:46.000Z</time>
      </trkpt>
      <trkpt lat="43.1701" lon="5.59404">
        <ele>59.799999237061</ele>
        <time>2016-05-16T15:58:47.000Z</time>
      </trkpt>
      <trkpt lat="43.17015" lon="5.59392">
        <ele>60.400001525879</ele>
        <time>2016-05-16T15:58:49.000Z</time>
      </trkpt>
      <trkpt lat="43.17019" lon="5.59381">
        <ele>60.799999237061</ele>
        <time>2016-05-16T15:58:51.000Z</time>
      </trkpt>
      <trkpt lat="43.17023" lon="5.5937">
        <ele>61.599998474121</ele>
        <time>2016-05-16T15:58:53.000Z</time>
      </trkpt>
      <trkpt lat="43.17026" lon="5.59366">
        <ele>62</ele>
        <time>2016-05-16T15:58:54.000Z</time>
      </trkpt>
      <trkpt lat="43.1703" lon="5.59354">
        <ele>62.799999237061</ele>
        <time>2016-05-16T15:58:56.000Z</time>
      </trkpt>
      <trkpt lat="43.17037" lon="5.59337">
        <ele>64.199996948242</ele>
        <time>2016-05-16T15:58:59.000Z</time>
      </trkpt>
      <trkpt lat="43.17043" lon="5.59319">
        <ele>65.400001525879</ele>
        <time>2016-05-16T15:59:02.000Z</time>
      </trkpt>
      <trkpt lat="43.17047" lon="5.59309">
        <ele>66.199996948242</ele>
        <time>2016-05-16T15:59:04.000Z</time>
      </trkpt>
      <trkpt lat="43.17048" lon="5.59302">
        <ele>66.599998474121</ele>
        <time>2016-05-16T15:59:05.000Z</time>
      </trkpt>
      <trkpt lat="43.17051" lon="5.59297">
        <ele>67.199996948242</ele>
        <time>2016-05-16T15:59:06.000Z</time>
      </trkpt>
      <trkpt lat="43.17054" lon="5.59285">
        <ele>68.400001525879</ele>
        <time>2016-05-16T15:59:08.000Z</time>
      </trkpt>
      <trkpt lat="43.17056" lon="5.5928">
        <ele>69</ele>
        <time>2016-05-16T15:59:09.000Z</time>
      </trkpt>
      <trkpt lat="43.17062" lon="5.59263">
        <ele>71</ele>
        <time>2016-05-16T15:59:12.000Z</time>
      </trkpt>
      <trkpt lat="43.17065" lon="5.5925">
        <ele>72.400001525879</ele>
        <time>2016-05-16T15:59:14.000Z</time>
      </trkpt>
      <trkpt lat="43.17068" lon="5.59245">
        <ele>73.199996948242</ele>
        <time>2016-05-16T15:59:15.000Z</time>
      </trkpt>
      <trkpt lat="43.17069" lon="5.5924">
        <ele>73.800003051758</ele>
        <time>2016-05-16T15:59:16.000Z</time>
      </trkpt>
      <trkpt lat="43.17073" lon="5.59228">
        <ele>75.199996948242</ele>
        <time>2016-05-16T15:59:18.000Z</time>
      </trkpt>
      <trkpt lat="43.17075" lon="5.59222">
        <ele>76</ele>
        <time>2016-05-16T15:59:19.000Z</time>
      </trkpt>
      <trkpt lat="43.17078" lon="5.5921">
        <ele>77.599998474121</ele>
        <time>2016-05-16T15:59:21.000Z</time>
      </trkpt>
      <trkpt lat="43.1708" lon="5.59197">
        <ele>79.199996948242</ele>
        <time>2016-05-16T15:59:23.000Z</time>
      </trkpt>
      <trkpt lat="43.17081" lon="5.59192">
        <ele>79.800003051758</ele>
        <time>2016-05-16T15:59:24.000Z</time>
      </trkpt>
      <trkpt lat="43.17081" lon="5.59185">
        <ele>80.199996948242</ele>
        <time>2016-05-16T15:59:25.000Z</time>
      </trkpt>
      <trkpt lat="43.17082" lon="5.59173">
        <ele>81.400001525879</ele>
        <time>2016-05-16T15:59:27.000Z</time>
      </trkpt>
      <trkpt lat="43.17082" lon="5.59162">
        <ele>82.400001525879</ele>
        <time>2016-05-16T15:59:29.000Z</time>
      </trkpt>
      <trkpt lat="43.17083" lon="5.59152">
        <ele>83.199996948242</ele>
        <time>2016-05-16T15:59:31.000Z</time>
      </trkpt>
      <trkpt lat="43.17083" lon="5.59141">
        <ele>84</ele>
        <time>2016-05-16T15:59:33.000Z</time>
      </trkpt>
      <trkpt lat="43.17081" lon="5.59129">
        <ele>85.199996948242</ele>
        <time>2016-05-16T15:59:35.000Z</time>
      </trkpt>
      <trkpt lat="43.1708" lon="5.59119">
        <ele>86.400001525879</ele>
        <time>2016-05-16T15:59:37.000Z</time>
      </trkpt>
      <trkpt lat="43.17076" lon="5.59108">
        <ele>88</ele>
        <time>2016-05-16T15:59:39.000Z</time>
      </trkpt>
      <trkpt lat="43.17075" lon="5.59097">
        <ele>89.599998474121</ele>
        <time>2016-05-16T15:59:41.000Z</time>
      </trkpt>
      <trkpt lat="43.17075" lon="5.59092">
        <ele>90.400001525879</ele>
        <time>2016-05-16T15:59:42.000Z</time>
      </trkpt>
      <trkpt lat="43.17075" lon="5.59087">
        <ele>91</ele>
        <time>2016-05-16T15:59:43.000Z</time>
      </trkpt>
      <trkpt lat="43.17075" lon="5.59079">
        <ele>92.199996948242</ele>
        <time>2016-05-16T15:59:45.000Z</time>
      </trkpt>
      <trkpt lat="43.17074" lon="5.59068">
        <ele>94</ele>
        <time>2016-05-16T15:59:47.000Z</time>
      </trkpt>
      <trkpt lat="43.17074" lon="5.59062">
        <ele>94.800003051758</ele>
        <time>2016-05-16T15:59:48.000Z</time>
      </trkpt>
      <trkpt lat="43.17074" lon="5.59057">
        <ele>95.800003051758</ele>
        <time>2016-05-16T15:59:49.000Z</time>
      </trkpt>
      <trkpt lat="43.17075" lon="5.59046">
        <ele>96</ele>
        <time>2016-05-16T15:59:51.000Z</time>
      </trkpt>
      <trkpt lat="43.17076" lon="5.59036">
        <ele>95.400001525879</ele>
        <time>2016-05-16T15:59:53.000Z</time>
      </trkpt>
      <trkpt lat="43.17078" lon="5.59032">
        <ele>95.199996948242</ele>
        <time>2016-05-16T15:59:54.000Z</time>
      </trkpt>
      <trkpt lat="43.17079" lon="5.59029">
        <ele>95.400001525879</ele>
        <time>2016-05-16T15:59:55.000Z</time>
      </trkpt>
      <trkpt lat="43.17084" lon="5.59011">
        <ele>95.400001525879</ele>
        <time>2016-05-16T16:00:00.000Z</time>
      </trkpt>
      <trkpt lat="43.17094" lon="5.58994">
        <ele>96</ele>
        <time>2016-05-16T16:00:07.000Z</time>
      </trkpt>
      <trkpt lat="43.17109" lon="5.5897">
        <ele>97.599998474121</ele>
        <time>2016-05-16T16:00:14.000Z</time>
      </trkpt>
      <trkpt lat="43.17118" lon="5.58947">
        <ele>99</ele>
        <time>2016-05-16T16:00:20.000Z</time>
      </trkpt>
      <trkpt lat="43.17116" lon="5.58918">
        <ele>98.400001525879</ele>
        <time>2016-05-16T16:00:25.000Z</time>
      </trkpt>
      <trkpt lat="43.17116" lon="5.58892">
        <ele>98.199996948242</ele>
        <time>2016-05-16T16:00:29.000Z</time>
      </trkpt>
      <trkpt lat="43.17117" lon="5.58881">
        <ele>98.599998474121</ele>
        <time>2016-05-16T16:00:31.000Z</time>
      </trkpt>
      <trkpt lat="43.17116" lon="5.58868">
        <ele>99</ele>
        <time>2016-05-16T16:00:33.000Z</time>
      </trkpt>
      <trkpt lat="43.17116" lon="5.58856">
        <ele>99.599998474121</ele>
        <time>2016-05-16T16:00:35.000Z</time>
      </trkpt>
      <trkpt lat="43.17116" lon="5.58849">
        <ele>99.800003051758</ele>
        <time>2016-05-16T16:00:36.000Z</time>
      </trkpt>
      <trkpt lat="43.17118" lon="5.58844">
        <ele>100.19999694824</ele>
        <time>2016-05-16T16:00:37.000Z</time>
      </trkpt>
      <trkpt lat="43.17121" lon="5.58835">
        <ele>101.19999694824</ele>
        <time>2016-05-16T16:00:39.000Z</time>
      </trkpt>
      <trkpt lat="43.17123" lon="5.58828">
        <ele>101.80000305176</ele>
        <time>2016-05-16T16:00:40.000Z</time>
      </trkpt>
      <trkpt lat="43.17125" lon="5.58823">
        <ele>102.80000305176</ele>
        <time>2016-05-16T16:00:41.000Z</time>
      </trkpt>
      <trkpt lat="43.17131" lon="5.58813">
        <ele>104.80000305176</ele>
        <time>2016-05-16T16:00:43.000Z</time>
      </trkpt>
      <trkpt lat="43.17133" lon="5.58807">
        <ele>105.80000305176</ele>
        <time>2016-05-16T16:00:44.000Z</time>
      </trkpt>
      <trkpt lat="43.17135" lon="5.58801">
        <ele>106.80000305176</ele>
        <time>2016-05-16T16:00:45.000Z</time>
      </trkpt>
      <trkpt lat="43.17142" lon="5.58793">
        <ele>107.59999847412</ele>
        <time>2016-05-16T16:00:47.000Z</time>
      </trkpt>
      <trkpt lat="43.17147" lon="5.58784">
        <ele>108</ele>
        <time>2016-05-16T16:00:49.000Z</time>
      </trkpt>
      <trkpt lat="43.17153" lon="5.58775">
        <ele>108.40000152588</ele>
        <time>2016-05-16T16:00:51.000Z</time>
      </trkpt>
      <trkpt lat="43.17159" lon="5.58768">
        <ele>109.40000152588</ele>
        <time>2016-05-16T16:00:53.000Z</time>
      </trkpt>
      <trkpt lat="43.17164" lon="5.5876">
        <ele>110</ele>
        <time>2016-05-16T16:00:55.000Z</time>
      </trkpt>
      <trkpt lat="43.17167" lon="5.58756">
        <ele>110.40000152588</ele>
        <time>2016-05-16T16:00:56.000Z</time>
      </trkpt>
      <trkpt lat="43.17178" lon="5.58739">
        <ele>111.80000305176</ele>
        <time>2016-05-16T16:01:00.000Z</time>
      </trkpt>
      <trkpt lat="43.1718" lon="5.58735">
        <ele>112</ele>
        <time>2016-05-16T16:01:01.000Z</time>
      </trkpt>
      <trkpt lat="43.17195" lon="5.58722">
        <ele>114.80000305176</ele>
        <time>2016-05-16T16:01:07.000Z</time>
      </trkpt>
      <trkpt lat="43.17197" lon="5.5872">
        <ele>115.40000152588</ele>
        <time>2016-05-16T16:01:08.000Z</time>
      </trkpt>
      <trkpt lat="43.17203" lon="5.58716">
        <ele>116.40000152588</ele>
        <time>2016-05-16T16:01:12.000Z</time>
      </trkpt>
      <trkpt lat="43.1721" lon="5.58712">
        <ele>117.80000305176</ele>
        <time>2016-05-16T16:01:20.000Z</time>
      </trkpt>
      <trkpt lat="43.17218" lon="5.58707">
        <ele>119.19999694824</ele>
        <time>2016-05-16T16:01:25.000Z</time>
      </trkpt>
      <trkpt lat="43.17229" lon="5.58695">
        <ele>120.40000152588</ele>
        <time>2016-05-16T16:01:31.000Z</time>
      </trkpt>
      <trkpt lat="43.17234" lon="5.58682">
        <ele>120</ele>
        <time>2016-05-16T16:01:36.000Z</time>
      </trkpt>
      <trkpt lat="43.17234" lon="5.5866">
        <ele>117.59999847412</ele>
        <time>2016-05-16T16:01:41.000Z</time>
      </trkpt>
      <trkpt lat="43.17232" lon="5.58654">
        <ele>116</ele>
        <time>2016-05-16T16:01:43.000Z</time>
      </trkpt>
      <trkpt lat="43.17224" lon="5.58641">
        <ele>112.40000152588</ele>
        <time>2016-05-16T16:01:46.000Z</time>
      </trkpt>
      <trkpt lat="43.1722" lon="5.58628">
        <ele>110.19999694824</ele>
        <time>2016-05-16T16:01:49.000Z</time>
      </trkpt>
      <trkpt lat="43.17218" lon="5.58615">
        <ele>110</ele>
        <time>2016-05-16T16:01:52.000Z</time>
      </trkpt>
      <trkpt lat="43.17219" lon="5.58611">
        <ele>110.40000152588</ele>
        <time>2016-05-16T16:01:53.000Z</time>
      </trkpt>
      <trkpt lat="43.17219" lon="5.58607">
        <ele>110.59999847412</ele>
        <time>2016-05-16T16:01:54.000Z</time>
      </trkpt>
      <trkpt lat="43.17221" lon="5.586">
        <ele>111.19999694824</ele>
        <time>2016-05-16T16:01:56.000Z</time>
      </trkpt>
      <trkpt lat="43.17226" lon="5.58586">
        <ele>113.80000305176</ele>
        <time>2016-05-16T16:01:59.000Z</time>
      </trkpt>
      <trkpt lat="43.17231" lon="5.58574">
        <ele>116.80000305176</ele>
        <time>2016-05-16T16:02:02.000Z</time>
      </trkpt>
      <trkpt lat="43.17233" lon="5.58571">
        <ele>118</ele>
        <time>2016-05-16T16:02:03.000Z</time>
      </trkpt>
      <trkpt lat="43.17238" lon="5.58565">
        <ele>120</ele>
        <time>2016-05-16T16:02:05.000Z</time>
      </trkpt>
      <trkpt lat="43.1724" lon="5.58561">
        <ele>121</ele>
        <time>2016-05-16T16:02:06.000Z</time>
      </trkpt>
      <trkpt lat="43.17244" lon="5.58554">
        <ele>123.19999694824</ele>
        <time>2016-05-16T16:02:08.000Z</time>
      </trkpt>
      <trkpt lat="43.17253" lon="5.58537">
        <ele>125.80000305176</ele>
        <time>2016-05-16T16:02:12.000Z</time>
      </trkpt>
      <trkpt lat="43.17267" lon="5.58522">
        <ele>128</ele>
        <time>2016-05-16T16:02:17.000Z</time>
      </trkpt>
      <trkpt lat="43.1727" lon="5.58519">
        <ele>128.19999694824</ele>
        <time>2016-05-16T16:02:18.000Z</time>
      </trkpt>
      <trkpt lat="43.17279" lon="5.58508">
        <ele>129.39999389648</ele>
        <time>2016-05-16T16:02:21.000Z</time>
      </trkpt>
      <trkpt lat="43.17294" lon="5.58491">
        <ele>131.60000610352</ele>
        <time>2016-05-16T16:02:26.000Z</time>
      </trkpt>
      <trkpt lat="43.17312" lon="5.58475">
        <ele>135.60000610352</ele>
        <time>2016-05-16T16:02:32.000Z</time>
      </trkpt>
      <trkpt lat="43.17319" lon="5.58469">
        <ele>137</ele>
        <time>2016-05-16T16:02:34.000Z</time>
      </trkpt>
      <trkpt lat="43.1734" lon="5.58453">
        <ele>141.39999389648</ele>
        <time>2016-05-16T16:02:41.000Z</time>
      </trkpt>
      <trkpt lat="43.17357" lon="5.58443">
        <ele>143.80000305176</ele>
        <time>2016-05-16T16:02:48.000Z</time>
      </trkpt>
      <trkpt lat="43.17375" lon="5.58432">
        <ele>146.39999389648</ele>
        <time>2016-05-16T16:02:55.000Z</time>
      </trkpt>
      <trkpt lat="43.1739" lon="5.58418">
        <ele>148</ele>
        <time>2016-05-16T16:03:01.000Z</time>
      </trkpt>
      <trkpt lat="43.17388" lon="5.58407">
        <ele>146</ele>
        <time>2016-05-16T16:03:05.000Z</time>
      </trkpt>
      <trkpt lat="43.17384" lon="5.58404">
        <ele>144.39999389648</ele>
        <time>2016-05-16T16:03:07.000Z</time>
      </trkpt>
      <trkpt lat="43.17378" lon="5.58402">
        <ele>142.60000610352</ele>
        <time>2016-05-16T16:03:09.000Z</time>
      </trkpt>
      <trkpt lat="43.17368" lon="5.58394">
        <ele>138.60000610352</ele>
        <time>2016-05-16T16:03:12.000Z</time>
      </trkpt>
      <trkpt lat="43.17362" lon="5.58387">
        <ele>136.19999694824</ele>
        <time>2016-05-16T16:03:14.000Z</time>
      </trkpt>
      <trkpt lat="43.17359" lon="5.58383">
        <ele>135</ele>
        <time>2016-05-16T16:03:15.000Z</time>
      </trkpt>
      <trkpt lat="43.17353" lon="5.58371">
        <ele>134.19999694824</ele>
        <time>2016-05-16T16:03:18.000Z</time>
      </trkpt>
      <trkpt lat="43.1735" lon="5.58364">
        <ele>133.80000305176</ele>
        <time>2016-05-16T16:03:20.000Z</time>
      </trkpt>
      <trkpt lat="43.17349" lon="5.58362">
        <ele>133.80000305176</ele>
        <time>2016-05-16T16:03:21.000Z</time>
      </trkpt>
      <trkpt lat="43.17343" lon="5.5835">
        <ele>132.60000610352</ele>
        <time>2016-05-16T16:03:25.000Z</time>
      </trkpt>
      <trkpt lat="43.17346" lon="5.58349">
        <ele>133.60000610352</ele>
        <time>2016-05-16T16:03:54.000Z</time>
      </trkpt>
      <trkpt lat="43.17356" lon="5.58365">
        <ele>135.19999694824</ele>
        <time>2016-05-16T16:03:59.000Z</time>
      </trkpt>
      <trkpt lat="43.1736" lon="5.58373">
        <ele>135.80000305176</ele>
        <time>2016-05-16T16:04:02.000Z</time>
      </trkpt>
      <trkpt lat="43.17364" lon="5.58383">
        <ele>136.39999389648</ele>
        <time>2016-05-16T16:04:07.000Z</time>
      </trkpt>
      <trkpt lat="43.17366" lon="5.58388">
        <ele>137.39999389648</ele>
        <time>2016-05-16T16:05:57.000Z</time>
      </trkpt>
      <trkpt lat="43.17368" lon="5.58391">
        <ele>138.19999694824</ele>
        <time>2016-05-16T16:05:58.000Z</time>
      </trkpt>
      <trkpt lat="43.17386" lon="5.58414">
        <ele>146.39999389648</ele>
        <time>2016-05-16T16:06:04.000Z</time>
      </trkpt>
      <trkpt lat="43.17388" lon="5.5842">
        <ele>147.60000610352</ele>
        <time>2016-05-16T16:06:05.000Z</time>
      </trkpt>
      <trkpt lat="43.17386" lon="5.58424">
        <ele>147.60000610352</ele>
        <time>2016-05-16T16:06:06.000Z</time>
      </trkpt>
      <trkpt lat="43.17382" lon="5.58428">
        <ele>147.19999694824</ele>
        <time>2016-05-16T16:06:07.000Z</time>
      </trkpt>
      <trkpt lat="43.17378" lon="5.58431">
        <ele>147</ele>
        <time>2016-05-16T16:06:08.000Z</time>
      </trkpt>
      <trkpt lat="43.1736" lon="5.58442">
        <ele>144.39999389648</ele>
        <time>2016-05-16T16:06:13.000Z</time>
      </trkpt>
      <trkpt lat="43.17348" lon="5.58449">
        <ele>142.60000610352</ele>
        <time>2016-05-16T16:06:16.000Z</time>
      </trkpt>
      <trkpt lat="43.17336" lon="5.58457">
        <ele>140.80000305176</ele>
        <time>2016-05-16T16:06:19.000Z</time>
      </trkpt>
      <trkpt lat="43.17311" lon="5.58477">
        <ele>135.60000610352</ele>
        <time>2016-05-16T16:06:25.000Z</time>
      </trkpt>
      <trkpt lat="43.17299" lon="5.58488">
        <ele>132.80000305176</ele>
        <time>2016-05-16T16:06:28.000Z</time>
      </trkpt>
      <trkpt lat="43.17286" lon="5.58498">
        <ele>130</ele>
        <time>2016-05-16T16:06:32.000Z</time>
      </trkpt>
      <trkpt lat="43.17284" lon="5.585">
        <ele>129.60000610352</ele>
        <time>2016-05-16T16:06:33.000Z</time>
      </trkpt>
      <trkpt lat="43.17279" lon="5.58505">
        <ele>129</ele>
        <time>2016-05-16T16:06:38.000Z</time>
      </trkpt>
      <trkpt lat="43.17273" lon="5.58514">
        <ele>128.39999389648</ele>
        <time>2016-05-16T16:06:42.000Z</time>
      </trkpt>
      <trkpt lat="43.17271" lon="5.58517">
        <ele>128.39999389648</ele>
        <time>2016-05-16T16:06:43.000Z</time>
      </trkpt>
      <trkpt lat="43.17254" lon="5.58542">
        <ele>126.59999847412</ele>
        <time>2016-05-16T16:06:49.000Z</time>
      </trkpt>
      <trkpt lat="43.17245" lon="5.58559">
        <ele>123</ele>
        <time>2016-05-16T16:06:52.000Z</time>
      </trkpt>
      <trkpt lat="43.17236" lon="5.58575">
        <ele>118.59999847412</ele>
        <time>2016-05-16T16:06:55.000Z</time>
      </trkpt>
      <trkpt lat="43.17234" lon="5.5858">
        <ele>117.19999694824</ele>
        <time>2016-05-16T16:06:56.000Z</time>
      </trkpt>
      <trkpt lat="43.17229" lon="5.58591">
        <ele>114.80000305176</ele>
        <time>2016-05-16T16:06:58.000Z</time>
      </trkpt>
      <trkpt lat="43.17225" lon="5.586">
        <ele>112.59999847412</ele>
        <time>2016-05-16T16:07:00.000Z</time>
      </trkpt>
      <trkpt lat="43.17223" lon="5.58608">
        <ele>111.59999847412</ele>
        <time>2016-05-16T16:07:02.000Z</time>
      </trkpt>
      <trkpt lat="43.17222" lon="5.58617">
        <ele>111.40000152588</ele>
        <time>2016-05-16T16:07:04.000Z</time>
      </trkpt>
      <trkpt lat="43.17224" lon="5.58627">
        <ele>111.59999847412</ele>
        <time>2016-05-16T16:07:06.000Z</time>
      </trkpt>
      <trkpt lat="43.17225" lon="5.58633">
        <ele>112</ele>
        <time>2016-05-16T16:07:07.000Z</time>
      </trkpt>
      <trkpt lat="43.17227" lon="5.58639">
        <ele>112.80000305176</ele>
        <time>2016-05-16T16:07:08.000Z</time>
      </trkpt>
      <trkpt lat="43.17229" lon="5.58646">
        <ele>114.19999694824</ele>
        <time>2016-05-16T16:07:09.000Z</time>
      </trkpt>
      <trkpt lat="43.17234" lon="5.5866">
        <ele>117.59999847412</ele>
        <time>2016-05-16T16:07:11.000Z</time>
      </trkpt>
      <trkpt lat="43.17236" lon="5.58668">
        <ele>119.19999694824</ele>
        <time>2016-05-16T16:07:12.000Z</time>
      </trkpt>
      <trkpt lat="43.17238" lon="5.58675">
        <ele>120.80000305176</ele>
        <time>2016-05-16T16:07:13.000Z</time>
      </trkpt>
      <trkpt lat="43.17237" lon="5.58692">
        <ele>122</ele>
        <time>2016-05-16T16:07:15.000Z</time>
      </trkpt>
      <trkpt lat="43.17235" lon="5.58701">
        <ele>122.80000305176</ele>
        <time>2016-05-16T16:07:16.000Z</time>
      </trkpt>
      <trkpt lat="43.17232" lon="5.58709">
        <ele>123.40000152588</ele>
        <time>2016-05-16T16:07:17.000Z</time>
      </trkpt>
      <trkpt lat="43.17224" lon="5.58721">
        <ele>123</ele>
        <time>2016-05-16T16:07:19.000Z</time>
      </trkpt>
      <trkpt lat="43.17214" lon="5.5873">
        <ele>120.80000305176</ele>
        <time>2016-05-16T16:07:21.000Z</time>
      </trkpt>
      <trkpt lat="43.172" lon="5.58743">
        <ele>117.80000305176</ele>
        <time>2016-05-16T16:07:24.000Z</time>
      </trkpt>
      <trkpt lat="43.17176" lon="5.5877">
        <ele>114</ele>
        <time>2016-05-16T16:07:29.000Z</time>
      </trkpt>
      <trkpt lat="43.17167" lon="5.58782">
        <ele>112.59999847412</ele>
        <time>2016-05-16T16:07:31.000Z</time>
      </trkpt>
      <trkpt lat="43.17153" lon="5.58799">
        <ele>110.80000305176</ele>
        <time>2016-05-16T16:07:34.000Z</time>
      </trkpt>
      <trkpt lat="43.17149" lon="5.58805">
        <ele>109.80000305176</ele>
        <time>2016-05-16T16:07:35.000Z</time>
      </trkpt>
      <trkpt lat="43.17145" lon="5.58812">
        <ele>108.40000152588</ele>
        <time>2016-05-16T16:07:36.000Z</time>
      </trkpt>
      <trkpt lat="43.17138" lon="5.58825">
        <ele>105.80000305176</ele>
        <time>2016-05-16T16:07:38.000Z</time>
      </trkpt>
      <trkpt lat="43.17136" lon="5.58832">
        <ele>104.59999847412</ele>
        <time>2016-05-16T16:07:39.000Z</time>
      </trkpt>
      <trkpt lat="43.17134" lon="5.58841">
        <ele>103.59999847412</ele>
        <time>2016-05-16T16:07:40.000Z</time>
      </trkpt>
      <trkpt lat="43.17132" lon="5.5885">
        <ele>102.80000305176</ele>
        <time>2016-05-16T16:07:41.000Z</time>
      </trkpt>
      <trkpt lat="43.17128" lon="5.58871">
        <ele>101.40000152588</ele>
        <time>2016-05-16T16:07:43.000Z</time>
      </trkpt>
      <trkpt lat="43.17126" lon="5.58894">
        <ele>100.19999694824</ele>
        <time>2016-05-16T16:07:45.000Z</time>
      </trkpt>
      <trkpt lat="43.17125" lon="5.58917">
        <ele>99.800003051758</ele>
        <time>2016-05-16T16:07:47.000Z</time>
      </trkpt>
      <trkpt lat="43.17123" lon="5.58941">
        <ele>99.800003051758</ele>
        <time>2016-05-16T16:07:49.000Z</time>
      </trkpt>
      <trkpt lat="43.1712" lon="5.58963">
        <ele>99.400001525879</ele>
        <time>2016-05-16T16:07:51.000Z</time>
      </trkpt>
      <trkpt lat="43.17114" lon="5.58983">
        <ele>98.599998474121</ele>
        <time>2016-05-16T16:07:53.000Z</time>
      </trkpt>
      <trkpt lat="43.17109" lon="5.58999">
        <ele>98.400001525879</ele>
        <time>2016-05-16T16:07:55.000Z</time>
      </trkpt>
      <trkpt lat="43.17103" lon="5.59013">
        <ele>98</ele>
        <time>2016-05-16T16:07:57.000Z</time>
      </trkpt>
      <trkpt lat="43.17097" lon="5.59024">
        <ele>97.400001525879</ele>
        <time>2016-05-16T16:07:59.000Z</time>
      </trkpt>
      <trkpt lat="43.17094" lon="5.5903">
        <ele>97.199996948242</ele>
        <time>2016-05-16T16:08:00.000Z</time>
      </trkpt>
      <trkpt lat="43.1709" lon="5.59043">
        <ele>97.199996948242</ele>
        <time>2016-05-16T16:08:02.000Z</time>
      </trkpt>
      <trkpt lat="43.17087" lon="5.59063">
        <ele>95.599998474121</ele>
        <time>2016-05-16T16:08:05.000Z</time>
      </trkpt>
      <trkpt lat="43.17084" lon="5.59087">
        <ele>91.599998474121</ele>
        <time>2016-05-16T16:08:09.000Z</time>
      </trkpt>
      <trkpt lat="43.17085" lon="5.59099">
        <ele>90</ele>
        <time>2016-05-16T16:08:11.000Z</time>
      </trkpt>
      <trkpt lat="43.17086" lon="5.59111">
        <ele>88</ele>
        <time>2016-05-16T16:08:13.000Z</time>
      </trkpt>
      <trkpt lat="43.17087" lon="5.59125">
        <ele>86</ele>
        <time>2016-05-16T16:08:15.000Z</time>
      </trkpt>
      <trkpt lat="43.17088" lon="5.59139">
        <ele>84.400001525879</ele>
        <time>2016-05-16T16:08:17.000Z</time>
      </trkpt>
      <trkpt lat="43.1709" lon="5.59153">
        <ele>83.400001525879</ele>
        <time>2016-05-16T16:08:19.000Z</time>
      </trkpt>
      <trkpt lat="43.17092" lon="5.59167">
        <ele>82.199996948242</ele>
        <time>2016-05-16T16:08:21.000Z</time>
      </trkpt>
      <trkpt lat="43.17092" lon="5.59181">
        <ele>81</ele>
        <time>2016-05-16T16:08:23.000Z</time>
      </trkpt>
      <trkpt lat="43.1709" lon="5.59196">
        <ele>79.800003051758</ele>
        <time>2016-05-16T16:08:25.000Z</time>
      </trkpt>
      <trkpt lat="43.17088" lon="5.59212">
        <ele>78.199996948242</ele>
        <time>2016-05-16T16:08:27.000Z</time>
      </trkpt>
      <trkpt lat="43.17084" lon="5.59227">
        <ele>76.199996948242</ele>
        <time>2016-05-16T16:08:29.000Z</time>
      </trkpt>
      <trkpt lat="43.1708" lon="5.59242">
        <ele>74.599998474121</ele>
        <time>2016-05-16T16:08:31.000Z</time>
      </trkpt>
      <trkpt lat="43.17075" lon="5.59255">
        <ele>72.800003051758</ele>
        <time>2016-05-16T16:08:33.000Z</time>
      </trkpt>
      <trkpt lat="43.1707" lon="5.59268">
        <ele>71.199996948242</ele>
        <time>2016-05-16T16:08:35.000Z</time>
      </trkpt>
      <trkpt lat="43.17065" lon="5.59279">
        <ele>69.800003051758</ele>
        <time>2016-05-16T16:08:37.000Z</time>
      </trkpt>
      <trkpt lat="43.17063" lon="5.59286">
        <ele>69</ele>
        <time>2016-05-16T16:08:38.000Z</time>
      </trkpt>
      <trkpt lat="43.1706" lon="5.59294">
        <ele>68.199996948242</ele>
        <time>2016-05-16T16:08:39.000Z</time>
      </trkpt>
      <trkpt lat="43.17051" lon="5.59318">
        <ele>66</ele>
        <time>2016-05-16T16:08:42.000Z</time>
      </trkpt>
      <trkpt lat="43.17045" lon="5.59337">
        <ele>64.800003051758</ele>
        <time>2016-05-16T16:08:44.000Z</time>
      </trkpt>
      <trkpt lat="43.17038" lon="5.59355">
        <ele>63.400001525879</ele>
        <time>2016-05-16T16:08:46.000Z</time>
      </trkpt>
      <trkpt lat="43.17031" lon="5.59373">
        <ele>62</ele>
        <time>2016-05-16T16:08:48.000Z</time>
      </trkpt>
      <trkpt lat="43.17024" lon="5.5939">
        <ele>61.200000762939</ele>
        <time>2016-05-16T16:08:50.000Z</time>
      </trkpt>
      <trkpt lat="43.17019" lon="5.59405">
        <ele>60.799999237061</ele>
        <time>2016-05-16T16:08:52.000Z</time>
      </trkpt>
      <trkpt lat="43.17016" lon="5.59411">
        <ele>60.400001525879</ele>
        <time>2016-05-16T16:08:54.000Z</time>
      </trkpt>
      <trkpt lat="43.17015" lon="5.59413">
        <ele>60.200000762939</ele>
        <time>2016-05-16T16:08:55.000Z</time>
      </trkpt>
      <trkpt lat="43.17014" lon="5.59415">
        <ele>60</ele>
        <time>2016-05-16T16:08:56.000Z</time>
      </trkpt>
      <trkpt lat="43.1701" lon="5.59426">
        <ele>59.400001525879</ele>
        <time>2016-05-16T16:08:59.000Z</time>
      </trkpt>
      <trkpt lat="43.17002" lon="5.59454">
        <ele>58.599998474121</ele>
        <time>2016-05-16T16:09:03.000Z</time>
      </trkpt>
      <trkpt lat="43.16998" lon="5.59471">
        <ele>58</ele>
        <time>2016-05-16T16:09:05.000Z</time>
      </trkpt>
      <trkpt lat="43.16997" lon="5.5948">
        <ele>58</ele>
        <time>2016-05-16T16:09:06.000Z</time>
      </trkpt>
      <trkpt lat="43.16996" lon="5.59497">
        <ele>58</ele>
        <time>2016-05-16T16:09:08.000Z</time>
      </trkpt>
      <trkpt lat="43.16996" lon="5.59533">
        <ele>58.400001525879</ele>
        <time>2016-05-16T16:09:12.000Z</time>
      </trkpt>
      <trkpt lat="43.16993" lon="5.59549">
        <ele>58.200000762939</ele>
        <time>2016-05-16T16:09:14.000Z</time>
      </trkpt>
      <trkpt lat="43.16977" lon="5.59588">
        <ele>57.599998474121</ele>
        <time>2016-05-16T16:09:20.000Z</time>
      </trkpt>
      <trkpt lat="43.16972" lon="5.59607">
        <ele>57.599998474121</ele>
        <time>2016-05-16T16:09:23.000Z</time>
      </trkpt>
      <trkpt lat="43.16971" lon="5.5962">
        <ele>57.799999237061</ele>
        <time>2016-05-16T16:09:25.000Z</time>
      </trkpt>
      <trkpt lat="43.16969" lon="5.59673">
        <ele>54.400001525879</ele>
        <time>2016-05-16T16:09:32.000Z</time>
      </trkpt>
      <trkpt lat="43.1697" lon="5.59722">
        <ele>51.599998474121</ele>
        <time>2016-05-16T16:09:38.000Z</time>
      </trkpt>
      <trkpt lat="43.16969" lon="5.59731">
        <ele>51</ele>
        <time>2016-05-16T16:09:39.000Z</time>
      </trkpt>
      <trkpt lat="43.16969" lon="5.5974">
        <ele>50.200000762939</ele>
        <time>2016-05-16T16:09:40.000Z</time>
      </trkpt>
      <trkpt lat="43.16968" lon="5.59757">
        <ele>48.599998474121</ele>
        <time>2016-05-16T16:09:42.000Z</time>
      </trkpt>
      <trkpt lat="43.16968" lon="5.59773">
        <ele>47.799999237061</ele>
        <time>2016-05-16T16:09:44.000Z</time>
      </trkpt>
      <trkpt lat="43.16967" lon="5.59787">
        <ele>47.200000762939</ele>
        <time>2016-05-16T16:09:46.000Z</time>
      </trkpt>
      <trkpt lat="43.16968" lon="5.59794">
        <ele>46.799999237061</ele>
        <time>2016-05-16T16:09:47.000Z</time>
      </trkpt>
      <trkpt lat="43.16967" lon="5.59808">
        <ele>46</ele>
        <time>2016-05-16T16:09:49.000Z</time>
      </trkpt>
      <trkpt lat="43.16967" lon="5.5983">
        <ele>44.200000762939</ele>
        <time>2016-05-16T16:09:52.000Z</time>
      </trkpt>
      <trkpt lat="43.16967" lon="5.59845">
        <ele>43</ele>
        <time>2016-05-16T16:09:54.000Z</time>
      </trkpt>
      <trkpt lat="43.16967" lon="5.59852">
        <ele>42.599998474121</ele>
        <time>2016-05-16T16:09:55.000Z</time>
      </trkpt>
      <trkpt lat="43.16966" lon="5.59874">
        <ele>41.599998474121</ele>
        <time>2016-05-16T16:09:58.000Z</time>
      </trkpt>
      <trkpt lat="43.16965" lon="5.59895">
        <ele>40.400001525879</ele>
        <time>2016-05-16T16:10:01.000Z</time>
      </trkpt>
      <trkpt lat="43.16964" lon="5.59903">
        <ele>39.799999237061</ele>
        <time>2016-05-16T16:10:02.000Z</time>
      </trkpt>
      <trkpt lat="43.16964" lon="5.59917">
        <ele>38.799999237061</ele>
        <time>2016-05-16T16:10:04.000Z</time>
      </trkpt>
      <trkpt lat="43.16963" lon="5.59933">
        <ele>38</ele>
        <time>2016-05-16T16:10:06.000Z</time>
      </trkpt>
      <trkpt lat="43.16963" lon="5.59949">
        <ele>37.200000762939</ele>
        <time>2016-05-16T16:10:08.000Z</time>
      </trkpt>
      <trkpt lat="43.16962" lon="5.59965">
        <ele>36.599998474121</ele>
        <time>2016-05-16T16:10:10.000Z</time>
      </trkpt>
      <trkpt lat="43.1696" lon="5.59979">
        <ele>36.400001525879</ele>
        <time>2016-05-16T16:10:12.000Z</time>
      </trkpt>
      <trkpt lat="43.16958" lon="5.59991">
        <ele>36.200000762939</ele>
        <time>2016-05-16T16:10:14.000Z</time>
      </trkpt>
      <trkpt lat="43.16956" lon="5.6">
        <ele>36.200000762939</ele>
        <time>2016-05-16T16:10:16.000Z</time>
      </trkpt>
      <trkpt lat="43.16955" lon="5.60003">
        <ele>36</ele>
        <time>2016-05-16T16:10:17.000Z</time>
      </trkpt>
      <trkpt lat="43.16953" lon="5.60008">
        <ele>35.599998474121</ele>
        <time>2016-05-16T16:10:19.000Z</time>
      </trkpt>
      <trkpt lat="43.16952" lon="5.60016">
        <ele>35.200000762939</ele>
        <time>2016-05-16T16:10:23.000Z</time>
      </trkpt>
      <trkpt lat="43.16953" lon="5.60019">
        <ele>35</ele>
        <time>2016-05-16T16:10:24.000Z</time>
      </trkpt>
      <trkpt lat="43.16957" lon="5.60026">
        <ele>34.599998474121</ele>
        <time>2016-05-16T16:10:26.000Z</time>
      </trkpt>
      <trkpt lat="43.16976" lon="5.60045">
        <ele>33.400001525879</ele>
        <time>2016-05-16T16:10:31.000Z</time>
      </trkpt>
      <trkpt lat="43.16997" lon="5.60067">
        <ele>32.200000762939</ele>
        <time>2016-05-16T16:10:36.000Z</time>
      </trkpt>
      <trkpt lat="43.17014" lon="5.60085">
        <ele>31.39999961853</ele>
        <time>2016-05-16T16:10:40.000Z</time>
      </trkpt>
      <trkpt lat="43.17053" lon="5.60124">
        <ele>29</ele>
        <time>2016-05-16T16:10:49.000Z</time>
      </trkpt>
      <trkpt lat="43.17078" lon="5.60151">
        <ele>26.799999237061</ele>
        <time>2016-05-16T16:10:55.000Z</time>
      </trkpt>
      <trkpt lat="43.17087" lon="5.60159">
        <ele>26</ele>
        <time>2016-05-16T16:10:57.000Z</time>
      </trkpt>
      <trkpt lat="43.171" lon="5.60173">
        <ele>24.799999237061</ele>
        <time>2016-05-16T16:11:00.000Z</time>
      </trkpt>
      <trkpt lat="43.17111" lon="5.60187">
        <ele>23.799999237061</ele>
        <time>2016-05-16T16:11:03.000Z</time>
      </trkpt>
      <trkpt lat="43.17115" lon="5.60191">
        <ele>23.60000038147</ele>
        <time>2016-05-16T16:11:04.000Z</time>
      </trkpt>
      <trkpt lat="43.17122" lon="5.602">
        <ele>23</ele>
        <time>2016-05-16T16:11:06.000Z</time>
      </trkpt>
      <trkpt lat="43.17135" lon="5.60216">
        <ele>21.799999237061</ele>
        <time>2016-05-16T16:11:09.000Z</time>
      </trkpt>
      <trkpt lat="43.1714" lon="5.60222">
        <ele>21.200000762939</ele>
        <time>2016-05-16T16:11:10.000Z</time>
      </trkpt>
      <trkpt lat="43.17148" lon="5.60236">
        <ele>19.799999237061</ele>
        <time>2016-05-16T16:11:12.000Z</time>
      </trkpt>
      <trkpt lat="43.17151" lon="5.60249">
        <ele>18.39999961853</ele>
        <time>2016-05-16T16:11:14.000Z</time>
      </trkpt>
      <trkpt lat="43.17152" lon="5.60256">
        <ele>17.60000038147</ele>
        <time>2016-05-16T16:11:15.000Z</time>
      </trkpt>
      <trkpt lat="43.17153" lon="5.60261">
        <ele>17</ele>
        <time>2016-05-16T16:11:16.000Z</time>
      </trkpt>
      <trkpt lat="43.17155" lon="5.60278">
        <ele>15.39999961853</ele>
        <time>2016-05-16T16:11:20.000Z</time>
      </trkpt>
      <trkpt lat="43.17164" lon="5.6028">
        <ele>15.199999809265</ele>
        <time>2016-05-16T16:11:23.000Z</time>
      </trkpt>
      <trkpt lat="43.17168" lon="5.6028">
        <ele>15.199999809265</ele>
        <time>2016-05-16T16:11:24.000Z</time>
      </trkpt>
      <trkpt lat="43.17181" lon="5.6028">
        <ele>15.199999809265</ele>
        <time>2016-05-16T16:11:27.000Z</time>
      </trkpt>
      <trkpt lat="43.17186" lon="5.60279">
        <ele>14.800000190735</ele>
        <time>2016-05-16T16:11:28.000Z</time>
      </trkpt>
      <trkpt lat="43.1723" lon="5.60273">
        <ele>12.39999961853</ele>
        <time>2016-05-16T16:11:37.000Z</time>
      </trkpt>
      <trkpt lat="43.17246" lon="5.60272">
        <ele>11.60000038147</ele>
        <time>2016-05-16T16:11:40.000Z</time>
      </trkpt>
      <trkpt lat="43.17278" lon="5.60268">
        <ele>12.199999809265</ele>
        <time>2016-05-16T16:11:46.000Z</time>
      </trkpt>
      <trkpt lat="43.17308" lon="5.60263">
        <ele>14.199999809265</ele>
        <time>2016-05-16T16:11:52.000Z</time>
      </trkpt>
      <trkpt lat="43.17359" lon="5.60254">
        <ele>13</ele>
        <time>2016-05-16T16:12:02.000Z</time>
      </trkpt>
      <trkpt lat="43.1737" lon="5.60252">
        <ele>12.800000190735</ele>
        <time>2016-05-16T16:12:05.000Z</time>
      </trkpt>
      <trkpt lat="43.17375" lon="5.60252">
        <ele>12.800000190735</ele>
        <time>2016-05-16T16:12:07.000Z</time>
      </trkpt>
      <trkpt lat="43.17376" lon="5.60253">
        <ele>12.800000190735</ele>
        <time>2016-05-16T16:12:08.000Z</time>
      </trkpt>
      <trkpt lat="43.17377" lon="5.60259">
        <ele>12.60000038147</ele>
        <time>2016-05-16T16:12:11.000Z</time>
      </trkpt>
      <trkpt lat="43.17377" lon="5.60275">
        <ele>12.199999809265</ele>
        <time>2016-05-16T16:12:15.000Z</time>
      </trkpt>
      <trkpt lat="43.17377" lon="5.60281">
        <ele>12.199999809265</ele>
        <time>2016-05-16T16:12:16.000Z</time>
      </trkpt>
      <trkpt lat="43.17377" lon="5.60289">
        <ele>12</ele>
        <time>2016-05-16T16:12:17.000Z</time>
      </trkpt>
      <trkpt lat="43.17379" lon="5.60317">
        <ele>11.39999961853</ele>
        <time>2016-05-16T16:12:20.000Z</time>
      </trkpt>
      <trkpt lat="43.17391" lon="5.60363">
        <ele>10.800000190735</ele>
        <time>2016-05-16T16:12:24.000Z</time>
      </trkpt>
      <trkpt lat="43.17393" lon="5.60372">
        <ele>10.800000190735</ele>
        <time>2016-05-16T16:12:25.000Z</time>
      </trkpt>
      <trkpt lat="43.17397" lon="5.6039">
        <ele>10.60000038147</ele>
        <time>2016-05-16T16:12:28.000Z</time>
      </trkpt>
      <trkpt lat="43.17402" lon="5.60412">
        <ele>10.199999809265</ele>
        <time>2016-05-16T16:12:32.000Z</time>
      </trkpt>
      <trkpt lat="43.17405" lon="5.60426">
        <ele>10</ele>
        <time>2016-05-16T16:12:34.000Z</time>
      </trkpt>
      <trkpt lat="43.17407" lon="5.60442">
        <ele>9.8000001907349</ele>
        <time>2016-05-16T16:12:36.000Z</time>
      </trkpt>
      <trkpt lat="43.1741" lon="5.60482">
        <ele>8.8000001907349</ele>
        <time>2016-05-16T16:12:41.000Z</time>
      </trkpt>
      <trkpt lat="43.17411" lon="5.60507">
        <ele>8.6000003814697</ele>
        <time>2016-05-16T16:12:44.000Z</time>
      </trkpt>
      <trkpt lat="43.17411" lon="5.60515">
        <ele>8.3999996185303</ele>
        <time>2016-05-16T16:12:45.000Z</time>
      </trkpt>
      <trkpt lat="43.17409" lon="5.60524">
        <ele>8.3999996185303</ele>
        <time>2016-05-16T16:12:46.000Z</time>
      </trkpt>
      <trkpt lat="43.17404" lon="5.60541">
        <ele>7.5999999046326</ele>
        <time>2016-05-16T16:12:48.000Z</time>
      </trkpt>
      <trkpt lat="43.17397" lon="5.60557">
        <ele>6.5999999046326</ele>
        <time>2016-05-16T16:12:50.000Z</time>
      </trkpt>
      <trkpt lat="43.17386" lon="5.60583">
        <ele>5</ele>
        <time>2016-05-16T16:12:54.000Z</time>
      </trkpt>
      <trkpt lat="43.17375" lon="5.606">
        <ele>3.5999999046326</ele>
        <time>2016-05-16T16:12:58.000Z</time>
      </trkpt>
      <trkpt lat="43.17375" lon="5.60603">
        <ele>3.4000000953674</ele>
        <time>2016-05-16T16:12:59.000Z</time>
      </trkpt>
      <trkpt lat="43.1738" lon="5.60603">
        <ele>3.5999999046326</ele>
        <time>2016-05-16T16:13:01.000Z</time>
      </trkpt>
      <trkpt lat="43.17385" lon="5.60607">
        <ele>3.5999999046326</ele>
        <time>2016-05-16T16:13:03.000Z</time>
      </trkpt>
      <trkpt lat="43.17394" lon="5.60612">
        <ele>3.7999999523163</ele>
        <time>2016-05-16T16:13:06.000Z</time>
      </trkpt>
      <trkpt lat="43.17415" lon="5.60629">
        <ele>3.7999999523163</ele>
        <time>2016-05-16T16:13:13.000Z</time>
      </trkpt>
      <trkpt lat="43.17429" lon="5.60646">
        <ele>3.7999999523163</ele>
        <time>2016-05-16T16:13:19.000Z</time>
      </trkpt>
      <trkpt lat="43.1745" lon="5.60672">
        <ele>6</ele>
        <time>2016-05-16T16:13:27.000Z</time>
      </trkpt>
      <trkpt lat="43.17458" lon="5.60698">
        <ele>6.4000000953674</ele>
        <time>2016-05-16T16:13:33.000Z</time>
      </trkpt>
      <trkpt lat="43.17459" lon="5.6073">
        <ele>6.4000000953674</ele>
        <time>2016-05-16T16:13:39.000Z</time>
      </trkpt>
      <trkpt lat="43.17452" lon="5.60763">
        <ele>7</ele>
        <time>2016-05-16T16:13:45.000Z</time>
      </trkpt>
      <trkpt lat="43.17441" lon="5.60794">
        <ele>7.1999998092651</ele>
        <time>2016-05-16T16:13:51.000Z</time>
      </trkpt>
      <trkpt lat="43.1743" lon="5.60819">
        <ele>7</ele>
        <time>2016-05-16T16:13:56.000Z</time>
      </trkpt>
      <trkpt lat="43.17428" lon="5.60824">
        <ele>7</ele>
        <time>2016-05-16T16:13:57.000Z</time>
      </trkpt>
      <trkpt lat="43.17426" lon="5.60829">
        <ele>7.1999998092651</ele>
        <time>2016-05-16T16:13:58.000Z</time>
      </trkpt>
      <trkpt lat="43.17413" lon="5.6087">
        <ele>8.3999996185303</ele>
        <time>2016-05-16T16:14:05.000Z</time>
      </trkpt>
      <trkpt lat="43.17396" lon="5.60913">
        <ele>7.4000000953674</ele>
        <time>2016-05-16T16:14:13.000Z</time>
      </trkpt>
      <trkpt lat="43.17394" lon="5.60918">
        <ele>7.1999998092651</ele>
        <time>2016-05-16T16:14:14.000Z</time>
      </trkpt>
      <trkpt lat="43.17385" lon="5.60937">
        <ele>6.4000000953674</ele>
        <time>2016-05-16T16:14:18.000Z</time>
      </trkpt>
      <trkpt lat="43.1737" lon="5.60977">
        <ele>4.5999999046326</ele>
        <time>2016-05-16T16:14:26.000Z</time>
      </trkpt>
      <trkpt lat="43.17358" lon="5.61008">
        <ele>2.5999999046326</ele>
        <time>2016-05-16T16:14:34.000Z</time>
      </trkpt>
      <trkpt lat="43.17357" lon="5.61012">
        <ele>2.4000000953674</ele>
        <time>2016-05-16T16:14:35.000Z</time>
      </trkpt>
      <trkpt lat="43.17352" lon="5.61038">
        <ele>1.6000000238419</ele>
        <time>2016-05-16T16:14:41.000Z</time>
      </trkpt>
      <trkpt lat="43.17354" lon="5.61041">
        <ele>1.6000000238419</ele>
        <time>2016-05-16T16:14:42.000Z</time>
      </trkpt>
      <trkpt lat="43.17358" lon="5.61044">
        <ele>1.6000000238419</ele>
        <time>2016-05-16T16:14:44.000Z</time>
      </trkpt>
      <trkpt lat="43.17363" lon="5.61043">
        <ele>1.7999999523163</ele>
        <time>2016-05-16T16:14:46.000Z</time>
      </trkpt>
      <trkpt lat="43.1737" lon="5.61041">
        <ele>2.2000000476837</ele>
        <time>2016-05-16T16:14:49.000Z</time>
      </trkpt>
      <trkpt lat="43.17381" lon="5.61039">
        <ele>2.5999999046326</ele>
        <time>2016-05-16T16:14:55.000Z</time>
      </trkpt>
      <trkpt lat="43.17394" lon="5.61039">
        <ele>3</ele>
        <time>2016-05-16T16:15:00.000Z</time>
      </trkpt>
      <trkpt lat="43.17407" lon="5.6104">
        <ele>3.5999999046326</ele>
        <time>2016-05-16T16:15:04.000Z</time>
      </trkpt>
      <trkpt lat="43.17412" lon="5.6104">
        <ele>3.7999999523163</ele>
        <time>2016-05-16T16:15:06.000Z</time>
      </trkpt>
      <trkpt lat="43.17429" lon="5.61041">
        <ele>4.8000001907349</ele>
        <time>2016-05-16T16:15:12.000Z</time>
      </trkpt>
      <trkpt lat="43.17449" lon="5.61038">
        <ele>4.8000001907349</ele>
        <time>2016-05-16T16:15:19.000Z</time>
      </trkpt>
      <trkpt lat="43.17477" lon="5.61038">
        <ele>4.4000000953674</ele>
        <time>2016-05-16T16:15:27.000Z</time>
      </trkpt>
      <trkpt lat="43.17505" lon="5.61038">
        <ele>4.4000000953674</ele>
        <time>2016-05-16T16:15:34.000Z</time>
      </trkpt>
      <trkpt lat="43.17533" lon="5.61042">
        <ele>4.8000001907349</ele>
        <time>2016-05-16T16:15:40.000Z</time>
      </trkpt>
      <trkpt lat="43.17558" lon="5.61049">
        <ele>5</ele>
        <time>2016-05-16T16:15:45.000Z</time>
      </trkpt>
      <trkpt lat="43.17589" lon="5.61057">
        <ele>5.4000000953674</ele>
        <time>2016-05-16T16:15:51.000Z</time>
      </trkpt>
      <trkpt lat="43.17609" lon="5.61062">
        <ele>5.4000000953674</ele>
        <time>2016-05-16T16:15:55.000Z</time>
      </trkpt>
      <trkpt lat="43.17614" lon="5.61063">
        <ele>5.4000000953674</ele>
        <time>2016-05-16T16:15:56.000Z</time>
      </trkpt>
      <trkpt lat="43.17643" lon="5.61069">
        <ele>5</ele>
        <time>2016-05-16T16:16:02.000Z</time>
      </trkpt>
      <trkpt lat="43.17673" lon="5.61071">
        <ele>4.8000001907349</ele>
        <time>2016-05-16T16:16:08.000Z</time>
      </trkpt>
      <trkpt lat="43.1771" lon="5.61077">
        <ele>4.1999998092651</ele>
        <time>2016-05-16T16:16:16.000Z</time>
      </trkpt>
      <trkpt lat="43.17743" lon="5.61082">
        <ele>4.1999998092651</ele>
        <time>2016-05-16T16:16:23.000Z</time>
      </trkpt>
      <trkpt lat="43.17769" lon="5.61085">
        <ele>4.1999998092651</ele>
        <time>2016-05-16T16:16:28.000Z</time>
      </trkpt>
      <trkpt lat="43.17783" lon="5.61087">
        <ele>4</ele>
        <time>2016-05-16T16:16:31.000Z</time>
      </trkpt>
      <trkpt lat="43.17798" lon="5.61087">
        <ele>4</ele>
        <time>2016-05-16T16:16:34.000Z</time>
      </trkpt>
      <trkpt lat="43.17826" lon="5.61085">
        <ele>5</ele>
        <time>2016-05-16T16:16:40.000Z</time>
      </trkpt>
      <trkpt lat="43.17846" lon="5.61085">
        <ele>5.5999999046326</ele>
        <time>2016-05-16T16:16:45.000Z</time>
      </trkpt>
      <trkpt lat="43.1785" lon="5.61086">
        <ele>5.5999999046326</ele>
        <time>2016-05-16T16:16:46.000Z</time>
      </trkpt>
      <trkpt lat="43.17854" lon="5.61089">
        <ele>5.5999999046326</ele>
        <time>2016-05-16T16:16:47.000Z</time>
      </trkpt>
      <trkpt lat="43.17863" lon="5.61095">
        <ele>5.1999998092651</ele>
        <time>2016-05-16T16:16:49.000Z</time>
      </trkpt>
      <trkpt lat="43.17895" lon="5.61115">
        <ele>4.5999999046326</ele>
        <time>2016-05-16T16:16:56.000Z</time>
      </trkpt>
      <trkpt lat="43.17904" lon="5.61123">
        <ele>4.1999998092651</ele>
        <time>2016-05-16T16:16:58.000Z</time>
      </trkpt>
      <trkpt lat="43.17909" lon="5.61127">
        <ele>4</ele>
        <time>2016-05-16T16:16:59.000Z</time>
      </trkpt>
      <trkpt lat="43.17919" lon="5.61134">
        <ele>3.5999999046326</ele>
        <time>2016-05-16T16:17:01.000Z</time>
      </trkpt>
      <trkpt lat="43.17961" lon="5.61164">
        <ele>5</ele>
        <time>2016-05-16T16:17:09.000Z</time>
      </trkpt>
      <trkpt lat="43.17997" lon="5.61191">
        <ele>6.4000000953674</ele>
        <time>2016-05-16T16:17:16.000Z</time>
      </trkpt>
      <trkpt lat="43.18017" lon="5.61204">
        <ele>7</ele>
        <time>2016-05-16T16:17:20.000Z</time>
      </trkpt>
      <trkpt lat="43.18027" lon="5.61213">
        <ele>6.5999999046326</ele>
        <time>2016-05-16T16:17:22.000Z</time>
      </trkpt>
      <trkpt lat="43.18068" lon="5.61255">
        <ele>5.5999999046326</ele>
        <time>2016-05-16T16:17:30.000Z</time>
      </trkpt>
      <trkpt lat="43.18078" lon="5.61266">
        <ele>5.4000000953674</ele>
        <time>2016-05-16T16:17:32.000Z</time>
      </trkpt>
      <trkpt lat="43.18093" lon="5.61283">
        <ele>4.8000001907349</ele>
        <time>2016-05-16T16:17:35.000Z</time>
      </trkpt>
      <trkpt lat="43.18121" lon="5.61317">
        <ele>4</ele>
        <time>2016-05-16T16:17:41.000Z</time>
      </trkpt>
      <trkpt lat="43.1813" lon="5.61328">
        <ele>3.7999999523163</ele>
        <time>2016-05-16T16:17:43.000Z</time>
      </trkpt>
      <trkpt lat="43.18159" lon="5.6137">
        <ele>3.2000000476837</ele>
        <time>2016-05-16T16:17:50.000Z</time>
      </trkpt>
      <trkpt lat="43.18184" lon="5.61403">
        <ele>2.7999999523163</ele>
        <time>2016-05-16T16:17:56.000Z</time>
      </trkpt>
      <trkpt lat="43.18197" lon="5.61418">
        <ele>3.2000000476837</ele>
        <time>2016-05-16T16:17:59.000Z</time>
      </trkpt>
      <trkpt lat="43.18211" lon="5.61432">
        <ele>3.4000000953674</ele>
        <time>2016-05-16T16:18:02.000Z</time>
      </trkpt>
      <trkpt lat="43.18221" lon="5.61442">
        <ele>3.5999999046326</ele>
        <time>2016-05-16T16:18:04.000Z</time>
      </trkpt>
      <trkpt lat="43.1823" lon="5.61452">
        <ele>4</ele>
        <time>2016-05-16T16:18:06.000Z</time>
      </trkpt>
      <trkpt lat="43.18249" lon="5.6147">
        <ele>4.4000000953674</ele>
        <time>2016-05-16T16:18:10.000Z</time>
      </trkpt>
      <trkpt lat="43.18258" lon="5.61476">
        <ele>4.5999999046326</ele>
        <time>2016-05-16T16:18:12.000Z</time>
      </trkpt>
      <trkpt lat="43.18267" lon="5.61483">
        <ele>4.8000001907349</ele>
        <time>2016-05-16T16:18:14.000Z</time>
      </trkpt>
      <trkpt lat="43.18274" lon="5.61493">
        <ele>4.8000001907349</ele>
        <time>2016-05-16T16:18:16.000Z</time>
      </trkpt>
      <trkpt lat="43.18276" lon="5.61509">
        <ele>4.4000000953674</ele>
        <time>2016-05-16T16:18:18.000Z</time>
      </trkpt>
      <trkpt lat="43.18278" lon="5.61524">
        <ele>4</ele>
        <time>2016-05-16T16:18:20.000Z</time>
      </trkpt>
      <trkpt lat="43.18279" lon="5.61531">
        <ele>3.7999999523163</ele>
        <time>2016-05-16T16:18:21.000Z</time>
      </trkpt>
      <trkpt lat="43.18289" lon="5.61558">
        <ele>3.4000000953674</ele>
        <time>2016-05-16T16:18:25.000Z</time>
      </trkpt>
      <trkpt lat="43.18292" lon="5.61564">
        <ele>3.4000000953674</ele>
        <time>2016-05-16T16:18:26.000Z</time>
      </trkpt>
      <trkpt lat="43.18299" lon="5.61574">
        <ele>3.4000000953674</ele>
        <time>2016-05-16T16:18:28.000Z</time>
      </trkpt>
      <trkpt lat="43.18311" lon="5.61589">
        <ele>3.5999999046326</ele>
        <time>2016-05-16T16:18:31.000Z</time>
      </trkpt>
      <trkpt lat="43.1834" lon="5.61623">
        <ele>4.1999998092651</ele>
        <time>2016-05-16T16:18:38.000Z</time>
      </trkpt>
      <trkpt lat="43.18345" lon="5.61629">
        <ele>4.1999998092651</ele>
        <time>2016-05-16T16:18:39.000Z</time>
      </trkpt>
      <trkpt lat="43.18374" lon="5.61658">
        <ele>3.4000000953674</ele>
        <time>2016-05-16T16:18:46.000Z</time>
      </trkpt>
      <trkpt lat="43.18389" lon="5.61675">
        <ele>3</ele>
        <time>2016-05-16T16:18:52.000Z</time>
      </trkpt>
      <trkpt lat="43.18405" lon="5.61692">
        <ele>2.5999999046326</ele>
        <time>2016-05-16T16:18:59.000Z</time>
      </trkpt>
      <trkpt lat="43.18412" lon="5.61702">
        <ele>2.4000000953674</ele>
        <time>2016-05-16T16:19:02.000Z</time>
      </trkpt>
      <trkpt lat="43.18424" lon="5.61717">
        <ele>1.7999999523163</ele>
        <time>2016-05-16T16:19:07.000Z</time>
      </trkpt>
      <trkpt lat="43.18437" lon="5.61735">
        <ele>2.4000000953674</ele>
        <time>2016-05-16T16:19:15.000Z</time>
      </trkpt>
      <trkpt lat="43.18446" lon="5.61745">
        <ele>2.7999999523163</ele>
        <time>2016-05-16T16:19:20.000Z</time>
      </trkpt>
      <trkpt lat="43.1846" lon="5.61766">
        <ele>3.4000000953674</ele>
        <time>2016-05-16T16:19:27.000Z</time>
      </trkpt>
      <trkpt lat="43.18475" lon="5.61793">
        <ele>3.7999999523163</ele>
        <time>2016-05-16T16:19:34.000Z</time>
      </trkpt>
      <trkpt lat="43.18487" lon="5.61823">
        <ele>4.1999998092651</ele>
        <time>2016-05-16T16:19:42.000Z</time>
      </trkpt>
      <trkpt lat="43.18501" lon="5.61854">
        <ele>4.8000001907349</ele>
        <time>2016-05-16T16:19:48.000Z</time>
      </trkpt>
      <trkpt lat="43.18521" lon="5.61899">
        <ele>5.1999998092651</ele>
        <time>2016-05-16T16:19:55.000Z</time>
      </trkpt>
      <trkpt lat="43.18528" lon="5.61916">
        <ele>5.4000000953674</ele>
        <time>2016-05-16T16:19:58.000Z</time>
      </trkpt>
      <trkpt lat="43.18535" lon="5.61934">
        <ele>5.5999999046326</ele>
        <time>2016-05-16T16:20:01.000Z</time>
      </trkpt>
      <trkpt lat="43.18554" lon="5.61976">
        <ele>4.8000001907349</ele>
        <time>2016-05-16T16:20:09.000Z</time>
      </trkpt>
      <trkpt lat="43.18571" lon="5.62016">
        <ele>3.7999999523163</ele>
        <time>2016-05-16T16:20:18.000Z</time>
      </trkpt>
      <trkpt lat="43.18585" lon="5.62047">
        <ele>3.2000000476837</ele>
        <time>2016-05-16T16:20:26.000Z</time>
      </trkpt>
      <trkpt lat="43.18604" lon="5.62077">
        <ele>3.7999999523163</ele>
        <time>2016-05-16T16:20:33.000Z</time>
      </trkpt>
      <trkpt lat="43.18618" lon="5.62102">
        <ele>5</ele>
        <time>2016-05-16T16:20:39.000Z</time>
      </trkpt>
      <trkpt lat="43.18634" lon="5.62129">
        <ele>6.1999998092651</ele>
        <time>2016-05-16T16:20:46.000Z</time>
      </trkpt>
      <trkpt lat="43.18659" lon="5.62176">
        <ele>6</ele>
        <time>2016-05-16T16:20:56.000Z</time>
      </trkpt>
      <trkpt lat="43.18676" lon="5.62211">
        <ele>5.1999998092651</ele>
        <time>2016-05-16T16:21:03.000Z</time>
      </trkpt>
      <trkpt lat="43.1869" lon="5.62252">
        <ele>5</ele>
        <time>2016-05-16T16:21:11.000Z</time>
      </trkpt>
      <trkpt lat="43.18694" lon="5.62267">
        <ele>5</ele>
        <time>2016-05-16T16:21:16.000Z</time>
      </trkpt>
      <trkpt lat="43.18699" lon="5.62292">
        <ele>5</ele>
        <time>2016-05-16T16:21:22.000Z</time>
      </trkpt>
      <trkpt lat="43.18708" lon="5.62324">
        <ele>3.7999999523163</ele>
        <time>2016-05-16T16:21:28.000Z</time>
      </trkpt>
      <trkpt lat="43.18718" lon="5.62368">
        <ele>3.5999999046326</ele>
        <time>2016-05-16T16:21:35.000Z</time>
      </trkpt>
      <trkpt lat="43.1873" lon="5.62432">
        <ele>2</ele>
        <time>2016-05-16T16:21:45.000Z</time>
      </trkpt>
      <trkpt lat="43.18733" lon="5.62462">
        <ele>2</ele>
        <time>2016-05-16T16:21:50.000Z</time>
      </trkpt>
      <trkpt lat="43.18734" lon="5.6248">
        <ele>2.7999999523163</ele>
        <time>2016-05-16T16:21:53.000Z</time>
      </trkpt>
      <trkpt lat="43.18735" lon="5.62539">
        <ele>4.4000000953674</ele>
        <time>2016-05-16T16:22:02.000Z</time>
      </trkpt>
      <trkpt lat="43.18734" lon="5.62565">
        <ele>4.4000000953674</ele>
        <time>2016-05-16T16:22:06.000Z</time>
      </trkpt>
      <trkpt lat="43.18733" lon="5.62592">
        <ele>4.4000000953674</ele>
        <time>2016-05-16T16:22:10.000Z</time>
      </trkpt>
      <trkpt lat="43.18732" lon="5.62599">
        <ele>4.4000000953674</ele>
        <time>2016-05-16T16:22:11.000Z</time>
      </trkpt>
      <trkpt lat="43.18736" lon="5.62615">
        <ele>4.1999998092651</ele>
        <time>2016-05-16T16:22:14.000Z</time>
      </trkpt>
      <trkpt lat="43.18745" lon="5.62626">
        <ele>4.4000000953674</ele>
        <time>2016-05-16T16:22:17.000Z</time>
      </trkpt>
      <trkpt lat="43.18752" lon="5.6263">
        <ele>4.5999999046326</ele>
        <time>2016-05-16T16:22:19.000Z</time>
      </trkpt>
      <trkpt lat="43.18778" lon="5.62641">
        <ele>5.1999998092651</ele>
        <time>2016-05-16T16:22:25.000Z</time>
      </trkpt>
      <trkpt lat="43.18803" lon="5.62652">
        <ele>5.5999999046326</ele>
        <time>2016-05-16T16:22:31.000Z</time>
      </trkpt>
      <trkpt lat="43.18826" lon="5.62667">
        <ele>6.1999998092651</ele>
        <time>2016-05-16T16:22:37.000Z</time>
      </trkpt>
      <trkpt lat="43.1883" lon="5.6267">
        <ele>6.1999998092651</ele>
        <time>2016-05-16T16:22:38.000Z</time>
      </trkpt>
      <trkpt lat="43.18844" lon="5.62694">
        <ele>6.5999999046326</ele>
        <time>2016-05-16T16:22:43.000Z</time>
      </trkpt>
      <trkpt lat="43.18853" lon="5.62714">
        <ele>7.1999998092651</ele>
        <time>2016-05-16T16:22:47.000Z</time>
      </trkpt>
      <trkpt lat="43.18863" lon="5.62733">
        <ele>7.4000000953674</ele>
        <time>2016-05-16T16:22:51.000Z</time>
      </trkpt>
      <trkpt lat="43.18871" lon="5.62747">
        <ele>7.5999999046326</ele>
        <time>2016-05-16T16:22:54.000Z</time>
      </trkpt>
      <trkpt lat="43.18878" lon="5.62761">
        <ele>8</ele>
        <time>2016-05-16T16:22:57.000Z</time>
      </trkpt>
      <trkpt lat="43.18884" lon="5.62783">
        <ele>8.1999998092651</ele>
        <time>2016-05-16T16:23:01.000Z</time>
      </trkpt>
      <trkpt lat="43.18886" lon="5.62795">
        <ele>8.3999996185303</ele>
        <time>2016-05-16T16:23:03.000Z</time>
      </trkpt>
      <trkpt lat="43.18887" lon="5.6282">
        <ele>8.1999998092651</ele>
        <time>2016-05-16T16:23:07.000Z</time>
      </trkpt>
      <trkpt lat="43.18888" lon="5.62834">
        <ele>8.1999998092651</ele>
        <time>2016-05-16T16:23:09.000Z</time>
      </trkpt>
      <trkpt lat="43.18892" lon="5.62853">
        <ele>8.1999998092651</ele>
        <time>2016-05-16T16:23:12.000Z</time>
      </trkpt>
      <trkpt lat="43.18894" lon="5.6286">
        <ele>8.3999996185303</ele>
        <time>2016-05-16T16:23:13.000Z</time>
      </trkpt>
      <trkpt lat="43.18908" lon="5.62913">
        <ele>8.8000001907349</ele>
        <time>2016-05-16T16:23:22.000Z</time>
      </trkpt>
      <trkpt lat="43.18914" lon="5.62951">
        <ele>8.6000003814697</ele>
        <time>2016-05-16T16:23:28.000Z</time>
      </trkpt>
      <trkpt lat="43.18913" lon="5.62965">
        <ele>9.1999998092651</ele>
        <time>2016-05-16T16:23:30.000Z</time>
      </trkpt>
      <trkpt lat="43.18909" lon="5.62988">
        <ele>9.1999998092651</ele>
        <time>2016-05-16T16:23:33.000Z</time>
      </trkpt>
      <trkpt lat="43.18903" lon="5.63011">
        <ele>9</ele>
        <time>2016-05-16T16:23:36.000Z</time>
      </trkpt>
      <trkpt lat="43.18884" lon="5.63052">
        <ele>6.5999999046326</ele>
        <time>2016-05-16T16:23:41.000Z</time>
      </trkpt>
      <trkpt lat="43.18877" lon="5.63068">
        <ele>7.1999998092651</ele>
        <time>2016-05-16T16:23:43.000Z</time>
      </trkpt>
      <trkpt lat="43.18862" lon="5.63122">
        <ele>5.5999999046326</ele>
        <time>2016-05-16T16:23:50.000Z</time>
      </trkpt>
      <trkpt lat="43.18854" lon="5.63157">
        <ele>5.4000000953674</ele>
        <time>2016-05-16T16:23:56.000Z</time>
      </trkpt>
      <trkpt lat="43.18843" lon="5.63212">
        <ele>6.8000001907349</ele>
        <time>2016-05-16T16:24:05.000Z</time>
      </trkpt>
      <trkpt lat="43.18837" lon="5.63243">
        <ele>6.1999998092651</ele>
        <time>2016-05-16T16:24:10.000Z</time>
      </trkpt>
      <trkpt lat="43.18836" lon="5.6325">
        <ele>6.1999998092651</ele>
        <time>2016-05-16T16:24:11.000Z</time>
      </trkpt>
      <trkpt lat="43.18836" lon="5.63256">
        <ele>6</ele>
        <time>2016-05-16T16:24:12.000Z</time>
      </trkpt>
      <trkpt lat="43.18838" lon="5.63274">
        <ele>6</ele>
        <time>2016-05-16T16:24:15.000Z</time>
      </trkpt>
      <trkpt lat="43.18844" lon="5.63293">
        <ele>6</ele>
        <time>2016-05-16T16:24:18.000Z</time>
      </trkpt>
      <trkpt lat="43.18846" lon="5.63299">
        <ele>6.1999998092651</ele>
        <time>2016-05-16T16:24:19.000Z</time>
      </trkpt>
      <trkpt lat="43.18862" lon="5.63339">
        <ele>6</ele>
        <time>2016-05-16T16:24:25.000Z</time>
      </trkpt>
      <trkpt lat="43.18886" lon="5.63388">
        <ele>6</ele>
        <time>2016-05-16T16:24:32.000Z</time>
      </trkpt>
      <trkpt lat="43.1889" lon="5.63392">
        <ele>6</ele>
        <time>2016-05-16T16:24:33.000Z</time>
      </trkpt>
      <trkpt lat="43.18898" lon="5.63395">
        <ele>6.5999999046326</ele>
        <time>2016-05-16T16:24:35.000Z</time>
      </trkpt>
      <trkpt lat="43.18905" lon="5.63397">
        <ele>7</ele>
        <time>2016-05-16T16:24:38.000Z</time>
      </trkpt>
      <trkpt lat="43.18912" lon="5.63414">
        <ele>7.1999998092651</ele>
        <time>2016-05-16T16:24:42.000Z</time>
      </trkpt>
      <trkpt lat="43.18914" lon="5.6342">
        <ele>7.1999998092651</ele>
        <time>2016-05-16T16:24:43.000Z</time>
      </trkpt>
      <trkpt lat="43.18927" lon="5.63456">
        <ele>7.1999998092651</ele>
        <time>2016-05-16T16:24:49.000Z</time>
      </trkpt>
      <trkpt lat="43.18947" lon="5.63501">
        <ele>8.1999998092651</ele>
        <time>2016-05-16T16:24:56.000Z</time>
      </trkpt>
      <trkpt lat="43.18969" lon="5.63551">
        <ele>9.3999996185303</ele>
        <time>2016-05-16T16:25:03.000Z</time>
      </trkpt>
      <trkpt lat="43.18983" lon="5.6358">
        <ele>8.6000003814697</ele>
        <time>2016-05-16T16:25:07.000Z</time>
      </trkpt>
      <trkpt lat="43.18992" lon="5.63602">
        <ele>7.8000001907349</ele>
        <time>2016-05-16T16:25:10.000Z</time>
      </trkpt>
      <trkpt lat="43.18995" lon="5.63609">
        <ele>7.5999999046326</ele>
        <time>2016-05-16T16:25:11.000Z</time>
      </trkpt>
      <trkpt lat="43.19008" lon="5.63646">
        <ele>6.5999999046326</ele>
        <time>2016-05-16T16:25:16.000Z</time>
      </trkpt>
      <trkpt lat="43.19016" lon="5.63669">
        <ele>7.1999998092651</ele>
        <time>2016-05-16T16:25:19.000Z</time>
      </trkpt>
      <trkpt lat="43.1902" lon="5.63685">
        <ele>7.4000000953674</ele>
        <time>2016-05-16T16:25:21.000Z</time>
      </trkpt>
      <trkpt lat="43.19035" lon="5.63731">
        <ele>8.3999996185303</ele>
        <time>2016-05-16T16:25:27.000Z</time>
      </trkpt>
      <trkpt lat="43.19045" lon="5.63768">
        <ele>9.6000003814697</ele>
        <time>2016-05-16T16:25:32.000Z</time>
      </trkpt>
      <trkpt lat="43.19057" lon="5.63823">
        <ele>11.199999809265</ele>
        <time>2016-05-16T16:25:39.000Z</time>
      </trkpt>
      <trkpt lat="43.19067" lon="5.63874">
        <ele>12.199999809265</ele>
        <time>2016-05-16T16:25:46.000Z</time>
      </trkpt>
      <trkpt lat="43.1907" lon="5.6392">
        <ele>12.60000038147</ele>
        <time>2016-05-16T16:25:52.000Z</time>
      </trkpt>
      <trkpt lat="43.19072" lon="5.63973">
        <ele>13.39999961853</ele>
        <time>2016-05-16T16:25:59.000Z</time>
      </trkpt>
      <trkpt lat="43.19074" lon="5.64008">
        <ele>13.39999961853</ele>
        <time>2016-05-16T16:26:04.000Z</time>
      </trkpt>
      <trkpt lat="43.19075" lon="5.6402">
        <ele>13.60000038147</ele>
        <time>2016-05-16T16:26:08.000Z</time>
      </trkpt>
      <trkpt lat="43.19075" lon="5.64026">
        <ele>13.60000038147</ele>
        <time>2016-05-16T16:26:43.000Z</time>
      </trkpt>
      <trkpt lat="43.19075" lon="5.64029">
        <ele>13.60000038147</ele>
        <time>2016-05-16T16:26:44.000Z</time>
      </trkpt>
      <trkpt lat="43.19074" lon="5.64046">
        <ele>12.800000190735</ele>
        <time>2016-05-16T16:26:48.000Z</time>
      </trkpt>
      <trkpt lat="43.19072" lon="5.64081">
        <ele>14</ele>
        <time>2016-05-16T16:26:55.000Z</time>
      </trkpt>
      <trkpt lat="43.19066" lon="5.64121">
        <ele>15</ele>
        <time>2016-05-16T16:27:02.000Z</time>
      </trkpt>
      <trkpt lat="43.1906" lon="5.64144">
        <ele>14.39999961853</ele>
        <time>2016-05-16T16:27:08.000Z</time>
      </trkpt>
      <trkpt lat="43.19058" lon="5.64154">
        <ele>14.39999961853</ele>
        <time>2016-05-16T16:28:53.000Z</time>
      </trkpt>
      <trkpt lat="43.1905" lon="5.64177">
        <ele>14</ele>
        <time>2016-05-16T16:28:59.000Z</time>
      </trkpt>
      <trkpt lat="43.19034" lon="5.64217">
        <ele>12.39999961853</ele>
        <time>2016-05-16T16:29:07.000Z</time>
      </trkpt>
      <trkpt lat="43.19018" lon="5.64252">
        <ele>12.60000038147</ele>
        <time>2016-05-16T16:29:14.000Z</time>
      </trkpt>
      <trkpt lat="43.19005" lon="5.64277">
        <ele>12.800000190735</ele>
        <time>2016-05-16T16:29:19.000Z</time>
      </trkpt>
      <trkpt lat="43.18984" lon="5.64311">
        <ele>11.800000190735</ele>
        <time>2016-05-16T16:29:26.000Z</time>
      </trkpt>
      <trkpt lat="43.18975" lon="5.6432">
        <ele>11.199999809265</ele>
        <time>2016-05-16T16:29:28.000Z</time>
      </trkpt>
      <trkpt lat="43.1897" lon="5.64324">
        <ele>10.800000190735</ele>
        <time>2016-05-16T16:29:29.000Z</time>
      </trkpt>
      <trkpt lat="43.18962" lon="5.6433">
        <ele>10.199999809265</ele>
        <time>2016-05-16T16:29:31.000Z</time>
      </trkpt>
      <trkpt lat="43.18943" lon="5.64341">
        <ele>8.1999998092651</ele>
        <time>2016-05-16T16:29:37.000Z</time>
      </trkpt>
      <trkpt lat="43.18924" lon="5.64356">
        <ele>7.1999998092651</ele>
        <time>2016-05-16T16:29:43.000Z</time>
      </trkpt>
      <trkpt lat="43.18907" lon="5.64371">
        <ele>8.3999996185303</ele>
        <time>2016-05-16T16:29:48.000Z</time>
      </trkpt>
      <trkpt lat="43.18899" lon="5.64383">
        <ele>8.1999998092651</ele>
        <time>2016-05-16T16:29:51.000Z</time>
      </trkpt>
      <trkpt lat="43.18887" lon="5.64404">
        <ele>9.1999998092651</ele>
        <time>2016-05-16T16:29:57.000Z</time>
      </trkpt>
      <trkpt lat="43.18878" lon="5.64421">
        <ele>9.8000001907349</ele>
        <time>2016-05-16T16:30:02.000Z</time>
      </trkpt>
      <trkpt lat="43.18876" lon="5.64424">
        <ele>9.6000003814697</ele>
        <time>2016-05-16T16:30:03.000Z</time>
      </trkpt>
      <trkpt lat="43.18859" lon="5.64441">
        <ele>8.8000001907349</ele>
        <time>2016-05-16T16:30:08.000Z</time>
      </trkpt>
      <trkpt lat="43.18831" lon="5.64469">
        <ele>6.8000001907349</ele>
        <time>2016-05-16T16:30:16.000Z</time>
      </trkpt>
      <trkpt lat="43.18806" lon="5.64494">
        <ele>5</ele>
        <time>2016-05-16T16:30:22.000Z</time>
      </trkpt>
      <trkpt lat="43.18802" lon="5.645">
        <ele>4.8000001907349</ele>
        <time>2016-05-16T16:30:23.000Z</time>
      </trkpt>
      <trkpt lat="43.18794" lon="5.64527">
        <ele>3.5999999046326</ele>
        <time>2016-05-16T16:30:27.000Z</time>
      </trkpt>
      <trkpt lat="43.18793" lon="5.64534">
        <ele>3.2000000476837</ele>
        <time>2016-05-16T16:30:28.000Z</time>
      </trkpt>
      <trkpt lat="43.18785" lon="5.64579">
        <ele>2.5999999046326</ele>
        <time>2016-05-16T16:30:34.000Z</time>
      </trkpt>
      <trkpt lat="43.18777" lon="5.6464">
        <ele>6.5999999046326</ele>
        <time>2016-05-16T16:30:42.000Z</time>
      </trkpt>
      <trkpt lat="43.18774" lon="5.64694">
        <ele>6.5999999046326</ele>
        <time>2016-05-16T16:30:50.000Z</time>
      </trkpt>
      <trkpt lat="43.18776" lon="5.64707">
        <ele>6.5999999046326</ele>
        <time>2016-05-16T16:30:52.000Z</time>
      </trkpt>
      <trkpt lat="43.18781" lon="5.64721">
        <ele>6</ele>
        <time>2016-05-16T16:30:55.000Z</time>
      </trkpt>
      <trkpt lat="43.18792" lon="5.64731">
        <ele>6.1999998092651</ele>
        <time>2016-05-16T16:30:59.000Z</time>
      </trkpt>
      <trkpt lat="43.18797" lon="5.64733">
        <ele>6.1999998092651</ele>
        <time>2016-05-16T16:31:00.000Z</time>
      </trkpt>
      <trkpt lat="43.18819" lon="5.64748">
        <ele>6.4000000953674</ele>
        <time>2016-05-16T16:31:07.000Z</time>
      </trkpt>
      <trkpt lat="43.18825" lon="5.64774">
        <ele>6.5999999046326</ele>
        <time>2016-05-16T16:31:12.000Z</time>
      </trkpt>
      <trkpt lat="43.18838" lon="5.64828">
        <ele>6.5999999046326</ele>
        <time>2016-05-16T16:31:21.000Z</time>
      </trkpt>
      <trkpt lat="43.18846" lon="5.64883">
        <ele>6</ele>
        <time>2016-05-16T16:31:29.000Z</time>
      </trkpt>
      <trkpt lat="43.18854" lon="5.64933">
        <ele>6.1999998092651</ele>
        <time>2016-05-16T16:31:36.000Z</time>
      </trkpt>
      <trkpt lat="43.18861" lon="5.64981">
        <ele>6.5999999046326</ele>
        <time>2016-05-16T16:31:43.000Z</time>
      </trkpt>
      <trkpt lat="43.18866" lon="5.65025">
        <ele>8.1999998092651</ele>
        <time>2016-05-16T16:31:50.000Z</time>
      </trkpt>
      <trkpt lat="43.18874" lon="5.65066">
        <ele>11</ele>
        <time>2016-05-16T16:31:56.000Z</time>
      </trkpt>
      <trkpt lat="43.18874" lon="5.65072">
        <ele>11.800000190735</ele>
        <time>2016-05-16T16:31:57.000Z</time>
      </trkpt>
      <trkpt lat="43.18879" lon="5.65105">
        <ele>14.800000190735</ele>
        <time>2016-05-16T16:32:02.000Z</time>
      </trkpt>
      <trkpt lat="43.1888" lon="5.65111">
        <ele>15.39999961853</ele>
        <time>2016-05-16T16:32:03.000Z</time>
      </trkpt>
      <trkpt lat="43.18883" lon="5.65129">
        <ele>16.799999237061</ele>
        <time>2016-05-16T16:32:06.000Z</time>
      </trkpt>
      <trkpt lat="43.18885" lon="5.65146">
        <ele>19.200000762939</ele>
        <time>2016-05-16T16:32:09.000Z</time>
      </trkpt>
      <trkpt lat="43.18886" lon="5.65152">
        <ele>20.200000762939</ele>
        <time>2016-05-16T16:32:10.000Z</time>
      </trkpt>
      <trkpt lat="43.18888" lon="5.65163">
        <ele>22.200000762939</ele>
        <time>2016-05-16T16:32:13.000Z</time>
      </trkpt>
      <trkpt lat="43.18888" lon="5.65165">
        <ele>22.60000038147</ele>
        <time>2016-05-16T16:32:14.000Z</time>
      </trkpt>
      <trkpt lat="43.18889" lon="5.65172">
        <ele>23.799999237061</ele>
        <time>2016-05-16T16:32:17.000Z</time>
      </trkpt>
      <trkpt lat="43.18884" lon="5.65184">
        <ele>24.799999237061</ele>
        <time>2016-05-16T16:32:20.000Z</time>
      </trkpt>
      <trkpt lat="43.18878" lon="5.65193">
        <ele>25.200000762939</ele>
        <time>2016-05-16T16:32:22.000Z</time>
      </trkpt>
      <trkpt lat="43.1887" lon="5.65203">
        <ele>25.200000762939</ele>
        <time>2016-05-16T16:32:24.000Z</time>
      </trkpt>
      <trkpt lat="43.18866" lon="5.65207">
        <ele>25.200000762939</ele>
        <time>2016-05-16T16:32:25.000Z</time>
      </trkpt>
      <trkpt lat="43.18859" lon="5.65217">
        <ele>25.39999961853</ele>
        <time>2016-05-16T16:32:27.000Z</time>
      </trkpt>
      <trkpt lat="43.18849" lon="5.6523">
        <ele>26.60000038147</ele>
        <time>2016-05-16T16:32:30.000Z</time>
      </trkpt>
      <trkpt lat="43.18841" lon="5.65239">
        <ele>27.799999237061</ele>
        <time>2016-05-16T16:32:32.000Z</time>
      </trkpt>
      <trkpt lat="43.18833" lon="5.65249">
        <ele>28.200000762939</ele>
        <time>2016-05-16T16:32:34.000Z</time>
      </trkpt>
      <trkpt lat="43.18826" lon="5.65258">
        <ele>28.60000038147</ele>
        <time>2016-05-16T16:32:36.000Z</time>
      </trkpt>
      <trkpt lat="43.18819" lon="5.65267">
        <ele>29.200000762939</ele>
        <time>2016-05-16T16:32:38.000Z</time>
      </trkpt>
      <trkpt lat="43.18805" lon="5.65283">
        <ele>29</ele>
        <time>2016-05-16T16:32:42.000Z</time>
      </trkpt>
      <trkpt lat="43.18801" lon="5.65288">
        <ele>28.799999237061</ele>
        <time>2016-05-16T16:32:43.000Z</time>
      </trkpt>
      <trkpt lat="43.18794" lon="5.65296">
        <ele>28.39999961853</ele>
        <time>2016-05-16T16:32:45.000Z</time>
      </trkpt>
      <trkpt lat="43.18791" lon="5.65301">
        <ele>28.39999961853</ele>
        <time>2016-05-16T16:32:46.000Z</time>
      </trkpt>
      <trkpt lat="43.18783" lon="5.65309">
        <ele>26.799999237061</ele>
        <time>2016-05-16T16:32:48.000Z</time>
      </trkpt>
      <trkpt lat="43.18775" lon="5.65317">
        <ele>25</ele>
        <time>2016-05-16T16:32:50.000Z</time>
      </trkpt>
      <trkpt lat="43.18764" lon="5.6533">
        <ele>25.39999961853</ele>
        <time>2016-05-16T16:32:53.000Z</time>
      </trkpt>
      <trkpt lat="43.18756" lon="5.65339">
        <ele>25.60000038147</ele>
        <time>2016-05-16T16:32:55.000Z</time>
      </trkpt>
      <trkpt lat="43.18744" lon="5.65352">
        <ele>25.799999237061</ele>
        <time>2016-05-16T16:32:58.000Z</time>
      </trkpt>
      <trkpt lat="43.18733" lon="5.65368">
        <ele>26.39999961853</ele>
        <time>2016-05-16T16:33:01.000Z</time>
      </trkpt>
      <trkpt lat="43.1873" lon="5.65373">
        <ele>26.60000038147</ele>
        <time>2016-05-16T16:33:02.000Z</time>
      </trkpt>
      <trkpt lat="43.18726" lon="5.6538">
        <ele>27</ele>
        <time>2016-05-16T16:33:03.000Z</time>
      </trkpt>
      <trkpt lat="43.18723" lon="5.65386">
        <ele>27.39999961853</ele>
        <time>2016-05-16T16:33:04.000Z</time>
      </trkpt>
      <trkpt lat="43.18713" lon="5.65404">
        <ele>27.799999237061</ele>
        <time>2016-05-16T16:33:07.000Z</time>
      </trkpt>
      <trkpt lat="43.18698" lon="5.65438">
        <ele>28.200000762939</ele>
        <time>2016-05-16T16:33:12.000Z</time>
      </trkpt>
      <trkpt lat="43.18696" lon="5.65445">
        <ele>28.200000762939</ele>
        <time>2016-05-16T16:33:13.000Z</time>
      </trkpt>
      <trkpt lat="43.18692" lon="5.6546">
        <ele>28.60000038147</ele>
        <time>2016-05-16T16:33:15.000Z</time>
      </trkpt>
      <trkpt lat="43.18686" lon="5.65481">
        <ele>28.200000762939</ele>
        <time>2016-05-16T16:33:18.000Z</time>
      </trkpt>
      <trkpt lat="43.18685" lon="5.65489">
        <ele>27.799999237061</ele>
        <time>2016-05-16T16:33:19.000Z</time>
      </trkpt>
      <trkpt lat="43.18683" lon="5.65504">
        <ele>27.39999961853</ele>
        <time>2016-05-16T16:33:21.000Z</time>
      </trkpt>
      <trkpt lat="43.18682" lon="5.65511">
        <ele>27.200000762939</ele>
        <time>2016-05-16T16:33:22.000Z</time>
      </trkpt>
      <trkpt lat="43.1868" lon="5.65543">
        <ele>26.39999961853</ele>
        <time>2016-05-16T16:33:26.000Z</time>
      </trkpt>
      <trkpt lat="43.18678" lon="5.6559">
        <ele>25.39999961853</ele>
        <time>2016-05-16T16:33:32.000Z</time>
      </trkpt>
      <trkpt lat="43.18677" lon="5.65605">
        <ele>25.200000762939</ele>
        <time>2016-05-16T16:33:34.000Z</time>
      </trkpt>
      <trkpt lat="43.18674" lon="5.65661">
        <ele>25</ele>
        <time>2016-05-16T16:33:42.000Z</time>
      </trkpt>
      <trkpt lat="43.18673" lon="5.65669">
        <ele>25</ele>
        <time>2016-05-16T16:33:43.000Z</time>
      </trkpt>
      <trkpt lat="43.18664" lon="5.65724">
        <ele>26.200000762939</ele>
        <time>2016-05-16T16:33:51.000Z</time>
      </trkpt>
      <trkpt lat="43.18657" lon="5.65752">
        <ele>25.799999237061</ele>
        <time>2016-05-16T16:33:55.000Z</time>
      </trkpt>
      <trkpt lat="43.18653" lon="5.65767">
        <ele>25.799999237061</ele>
        <time>2016-05-16T16:33:57.000Z</time>
      </trkpt>
      <trkpt lat="43.18643" lon="5.65803">
        <ele>27.60000038147</ele>
        <time>2016-05-16T16:34:02.000Z</time>
      </trkpt>
      <trkpt lat="43.18627" lon="5.65856">
        <ele>27</ele>
        <time>2016-05-16T16:34:09.000Z</time>
      </trkpt>
      <trkpt lat="43.18622" lon="5.65871">
        <ele>26.39999961853</ele>
        <time>2016-05-16T16:34:11.000Z</time>
      </trkpt>
      <trkpt lat="43.18602" lon="5.65934">
        <ele>23.60000038147</ele>
        <time>2016-05-16T16:34:19.000Z</time>
      </trkpt>
      <trkpt lat="43.186" lon="5.65943">
        <ele>23</ele>
        <time>2016-05-16T16:34:20.000Z</time>
      </trkpt>
      <trkpt lat="43.18581" lon="5.66005">
        <ele>21.200000762939</ele>
        <time>2016-05-16T16:34:27.000Z</time>
      </trkpt>
      <trkpt lat="43.18578" lon="5.66014">
        <ele>21.200000762939</ele>
        <time>2016-05-16T16:34:28.000Z</time>
      </trkpt>
      <trkpt lat="43.18569" lon="5.66042">
        <ele>21.60000038147</ele>
        <time>2016-05-16T16:34:31.000Z</time>
      </trkpt>
      <trkpt lat="43.18557" lon="5.66081">
        <ele>22</ele>
        <time>2016-05-16T16:34:35.000Z</time>
      </trkpt>
      <trkpt lat="43.18551" lon="5.66101">
        <ele>21.60000038147</ele>
        <time>2016-05-16T16:34:37.000Z</time>
      </trkpt>
      <trkpt lat="43.18537" lon="5.6614">
        <ele>19.60000038147</ele>
        <time>2016-05-16T16:34:41.000Z</time>
      </trkpt>
      <trkpt lat="43.18525" lon="5.66164">
        <ele>19.799999237061</ele>
        <time>2016-05-16T16:34:44.000Z</time>
      </trkpt>
      <trkpt lat="43.1852" lon="5.66172">
        <ele>19.60000038147</ele>
        <time>2016-05-16T16:34:45.000Z</time>
      </trkpt>
      <trkpt lat="43.185" lon="5.66197">
        <ele>18.799999237061</ele>
        <time>2016-05-16T16:34:49.000Z</time>
      </trkpt>
      <trkpt lat="43.18493" lon="5.66203">
        <ele>18.39999961853</ele>
        <time>2016-05-16T16:34:50.000Z</time>
      </trkpt>
      <trkpt lat="43.18471" lon="5.6622">
        <ele>15</ele>
        <time>2016-05-16T16:34:53.000Z</time>
      </trkpt>
      <trkpt lat="43.18456" lon="5.66232">
        <ele>14.199999809265</ele>
        <time>2016-05-16T16:34:55.000Z</time>
      </trkpt>
      <trkpt lat="43.18411" lon="5.66272">
        <ele>13.800000190735</ele>
        <time>2016-05-16T16:35:02.000Z</time>
      </trkpt>
      <trkpt lat="43.18404" lon="5.66279">
        <ele>13.60000038147</ele>
        <time>2016-05-16T16:35:04.000Z</time>
      </trkpt>
      <trkpt lat="43.18398" lon="5.66288">
        <ele>13.39999961853</ele>
        <time>2016-05-16T16:35:06.000Z</time>
      </trkpt>
      <trkpt lat="43.18393" lon="5.66297">
        <ele>13.39999961853</ele>
        <time>2016-05-16T16:35:08.000Z</time>
      </trkpt>
      <trkpt lat="43.18388" lon="5.66306">
        <ele>13</ele>
        <time>2016-05-16T16:35:10.000Z</time>
      </trkpt>
      <trkpt lat="43.18386" lon="5.66311">
        <ele>12.800000190735</ele>
        <time>2016-05-16T16:35:11.000Z</time>
      </trkpt>
      <trkpt lat="43.18384" lon="5.66316">
        <ele>12.60000038147</ele>
        <time>2016-05-16T16:35:12.000Z</time>
      </trkpt>
      <trkpt lat="43.18375" lon="5.66343">
        <ele>12.199999809265</ele>
        <time>2016-05-16T16:35:17.000Z</time>
      </trkpt>
      <trkpt lat="43.18373" lon="5.6635">
        <ele>12.39999961853</ele>
        <time>2016-05-16T16:35:18.000Z</time>
      </trkpt>
      <trkpt lat="43.18351" lon="5.6641">
        <ele>14</ele>
        <time>2016-05-16T16:35:28.000Z</time>
      </trkpt>
      <trkpt lat="43.18349" lon="5.66416">
        <ele>14.199999809265</ele>
        <time>2016-05-16T16:35:29.000Z</time>
      </trkpt>
      <trkpt lat="43.18342" lon="5.66441">
        <ele>15</ele>
        <time>2016-05-16T16:35:33.000Z</time>
      </trkpt>
      <trkpt lat="43.1834" lon="5.66447">
        <ele>15.39999961853</ele>
        <time>2016-05-16T16:35:34.000Z</time>
      </trkpt>
      <trkpt lat="43.18327" lon="5.66467">
        <ele>16.200000762939</ele>
        <time>2016-05-16T16:35:38.000Z</time>
      </trkpt>
      <trkpt lat="43.18318" lon="5.66474">
        <ele>16.799999237061</ele>
        <time>2016-05-16T16:35:40.000Z</time>
      </trkpt>
      <trkpt lat="43.18306" lon="5.66483">
        <ele>17.799999237061</ele>
        <time>2016-05-16T16:35:43.000Z</time>
      </trkpt>
      <trkpt lat="43.18296" lon="5.66493">
        <ele>18.799999237061</ele>
        <time>2016-05-16T16:35:46.000Z</time>
      </trkpt>
      <trkpt lat="43.18293" lon="5.66496">
        <ele>19.200000762939</ele>
        <time>2016-05-16T16:35:47.000Z</time>
      </trkpt>
      <trkpt lat="43.18288" lon="5.66505">
        <ele>19.200000762939</ele>
        <time>2016-05-16T16:35:49.000Z</time>
      </trkpt>
      <trkpt lat="43.18283" lon="5.66521">
        <ele>18.39999961853</ele>
        <time>2016-05-16T16:35:52.000Z</time>
      </trkpt>
      <trkpt lat="43.18282" lon="5.66527">
        <ele>18.200000762939</ele>
        <time>2016-05-16T16:35:53.000Z</time>
      </trkpt>
      <trkpt lat="43.18281" lon="5.66532">
        <ele>18.200000762939</ele>
        <time>2016-05-16T16:35:54.000Z</time>
      </trkpt>
      <trkpt lat="43.1828" lon="5.66544">
        <ele>18</ele>
        <time>2016-05-16T16:35:56.000Z</time>
      </trkpt>
      <trkpt lat="43.18278" lon="5.66571">
        <ele>18.799999237061</ele>
        <time>2016-05-16T16:36:01.000Z</time>
      </trkpt>
      <trkpt lat="43.18278" lon="5.6658">
        <ele>18.60000038147</ele>
        <time>2016-05-16T16:36:03.000Z</time>
      </trkpt>
      <trkpt lat="43.18275" lon="5.66605">
        <ele>17.799999237061</ele>
        <time>2016-05-16T16:36:09.000Z</time>
      </trkpt>
      <trkpt lat="43.18275" lon="5.6661">
        <ele>17.799999237061</ele>
        <time>2016-05-16T16:36:10.000Z</time>
      </trkpt>
      <trkpt lat="43.18274" lon="5.66626">
        <ele>17.39999961853</ele>
        <time>2016-05-16T16:36:15.000Z</time>
      </trkpt>
      <trkpt lat="43.18274" lon="5.6664">
        <ele>17</ele>
        <time>2016-05-16T16:36:19.000Z</time>
      </trkpt>
      <trkpt lat="43.18273" lon="5.66646">
        <ele>16.799999237061</ele>
        <time>2016-05-16T16:36:21.000Z</time>
      </trkpt>
      <trkpt lat="43.18268" lon="5.66669">
        <ele>17.200000762939</ele>
        <time>2016-05-16T16:36:28.000Z</time>
      </trkpt>
      <trkpt lat="43.18261" lon="5.66695">
        <ele>17.799999237061</ele>
        <time>2016-05-16T16:36:34.000Z</time>
      </trkpt>
      <trkpt lat="43.18252" lon="5.66733">
        <ele>18.200000762939</ele>
        <time>2016-05-16T16:36:41.000Z</time>
      </trkpt>
      <trkpt lat="43.18231" lon="5.66773">
        <ele>16.60000038147</ele>
        <time>2016-05-16T16:36:50.000Z</time>
      </trkpt>
      <trkpt lat="43.18211" lon="5.66805">
        <ele>14.199999809265</ele>
        <time>2016-05-16T16:36:56.000Z</time>
      </trkpt>
      <trkpt lat="43.18198" lon="5.66823">
        <ele>12</ele>
        <time>2016-05-16T16:36:59.000Z</time>
      </trkpt>
      <trkpt lat="43.1818" lon="5.66849">
        <ele>13.800000190735</ele>
        <time>2016-05-16T16:37:03.000Z</time>
      </trkpt>
      <trkpt lat="43.18175" lon="5.66855">
        <ele>14.39999961853</ele>
        <time>2016-05-16T16:37:04.000Z</time>
      </trkpt>
      <trkpt lat="43.18167" lon="5.66869">
        <ele>15.39999961853</ele>
        <time>2016-05-16T16:37:06.000Z</time>
      </trkpt>
      <trkpt lat="43.18154" lon="5.66888">
        <ele>17</ele>
        <time>2016-05-16T16:37:09.000Z</time>
      </trkpt>
      <trkpt lat="43.18142" lon="5.66904">
        <ele>17</ele>
        <time>2016-05-16T16:37:12.000Z</time>
      </trkpt>
      <trkpt lat="43.1813" lon="5.6692">
        <ele>17</ele>
        <time>2016-05-16T16:37:15.000Z</time>
      </trkpt>
      <trkpt lat="43.18118" lon="5.66938">
        <ele>15.60000038147</ele>
        <time>2016-05-16T16:37:18.000Z</time>
      </trkpt>
      <trkpt lat="43.18114" lon="5.66945">
        <ele>15</ele>
        <time>2016-05-16T16:37:19.000Z</time>
      </trkpt>
      <trkpt lat="43.18111" lon="5.66954">
        <ele>14.60000038147</ele>
        <time>2016-05-16T16:37:20.000Z</time>
      </trkpt>
      <trkpt lat="43.18107" lon="5.66962">
        <ele>14</ele>
        <time>2016-05-16T16:37:21.000Z</time>
      </trkpt>
      <trkpt lat="43.18103" lon="5.66982">
        <ele>14</ele>
        <time>2016-05-16T16:37:23.000Z</time>
      </trkpt>
      <trkpt lat="43.18101" lon="5.66992">
        <ele>14.39999961853</ele>
        <time>2016-05-16T16:37:24.000Z</time>
      </trkpt>
      <trkpt lat="43.18091" lon="5.67035">
        <ele>16</ele>
        <time>2016-05-16T16:37:29.000Z</time>
      </trkpt>
      <trkpt lat="43.18087" lon="5.67047">
        <ele>16.39999961853</ele>
        <time>2016-05-16T16:37:31.000Z</time>
      </trkpt>
      <trkpt lat="43.18082" lon="5.67063">
        <ele>16.60000038147</ele>
        <time>2016-05-16T16:37:34.000Z</time>
      </trkpt>
      <trkpt lat="43.18074" lon="5.67089">
        <ele>17.200000762939</ele>
        <time>2016-05-16T16:37:40.000Z</time>
      </trkpt>
      <trkpt lat="43.18073" lon="5.67094">
        <ele>17.39999961853</ele>
        <time>2016-05-16T16:37:41.000Z</time>
      </trkpt>
      <trkpt lat="43.18072" lon="5.67103">
        <ele>17.799999237061</ele>
        <time>2016-05-16T16:37:43.000Z</time>
      </trkpt>
      <trkpt lat="43.18072" lon="5.67122">
        <ele>18.60000038147</ele>
        <time>2016-05-16T16:37:47.000Z</time>
      </trkpt>
      <trkpt lat="43.18072" lon="5.67126">
        <ele>18.799999237061</ele>
        <time>2016-05-16T16:37:48.000Z</time>
      </trkpt>
      <trkpt lat="43.18071" lon="5.67138">
        <ele>19.200000762939</ele>
        <time>2016-05-16T16:37:51.000Z</time>
      </trkpt>
      <trkpt lat="43.18069" lon="5.67157">
        <ele>19.39999961853</ele>
        <time>2016-05-16T16:37:55.000Z</time>
      </trkpt>
      <trkpt lat="43.18069" lon="5.67162">
        <ele>19.39999961853</ele>
        <time>2016-05-16T16:37:56.000Z</time>
      </trkpt>
      <trkpt lat="43.18072" lon="5.67173">
        <ele>19.799999237061</ele>
        <time>2016-05-16T16:37:59.000Z</time>
      </trkpt>
      <trkpt lat="43.18073" lon="5.67174">
        <ele>19.799999237061</ele>
        <time>2016-05-16T16:38:00.000Z</time>
      </trkpt>
      <trkpt lat="43.18075" lon="5.67182">
        <ele>20</ele>
        <time>2016-05-16T16:38:04.000Z</time>
      </trkpt>
      <trkpt lat="43.18074" lon="5.67185">
        <ele>20</ele>
        <time>2016-05-16T16:38:05.000Z</time>
      </trkpt>
      <trkpt lat="43.18071" lon="5.67199">
        <ele>20.200000762939</ele>
        <time>2016-05-16T16:38:08.000Z</time>
      </trkpt>
      <trkpt lat="43.18068" lon="5.67208">
        <ele>20.60000038147</ele>
        <time>2016-05-16T16:38:10.000Z</time>
      </trkpt>
      <trkpt lat="43.18067" lon="5.67212">
        <ele>20.799999237061</ele>
        <time>2016-05-16T16:38:11.000Z</time>
      </trkpt>
      <trkpt lat="43.18061" lon="5.67244">
        <ele>22.39999961853</ele>
        <time>2016-05-16T16:38:18.000Z</time>
      </trkpt>
      <trkpt lat="43.18059" lon="5.67253">
        <ele>22.799999237061</ele>
        <time>2016-05-16T16:38:20.000Z</time>
      </trkpt>
      <trkpt lat="43.18054" lon="5.67281">
        <ele>24</ele>
        <time>2016-05-16T16:38:25.000Z</time>
      </trkpt>
      <trkpt lat="43.18049" lon="5.67317">
        <ele>25</ele>
        <time>2016-05-16T16:38:32.000Z</time>
      </trkpt>
      <trkpt lat="43.18041" lon="5.67368">
        <ele>24.200000762939</ele>
        <time>2016-05-16T16:38:41.000Z</time>
      </trkpt>
      <trkpt lat="43.18032" lon="5.67423">
        <ele>22.60000038147</ele>
        <time>2016-05-16T16:38:50.000Z</time>
      </trkpt>
      <trkpt lat="43.18022" lon="5.67483">
        <ele>18.799999237061</ele>
        <time>2016-05-16T16:38:58.000Z</time>
      </trkpt>
      <trkpt lat="43.18019" lon="5.67505">
        <ele>17.60000038147</ele>
        <time>2016-05-16T16:39:01.000Z</time>
      </trkpt>
      <trkpt lat="43.18014" lon="5.67534">
        <ele>16</ele>
        <time>2016-05-16T16:39:05.000Z</time>
      </trkpt>
      <trkpt lat="43.18011" lon="5.6755">
        <ele>15.199999809265</ele>
        <time>2016-05-16T16:39:07.000Z</time>
      </trkpt>
      <trkpt lat="43.18003" lon="5.67591">
        <ele>15.60000038147</ele>
        <time>2016-05-16T16:39:12.000Z</time>
      </trkpt>
      <trkpt lat="43.17999" lon="5.67615">
        <ele>16</ele>
        <time>2016-05-16T16:39:15.000Z</time>
      </trkpt>
      <trkpt lat="43.17992" lon="5.67649">
        <ele>15</ele>
        <time>2016-05-16T16:39:19.000Z</time>
      </trkpt>
      <trkpt lat="43.1798" lon="5.67725">
        <ele>13.199999809265</ele>
        <time>2016-05-16T16:39:28.000Z</time>
      </trkpt>
      <trkpt lat="43.17978" lon="5.6776">
        <ele>11.199999809265</ele>
        <time>2016-05-16T16:39:32.000Z</time>
      </trkpt>
      <trkpt lat="43.17978" lon="5.67799">
        <ele>10.199999809265</ele>
        <time>2016-05-16T16:39:36.000Z</time>
      </trkpt>
      <trkpt lat="43.17983" lon="5.67828">
        <ele>8.8000001907349</ele>
        <time>2016-05-16T16:39:39.000Z</time>
      </trkpt>
      <trkpt lat="43.17988" lon="5.67846">
        <ele>8</ele>
        <time>2016-05-16T16:39:41.000Z</time>
      </trkpt>
      <trkpt lat="43.17991" lon="5.67855">
        <ele>7.5999999046326</ele>
        <time>2016-05-16T16:39:42.000Z</time>
      </trkpt>
      <trkpt lat="43.17999" lon="5.67873">
        <ele>7</ele>
        <time>2016-05-16T16:39:44.000Z</time>
      </trkpt>
      <trkpt lat="43.18003" lon="5.6788">
        <ele>6.8000001907349</ele>
        <time>2016-05-16T16:39:45.000Z</time>
      </trkpt>
      <trkpt lat="43.18008" lon="5.67888">
        <ele>6.8000001907349</ele>
        <time>2016-05-16T16:39:46.000Z</time>
      </trkpt>
      <trkpt lat="43.18011" lon="5.67897">
        <ele>7</ele>
        <time>2016-05-16T16:39:47.000Z</time>
      </trkpt>
      <trkpt lat="43.18015" lon="5.67916">
        <ele>7.5999999046326</ele>
        <time>2016-05-16T16:39:49.000Z</time>
      </trkpt>
      <trkpt lat="43.18017" lon="5.67933">
        <ele>7.8000001907349</ele>
        <time>2016-05-16T16:39:51.000Z</time>
      </trkpt>
      <trkpt lat="43.18021" lon="5.67956">
        <ele>8.6000003814697</ele>
        <time>2016-05-16T16:39:54.000Z</time>
      </trkpt>
      <trkpt lat="43.18033" lon="5.67982">
        <ele>10.39999961853</ele>
        <time>2016-05-16T16:39:59.000Z</time>
      </trkpt>
      <trkpt lat="43.18044" lon="5.68005">
        <ele>12.199999809265</ele>
        <time>2016-05-16T16:40:05.000Z</time>
      </trkpt>
      <trkpt lat="43.18046" lon="5.68009">
        <ele>12.39999961853</ele>
        <time>2016-05-16T16:40:06.000Z</time>
      </trkpt>
      <trkpt lat="43.18056" lon="5.68033">
        <ele>14</ele>
        <time>2016-05-16T16:40:12.000Z</time>
      </trkpt>
      <trkpt lat="43.18067" lon="5.6806">
        <ele>15.39999961853</ele>
        <time>2016-05-16T16:40:19.000Z</time>
      </trkpt>
      <trkpt lat="43.18071" lon="5.68066">
        <ele>15.60000038147</ele>
        <time>2016-05-16T16:40:21.000Z</time>
      </trkpt>
      <trkpt lat="43.18082" lon="5.68087">
        <ele>16.39999961853</ele>
        <time>2016-05-16T16:40:27.000Z</time>
      </trkpt>
      <trkpt lat="43.18085" lon="5.68095">
        <ele>16.39999961853</ele>
        <time>2016-05-16T16:40:29.000Z</time>
      </trkpt>
      <trkpt lat="43.18094" lon="5.68114">
        <ele>17</ele>
        <time>2016-05-16T16:40:34.000Z</time>
      </trkpt>
      <trkpt lat="43.18096" lon="5.68118">
        <ele>17</ele>
        <time>2016-05-16T16:40:35.000Z</time>
      </trkpt>
      <trkpt lat="43.18105" lon="5.68138">
        <ele>17</ele>
        <time>2016-05-16T16:40:41.000Z</time>
      </trkpt>
      <trkpt lat="43.18115" lon="5.68156">
        <ele>17.39999961853</ele>
        <time>2016-05-16T16:40:47.000Z</time>
      </trkpt>
      <trkpt lat="43.1812" lon="5.68165">
        <ele>17.799999237061</ele>
        <time>2016-05-16T16:40:50.000Z</time>
      </trkpt>
      <trkpt lat="43.18131" lon="5.68189">
        <ele>18.60000038147</ele>
        <time>2016-05-16T16:40:58.000Z</time>
      </trkpt>
      <trkpt lat="43.18135" lon="5.68198">
        <ele>19</ele>
        <time>2016-05-16T16:41:01.000Z</time>
      </trkpt>
      <trkpt lat="43.18141" lon="5.68212">
        <ele>19.39999961853</ele>
        <time>2016-05-16T16:41:06.000Z</time>
      </trkpt>
      <trkpt lat="43.1815" lon="5.68232">
        <ele>19.200000762939</ele>
        <time>2016-05-16T16:41:13.000Z</time>
      </trkpt>
      <trkpt lat="43.18163" lon="5.68256">
        <ele>18.799999237061</ele>
        <time>2016-05-16T16:41:21.000Z</time>
      </trkpt>
      <trkpt lat="43.18178" lon="5.68286">
        <ele>18</ele>
        <time>2016-05-16T16:41:30.000Z</time>
      </trkpt>
      <trkpt lat="43.18191" lon="5.68319">
        <ele>17.200000762939</ele>
        <time>2016-05-16T16:41:38.000Z</time>
      </trkpt>
      <trkpt lat="43.18203" lon="5.68347">
        <ele>17</ele>
        <time>2016-05-16T16:41:45.000Z</time>
      </trkpt>
      <trkpt lat="43.1822" lon="5.6838">
        <ele>16.799999237061</ele>
        <time>2016-05-16T16:41:54.000Z</time>
      </trkpt>
      <trkpt lat="43.1823" lon="5.684">
        <ele>16.200000762939</ele>
        <time>2016-05-16T16:41:59.000Z</time>
      </trkpt>
      <trkpt lat="43.18245" lon="5.68431">
        <ele>15.39999961853</ele>
        <time>2016-05-16T16:42:05.000Z</time>
      </trkpt>
      <trkpt lat="43.18254" lon="5.68449">
        <ele>14.800000190735</ele>
        <time>2016-05-16T16:42:08.000Z</time>
      </trkpt>
      <trkpt lat="43.18267" lon="5.68475">
        <ele>14.39999961853</ele>
        <time>2016-05-16T16:42:12.000Z</time>
      </trkpt>
      <trkpt lat="43.18288" lon="5.6852">
        <ele>15.60000038147</ele>
        <time>2016-05-16T16:42:19.000Z</time>
      </trkpt>
      <trkpt lat="43.18292" lon="5.68535">
        <ele>15.800000190735</ele>
        <time>2016-05-16T16:42:21.000Z</time>
      </trkpt>
      <trkpt lat="43.18295" lon="5.68541">
        <ele>16</ele>
        <time>2016-05-16T16:42:22.000Z</time>
      </trkpt>
      <trkpt lat="43.18305" lon="5.68555">
        <ele>16.60000038147</ele>
        <time>2016-05-16T16:42:25.000Z</time>
      </trkpt>
      <trkpt lat="43.18309" lon="5.6856">
        <ele>16.60000038147</ele>
        <time>2016-05-16T16:42:26.000Z</time>
      </trkpt>
      <trkpt lat="43.18312" lon="5.68567">
        <ele>16.60000038147</ele>
        <time>2016-05-16T16:42:27.000Z</time>
      </trkpt>
      <trkpt lat="43.1832" lon="5.68588">
        <ele>16.200000762939</ele>
        <time>2016-05-16T16:42:30.000Z</time>
      </trkpt>
      <trkpt lat="43.18337" lon="5.68647">
        <ele>16</ele>
        <time>2016-05-16T16:42:38.000Z</time>
      </trkpt>
      <trkpt lat="43.18344" lon="5.68689">
        <ele>16.60000038147</ele>
        <time>2016-05-16T16:42:43.000Z</time>
      </trkpt>
      <trkpt lat="43.18345" lon="5.68696">
        <ele>16.799999237061</ele>
        <time>2016-05-16T16:42:44.000Z</time>
      </trkpt>
      <trkpt lat="43.18346" lon="5.68724">
        <ele>17.200000762939</ele>
        <time>2016-05-16T16:42:47.000Z</time>
      </trkpt>
      <trkpt lat="43.18341" lon="5.6877">
        <ele>19</ele>
        <time>2016-05-16T16:42:53.000Z</time>
      </trkpt>
      <trkpt lat="43.18337" lon="5.68816">
        <ele>19.60000038147</ele>
        <time>2016-05-16T16:42:59.000Z</time>
      </trkpt>
      <trkpt lat="43.18333" lon="5.68876">
        <ele>16.799999237061</ele>
        <time>2016-05-16T16:43:07.000Z</time>
      </trkpt>
      <trkpt lat="43.1833" lon="5.68926">
        <ele>16.39999961853</ele>
        <time>2016-05-16T16:43:14.000Z</time>
      </trkpt>
      <trkpt lat="43.18329" lon="5.68953">
        <ele>16.39999961853</ele>
        <time>2016-05-16T16:43:18.000Z</time>
      </trkpt>
      <trkpt lat="43.18328" lon="5.68961">
        <ele>16</ele>
        <time>2016-05-16T16:43:19.000Z</time>
      </trkpt>
      <trkpt lat="43.18326" lon="5.68988">
        <ele>14.800000190735</ele>
        <time>2016-05-16T16:43:23.000Z</time>
      </trkpt>
      <trkpt lat="43.18326" lon="5.69023">
        <ele>14</ele>
        <time>2016-05-16T16:43:28.000Z</time>
      </trkpt>
      <trkpt lat="43.18323" lon="5.69062">
        <ele>13.800000190735</ele>
        <time>2016-05-16T16:43:34.000Z</time>
      </trkpt>
      <trkpt lat="43.18319" lon="5.69103">
        <ele>14.199999809265</ele>
        <time>2016-05-16T16:43:41.000Z</time>
      </trkpt>
      <trkpt lat="43.18319" lon="5.69109">
        <ele>14.39999961853</ele>
        <time>2016-05-16T16:43:42.000Z</time>
      </trkpt>
      <trkpt lat="43.18319" lon="5.69147">
        <ele>14.800000190735</ele>
        <time>2016-05-16T16:43:48.000Z</time>
      </trkpt>
      <trkpt lat="43.18317" lon="5.69191">
        <ele>15.39999961853</ele>
        <time>2016-05-16T16:43:55.000Z</time>
      </trkpt>
      <trkpt lat="43.18315" lon="5.69227">
        <ele>16.200000762939</ele>
        <time>2016-05-16T16:44:02.000Z</time>
      </trkpt>
      <trkpt lat="43.1831" lon="5.69266">
        <ele>17.200000762939</ele>
        <time>2016-05-16T16:44:08.000Z</time>
      </trkpt>
      <trkpt lat="43.18304" lon="5.69303">
        <ele>17</ele>
        <time>2016-05-16T16:44:13.000Z</time>
      </trkpt>
      <trkpt lat="43.18295" lon="5.69358">
        <ele>17</ele>
        <time>2016-05-16T16:44:21.000Z</time>
      </trkpt>
      <trkpt lat="43.18283" lon="5.69393">
        <ele>17.200000762939</ele>
        <time>2016-05-16T16:44:27.000Z</time>
      </trkpt>
      <trkpt lat="43.18276" lon="5.69412">
        <ele>16.799999237061</ele>
        <time>2016-05-16T16:44:30.000Z</time>
      </trkpt>
      <trkpt lat="43.18252" lon="5.69467">
        <ele>16.799999237061</ele>
        <time>2016-05-16T16:44:39.000Z</time>
      </trkpt>
      <trkpt lat="43.18232" lon="5.69504">
        <ele>16.60000038147</ele>
        <time>2016-05-16T16:44:45.000Z</time>
      </trkpt>
      <trkpt lat="43.18217" lon="5.69526">
        <ele>16</ele>
        <time>2016-05-16T16:44:49.000Z</time>
      </trkpt>
      <trkpt lat="43.18193" lon="5.69559">
        <ele>14.39999961853</ele>
        <time>2016-05-16T16:44:55.000Z</time>
      </trkpt>
      <trkpt lat="43.18176" lon="5.69581">
        <ele>14</ele>
        <time>2016-05-16T16:44:59.000Z</time>
      </trkpt>
      <trkpt lat="43.18153" lon="5.69606">
        <ele>13.39999961853</ele>
        <time>2016-05-16T16:45:04.000Z</time>
      </trkpt>
      <trkpt lat="43.18141" lon="5.69618">
        <ele>12.800000190735</ele>
        <time>2016-05-16T16:45:07.000Z</time>
      </trkpt>
      <trkpt lat="43.1813" lon="5.69628">
        <ele>12.39999961853</ele>
        <time>2016-05-16T16:45:10.000Z</time>
      </trkpt>
      <trkpt lat="43.18113" lon="5.69638">
        <ele>11.60000038147</ele>
        <time>2016-05-16T16:45:14.000Z</time>
      </trkpt>
      <trkpt lat="43.18107" lon="5.69638">
        <ele>11.39999961853</ele>
        <time>2016-05-16T16:45:15.000Z</time>
      </trkpt>
      <trkpt lat="43.18096" lon="5.6964">
        <ele>11</ele>
        <time>2016-05-16T16:45:17.000Z</time>
      </trkpt>
      <trkpt lat="43.18086" lon="5.69646">
        <ele>10.39999961853</ele>
        <time>2016-05-16T16:45:19.000Z</time>
      </trkpt>
      <trkpt lat="43.18075" lon="5.69668">
        <ele>9.3999996185303</ele>
        <time>2016-05-16T16:45:22.000Z</time>
      </trkpt>
      <trkpt lat="43.18076" lon="5.69693">
        <ele>8.6000003814697</ele>
        <time>2016-05-16T16:45:25.000Z</time>
      </trkpt>
      <trkpt lat="43.18087" lon="5.69709">
        <ele>8.1999998092651</ele>
        <time>2016-05-16T16:45:28.000Z</time>
      </trkpt>
      <trkpt lat="43.18104" lon="5.69715">
        <ele>8.6000003814697</ele>
        <time>2016-05-16T16:45:31.000Z</time>
      </trkpt>
      <trkpt lat="43.18129" lon="5.69718">
        <ele>9.6000003814697</ele>
        <time>2016-05-16T16:45:36.000Z</time>
      </trkpt>
      <trkpt lat="43.18138" lon="5.69734">
        <ele>10</ele>
        <time>2016-05-16T16:45:39.000Z</time>
      </trkpt>
      <trkpt lat="43.18141" lon="5.69739">
        <ele>10.199999809265</ele>
        <time>2016-05-16T16:45:40.000Z</time>
      </trkpt>
      <trkpt lat="43.18156" lon="5.69765">
        <ele>11</ele>
        <time>2016-05-16T16:45:45.000Z</time>
      </trkpt>
      <trkpt lat="43.1818" lon="5.69799">
        <ele>12</ele>
        <time>2016-05-16T16:45:52.000Z</time>
      </trkpt>
      <trkpt lat="43.18183" lon="5.69803">
        <ele>12.199999809265</ele>
        <time>2016-05-16T16:45:53.000Z</time>
      </trkpt>
      <trkpt lat="43.18187" lon="5.69807">
        <ele>12.199999809265</ele>
        <time>2016-05-16T16:45:54.000Z</time>
      </trkpt>
      <trkpt lat="43.182" lon="5.69826">
        <ele>12.60000038147</ele>
        <time>2016-05-16T16:45:58.000Z</time>
      </trkpt>
      <trkpt lat="43.18214" lon="5.69843">
        <ele>12.800000190735</ele>
        <time>2016-05-16T16:46:02.000Z</time>
      </trkpt>
      <trkpt lat="43.18225" lon="5.69854">
        <ele>13</ele>
        <time>2016-05-16T16:46:05.000Z</time>
      </trkpt>
      <trkpt lat="43.18238" lon="5.69869">
        <ele>13.39999961853</ele>
        <time>2016-05-16T16:46:09.000Z</time>
      </trkpt>
      <trkpt lat="43.18246" lon="5.69877">
        <ele>13.60000038147</ele>
        <time>2016-05-16T16:46:11.000Z</time>
      </trkpt>
      <trkpt lat="43.18256" lon="5.69888">
        <ele>13.800000190735</ele>
        <time>2016-05-16T16:46:14.000Z</time>
      </trkpt>
      <trkpt lat="43.18267" lon="5.699">
        <ele>14.199999809265</ele>
        <time>2016-05-16T16:46:17.000Z</time>
      </trkpt>
      <trkpt lat="43.18282" lon="5.69914">
        <ele>14.800000190735</ele>
        <time>2016-05-16T16:46:21.000Z</time>
      </trkpt>
      <trkpt lat="43.18292" lon="5.69924">
        <ele>15.39999961853</ele>
        <time>2016-05-16T16:46:24.000Z</time>
      </trkpt>
      <trkpt lat="43.18306" lon="5.69941">
        <ele>16</ele>
        <time>2016-05-16T16:46:28.000Z</time>
      </trkpt>
      <trkpt lat="43.18309" lon="5.69946">
        <ele>16.200000762939</ele>
        <time>2016-05-16T16:46:29.000Z</time>
      </trkpt>
      <trkpt lat="43.18311" lon="5.69951">
        <ele>16.200000762939</ele>
        <time>2016-05-16T16:46:30.000Z</time>
      </trkpt>
      <trkpt lat="43.18332" lon="5.69997">
        <ele>16.799999237061</ele>
        <time>2016-05-16T16:46:38.000Z</time>
      </trkpt>
      <trkpt lat="43.18353" lon="5.70035">
        <ele>17.60000038147</ele>
        <time>2016-05-16T16:46:45.000Z</time>
      </trkpt>
      <trkpt lat="43.18368" lon="5.70054">
        <ele>18.39999961853</ele>
        <time>2016-05-16T16:46:50.000Z</time>
      </trkpt>
      <trkpt lat="43.18371" lon="5.70058">
        <ele>18.60000038147</ele>
        <time>2016-05-16T16:46:51.000Z</time>
      </trkpt>
      <trkpt lat="43.18393" lon="5.70092">
        <ele>19.799999237061</ele>
        <time>2016-05-16T16:46:58.000Z</time>
      </trkpt>
      <trkpt lat="43.18404" lon="5.7011">
        <ele>20.60000038147</ele>
        <time>2016-05-16T16:47:02.000Z</time>
      </trkpt>
      <trkpt lat="43.18413" lon="5.7013">
        <ele>21</ele>
        <time>2016-05-16T16:47:06.000Z</time>
      </trkpt>
      <trkpt lat="43.18426" lon="5.70161">
        <ele>22.200000762939</ele>
        <time>2016-05-16T16:47:12.000Z</time>
      </trkpt>
      <trkpt lat="43.18428" lon="5.70166">
        <ele>22.39999961853</ele>
        <time>2016-05-16T16:47:13.000Z</time>
      </trkpt>
      <trkpt lat="43.18443" lon="5.70205">
        <ele>23</ele>
        <time>2016-05-16T16:47:20.000Z</time>
      </trkpt>
      <trkpt lat="43.18451" lon="5.70222">
        <ele>23.39999961853</ele>
        <time>2016-05-16T16:47:24.000Z</time>
      </trkpt>
      <trkpt lat="43.18454" lon="5.70226">
        <ele>23.39999961853</ele>
        <time>2016-05-16T16:47:25.000Z</time>
      </trkpt>
      <trkpt lat="43.18467" lon="5.70252">
        <ele>23.799999237061</ele>
        <time>2016-05-16T16:47:31.000Z</time>
      </trkpt>
      <trkpt lat="43.18469" lon="5.70256">
        <ele>24</ele>
        <time>2016-05-16T16:47:32.000Z</time>
      </trkpt>
      <trkpt lat="43.18485" lon="5.70286">
        <ele>24.200000762939</ele>
        <time>2016-05-16T16:47:39.000Z</time>
      </trkpt>
      <trkpt lat="43.18498" lon="5.70307">
        <ele>24.39999961853</ele>
        <time>2016-05-16T16:47:44.000Z</time>
      </trkpt>
      <trkpt lat="43.18501" lon="5.70311">
        <ele>24.39999961853</ele>
        <time>2016-05-16T16:47:45.000Z</time>
      </trkpt>
      <trkpt lat="43.18522" lon="5.70341">
        <ele>24.60000038147</ele>
        <time>2016-05-16T16:47:52.000Z</time>
      </trkpt>
      <trkpt lat="43.18527" lon="5.70358">
        <ele>24.39999961853</ele>
        <time>2016-05-16T16:47:56.000Z</time>
      </trkpt>
      <trkpt lat="43.18528" lon="5.70362">
        <ele>24.39999961853</ele>
        <time>2016-05-16T16:47:57.000Z</time>
      </trkpt>
      <trkpt lat="43.18524" lon="5.70379">
        <ele>23.799999237061</ele>
        <time>2016-05-16T16:48:00.000Z</time>
      </trkpt>
      <trkpt lat="43.1851" lon="5.70417">
        <ele>22.60000038147</ele>
        <time>2016-05-16T16:48:06.000Z</time>
      </trkpt>
      <trkpt lat="43.18508" lon="5.70432">
        <ele>22.200000762939</ele>
        <time>2016-05-16T16:48:08.000Z</time>
      </trkpt>
      <trkpt lat="43.18511" lon="5.70442">
        <ele>22.39999961853</ele>
        <time>2016-05-16T16:48:09.000Z</time>
      </trkpt>
      <trkpt lat="43.18523" lon="5.70479">
        <ele>22.39999961853</ele>
        <time>2016-05-16T16:48:13.000Z</time>
      </trkpt>
      <trkpt lat="43.18527" lon="5.70486">
        <ele>22.799999237061</ele>
        <time>2016-05-16T16:48:14.000Z</time>
      </trkpt>
      <trkpt lat="43.18538" lon="5.70499">
        <ele>23.39999961853</ele>
        <time>2016-05-16T16:48:17.000Z</time>
      </trkpt>
      <trkpt lat="43.18547" lon="5.70531">
        <ele>24.39999961853</ele>
        <time>2016-05-16T16:48:22.000Z</time>
      </trkpt>
      <trkpt lat="43.18553" lon="5.70544">
        <ele>24.799999237061</ele>
        <time>2016-05-16T16:48:24.000Z</time>
      </trkpt>
      <trkpt lat="43.18564" lon="5.70566">
        <ele>25.39999961853</ele>
        <time>2016-05-16T16:48:28.000Z</time>
      </trkpt>
      <trkpt lat="43.1857" lon="5.70575">
        <ele>25.60000038147</ele>
        <time>2016-05-16T16:48:30.000Z</time>
      </trkpt>
      <trkpt lat="43.18579" lon="5.70591">
        <ele>26</ele>
        <time>2016-05-16T16:48:33.000Z</time>
      </trkpt>
      <trkpt lat="43.18591" lon="5.70606">
        <ele>26.60000038147</ele>
        <time>2016-05-16T16:48:37.000Z</time>
      </trkpt>
      <trkpt lat="43.18596" lon="5.70612">
        <ele>26.799999237061</ele>
        <time>2016-05-16T16:48:39.000Z</time>
      </trkpt>
      <trkpt lat="43.18599" lon="5.70615">
        <ele>26.799999237061</ele>
        <time>2016-05-16T16:48:40.000Z</time>
      </trkpt>
      <trkpt lat="43.18615" lon="5.70625">
        <ele>27.39999961853</ele>
        <time>2016-05-16T16:48:45.000Z</time>
      </trkpt>
      <trkpt lat="43.18631" lon="5.70634">
        <ele>27.799999237061</ele>
        <time>2016-05-16T16:48:49.000Z</time>
      </trkpt>
      <trkpt lat="43.18639" lon="5.70639">
        <ele>28.200000762939</ele>
        <time>2016-05-16T16:48:51.000Z</time>
      </trkpt>
      <trkpt lat="43.18645" lon="5.70646">
        <ele>28.39999961853</ele>
        <time>2016-05-16T16:48:53.000Z</time>
      </trkpt>
      <trkpt lat="43.18658" lon="5.70655">
        <ele>29</ele>
        <time>2016-05-16T16:48:56.000Z</time>
      </trkpt>
      <trkpt lat="43.18661" lon="5.70658">
        <ele>29.200000762939</ele>
        <time>2016-05-16T16:48:57.000Z</time>
      </trkpt>
      <trkpt lat="43.18687" lon="5.70677">
        <ele>30</ele>
        <time>2016-05-16T16:49:04.000Z</time>
      </trkpt>
      <trkpt lat="43.1869" lon="5.70681">
        <ele>30.200000762939</ele>
        <time>2016-05-16T16:49:05.000Z</time>
      </trkpt>
      <trkpt lat="43.18698" lon="5.70695">
        <ele>30.60000038147</ele>
        <time>2016-05-16T16:49:08.000Z</time>
      </trkpt>
      <trkpt lat="43.18699" lon="5.70702">
        <ele>30.799999237061</ele>
        <time>2016-05-16T16:49:09.000Z</time>
      </trkpt>
      <trkpt lat="43.18699" lon="5.7071">
        <ele>31</ele>
        <time>2016-05-16T16:49:10.000Z</time>
      </trkpt>
      <trkpt lat="43.18695" lon="5.7073">
        <ele>31.200000762939</ele>
        <time>2016-05-16T16:49:13.000Z</time>
      </trkpt>
      <trkpt lat="43.18693" lon="5.70735">
        <ele>31.200000762939</ele>
        <time>2016-05-16T16:49:14.000Z</time>
      </trkpt>
      <trkpt lat="43.18676" lon="5.70769">
        <ele>30.39999961853</ele>
        <time>2016-05-16T16:49:21.000Z</time>
      </trkpt>
      <trkpt lat="43.18659" lon="5.70804">
        <ele>29.60000038147</ele>
        <time>2016-05-16T16:49:28.000Z</time>
      </trkpt>
      <trkpt lat="43.18656" lon="5.70809">
        <ele>29.39999961853</ele>
        <time>2016-05-16T16:49:29.000Z</time>
      </trkpt>
      <trkpt lat="43.18654" lon="5.70815">
        <ele>29.39999961853</ele>
        <time>2016-05-16T16:49:30.000Z</time>
      </trkpt>
      <trkpt lat="43.18644" lon="5.70837">
        <ele>29.200000762939</ele>
        <time>2016-05-16T16:49:34.000Z</time>
      </trkpt>
      <trkpt lat="43.18641" lon="5.70841">
        <ele>29.200000762939</ele>
        <time>2016-05-16T16:49:35.000Z</time>
      </trkpt>
      <trkpt lat="43.18631" lon="5.70865">
        <ele>29.200000762939</ele>
        <time>2016-05-16T16:49:39.000Z</time>
      </trkpt>
      <trkpt lat="43.18621" lon="5.7089">
        <ele>29.39999961853</ele>
        <time>2016-05-16T16:49:43.000Z</time>
      </trkpt>
      <trkpt lat="43.18613" lon="5.70909">
        <ele>29.200000762939</ele>
        <time>2016-05-16T16:49:46.000Z</time>
      </trkpt>
      <trkpt lat="43.18588" lon="5.70959">
        <ele>28.799999237061</ele>
        <time>2016-05-16T16:49:55.000Z</time>
      </trkpt>
      <trkpt lat="43.18585" lon="5.70965">
        <ele>28.60000038147</ele>
        <time>2016-05-16T16:49:56.000Z</time>
      </trkpt>
      <trkpt lat="43.18564" lon="5.71011">
        <ele>28</ele>
        <time>2016-05-16T16:50:04.000Z</time>
      </trkpt>
      <trkpt lat="43.18554" lon="5.71023">
        <ele>27.60000038147</ele>
        <time>2016-05-16T16:50:07.000Z</time>
      </trkpt>
      <trkpt lat="43.18549" lon="5.71025">
        <ele>27.39999961853</ele>
        <time>2016-05-16T16:50:08.000Z</time>
      </trkpt>
      <trkpt lat="43.18537" lon="5.71045">
        <ele>27</ele>
        <time>2016-05-16T16:50:12.000Z</time>
      </trkpt>
      <trkpt lat="43.18525" lon="5.71066">
        <ele>26.799999237061</ele>
        <time>2016-05-16T16:50:16.000Z</time>
      </trkpt>
      <trkpt lat="43.18521" lon="5.7107">
        <ele>26.799999237061</ele>
        <time>2016-05-16T16:50:17.000Z</time>
      </trkpt>
      <trkpt lat="43.18518" lon="5.71075">
        <ele>26.799999237061</ele>
        <time>2016-05-16T16:50:18.000Z</time>
      </trkpt>
      <trkpt lat="43.18494" lon="5.71099">
        <ele>26.60000038147</ele>
        <time>2016-05-16T16:50:24.000Z</time>
      </trkpt>
      <trkpt lat="43.18482" lon="5.71109">
        <ele>26.60000038147</ele>
        <time>2016-05-16T16:50:27.000Z</time>
      </trkpt>
      <trkpt lat="43.18472" lon="5.71119">
        <ele>26.60000038147</ele>
        <time>2016-05-16T16:50:30.000Z</time>
      </trkpt>
      <trkpt lat="43.18468" lon="5.71123">
        <ele>26.60000038147</ele>
        <time>2016-05-16T16:50:31.000Z</time>
      </trkpt>
      <trkpt lat="43.18443" lon="5.71145">
        <ele>26.60000038147</ele>
        <time>2016-05-16T16:50:37.000Z</time>
      </trkpt>
      <trkpt lat="43.18434" lon="5.71154">
        <ele>26.60000038147</ele>
        <time>2016-05-16T16:50:39.000Z</time>
      </trkpt>
      <trkpt lat="43.18418" lon="5.71167">
        <ele>26.39999961853</ele>
        <time>2016-05-16T16:50:42.000Z</time>
      </trkpt>
      <trkpt lat="43.18392" lon="5.71189">
        <ele>26</ele>
        <time>2016-05-16T16:50:48.000Z</time>
      </trkpt>
      <trkpt lat="43.18388" lon="5.71193">
        <ele>25.799999237061</ele>
        <time>2016-05-16T16:50:49.000Z</time>
      </trkpt>
      <trkpt lat="43.18371" lon="5.71206">
        <ele>25.60000038147</ele>
        <time>2016-05-16T16:50:53.000Z</time>
      </trkpt>
      <trkpt lat="43.18363" lon="5.71213">
        <ele>25.39999961853</ele>
        <time>2016-05-16T16:50:55.000Z</time>
      </trkpt>
      <trkpt lat="43.1834" lon="5.71229">
        <ele>25</ele>
        <time>2016-05-16T16:51:01.000Z</time>
      </trkpt>
      <trkpt lat="43.18317" lon="5.71249">
        <ele>24.60000038147</ele>
        <time>2016-05-16T16:51:07.000Z</time>
      </trkpt>
      <trkpt lat="43.18295" lon="5.71268">
        <ele>24.60000038147</ele>
        <time>2016-05-16T16:51:13.000Z</time>
      </trkpt>
      <trkpt lat="43.18281" lon="5.71267">
        <ele>24.39999961853</ele>
        <time>2016-05-16T16:51:17.000Z</time>
      </trkpt>
      <trkpt lat="43.18279" lon="5.71269">
        <ele>24.39999961853</ele>
        <time>2016-05-16T16:51:18.000Z</time>
      </trkpt>
      <trkpt lat="43.18277" lon="5.71272">
        <ele>24.39999961853</ele>
        <time>2016-05-16T16:51:20.000Z</time>
      </trkpt>
      <trkpt lat="43.1828" lon="5.71273">
        <ele>24.39999961853</ele>
        <time>2016-05-16T16:51:23.000Z</time>
      </trkpt>
      <trkpt lat="43.18281" lon="5.71274">
        <ele>24.60000038147</ele>
        <time>2016-05-16T16:51:24.000Z</time>
      </trkpt>
      <trkpt lat="43.18286" lon="5.71277">
        <ele>24.60000038147</ele>
        <time>2016-05-16T16:51:27.000Z</time>
      </trkpt>
      <trkpt lat="43.18295" lon="5.71286">
        <ele>25</ele>
        <time>2016-05-16T16:51:30.000Z</time>
      </trkpt>
      <trkpt lat="43.18316" lon="5.71306">
        <ele>25.60000038147</ele>
        <time>2016-05-16T16:51:36.000Z</time>
      </trkpt>
      <trkpt lat="43.18339" lon="5.71324">
        <ele>26</ele>
        <time>2016-05-16T16:51:43.000Z</time>
      </trkpt>
      <trkpt lat="43.18359" lon="5.7134">
        <ele>26.39999961853</ele>
        <time>2016-05-16T16:51:48.000Z</time>
      </trkpt>
      <trkpt lat="43.18379" lon="5.71367">
        <ele>27.200000762939</ele>
        <time>2016-05-16T16:51:53.000Z</time>
      </trkpt>
      <trkpt lat="43.18383" lon="5.71371">
        <ele>27.39999961853</ele>
        <time>2016-05-16T16:51:54.000Z</time>
      </trkpt>
      <trkpt lat="43.184" lon="5.71392">
        <ele>28</ele>
        <time>2016-05-16T16:51:59.000Z</time>
      </trkpt>
      <trkpt lat="43.18409" lon="5.71403">
        <ele>28.60000038147</ele>
        <time>2016-05-16T16:52:02.000Z</time>
      </trkpt>
      <trkpt lat="43.18417" lon="5.71429">
        <ele>29.200000762939</ele>
        <time>2016-05-16T16:52:07.000Z</time>
      </trkpt>
      <trkpt lat="43.18428" lon="5.71451">
        <ele>29.799999237061</ele>
        <time>2016-05-16T16:52:12.000Z</time>
      </trkpt>
      <trkpt lat="43.18439" lon="5.71464">
        <ele>30.39999961853</ele>
        <time>2016-05-16T16:52:17.000Z</time>
      </trkpt>
      <trkpt lat="43.18442" lon="5.71466">
        <ele>30.60000038147</ele>
        <time>2016-05-16T16:52:18.000Z</time>
      </trkpt>
      <trkpt lat="43.18449" lon="5.71469">
        <ele>31</ele>
        <time>2016-05-16T16:52:21.000Z</time>
      </trkpt>
      <trkpt lat="43.18454" lon="5.71465">
        <ele>31.200000762939</ele>
        <time>2016-05-16T16:52:23.000Z</time>
      </trkpt>
      <trkpt lat="43.18468" lon="5.71465">
        <ele>31.799999237061</ele>
        <time>2016-05-16T16:52:27.000Z</time>
      </trkpt>
      <trkpt lat="43.1848" lon="5.71477">
        <ele>32.400001525879</ele>
        <time>2016-05-16T16:52:31.000Z</time>
      </trkpt>
      <trkpt lat="43.1849" lon="5.71489">
        <ele>33</ele>
        <time>2016-05-16T16:52:34.000Z</time>
      </trkpt>
      <trkpt lat="43.18498" lon="5.71501">
        <ele>33.400001525879</ele>
        <time>2016-05-16T16:52:37.000Z</time>
      </trkpt>
      <trkpt lat="43.18515" lon="5.71517">
        <ele>34</ele>
        <time>2016-05-16T16:52:42.000Z</time>
      </trkpt>
      <trkpt lat="43.18518" lon="5.7152">
        <ele>34</ele>
        <time>2016-05-16T16:52:43.000Z</time>
      </trkpt>
      <trkpt lat="43.18522" lon="5.71523">
        <ele>33.799999237061</ele>
        <time>2016-05-16T16:52:44.000Z</time>
      </trkpt>
      <trkpt lat="43.1854" lon="5.71534">
        <ele>33.599998474121</ele>
        <time>2016-05-16T16:52:49.000Z</time>
      </trkpt>
      <trkpt lat="43.18544" lon="5.71535">
        <ele>33.599998474121</ele>
        <time>2016-05-16T16:52:50.000Z</time>
      </trkpt>
      <trkpt lat="43.18562" lon="5.71546">
        <ele>33.400001525879</ele>
        <time>2016-05-16T16:52:55.000Z</time>
      </trkpt>
      <trkpt lat="43.18583" lon="5.7157">
        <ele>33.599998474121</ele>
        <time>2016-05-16T16:53:01.000Z</time>
      </trkpt>
      <trkpt lat="43.18606" lon="5.71593">
        <ele>34</ele>
        <time>2016-05-16T16:53:09.000Z</time>
      </trkpt>
      <trkpt lat="43.18628" lon="5.71616">
        <ele>34.400001525879</ele>
        <time>2016-05-16T16:53:17.000Z</time>
      </trkpt>
      <trkpt lat="43.18631" lon="5.71619">
        <ele>34.599998474121</ele>
        <time>2016-05-16T16:53:18.000Z</time>
      </trkpt>
      <trkpt lat="43.18644" lon="5.71627">
        <ele>34.799999237061</ele>
        <time>2016-05-16T16:53:22.000Z</time>
      </trkpt>
      <trkpt lat="43.18658" lon="5.71637">
        <ele>35</ele>
        <time>2016-05-16T16:53:27.000Z</time>
      </trkpt>
      <trkpt lat="43.18669" lon="5.71647">
        <ele>35.200000762939</ele>
        <time>2016-05-16T16:53:32.000Z</time>
      </trkpt>
      <trkpt lat="43.18679" lon="5.71656">
        <ele>35.400001525879</ele>
        <time>2016-05-16T16:53:35.000Z</time>
      </trkpt>
      <trkpt lat="43.18699" lon="5.71677">
        <ele>36</ele>
        <time>2016-05-16T16:53:42.000Z</time>
      </trkpt>
      <trkpt lat="43.18705" lon="5.71681">
        <ele>36</ele>
        <time>2016-05-16T16:53:44.000Z</time>
      </trkpt>
      <trkpt lat="43.1872" lon="5.71694">
        <ele>36.400001525879</ele>
        <time>2016-05-16T16:53:49.000Z</time>
      </trkpt>
      <trkpt lat="43.18739" lon="5.71718">
        <ele>37</ele>
        <time>2016-05-16T16:53:57.000Z</time>
      </trkpt>
      <trkpt lat="43.18753" lon="5.71746">
        <ele>36.599998474121</ele>
        <time>2016-05-16T16:54:05.000Z</time>
      </trkpt>
      <trkpt lat="43.1876" lon="5.7176">
        <ele>36.599998474121</ele>
        <time>2016-05-16T16:54:09.000Z</time>
      </trkpt>
      <trkpt lat="43.18779" lon="5.7179">
        <ele>37</ele>
        <time>2016-05-16T16:54:18.000Z</time>
      </trkpt>
      <trkpt lat="43.1879" lon="5.71806">
        <ele>37.400001525879</ele>
        <time>2016-05-16T16:54:22.000Z</time>
      </trkpt>
      <trkpt lat="43.18794" lon="5.71814">
        <ele>37.599998474121</ele>
        <time>2016-05-16T16:54:24.000Z</time>
      </trkpt>
      <trkpt lat="43.18809" lon="5.7184">
        <ele>38.799999237061</ele>
        <time>2016-05-16T16:54:31.000Z</time>
      </trkpt>
      <trkpt lat="43.18819" lon="5.71854">
        <ele>39.400001525879</ele>
        <time>2016-05-16T16:54:35.000Z</time>
      </trkpt>
      <trkpt lat="43.18828" lon="5.71867">
        <ele>40</ele>
        <time>2016-05-16T16:54:39.000Z</time>
      </trkpt>
      <trkpt lat="43.18838" lon="5.71881">
        <ele>40.599998474121</ele>
        <time>2016-05-16T16:54:43.000Z</time>
      </trkpt>
      <trkpt lat="43.18845" lon="5.71892">
        <ele>41.200000762939</ele>
        <time>2016-05-16T16:54:46.000Z</time>
      </trkpt>
      <trkpt lat="43.18863" lon="5.71913">
        <ele>41.599998474121</ele>
        <time>2016-05-16T16:54:52.000Z</time>
      </trkpt>
      <trkpt lat="43.18873" lon="5.71924">
        <ele>41.799999237061</ele>
        <time>2016-05-16T16:54:55.000Z</time>
      </trkpt>
      <trkpt lat="43.1888" lon="5.7193">
        <ele>42</ele>
        <time>2016-05-16T16:54:57.000Z</time>
      </trkpt>
      <trkpt lat="43.18887" lon="5.71937">
        <ele>42.200000762939</ele>
        <time>2016-05-16T16:54:59.000Z</time>
      </trkpt>
      <trkpt lat="43.18894" lon="5.71943">
        <ele>42.400001525879</ele>
        <time>2016-05-16T16:55:01.000Z</time>
      </trkpt>
      <trkpt lat="43.18898" lon="5.71947">
        <ele>42.400001525879</ele>
        <time>2016-05-16T16:55:02.000Z</time>
      </trkpt>
      <trkpt lat="43.18908" lon="5.71957">
        <ele>42.599998474121</ele>
        <time>2016-05-16T16:55:05.000Z</time>
      </trkpt>
      <trkpt lat="43.18915" lon="5.71964">
        <ele>42.799999237061</ele>
        <time>2016-05-16T16:55:07.000Z</time>
      </trkpt>
      <trkpt lat="43.1893" lon="5.71976">
        <ele>43</ele>
        <time>2016-05-16T16:55:11.000Z</time>
      </trkpt>
      <trkpt lat="43.18934" lon="5.7198">
        <ele>43</ele>
        <time>2016-05-16T16:55:12.000Z</time>
      </trkpt>
      <trkpt lat="43.18938" lon="5.71982">
        <ele>43.200000762939</ele>
        <time>2016-05-16T16:55:13.000Z</time>
      </trkpt>
      <trkpt lat="43.18943" lon="5.71985">
        <ele>43.200000762939</ele>
        <time>2016-05-16T16:55:14.000Z</time>
      </trkpt>
      <trkpt lat="43.18948" lon="5.71987">
        <ele>43.200000762939</ele>
        <time>2016-05-16T16:55:15.000Z</time>
      </trkpt>
      <trkpt lat="43.18952" lon="5.71991">
        <ele>43.200000762939</ele>
        <time>2016-05-16T16:55:16.000Z</time>
      </trkpt>
      <trkpt lat="43.18964" lon="5.72002">
        <ele>43.400001525879</ele>
        <time>2016-05-16T16:55:19.000Z</time>
      </trkpt>
      <trkpt lat="43.18968" lon="5.72005">
        <ele>43.400001525879</ele>
        <time>2016-05-16T16:55:20.000Z</time>
      </trkpt>
      <trkpt lat="43.18978" lon="5.7201">
        <ele>43.599998474121</ele>
        <time>2016-05-16T16:55:22.000Z</time>
      </trkpt>
      <trkpt lat="43.18987" lon="5.72015">
        <ele>43.799999237061</ele>
        <time>2016-05-16T16:55:24.000Z</time>
      </trkpt>
      <trkpt lat="43.18996" lon="5.72021">
        <ele>43.799999237061</ele>
        <time>2016-05-16T16:55:26.000Z</time>
      </trkpt>
      <trkpt lat="43.19009" lon="5.72029">
        <ele>44</ele>
        <time>2016-05-16T16:55:29.000Z</time>
      </trkpt>
      <trkpt lat="43.19022" lon="5.72037">
        <ele>44.200000762939</ele>
        <time>2016-05-16T16:55:32.000Z</time>
      </trkpt>
      <trkpt lat="43.19026" lon="5.7204">
        <ele>44.200000762939</ele>
        <time>2016-05-16T16:55:33.000Z</time>
      </trkpt>
      <trkpt lat="43.19034" lon="5.72048">
        <ele>44.200000762939</ele>
        <time>2016-05-16T16:55:35.000Z</time>
      </trkpt>
      <trkpt lat="43.19049" lon="5.72065">
        <ele>44.599998474121</ele>
        <time>2016-05-16T16:55:39.000Z</time>
      </trkpt>
      <trkpt lat="43.19056" lon="5.72074">
        <ele>44.799999237061</ele>
        <time>2016-05-16T16:55:41.000Z</time>
      </trkpt>
      <trkpt lat="43.19071" lon="5.72093">
        <ele>45.200000762939</ele>
        <time>2016-05-16T16:55:45.000Z</time>
      </trkpt>
      <trkpt lat="43.19074" lon="5.72098">
        <ele>45.200000762939</ele>
        <time>2016-05-16T16:55:46.000Z</time>
      </trkpt>
      <trkpt lat="43.19078" lon="5.72104">
        <ele>45.400001525879</ele>
        <time>2016-05-16T16:55:47.000Z</time>
      </trkpt>
      <trkpt lat="43.19093" lon="5.72124">
        <ele>45.799999237061</ele>
        <time>2016-05-16T16:55:51.000Z</time>
      </trkpt>
      <trkpt lat="43.19105" lon="5.72139">
        <ele>46</ele>
        <time>2016-05-16T16:55:54.000Z</time>
      </trkpt>
      <trkpt lat="43.19117" lon="5.72155">
        <ele>46.400001525879</ele>
        <time>2016-05-16T16:55:57.000Z</time>
      </trkpt>
      <trkpt lat="43.1912" lon="5.7216">
        <ele>46.599998474121</ele>
        <time>2016-05-16T16:55:58.000Z</time>
      </trkpt>
      <trkpt lat="43.19135" lon="5.72182">
        <ele>47</ele>
        <time>2016-05-16T16:56:02.000Z</time>
      </trkpt>
      <trkpt lat="43.19138" lon="5.72188">
        <ele>47</ele>
        <time>2016-05-16T16:56:03.000Z</time>
      </trkpt>
      <trkpt lat="43.19148" lon="5.72212">
        <ele>47.200000762939</ele>
        <time>2016-05-16T16:56:07.000Z</time>
      </trkpt>
      <trkpt lat="43.19161" lon="5.72242">
        <ele>47</ele>
        <time>2016-05-16T16:56:12.000Z</time>
      </trkpt>
      <trkpt lat="43.19165" lon="5.72247">
        <ele>47</ele>
        <time>2016-05-16T16:56:13.000Z</time>
      </trkpt>
      <trkpt lat="43.19175" lon="5.72262">
        <ele>47</ele>
        <time>2016-05-16T16:56:16.000Z</time>
      </trkpt>
      <trkpt lat="43.19179" lon="5.72266">
        <ele>47</ele>
        <time>2016-05-16T16:56:17.000Z</time>
      </trkpt>
      <trkpt lat="43.19186" lon="5.72274">
        <ele>46.799999237061</ele>
        <time>2016-05-16T16:56:19.000Z</time>
      </trkpt>
      <trkpt lat="43.19211" lon="5.72291">
        <ele>46.599998474121</ele>
        <time>2016-05-16T16:56:25.000Z</time>
      </trkpt>
      <trkpt lat="43.19247" lon="5.7231">
        <ele>47</ele>
        <time>2016-05-16T16:56:33.000Z</time>
      </trkpt>
      <trkpt lat="43.19275" lon="5.72326">
        <ele>47.200000762939</ele>
        <time>2016-05-16T16:56:40.000Z</time>
      </trkpt>
      <trkpt lat="43.19291" lon="5.72351">
        <ele>47.599998474121</ele>
        <time>2016-05-16T16:56:45.000Z</time>
      </trkpt>
      <trkpt lat="43.19308" lon="5.72396">
        <ele>47.799999237061</ele>
        <time>2016-05-16T16:56:51.000Z</time>
      </trkpt>
      <trkpt lat="43.19321" lon="5.7243">
        <ele>47.400001525879</ele>
        <time>2016-05-16T16:56:56.000Z</time>
      </trkpt>
      <trkpt lat="43.19327" lon="5.72441">
        <ele>47.400001525879</ele>
        <time>2016-05-16T16:56:58.000Z</time>
      </trkpt>
      <trkpt lat="43.1933" lon="5.72446">
        <ele>47.200000762939</ele>
        <time>2016-05-16T16:56:59.000Z</time>
      </trkpt>
      <trkpt lat="43.19336" lon="5.72454">
        <ele>47.200000762939</ele>
        <time>2016-05-16T16:57:01.000Z</time>
      </trkpt>
      <trkpt lat="43.19346" lon="5.72466">
        <ele>47</ele>
        <time>2016-05-16T16:57:04.000Z</time>
      </trkpt>
      <trkpt lat="43.19375" lon="5.72508">
        <ele>48.200000762939</ele>
        <time>2016-05-16T16:57:13.000Z</time>
      </trkpt>
      <trkpt lat="43.19392" lon="5.72528">
        <ele>49</ele>
        <time>2016-05-16T16:57:18.000Z</time>
      </trkpt>
      <trkpt lat="43.19398" lon="5.72535">
        <ele>49.200000762939</ele>
        <time>2016-05-16T16:57:20.000Z</time>
      </trkpt>
      <trkpt lat="43.19409" lon="5.72545">
        <ele>49.599998474121</ele>
        <time>2016-05-16T16:57:23.000Z</time>
      </trkpt>
      <trkpt lat="43.1942" lon="5.72558">
        <ele>50</ele>
        <time>2016-05-16T16:57:26.000Z</time>
      </trkpt>
      <trkpt lat="43.19437" lon="5.72584">
        <ele>50.599998474121</ele>
        <time>2016-05-16T16:57:31.000Z</time>
      </trkpt>
      <trkpt lat="43.19444" lon="5.72592">
        <ele>50.799999237061</ele>
        <time>2016-05-16T16:57:33.000Z</time>
      </trkpt>
      <trkpt lat="43.19456" lon="5.72602">
        <ele>51.200000762939</ele>
        <time>2016-05-16T16:57:36.000Z</time>
      </trkpt>
      <trkpt lat="43.19467" lon="5.72613">
        <ele>51.599998474121</ele>
        <time>2016-05-16T16:57:39.000Z</time>
      </trkpt>
      <trkpt lat="43.19474" lon="5.7262">
        <ele>51.799999237061</ele>
        <time>2016-05-16T16:57:41.000Z</time>
      </trkpt>
      <trkpt lat="43.19489" lon="5.72633">
        <ele>52.400001525879</ele>
        <time>2016-05-16T16:57:45.000Z</time>
      </trkpt>
      <trkpt lat="43.19511" lon="5.72653">
        <ele>53.400001525879</ele>
        <time>2016-05-16T16:57:51.000Z</time>
      </trkpt>
      <trkpt lat="43.19515" lon="5.72656">
        <ele>53.599998474121</ele>
        <time>2016-05-16T16:57:52.000Z</time>
      </trkpt>
      <trkpt lat="43.19535" lon="5.72672">
        <ele>54.400001525879</ele>
        <time>2016-05-16T16:57:57.000Z</time>
      </trkpt>
      <trkpt lat="43.19542" lon="5.72679">
        <ele>54.799999237061</ele>
        <time>2016-05-16T16:57:59.000Z</time>
      </trkpt>
      <trkpt lat="43.19549" lon="5.72685">
        <ele>55</ele>
        <time>2016-05-16T16:58:01.000Z</time>
      </trkpt>
      <trkpt lat="43.19553" lon="5.72689">
        <ele>55.200000762939</ele>
        <time>2016-05-16T16:58:02.000Z</time>
      </trkpt>
      <trkpt lat="43.1956" lon="5.72694">
        <ele>55.599998474121</ele>
        <time>2016-05-16T16:58:04.000Z</time>
      </trkpt>
      <trkpt lat="43.19567" lon="5.72699">
        <ele>55.799999237061</ele>
        <time>2016-05-16T16:58:06.000Z</time>
      </trkpt>
      <trkpt lat="43.19574" lon="5.72704">
        <ele>56</ele>
        <time>2016-05-16T16:58:08.000Z</time>
      </trkpt>
      <trkpt lat="43.19585" lon="5.72712">
        <ele>56.599998474121</ele>
        <time>2016-05-16T16:58:11.000Z</time>
      </trkpt>
      <trkpt lat="43.19593" lon="5.72719">
        <ele>57</ele>
        <time>2016-05-16T16:58:13.000Z</time>
      </trkpt>
      <trkpt lat="43.19596" lon="5.72722">
        <ele>57.200000762939</ele>
        <time>2016-05-16T16:58:14.000Z</time>
      </trkpt>
      <trkpt lat="43.19613" lon="5.72739">
        <ele>58.400001525879</ele>
        <time>2016-05-16T16:58:19.000Z</time>
      </trkpt>
      <trkpt lat="43.1962" lon="5.72745">
        <ele>58.799999237061</ele>
        <time>2016-05-16T16:58:21.000Z</time>
      </trkpt>
      <trkpt lat="43.19623" lon="5.72748">
        <ele>59</ele>
        <time>2016-05-16T16:58:22.000Z</time>
      </trkpt>
      <trkpt lat="43.19635" lon="5.72758">
        <ele>59.799999237061</ele>
        <time>2016-05-16T16:58:25.000Z</time>
      </trkpt>
      <trkpt lat="43.19642" lon="5.72767">
        <ele>60.400001525879</ele>
        <time>2016-05-16T16:58:27.000Z</time>
      </trkpt>
      <trkpt lat="43.19656" lon="5.72783">
        <ele>61.400001525879</ele>
        <time>2016-05-16T16:58:31.000Z</time>
      </trkpt>
      <trkpt lat="43.19666" lon="5.72795">
        <ele>62.400001525879</ele>
        <time>2016-05-16T16:58:34.000Z</time>
      </trkpt>
      <trkpt lat="43.19669" lon="5.72799">
        <ele>62.599998474121</ele>
        <time>2016-05-16T16:58:35.000Z</time>
      </trkpt>
      <trkpt lat="43.19679" lon="5.72812">
        <ele>63.400001525879</ele>
        <time>2016-05-16T16:58:38.000Z</time>
      </trkpt>
      <trkpt lat="43.19685" lon="5.7282">
        <ele>63.599998474121</ele>
        <time>2016-05-16T16:58:40.000Z</time>
      </trkpt>
      <trkpt lat="43.19688" lon="5.72824">
        <ele>63.599998474121</ele>
        <time>2016-05-16T16:58:41.000Z</time>
      </trkpt>
      <trkpt lat="43.19691" lon="5.72827">
        <ele>63.599998474121</ele>
        <time>2016-05-16T16:58:42.000Z</time>
      </trkpt>
      <trkpt lat="43.19698" lon="5.72835">
        <ele>63.799999237061</ele>
        <time>2016-05-16T16:58:44.000Z</time>
      </trkpt>
      <trkpt lat="43.19701" lon="5.72839">
        <ele>63.799999237061</ele>
        <time>2016-05-16T16:58:45.000Z</time>
      </trkpt>
      <trkpt lat="43.19704" lon="5.72843">
        <ele>64</ele>
        <time>2016-05-16T16:58:46.000Z</time>
      </trkpt>
      <trkpt lat="43.19707" lon="5.72848">
        <ele>64</ele>
        <time>2016-05-16T16:58:47.000Z</time>
      </trkpt>
      <trkpt lat="43.1971" lon="5.72853">
        <ele>64.199996948242</ele>
        <time>2016-05-16T16:58:48.000Z</time>
      </trkpt>
      <trkpt lat="43.19718" lon="5.72868">
        <ele>64.599998474121</ele>
        <time>2016-05-16T16:58:51.000Z</time>
      </trkpt>
      <trkpt lat="43.19724" lon="5.72877">
        <ele>64.800003051758</ele>
        <time>2016-05-16T16:58:53.000Z</time>
      </trkpt>
      <trkpt lat="43.19735" lon="5.72895">
        <ele>65.400001525879</ele>
        <time>2016-05-16T16:58:57.000Z</time>
      </trkpt>
      <trkpt lat="43.19754" lon="5.72919">
        <ele>66.199996948242</ele>
        <time>2016-05-16T16:59:03.000Z</time>
      </trkpt>
      <trkpt lat="43.19761" lon="5.72926">
        <ele>66.400001525879</ele>
        <time>2016-05-16T16:59:05.000Z</time>
      </trkpt>
      <trkpt lat="43.19767" lon="5.72931">
        <ele>66.800003051758</ele>
        <time>2016-05-16T16:59:07.000Z</time>
      </trkpt>
      <trkpt lat="43.19774" lon="5.72937">
        <ele>67.199996948242</ele>
        <time>2016-05-16T16:59:09.000Z</time>
      </trkpt>
      <trkpt lat="43.19777" lon="5.7294">
        <ele>67.599998474121</ele>
        <time>2016-05-16T16:59:10.000Z</time>
      </trkpt>
      <trkpt lat="43.19783" lon="5.72948">
        <ele>68.199996948242</ele>
        <time>2016-05-16T16:59:12.000Z</time>
      </trkpt>
      <trkpt lat="43.19795" lon="5.72961">
        <ele>69.199996948242</ele>
        <time>2016-05-16T16:59:16.000Z</time>
      </trkpt>
      <trkpt lat="43.19804" lon="5.72972">
        <ele>70.199996948242</ele>
        <time>2016-05-16T16:59:19.000Z</time>
      </trkpt>
      <trkpt lat="43.19806" lon="5.72982">
        <ele>70.800003051758</ele>
        <time>2016-05-16T16:59:21.000Z</time>
      </trkpt>
      <trkpt lat="43.19805" lon="5.72993">
        <ele>71.400001525879</ele>
        <time>2016-05-16T16:59:23.000Z</time>
      </trkpt>
      <trkpt lat="43.19794" lon="5.73015">
        <ele>72.599998474121</ele>
        <time>2016-05-16T16:59:28.000Z</time>
      </trkpt>
      <trkpt lat="43.19792" lon="5.73019">
        <ele>72.800003051758</ele>
        <time>2016-05-16T16:59:29.000Z</time>
      </trkpt>
      <trkpt lat="43.19793" lon="5.73021">
        <ele>73</ele>
        <time>2016-05-16T16:59:30.000Z</time>
      </trkpt>
      <trkpt lat="43.19794" lon="5.73022">
        <ele>73.199996948242</ele>
        <time>2016-05-16T16:59:31.000Z</time>
      </trkpt>
      <trkpt lat="43.19797" lon="5.73023">
        <ele>73.199996948242</ele>
        <time>2016-05-16T16:59:33.000Z</time>
      </trkpt>
      <trkpt lat="43.19803" lon="5.73024">
        <ele>73.400001525879</ele>
        <time>2016-05-16T16:59:35.000Z</time>
      </trkpt>
      <trkpt lat="43.1981" lon="5.73025">
        <ele>73.599998474121</ele>
        <time>2016-05-16T16:59:37.000Z</time>
      </trkpt>
      <trkpt lat="43.19828" lon="5.73031">
        <ele>74.199996948242</ele>
        <time>2016-05-16T16:59:40.000Z</time>
      </trkpt>
      <trkpt lat="43.19835" lon="5.73035">
        <ele>74.599998474121</ele>
        <time>2016-05-16T16:59:41.000Z</time>
      </trkpt>
      <trkpt lat="43.19855" lon="5.73044">
        <ele>75.199996948242</ele>
        <time>2016-05-16T16:59:44.000Z</time>
      </trkpt>
      <trkpt lat="43.1986" lon="5.73046">
        <ele>75.199996948242</ele>
        <time>2016-05-16T16:59:45.000Z</time>
      </trkpt>
      <trkpt lat="43.19869" lon="5.73051">
        <ele>75.199996948242</ele>
        <time>2016-05-16T16:59:47.000Z</time>
      </trkpt>
      <trkpt lat="43.19878" lon="5.73056">
        <ele>75.400001525879</ele>
        <time>2016-05-16T16:59:49.000Z</time>
      </trkpt>
      <trkpt lat="43.19892" lon="5.73065">
        <ele>75.599998474121</ele>
        <time>2016-05-16T16:59:52.000Z</time>
      </trkpt>
      <trkpt lat="43.19898" lon="5.73067">
        <ele>75.599998474121</ele>
        <time>2016-05-16T16:59:53.000Z</time>
      </trkpt>
      <trkpt lat="43.19903" lon="5.7307">
        <ele>75.800003051758</ele>
        <time>2016-05-16T16:59:54.000Z</time>
      </trkpt>
      <trkpt lat="43.19918" lon="5.73076">
        <ele>75.800003051758</ele>
        <time>2016-05-16T16:59:57.000Z</time>
      </trkpt>
      <trkpt lat="43.19928" lon="5.73079">
        <ele>75.800003051758</ele>
        <time>2016-05-16T16:59:59.000Z</time>
      </trkpt>
      <trkpt lat="43.19943" lon="5.73082">
        <ele>76.400001525879</ele>
        <time>2016-05-16T17:00:02.000Z</time>
      </trkpt>
      <trkpt lat="43.19953" lon="5.73084">
        <ele>76.800003051758</ele>
        <time>2016-05-16T17:00:04.000Z</time>
      </trkpt>
      <trkpt lat="43.19958" lon="5.73085">
        <ele>77</ele>
        <time>2016-05-16T17:00:05.000Z</time>
      </trkpt>
      <trkpt lat="43.19963" lon="5.73086">
        <ele>77.199996948242</ele>
        <time>2016-05-16T17:00:06.000Z</time>
      </trkpt>
      <trkpt lat="43.19973" lon="5.73087">
        <ele>77.400001525879</ele>
        <time>2016-05-16T17:00:08.000Z</time>
      </trkpt>
      <trkpt lat="43.19981" lon="5.73089">
        <ele>77.599998474121</ele>
        <time>2016-05-16T17:00:10.000Z</time>
      </trkpt>
      <trkpt lat="43.20004" lon="5.73096">
        <ele>78.400001525879</ele>
        <time>2016-05-16T17:00:15.000Z</time>
      </trkpt>
      <trkpt lat="43.20012" lon="5.73101">
        <ele>79</ele>
        <time>2016-05-16T17:00:17.000Z</time>
      </trkpt>
      <trkpt lat="43.2002" lon="5.73109">
        <ele>79.599998474121</ele>
        <time>2016-05-16T17:00:19.000Z</time>
      </trkpt>
      <trkpt lat="43.20023" lon="5.73114">
        <ele>79.800003051758</ele>
        <time>2016-05-16T17:00:20.000Z</time>
      </trkpt>
      <trkpt lat="43.20037" lon="5.73132">
        <ele>81.199996948242</ele>
        <time>2016-05-16T17:00:24.000Z</time>
      </trkpt>
      <trkpt lat="43.20043" lon="5.73141">
        <ele>81.800003051758</ele>
        <time>2016-05-16T17:00:26.000Z</time>
      </trkpt>
      <trkpt lat="43.20054" lon="5.73161">
        <ele>82.599998474121</ele>
        <time>2016-05-16T17:00:30.000Z</time>
      </trkpt>
      <trkpt lat="43.20061" lon="5.73173">
        <ele>83.199996948242</ele>
        <time>2016-05-16T17:00:33.000Z</time>
      </trkpt>
      <trkpt lat="43.20067" lon="5.73188">
        <ele>83.800003051758</ele>
        <time>2016-05-16T17:00:36.000Z</time>
      </trkpt>
      <trkpt lat="43.20073" lon="5.73208">
        <ele>85.199996948242</ele>
        <time>2016-05-16T17:00:39.000Z</time>
      </trkpt>
      <trkpt lat="43.20075" lon="5.73214">
        <ele>85.599998474121</ele>
        <time>2016-05-16T17:00:40.000Z</time>
      </trkpt>
      <trkpt lat="43.20085" lon="5.7324">
        <ele>86.599998474121</ele>
        <time>2016-05-16T17:00:44.000Z</time>
      </trkpt>
      <trkpt lat="43.20088" lon="5.73246">
        <ele>86.800003051758</ele>
        <time>2016-05-16T17:00:45.000Z</time>
      </trkpt>
      <trkpt lat="43.20093" lon="5.73258">
        <ele>87</ele>
        <time>2016-05-16T17:00:47.000Z</time>
      </trkpt>
      <trkpt lat="43.20103" lon="5.73283">
        <ele>87.599998474121</ele>
        <time>2016-05-16T17:00:51.000Z</time>
      </trkpt>
      <trkpt lat="43.20115" lon="5.73315">
        <ele>88.400001525879</ele>
        <time>2016-05-16T17:00:56.000Z</time>
      </trkpt>
      <trkpt lat="43.20122" lon="5.73334">
        <ele>88.800003051758</ele>
        <time>2016-05-16T17:00:59.000Z</time>
      </trkpt>
      <trkpt lat="43.20125" lon="5.73341">
        <ele>89</ele>
        <time>2016-05-16T17:01:00.000Z</time>
      </trkpt>
      <trkpt lat="43.20132" lon="5.7336">
        <ele>89.800003051758</ele>
        <time>2016-05-16T17:01:03.000Z</time>
      </trkpt>
      <trkpt lat="43.20134" lon="5.73367">
        <ele>90</ele>
        <time>2016-05-16T17:01:04.000Z</time>
      </trkpt>
      <trkpt lat="43.20139" lon="5.73389">
        <ele>90.800003051758</ele>
        <time>2016-05-16T17:01:07.000Z</time>
      </trkpt>
      <trkpt lat="43.20144" lon="5.7341">
        <ele>91.599998474121</ele>
        <time>2016-05-16T17:01:10.000Z</time>
      </trkpt>
      <trkpt lat="43.20146" lon="5.73416">
        <ele>91.800003051758</ele>
        <time>2016-05-16T17:01:11.000Z</time>
      </trkpt>
      <trkpt lat="43.2015" lon="5.73436">
        <ele>92.400001525879</ele>
        <time>2016-05-16T17:01:14.000Z</time>
      </trkpt>
      <trkpt lat="43.20154" lon="5.73455">
        <ele>93.199996948242</ele>
        <time>2016-05-16T17:01:17.000Z</time>
      </trkpt>
      <trkpt lat="43.20158" lon="5.73468">
        <ele>93.800003051758</ele>
        <time>2016-05-16T17:01:19.000Z</time>
      </trkpt>
      <trkpt lat="43.20167" lon="5.73496">
        <ele>94.599998474121</ele>
        <time>2016-05-16T17:01:23.000Z</time>
      </trkpt>
      <trkpt lat="43.20181" lon="5.73538">
        <ele>95.800003051758</ele>
        <time>2016-05-16T17:01:28.000Z</time>
      </trkpt>
      <trkpt lat="43.20195" lon="5.7358">
        <ele>96.599998474121</ele>
        <time>2016-05-16T17:01:33.000Z</time>
      </trkpt>
      <trkpt lat="43.20202" lon="5.73598">
        <ele>96.599998474121</ele>
        <time>2016-05-16T17:01:35.000Z</time>
      </trkpt>
      <trkpt lat="43.20219" lon="5.73664">
        <ele>97.800003051758</ele>
        <time>2016-05-16T17:01:42.000Z</time>
      </trkpt>
      <trkpt lat="43.20223" lon="5.73697">
        <ele>98.800003051758</ele>
        <time>2016-05-16T17:01:46.000Z</time>
      </trkpt>
      <trkpt lat="43.20224" lon="5.73719">
        <ele>99.199996948242</ele>
        <time>2016-05-16T17:01:49.000Z</time>
      </trkpt>
      <trkpt lat="43.20225" lon="5.73768">
        <ele>99.800003051758</ele>
        <time>2016-05-16T17:01:56.000Z</time>
      </trkpt>
      <trkpt lat="43.20226" lon="5.73781">
        <ele>99.599998474121</ele>
        <time>2016-05-16T17:01:58.000Z</time>
      </trkpt>
      <trkpt lat="43.20227" lon="5.73822">
        <ele>99.199996948242</ele>
        <time>2016-05-16T17:02:04.000Z</time>
      </trkpt>
      <trkpt lat="43.20228" lon="5.73828">
        <ele>99.199996948242</ele>
        <time>2016-05-16T17:02:05.000Z</time>
      </trkpt>
      <trkpt lat="43.20231" lon="5.73861">
        <ele>99.199996948242</ele>
        <time>2016-05-16T17:02:10.000Z</time>
      </trkpt>
      <trkpt lat="43.20232" lon="5.73868">
        <ele>99.400001525879</ele>
        <time>2016-05-16T17:02:11.000Z</time>
      </trkpt>
      <trkpt lat="43.20236" lon="5.73913">
        <ele>99.800003051758</ele>
        <time>2016-05-16T17:02:18.000Z</time>
      </trkpt>
      <trkpt lat="43.20241" lon="5.7396">
        <ele>99.599998474121</ele>
        <time>2016-05-16T17:02:25.000Z</time>
      </trkpt>
      <trkpt lat="43.20243" lon="5.73995">
        <ele>99.199996948242</ele>
        <time>2016-05-16T17:02:30.000Z</time>
      </trkpt>
      <trkpt lat="43.20242" lon="5.74034">
        <ele>98.800003051758</ele>
        <time>2016-05-16T17:02:35.000Z</time>
      </trkpt>
      <trkpt lat="43.2024" lon="5.74113">
        <ele>97.400001525879</ele>
        <time>2016-05-16T17:02:44.000Z</time>
      </trkpt>
      <trkpt lat="43.20231" lon="5.74178">
        <ele>97</ele>
        <time>2016-05-16T17:02:52.000Z</time>
      </trkpt>
      <trkpt lat="43.20212" lon="5.74242">
        <ele>96.400001525879</ele>
        <time>2016-05-16T17:03:01.000Z</time>
      </trkpt>
      <trkpt lat="43.2021" lon="5.7425">
        <ele>96.400001525879</ele>
        <time>2016-05-16T17:03:02.000Z</time>
      </trkpt>
      <trkpt lat="43.20198" lon="5.7429">
        <ele>96.199996948242</ele>
        <time>2016-05-16T17:03:07.000Z</time>
      </trkpt>
      <trkpt lat="43.2018" lon="5.74346">
        <ele>95.400001525879</ele>
        <time>2016-05-16T17:03:14.000Z</time>
      </trkpt>
      <trkpt lat="43.20171" lon="5.74368">
        <ele>95.199996948242</ele>
        <time>2016-05-16T17:03:17.000Z</time>
      </trkpt>
      <trkpt lat="43.20165" lon="5.74383">
        <ele>95</ele>
        <time>2016-05-16T17:03:19.000Z</time>
      </trkpt>
      <trkpt lat="43.20147" lon="5.74426">
        <ele>94.800003051758</ele>
        <time>2016-05-16T17:03:25.000Z</time>
      </trkpt>
      <trkpt lat="43.20128" lon="5.74473">
        <ele>95.800003051758</ele>
        <time>2016-05-16T17:03:32.000Z</time>
      </trkpt>
      <trkpt lat="43.20111" lon="5.74503">
        <ele>96.400001525879</ele>
        <time>2016-05-16T17:03:37.000Z</time>
      </trkpt>
      <trkpt lat="43.20092" lon="5.74529">
        <ele>97.199996948242</ele>
        <time>2016-05-16T17:03:42.000Z</time>
      </trkpt>
      <trkpt lat="43.20089" lon="5.74534">
        <ele>97.599998474121</ele>
        <time>2016-05-16T17:03:43.000Z</time>
      </trkpt>
      <trkpt lat="43.20075" lon="5.74552">
        <ele>99</ele>
        <time>2016-05-16T17:03:47.000Z</time>
      </trkpt>
      <trkpt lat="43.20071" lon="5.74556">
        <ele>99.400001525879</ele>
        <time>2016-05-16T17:03:48.000Z</time>
      </trkpt>
      <trkpt lat="43.2005" lon="5.74585">
        <ele>101.59999847412</ele>
        <time>2016-05-16T17:03:54.000Z</time>
      </trkpt>
      <trkpt lat="43.20047" lon="5.74589">
        <ele>102</ele>
        <time>2016-05-16T17:03:55.000Z</time>
      </trkpt>
      <trkpt lat="43.20029" lon="5.74613">
        <ele>102.59999847412</ele>
        <time>2016-05-16T17:04:00.000Z</time>
      </trkpt>
      <trkpt lat="43.20026" lon="5.74618">
        <ele>102.59999847412</ele>
        <time>2016-05-16T17:04:01.000Z</time>
      </trkpt>
      <trkpt lat="43.20015" lon="5.74632">
        <ele>103</ele>
        <time>2016-05-16T17:04:04.000Z</time>
      </trkpt>
      <trkpt lat="43.2" lon="5.74652">
        <ele>105.19999694824</ele>
        <time>2016-05-16T17:04:08.000Z</time>
      </trkpt>
      <trkpt lat="43.19986" lon="5.74672">
        <ele>107.40000152588</ele>
        <time>2016-05-16T17:04:12.000Z</time>
      </trkpt>
      <trkpt lat="43.1998" lon="5.74683">
        <ele>108.40000152588</ele>
        <time>2016-05-16T17:04:14.000Z</time>
      </trkpt>
      <trkpt lat="43.19974" lon="5.74695">
        <ele>109</ele>
        <time>2016-05-16T17:04:16.000Z</time>
      </trkpt>
      <trkpt lat="43.19967" lon="5.74712">
        <ele>109.59999847412</ele>
        <time>2016-05-16T17:04:19.000Z</time>
      </trkpt>
      <trkpt lat="43.19964" lon="5.74717">
        <ele>109.59999847412</ele>
        <time>2016-05-16T17:04:20.000Z</time>
      </trkpt>
      <trkpt lat="43.19959" lon="5.74728">
        <ele>110.19999694824</ele>
        <time>2016-05-16T17:04:22.000Z</time>
      </trkpt>
      <trkpt lat="43.19946" lon="5.74757">
        <ele>111.40000152588</ele>
        <time>2016-05-16T17:04:27.000Z</time>
      </trkpt>
      <trkpt lat="43.19932" lon="5.74785">
        <ele>112.19999694824</ele>
        <time>2016-05-16T17:04:32.000Z</time>
      </trkpt>
      <trkpt lat="43.1993" lon="5.7479">
        <ele>112.40000152588</ele>
        <time>2016-05-16T17:04:33.000Z</time>
      </trkpt>
      <trkpt lat="43.1992" lon="5.74813">
        <ele>114.59999847412</ele>
        <time>2016-05-16T17:04:37.000Z</time>
      </trkpt>
      <trkpt lat="43.19918" lon="5.74819">
        <ele>115.19999694824</ele>
        <time>2016-05-16T17:04:38.000Z</time>
      </trkpt>
      <trkpt lat="43.19907" lon="5.7484">
        <ele>118.40000152588</ele>
        <time>2016-05-16T17:04:42.000Z</time>
      </trkpt>
      <trkpt lat="43.199" lon="5.74856">
        <ele>120.59999847412</ele>
        <time>2016-05-16T17:04:45.000Z</time>
      </trkpt>
      <trkpt lat="43.19895" lon="5.74867">
        <ele>122</ele>
        <time>2016-05-16T17:04:47.000Z</time>
      </trkpt>
      <trkpt lat="43.19887" lon="5.74889">
        <ele>124.19999694824</ele>
        <time>2016-05-16T17:04:51.000Z</time>
      </trkpt>
      <trkpt lat="43.19882" lon="5.74906">
        <ele>125.80000305176</ele>
        <time>2016-05-16T17:04:54.000Z</time>
      </trkpt>
      <trkpt lat="43.19881" lon="5.74912">
        <ele>126.40000152588</ele>
        <time>2016-05-16T17:04:55.000Z</time>
      </trkpt>
      <trkpt lat="43.19877" lon="5.74937">
        <ele>128.39999389648</ele>
        <time>2016-05-16T17:04:59.000Z</time>
      </trkpt>
      <trkpt lat="43.19876" lon="5.74943">
        <ele>128.60000610352</ele>
        <time>2016-05-16T17:05:00.000Z</time>
      </trkpt>
      <trkpt lat="43.19876" lon="5.74967">
        <ele>129.80000305176</ele>
        <time>2016-05-16T17:05:04.000Z</time>
      </trkpt>
      <trkpt lat="43.19876" lon="5.74987">
        <ele>129.60000610352</ele>
        <time>2016-05-16T17:05:07.000Z</time>
      </trkpt>
      <trkpt lat="43.19876" lon="5.75001">
        <ele>129.60000610352</ele>
        <time>2016-05-16T17:05:09.000Z</time>
      </trkpt>
      <trkpt lat="43.19875" lon="5.75026">
        <ele>131.60000610352</ele>
        <time>2016-05-16T17:05:13.000Z</time>
      </trkpt>
      <trkpt lat="43.19875" lon="5.7504">
        <ele>132.80000305176</ele>
        <time>2016-05-16T17:05:15.000Z</time>
      </trkpt>
      <trkpt lat="43.19874" lon="5.7506">
        <ele>134</ele>
        <time>2016-05-16T17:05:18.000Z</time>
      </trkpt>
      <trkpt lat="43.19874" lon="5.75086">
        <ele>135</ele>
        <time>2016-05-16T17:05:22.000Z</time>
      </trkpt>
      <trkpt lat="43.19873" lon="5.75093">
        <ele>135.39999389648</ele>
        <time>2016-05-16T17:05:23.000Z</time>
      </trkpt>
      <trkpt lat="43.19873" lon="5.75107">
        <ele>135.80000305176</ele>
        <time>2016-05-16T17:05:25.000Z</time>
      </trkpt>
      <trkpt lat="43.19872" lon="5.75127">
        <ele>136.80000305176</ele>
        <time>2016-05-16T17:05:28.000Z</time>
      </trkpt>
      <trkpt lat="43.19871" lon="5.75139">
        <ele>137.39999389648</ele>
        <time>2016-05-16T17:05:30.000Z</time>
      </trkpt>
      <trkpt lat="43.19871" lon="5.75146">
        <ele>137.39999389648</ele>
        <time>2016-05-16T17:05:31.000Z</time>
      </trkpt>
      <trkpt lat="43.1987" lon="5.75152">
        <ele>137.60000610352</ele>
        <time>2016-05-16T17:05:32.000Z</time>
      </trkpt>
      <trkpt lat="43.19867" lon="5.75172">
        <ele>138</ele>
        <time>2016-05-16T17:05:35.000Z</time>
      </trkpt>
      <trkpt lat="43.19866" lon="5.75179">
        <ele>138</ele>
        <time>2016-05-16T17:05:36.000Z</time>
      </trkpt>
      <trkpt lat="43.19863" lon="5.75196">
        <ele>138</ele>
        <time>2016-05-16T17:05:39.000Z</time>
      </trkpt>
      <trkpt lat="43.19861" lon="5.75209">
        <ele>138</ele>
        <time>2016-05-16T17:05:41.000Z</time>
      </trkpt>
      <trkpt lat="43.19859" lon="5.75223">
        <ele>138.39999389648</ele>
        <time>2016-05-16T17:05:43.000Z</time>
      </trkpt>
      <trkpt lat="43.19854" lon="5.75241">
        <ele>139.19999694824</ele>
        <time>2016-05-16T17:05:46.000Z</time>
      </trkpt>
      <trkpt lat="43.19852" lon="5.75247">
        <ele>139.39999389648</ele>
        <time>2016-05-16T17:05:47.000Z</time>
      </trkpt>
      <trkpt lat="43.19845" lon="5.75265">
        <ele>140.80000305176</ele>
        <time>2016-05-16T17:05:50.000Z</time>
      </trkpt>
      <trkpt lat="43.19839" lon="5.75283">
        <ele>142</ele>
        <time>2016-05-16T17:05:53.000Z</time>
      </trkpt>
      <trkpt lat="43.19836" lon="5.75294">
        <ele>142.80000305176</ele>
        <time>2016-05-16T17:05:55.000Z</time>
      </trkpt>
      <trkpt lat="43.19829" lon="5.75312">
        <ele>144</ele>
        <time>2016-05-16T17:05:58.000Z</time>
      </trkpt>
      <trkpt lat="43.19827" lon="5.75317">
        <ele>144.19999694824</ele>
        <time>2016-05-16T17:05:59.000Z</time>
      </trkpt>
      <trkpt lat="43.19826" lon="5.75323">
        <ele>144</ele>
        <time>2016-05-16T17:06:00.000Z</time>
      </trkpt>
      <trkpt lat="43.1982" lon="5.7534">
        <ele>144.19999694824</ele>
        <time>2016-05-16T17:06:03.000Z</time>
      </trkpt>
      <trkpt lat="43.19817" lon="5.75352">
        <ele>144.19999694824</ele>
        <time>2016-05-16T17:06:05.000Z</time>
      </trkpt>
      <trkpt lat="43.19808" lon="5.75381">
        <ele>144.60000610352</ele>
        <time>2016-05-16T17:06:10.000Z</time>
      </trkpt>
      <trkpt lat="43.19805" lon="5.75392">
        <ele>144.60000610352</ele>
        <time>2016-05-16T17:06:12.000Z</time>
      </trkpt>
      <trkpt lat="43.198" lon="5.7541">
        <ele>144.60000610352</ele>
        <time>2016-05-16T17:06:16.000Z</time>
      </trkpt>
      <trkpt lat="43.19797" lon="5.75418">
        <ele>144.80000305176</ele>
        <time>2016-05-16T17:06:18.000Z</time>
      </trkpt>
      <trkpt lat="43.19789" lon="5.75442">
        <ele>145.39999389648</ele>
        <time>2016-05-16T17:06:24.000Z</time>
      </trkpt>
      <trkpt lat="43.19786" lon="5.75451">
        <ele>145.80000305176</ele>
        <time>2016-05-16T17:06:26.000Z</time>
      </trkpt>
      <trkpt lat="43.19776" lon="5.75475">
        <ele>147.19999694824</ele>
        <time>2016-05-16T17:06:31.000Z</time>
      </trkpt>
      <trkpt lat="43.1977" lon="5.75489">
        <ele>148</ele>
        <time>2016-05-16T17:06:34.000Z</time>
      </trkpt>
      <trkpt lat="43.19765" lon="5.75504">
        <ele>147.80000305176</ele>
        <time>2016-05-16T17:06:37.000Z</time>
      </trkpt>
      <trkpt lat="43.19759" lon="5.75525">
        <ele>146.80000305176</ele>
        <time>2016-05-16T17:06:41.000Z</time>
      </trkpt>
      <trkpt lat="43.19755" lon="5.75536">
        <ele>145.80000305176</ele>
        <time>2016-05-16T17:06:43.000Z</time>
      </trkpt>
      <trkpt lat="43.1975" lon="5.75555">
        <ele>145.39999389648</ele>
        <time>2016-05-16T17:06:47.000Z</time>
      </trkpt>
      <trkpt lat="43.19746" lon="5.75573">
        <ele>144.19999694824</ele>
        <time>2016-05-16T17:06:50.000Z</time>
      </trkpt>
      <trkpt lat="43.19743" lon="5.75588">
        <ele>143.19999694824</ele>
        <time>2016-05-16T17:06:52.000Z</time>
      </trkpt>
      <trkpt lat="43.19736" lon="5.7562">
        <ele>141.80000305176</ele>
        <time>2016-05-16T17:06:56.000Z</time>
      </trkpt>
      <trkpt lat="43.19732" lon="5.75635">
        <ele>141.80000305176</ele>
        <time>2016-05-16T17:06:58.000Z</time>
      </trkpt>
      <trkpt lat="43.19729" lon="5.75649">
        <ele>142</ele>
        <time>2016-05-16T17:07:00.000Z</time>
      </trkpt>
      <trkpt lat="43.19724" lon="5.7567">
        <ele>142.39999389648</ele>
        <time>2016-05-16T17:07:03.000Z</time>
      </trkpt>
      <trkpt lat="43.1972" lon="5.75685">
        <ele>142.19999694824</ele>
        <time>2016-05-16T17:07:05.000Z</time>
      </trkpt>
      <trkpt lat="43.19716" lon="5.75699">
        <ele>142</ele>
        <time>2016-05-16T17:07:07.000Z</time>
      </trkpt>
      <trkpt lat="43.19712" lon="5.75714">
        <ele>141.60000610352</ele>
        <time>2016-05-16T17:07:09.000Z</time>
      </trkpt>
      <trkpt lat="43.19708" lon="5.75731">
        <ele>140.80000305176</ele>
        <time>2016-05-16T17:07:12.000Z</time>
      </trkpt>
      <trkpt lat="43.19705" lon="5.75744">
        <ele>140</ele>
        <time>2016-05-16T17:07:16.000Z</time>
      </trkpt>
      <trkpt lat="43.19705" lon="5.75748">
        <ele>139.80000305176</ele>
        <time>2016-05-16T17:07:17.000Z</time>
      </trkpt>
      <trkpt lat="43.19699" lon="5.75763">
        <ele>138.80000305176</ele>
        <time>2016-05-16T17:07:20.000Z</time>
      </trkpt>
      <trkpt lat="43.19693" lon="5.75769">
        <ele>139.19999694824</ele>
        <time>2016-05-16T17:07:21.000Z</time>
      </trkpt>
      <trkpt lat="43.19679" lon="5.75789">
        <ele>139.19999694824</ele>
        <time>2016-05-16T17:07:24.000Z</time>
      </trkpt>
      <trkpt lat="43.19671" lon="5.75801">
        <ele>137</ele>
        <time>2016-05-16T17:07:26.000Z</time>
      </trkpt>
      <trkpt lat="43.19668" lon="5.75806">
        <ele>136.39999389648</ele>
        <time>2016-05-16T17:07:27.000Z</time>
      </trkpt>
      <trkpt lat="43.19666" lon="5.75809">
        <ele>136</ele>
        <time>2016-05-16T17:07:28.000Z</time>
      </trkpt>
      <trkpt lat="43.19662" lon="5.75811">
        <ele>135.80000305176</ele>
        <time>2016-05-16T17:07:29.000Z</time>
      </trkpt>
      <trkpt lat="43.19659" lon="5.75811">
        <ele>135.60000610352</ele>
        <time>2016-05-16T17:07:30.000Z</time>
      </trkpt>
      <trkpt lat="43.19655" lon="5.75808">
        <ele>135.60000610352</ele>
        <time>2016-05-16T17:07:31.000Z</time>
      </trkpt>
      <trkpt lat="43.19651" lon="5.758">
        <ele>136</ele>
        <time>2016-05-16T17:07:33.000Z</time>
      </trkpt>
      <trkpt lat="43.19648" lon="5.75796">
        <ele>136.39999389648</ele>
        <time>2016-05-16T17:07:34.000Z</time>
      </trkpt>
      <trkpt lat="43.19633" lon="5.7577">
        <ele>138</ele>
        <time>2016-05-16T17:07:40.000Z</time>
      </trkpt>
      <trkpt lat="43.1963" lon="5.75767">
        <ele>138.39999389648</ele>
        <time>2016-05-16T17:07:41.000Z</time>
      </trkpt>
      <trkpt lat="43.19612" lon="5.7574">
        <ele>140</ele>
        <time>2016-05-16T17:07:49.000Z</time>
      </trkpt>
      <trkpt lat="43.19605" lon="5.7573">
        <ele>140.60000610352</ele>
        <time>2016-05-16T17:07:56.000Z</time>
      </trkpt>
      <trkpt lat="43.19592" lon="5.75741">
        <ele>138.39999389648</ele>
        <time>2016-05-16T17:08:04.000Z</time>
      </trkpt>
    </trkseg>
  </trk>
</gpx>